<?xml version="1.0" encoding="UTF-8" standalone="no" ?>
<gpx xmlns="http://www.topografix.com/GPX/1/1" xmlns:xsi="http://www.w3.org/2001/XMLSchema-instance" xsi:schemaLocation="http://www.topografix.com/GPX/1/1 http://www.topografix.com/GPX/1/1/gpx.xsd" version="1.1" creator="VisuGPX - https://www.visugpx.com">
  <metadata>
    <name>ski rando gr lance,croix belledonne,gr lauziere,gr colon</name>
    <desc><![CDATA[
]]></desc>
  </metadata>
  <trk>
    <name><![CDATA[ski rando gr lance,croix belledonne,gr lauziere,gr colon]]></name>
    <trkseg>
      <trkpt lat="45.18105" lon="5.90954">
        <ele>1334</ele>
        <time>2012-03-31T04:59:40.000Z</time>
      </trkpt>
      <trkpt lat="45.1812" lon="5.90963">
        <ele>1337.4000244141</ele>
        <time>2012-03-31T05:08:42.000Z</time>
      </trkpt>
      <trkpt lat="45.18127" lon="5.90963">
        <ele>1337.8000488281</ele>
        <time>2012-03-31T05:08:50.000Z</time>
      </trkpt>
      <trkpt lat="45.18129" lon="5.90964">
        <ele>1338</ele>
        <time>2012-03-31T05:08:52.000Z</time>
      </trkpt>
      <trkpt lat="45.18138" lon="5.90971">
        <ele>1339.4000244141</ele>
        <time>2012-03-31T05:09:01.000Z</time>
      </trkpt>
      <trkpt lat="45.18144" lon="5.90974">
        <ele>1339.5999755859</ele>
        <time>2012-03-31T05:09:06.000Z</time>
      </trkpt>
      <trkpt lat="45.18149" lon="5.90973">
        <ele>1340</ele>
        <time>2012-03-31T05:09:12.000Z</time>
      </trkpt>
      <trkpt lat="45.1816" lon="5.90974">
        <ele>1341</ele>
        <time>2012-03-31T05:09:20.000Z</time>
      </trkpt>
      <trkpt lat="45.18167" lon="5.9098">
        <ele>1341.4000244141</ele>
        <time>2012-03-31T05:09:26.000Z</time>
      </trkpt>
      <trkpt lat="45.18176" lon="5.90984">
        <ele>1342</ele>
        <time>2012-03-31T05:09:33.000Z</time>
      </trkpt>
      <trkpt lat="45.18186" lon="5.90986">
        <ele>1343</ele>
        <time>2012-03-31T05:09:40.000Z</time>
      </trkpt>
      <trkpt lat="45.18187" lon="5.90986">
        <ele>1343.1999511719</ele>
        <time>2012-03-31T05:09:41.000Z</time>
      </trkpt>
      <trkpt lat="45.18193" lon="5.90989">
        <ele>1343.8000488281</ele>
        <time>2012-03-31T05:09:47.000Z</time>
      </trkpt>
      <trkpt lat="45.182" lon="5.90993">
        <ele>1344.5999755859</ele>
        <time>2012-03-31T05:09:53.000Z</time>
      </trkpt>
      <trkpt lat="45.18206" lon="5.90997">
        <ele>1345.1999511719</ele>
        <time>2012-03-31T05:09:58.000Z</time>
      </trkpt>
      <trkpt lat="45.18212" lon="5.91006">
        <ele>1346</ele>
        <time>2012-03-31T05:10:04.000Z</time>
      </trkpt>
      <trkpt lat="45.18218" lon="5.91012">
        <ele>1346.4000244141</ele>
        <time>2012-03-31T05:10:10.000Z</time>
      </trkpt>
      <trkpt lat="45.18223" lon="5.91017">
        <ele>1347</ele>
        <time>2012-03-31T05:10:16.000Z</time>
      </trkpt>
      <trkpt lat="45.18229" lon="5.91021">
        <ele>1347.5999755859</ele>
        <time>2012-03-31T05:10:22.000Z</time>
      </trkpt>
      <trkpt lat="45.1823" lon="5.91022">
        <ele>1347.8000488281</ele>
        <time>2012-03-31T05:10:23.000Z</time>
      </trkpt>
      <trkpt lat="45.18237" lon="5.91028">
        <ele>1348.8000488281</ele>
        <time>2012-03-31T05:10:30.000Z</time>
      </trkpt>
      <trkpt lat="45.1824" lon="5.9103">
        <ele>1349</ele>
        <time>2012-03-31T05:10:32.000Z</time>
      </trkpt>
      <trkpt lat="45.18246" lon="5.91036">
        <ele>1350</ele>
        <time>2012-03-31T05:10:38.000Z</time>
      </trkpt>
      <trkpt lat="45.18253" lon="5.91046">
        <ele>1350.8000488281</ele>
        <time>2012-03-31T05:10:44.000Z</time>
      </trkpt>
      <trkpt lat="45.1826" lon="5.91054">
        <ele>1351</ele>
        <time>2012-03-31T05:10:50.000Z</time>
      </trkpt>
      <trkpt lat="45.18264" lon="5.9106">
        <ele>1351.8000488281</ele>
        <time>2012-03-31T05:10:55.000Z</time>
      </trkpt>
      <trkpt lat="45.18269" lon="5.91068">
        <ele>1352.5999755859</ele>
        <time>2012-03-31T05:11:02.000Z</time>
      </trkpt>
      <trkpt lat="45.18271" lon="5.91069">
        <ele>1353</ele>
        <time>2012-03-31T05:11:04.000Z</time>
      </trkpt>
      <trkpt lat="45.18279" lon="5.91073">
        <ele>1353.4000244141</ele>
        <time>2012-03-31T05:11:10.000Z</time>
      </trkpt>
      <trkpt lat="45.18289" lon="5.91079">
        <ele>1354.4000244141</ele>
        <time>2012-03-31T05:11:17.000Z</time>
      </trkpt>
      <trkpt lat="45.18292" lon="5.91083">
        <ele>1354.5999755859</ele>
        <time>2012-03-31T05:11:21.000Z</time>
      </trkpt>
      <trkpt lat="45.18297" lon="5.91087">
        <ele>1355.1999511719</ele>
        <time>2012-03-31T05:11:26.000Z</time>
      </trkpt>
      <trkpt lat="45.18307" lon="5.91095">
        <ele>1356</ele>
        <time>2012-03-31T05:11:33.000Z</time>
      </trkpt>
      <trkpt lat="45.18313" lon="5.91105">
        <ele>1356.5999755859</ele>
        <time>2012-03-31T05:11:40.000Z</time>
      </trkpt>
      <trkpt lat="45.18318" lon="5.91108">
        <ele>1357</ele>
        <time>2012-03-31T05:11:45.000Z</time>
      </trkpt>
      <trkpt lat="45.1832" lon="5.91106">
        <ele>1357.4000244141</ele>
        <time>2012-03-31T05:11:47.000Z</time>
      </trkpt>
      <trkpt lat="45.18328" lon="5.91109">
        <ele>1358.4000244141</ele>
        <time>2012-03-31T05:11:55.000Z</time>
      </trkpt>
      <trkpt lat="45.18329" lon="5.91109">
        <ele>1358.1999511719</ele>
        <time>2012-03-31T05:11:57.000Z</time>
      </trkpt>
      <trkpt lat="45.18348" lon="5.91115">
        <ele>1359.4000244141</ele>
        <time>2012-03-31T05:12:10.000Z</time>
      </trkpt>
      <trkpt lat="45.18354" lon="5.91118">
        <ele>1360.8000488281</ele>
        <time>2012-03-31T05:12:18.000Z</time>
      </trkpt>
      <trkpt lat="45.18363" lon="5.91122">
        <ele>1361.5999755859</ele>
        <time>2012-03-31T05:12:24.000Z</time>
      </trkpt>
      <trkpt lat="45.18371" lon="5.91126">
        <ele>1362.4000244141</ele>
        <time>2012-03-31T05:12:30.000Z</time>
      </trkpt>
      <trkpt lat="45.18374" lon="5.9113">
        <ele>1362.1999511719</ele>
        <time>2012-03-31T05:12:33.000Z</time>
      </trkpt>
      <trkpt lat="45.18381" lon="5.91135">
        <ele>1361.1999511719</ele>
        <time>2012-03-31T05:12:39.000Z</time>
      </trkpt>
      <trkpt lat="45.18382" lon="5.91136">
        <ele>1361.1999511719</ele>
        <time>2012-03-31T05:12:41.000Z</time>
      </trkpt>
      <trkpt lat="45.18393" lon="5.9114">
        <ele>1364.4000244141</ele>
        <time>2012-03-31T05:12:49.000Z</time>
      </trkpt>
      <trkpt lat="45.18398" lon="5.91141">
        <ele>1365.1999511719</ele>
        <time>2012-03-31T05:12:54.000Z</time>
      </trkpt>
      <trkpt lat="45.18406" lon="5.91143">
        <ele>1365.5999755859</ele>
        <time>2012-03-31T05:13:01.000Z</time>
      </trkpt>
      <trkpt lat="45.18407" lon="5.91142">
        <ele>1365.8000488281</ele>
        <time>2012-03-31T05:13:02.000Z</time>
      </trkpt>
      <trkpt lat="45.18418" lon="5.91147">
        <ele>1366.5999755859</ele>
        <time>2012-03-31T05:13:09.000Z</time>
      </trkpt>
      <trkpt lat="45.18419" lon="5.91148">
        <ele>1366.8000488281</ele>
        <time>2012-03-31T05:13:10.000Z</time>
      </trkpt>
      <trkpt lat="45.18427" lon="5.91155">
        <ele>1367.4000244141</ele>
        <time>2012-03-31T05:13:16.000Z</time>
      </trkpt>
      <trkpt lat="45.18434" lon="5.91159">
        <ele>1367.8000488281</ele>
        <time>2012-03-31T05:13:21.000Z</time>
      </trkpt>
      <trkpt lat="45.18441" lon="5.91165">
        <ele>1368.1999511719</ele>
        <time>2012-03-31T05:13:25.000Z</time>
      </trkpt>
      <trkpt lat="45.18451" lon="5.91163">
        <ele>1368.8000488281</ele>
        <time>2012-03-31T05:13:34.000Z</time>
      </trkpt>
      <trkpt lat="45.18457" lon="5.91167">
        <ele>1370</ele>
        <time>2012-03-31T05:13:40.000Z</time>
      </trkpt>
      <trkpt lat="45.18467" lon="5.9117">
        <ele>1370.5999755859</ele>
        <time>2012-03-31T05:13:48.000Z</time>
      </trkpt>
      <trkpt lat="45.18472" lon="5.91167">
        <ele>1370.4000244141</ele>
        <time>2012-03-31T05:13:53.000Z</time>
      </trkpt>
      <trkpt lat="45.18477" lon="5.91169">
        <ele>1371.8000488281</ele>
        <time>2012-03-31T05:13:58.000Z</time>
      </trkpt>
      <trkpt lat="45.18482" lon="5.91167">
        <ele>1372.4000244141</ele>
        <time>2012-03-31T05:14:03.000Z</time>
      </trkpt>
      <trkpt lat="45.18484" lon="5.91166">
        <ele>1372.5999755859</ele>
        <time>2012-03-31T05:14:05.000Z</time>
      </trkpt>
      <trkpt lat="45.18491" lon="5.91167">
        <ele>1373.1999511719</ele>
        <time>2012-03-31T05:14:11.000Z</time>
      </trkpt>
      <trkpt lat="45.18497" lon="5.91166">
        <ele>1373.8000488281</ele>
        <time>2012-03-31T05:14:15.000Z</time>
      </trkpt>
      <trkpt lat="45.1851" lon="5.9117">
        <ele>1374.5999755859</ele>
        <time>2012-03-31T05:14:22.000Z</time>
      </trkpt>
      <trkpt lat="45.18517" lon="5.91173">
        <ele>1375.5999755859</ele>
        <time>2012-03-31T05:14:29.000Z</time>
      </trkpt>
      <trkpt lat="45.18526" lon="5.91171">
        <ele>1376</ele>
        <time>2012-03-31T05:14:34.000Z</time>
      </trkpt>
      <trkpt lat="45.18537" lon="5.91172">
        <ele>1377.1999511719</ele>
        <time>2012-03-31T05:14:43.000Z</time>
      </trkpt>
      <trkpt lat="45.18546" lon="5.91176">
        <ele>1378.1999511719</ele>
        <time>2012-03-31T05:14:49.000Z</time>
      </trkpt>
      <trkpt lat="45.18554" lon="5.91178">
        <ele>1378.5999755859</ele>
        <time>2012-03-31T05:14:55.000Z</time>
      </trkpt>
      <trkpt lat="45.18556" lon="5.91177">
        <ele>1378.8000488281</ele>
        <time>2012-03-31T05:14:57.000Z</time>
      </trkpt>
      <trkpt lat="45.18567" lon="5.91179">
        <ele>1380</ele>
        <time>2012-03-31T05:15:05.000Z</time>
      </trkpt>
      <trkpt lat="45.18571" lon="5.91185">
        <ele>1380.8000488281</ele>
        <time>2012-03-31T05:15:10.000Z</time>
      </trkpt>
      <trkpt lat="45.18579" lon="5.91188">
        <ele>1381.4000244141</ele>
        <time>2012-03-31T05:15:16.000Z</time>
      </trkpt>
      <trkpt lat="45.18587" lon="5.91198">
        <ele>1382.5999755859</ele>
        <time>2012-03-31T05:15:25.000Z</time>
      </trkpt>
      <trkpt lat="45.18589" lon="5.91199">
        <ele>1383</ele>
        <time>2012-03-31T05:15:28.000Z</time>
      </trkpt>
      <trkpt lat="45.18598" lon="5.91197">
        <ele>1383.1999511719</ele>
        <time>2012-03-31T05:15:41.000Z</time>
      </trkpt>
      <trkpt lat="45.18607" lon="5.91204">
        <ele>1384</ele>
        <time>2012-03-31T05:15:48.000Z</time>
      </trkpt>
      <trkpt lat="45.1861" lon="5.91209">
        <ele>1384.4000244141</ele>
        <time>2012-03-31T05:15:52.000Z</time>
      </trkpt>
      <trkpt lat="45.18617" lon="5.91214">
        <ele>1385.4000244141</ele>
        <time>2012-03-31T05:15:59.000Z</time>
      </trkpt>
      <trkpt lat="45.1862" lon="5.9122">
        <ele>1386.4000244141</ele>
        <time>2012-03-31T05:16:05.000Z</time>
      </trkpt>
      <trkpt lat="45.18622" lon="5.91228">
        <ele>1388</ele>
        <time>2012-03-31T05:16:12.000Z</time>
      </trkpt>
      <trkpt lat="45.18623" lon="5.91229">
        <ele>1388.4000244141</ele>
        <time>2012-03-31T05:16:13.000Z</time>
      </trkpt>
      <trkpt lat="45.18626" lon="5.91236">
        <ele>1390</ele>
        <time>2012-03-31T05:16:18.000Z</time>
      </trkpt>
      <trkpt lat="45.18622" lon="5.91245">
        <ele>1392</ele>
        <time>2012-03-31T05:16:26.000Z</time>
      </trkpt>
      <trkpt lat="45.18622" lon="5.91246">
        <ele>1392.4000244141</ele>
        <time>2012-03-31T05:16:27.000Z</time>
      </trkpt>
      <trkpt lat="45.18623" lon="5.91253">
        <ele>1393.5999755859</ele>
        <time>2012-03-31T05:16:31.000Z</time>
      </trkpt>
      <trkpt lat="45.18622" lon="5.91259">
        <ele>1394.5999755859</ele>
        <time>2012-03-31T05:16:35.000Z</time>
      </trkpt>
      <trkpt lat="45.18622" lon="5.91259">
        <ele>1395.1999511719</ele>
        <time>2012-03-31T05:16:36.000Z</time>
      </trkpt>
      <trkpt lat="45.18621" lon="5.91267">
        <ele>1396.1999511719</ele>
        <time>2012-03-31T05:16:41.000Z</time>
      </trkpt>
      <trkpt lat="45.18622" lon="5.91271">
        <ele>1396.8000488281</ele>
        <time>2012-03-31T05:16:43.000Z</time>
      </trkpt>
      <trkpt lat="45.18617" lon="5.91282">
        <ele>1399.1999511719</ele>
        <time>2012-03-31T05:16:52.000Z</time>
      </trkpt>
      <trkpt lat="45.18614" lon="5.91288">
        <ele>1400</ele>
        <time>2012-03-31T05:16:57.000Z</time>
      </trkpt>
      <trkpt lat="45.18611" lon="5.91298">
        <ele>1402.1999511719</ele>
        <time>2012-03-31T05:17:05.000Z</time>
      </trkpt>
      <trkpt lat="45.18607" lon="5.913">
        <ele>1403</ele>
        <time>2012-03-31T05:17:09.000Z</time>
      </trkpt>
      <trkpt lat="45.18599" lon="5.91303">
        <ele>1403.8000488281</ele>
        <time>2012-03-31T05:17:15.000Z</time>
      </trkpt>
      <trkpt lat="45.18588" lon="5.91309">
        <ele>1404</ele>
        <time>2012-03-31T05:17:25.000Z</time>
      </trkpt>
      <trkpt lat="45.18583" lon="5.91314">
        <ele>1404.8000488281</ele>
        <time>2012-03-31T05:17:32.000Z</time>
      </trkpt>
      <trkpt lat="45.18581" lon="5.91316">
        <ele>1405.5999755859</ele>
        <time>2012-03-31T05:17:34.000Z</time>
      </trkpt>
      <trkpt lat="45.18575" lon="5.91321">
        <ele>1407</ele>
        <time>2012-03-31T05:17:40.000Z</time>
      </trkpt>
      <trkpt lat="45.18572" lon="5.91324">
        <ele>1409.1999511719</ele>
        <time>2012-03-31T05:17:46.000Z</time>
      </trkpt>
      <trkpt lat="45.18571" lon="5.91325">
        <ele>1409.4000244141</ele>
        <time>2012-03-31T05:17:47.000Z</time>
      </trkpt>
      <trkpt lat="45.18562" lon="5.91334">
        <ele>1410.5999755859</ele>
        <time>2012-03-31T05:17:53.000Z</time>
      </trkpt>
      <trkpt lat="45.18554" lon="5.91337">
        <ele>1412.8000488281</ele>
        <time>2012-03-31T05:18:01.000Z</time>
      </trkpt>
      <trkpt lat="45.18552" lon="5.91339">
        <ele>1413.1999511719</ele>
        <time>2012-03-31T05:18:03.000Z</time>
      </trkpt>
      <trkpt lat="45.18546" lon="5.91346">
        <ele>1415.5999755859</ele>
        <time>2012-03-31T05:18:12.000Z</time>
      </trkpt>
      <trkpt lat="45.18538" lon="5.91348">
        <ele>1417.5999755859</ele>
        <time>2012-03-31T05:18:19.000Z</time>
      </trkpt>
      <trkpt lat="45.18532" lon="5.91347">
        <ele>1419.1999511719</ele>
        <time>2012-03-31T05:18:26.000Z</time>
      </trkpt>
      <trkpt lat="45.18529" lon="5.91352">
        <ele>1420.5999755859</ele>
        <time>2012-03-31T05:18:31.000Z</time>
      </trkpt>
      <trkpt lat="45.18523" lon="5.91356">
        <ele>1421.8000488281</ele>
        <time>2012-03-31T05:18:37.000Z</time>
      </trkpt>
      <trkpt lat="45.1852" lon="5.91359">
        <ele>1422.5999755859</ele>
        <time>2012-03-31T05:18:42.000Z</time>
      </trkpt>
      <trkpt lat="45.18517" lon="5.91368">
        <ele>1424</ele>
        <time>2012-03-31T05:18:49.000Z</time>
      </trkpt>
      <trkpt lat="45.18513" lon="5.91373">
        <ele>1425.5999755859</ele>
        <time>2012-03-31T05:18:55.000Z</time>
      </trkpt>
      <trkpt lat="45.18512" lon="5.91375">
        <ele>1426.4000244141</ele>
        <time>2012-03-31T05:18:57.000Z</time>
      </trkpt>
      <trkpt lat="45.18508" lon="5.91377">
        <ele>1427.4000244141</ele>
        <time>2012-03-31T05:19:01.000Z</time>
      </trkpt>
      <trkpt lat="45.18495" lon="5.9138">
        <ele>1430.8000488281</ele>
        <time>2012-03-31T05:19:14.000Z</time>
      </trkpt>
      <trkpt lat="45.18491" lon="5.91376">
        <ele>1431.5999755859</ele>
        <time>2012-03-31T05:19:18.000Z</time>
      </trkpt>
      <trkpt lat="45.18486" lon="5.91373">
        <ele>1433</ele>
        <time>2012-03-31T05:19:24.000Z</time>
      </trkpt>
      <trkpt lat="45.18478" lon="5.91368">
        <ele>1434.5999755859</ele>
        <time>2012-03-31T05:19:31.000Z</time>
      </trkpt>
      <trkpt lat="45.18473" lon="5.91369">
        <ele>1435.5999755859</ele>
        <time>2012-03-31T05:19:35.000Z</time>
      </trkpt>
      <trkpt lat="45.18466" lon="5.91372">
        <ele>1437</ele>
        <time>2012-03-31T05:19:43.000Z</time>
      </trkpt>
      <trkpt lat="45.18457" lon="5.91378">
        <ele>1438.4000244141</ele>
        <time>2012-03-31T05:19:51.000Z</time>
      </trkpt>
      <trkpt lat="45.18453" lon="5.9138">
        <ele>1439.1999511719</ele>
        <time>2012-03-31T05:19:55.000Z</time>
      </trkpt>
      <trkpt lat="45.18445" lon="5.91384">
        <ele>1441</ele>
        <time>2012-03-31T05:20:03.000Z</time>
      </trkpt>
      <trkpt lat="45.18441" lon="5.91384">
        <ele>1442.1999511719</ele>
        <time>2012-03-31T05:20:08.000Z</time>
      </trkpt>
      <trkpt lat="45.18437" lon="5.91383">
        <ele>1442.8000488281</ele>
        <time>2012-03-31T05:20:11.000Z</time>
      </trkpt>
      <trkpt lat="45.18435" lon="5.91384">
        <ele>1443.5999755859</ele>
        <time>2012-03-31T05:20:14.000Z</time>
      </trkpt>
      <trkpt lat="45.1843" lon="5.91384">
        <ele>1444.8000488281</ele>
        <time>2012-03-31T05:20:20.000Z</time>
      </trkpt>
      <trkpt lat="45.18424" lon="5.91386">
        <ele>1445.8000488281</ele>
        <time>2012-03-31T05:20:25.000Z</time>
      </trkpt>
      <trkpt lat="45.1842" lon="5.91389">
        <ele>1447.1999511719</ele>
        <time>2012-03-31T05:20:30.000Z</time>
      </trkpt>
      <trkpt lat="45.18412" lon="5.91392">
        <ele>1448.5999755859</ele>
        <time>2012-03-31T05:20:37.000Z</time>
      </trkpt>
      <trkpt lat="45.18405" lon="5.91393">
        <ele>1450.1999511719</ele>
        <time>2012-03-31T05:20:43.000Z</time>
      </trkpt>
      <trkpt lat="45.18399" lon="5.91395">
        <ele>1451.8000488281</ele>
        <time>2012-03-31T05:20:50.000Z</time>
      </trkpt>
      <trkpt lat="45.18395" lon="5.91396">
        <ele>1453.5999755859</ele>
        <time>2012-03-31T05:20:57.000Z</time>
      </trkpt>
      <trkpt lat="45.18389" lon="5.91401">
        <ele>1455</ele>
        <time>2012-03-31T05:21:04.000Z</time>
      </trkpt>
      <trkpt lat="45.18388" lon="5.91401">
        <ele>1455.4000244141</ele>
        <time>2012-03-31T05:21:05.000Z</time>
      </trkpt>
      <trkpt lat="45.18383" lon="5.91401">
        <ele>1456.5999755859</ele>
        <time>2012-03-31T05:21:11.000Z</time>
      </trkpt>
      <trkpt lat="45.18374" lon="5.91402">
        <ele>1458</ele>
        <time>2012-03-31T05:21:18.000Z</time>
      </trkpt>
      <trkpt lat="45.18368" lon="5.91402">
        <ele>1459</ele>
        <time>2012-03-31T05:21:22.000Z</time>
      </trkpt>
      <trkpt lat="45.1836" lon="5.91406">
        <ele>1460.8000488281</ele>
        <time>2012-03-31T05:21:30.000Z</time>
      </trkpt>
      <trkpt lat="45.18352" lon="5.91407">
        <ele>1462.5999755859</ele>
        <time>2012-03-31T05:21:37.000Z</time>
      </trkpt>
      <trkpt lat="45.18342" lon="5.91408">
        <ele>1464</ele>
        <time>2012-03-31T05:21:44.000Z</time>
      </trkpt>
      <trkpt lat="45.18335" lon="5.91409">
        <ele>1465.5999755859</ele>
        <time>2012-03-31T05:21:51.000Z</time>
      </trkpt>
      <trkpt lat="45.18333" lon="5.91408">
        <ele>1465.8000488281</ele>
        <time>2012-03-31T05:21:52.000Z</time>
      </trkpt>
      <trkpt lat="45.18326" lon="5.91412">
        <ele>1468</ele>
        <time>2012-03-31T05:22:01.000Z</time>
      </trkpt>
      <trkpt lat="45.18325" lon="5.91414">
        <ele>1468.1999511719</ele>
        <time>2012-03-31T05:22:03.000Z</time>
      </trkpt>
      <trkpt lat="45.18318" lon="5.91419">
        <ele>1470</ele>
        <time>2012-03-31T05:22:11.000Z</time>
      </trkpt>
      <trkpt lat="45.18311" lon="5.91421">
        <ele>1471.4000244141</ele>
        <time>2012-03-31T05:22:18.000Z</time>
      </trkpt>
      <trkpt lat="45.18305" lon="5.91427">
        <ele>1472.8000488281</ele>
        <time>2012-03-31T05:22:24.000Z</time>
      </trkpt>
      <trkpt lat="45.183" lon="5.9143">
        <ele>1474</ele>
        <time>2012-03-31T05:22:30.000Z</time>
      </trkpt>
      <trkpt lat="45.18292" lon="5.9143">
        <ele>1475.8000488281</ele>
        <time>2012-03-31T05:22:37.000Z</time>
      </trkpt>
      <trkpt lat="45.18291" lon="5.91431">
        <ele>1476</ele>
        <time>2012-03-31T05:22:38.000Z</time>
      </trkpt>
      <trkpt lat="45.18284" lon="5.91432">
        <ele>1477.4000244141</ele>
        <time>2012-03-31T05:22:45.000Z</time>
      </trkpt>
      <trkpt lat="45.18276" lon="5.91434">
        <ele>1479.5999755859</ele>
        <time>2012-03-31T05:22:53.000Z</time>
      </trkpt>
      <trkpt lat="45.1827" lon="5.91435">
        <ele>1480.8000488281</ele>
        <time>2012-03-31T05:22:59.000Z</time>
      </trkpt>
      <trkpt lat="45.18267" lon="5.91437">
        <ele>1481.5999755859</ele>
        <time>2012-03-31T05:23:04.000Z</time>
      </trkpt>
      <trkpt lat="45.18264" lon="5.91437">
        <ele>1482.5999755859</ele>
        <time>2012-03-31T05:23:07.000Z</time>
      </trkpt>
      <trkpt lat="45.1826" lon="5.91437">
        <ele>1483.1999511719</ele>
        <time>2012-03-31T05:23:10.000Z</time>
      </trkpt>
      <trkpt lat="45.18255" lon="5.91441">
        <ele>1484.4000244141</ele>
        <time>2012-03-31T05:23:15.000Z</time>
      </trkpt>
      <trkpt lat="45.18251" lon="5.9144">
        <ele>1485.4000244141</ele>
        <time>2012-03-31T05:23:19.000Z</time>
      </trkpt>
      <trkpt lat="45.18247" lon="5.9144">
        <ele>1486.4000244141</ele>
        <time>2012-03-31T05:23:23.000Z</time>
      </trkpt>
      <trkpt lat="45.18238" lon="5.91441">
        <ele>1487.8000488281</ele>
        <time>2012-03-31T05:23:30.000Z</time>
      </trkpt>
      <trkpt lat="45.18232" lon="5.91443">
        <ele>1489.1999511719</ele>
        <time>2012-03-31T05:23:36.000Z</time>
      </trkpt>
      <trkpt lat="45.18226" lon="5.91443">
        <ele>1490.5999755859</ele>
        <time>2012-03-31T05:23:42.000Z</time>
      </trkpt>
      <trkpt lat="45.18223" lon="5.91447">
        <ele>1491.4000244141</ele>
        <time>2012-03-31T05:23:46.000Z</time>
      </trkpt>
      <trkpt lat="45.18212" lon="5.91453">
        <ele>1493</ele>
        <time>2012-03-31T05:23:55.000Z</time>
      </trkpt>
      <trkpt lat="45.18209" lon="5.91453">
        <ele>1493.5999755859</ele>
        <time>2012-03-31T05:23:58.000Z</time>
      </trkpt>
      <trkpt lat="45.18204" lon="5.91456">
        <ele>1495</ele>
        <time>2012-03-31T05:24:04.000Z</time>
      </trkpt>
      <trkpt lat="45.18198" lon="5.9146">
        <ele>1496.8000488281</ele>
        <time>2012-03-31T05:24:11.000Z</time>
      </trkpt>
      <trkpt lat="45.18191" lon="5.91465">
        <ele>1498</ele>
        <time>2012-03-31T05:24:18.000Z</time>
      </trkpt>
      <trkpt lat="45.18185" lon="5.91468">
        <ele>1499</ele>
        <time>2012-03-31T05:24:24.000Z</time>
      </trkpt>
      <trkpt lat="45.18178" lon="5.91469">
        <ele>1499.5999755859</ele>
        <time>2012-03-31T05:24:29.000Z</time>
      </trkpt>
      <trkpt lat="45.18176" lon="5.91467">
        <ele>1499.8000488281</ele>
        <time>2012-03-31T05:24:30.000Z</time>
      </trkpt>
      <trkpt lat="45.18166" lon="5.91465">
        <ele>1501.1999511719</ele>
        <time>2012-03-31T05:24:38.000Z</time>
      </trkpt>
      <trkpt lat="45.18162" lon="5.91466">
        <ele>1502.1999511719</ele>
        <time>2012-03-31T05:24:42.000Z</time>
      </trkpt>
      <trkpt lat="45.18159" lon="5.91467">
        <ele>1503.4000244141</ele>
        <time>2012-03-31T05:24:47.000Z</time>
      </trkpt>
      <trkpt lat="45.18154" lon="5.91469">
        <ele>1505</ele>
        <time>2012-03-31T05:24:54.000Z</time>
      </trkpt>
      <trkpt lat="45.1815" lon="5.91471">
        <ele>1506.5999755859</ele>
        <time>2012-03-31T05:24:59.000Z</time>
      </trkpt>
      <trkpt lat="45.18143" lon="5.91472">
        <ele>1508.1999511719</ele>
        <time>2012-03-31T05:25:06.000Z</time>
      </trkpt>
      <trkpt lat="45.18136" lon="5.91474">
        <ele>1509.4000244141</ele>
        <time>2012-03-31T05:25:11.000Z</time>
      </trkpt>
      <trkpt lat="45.18129" lon="5.91477">
        <ele>1510.5999755859</ele>
        <time>2012-03-31T05:25:18.000Z</time>
      </trkpt>
      <trkpt lat="45.18125" lon="5.91478">
        <ele>1511</ele>
        <time>2012-03-31T05:25:21.000Z</time>
      </trkpt>
      <trkpt lat="45.18119" lon="5.91486">
        <ele>1512.4000244141</ele>
        <time>2012-03-31T05:25:28.000Z</time>
      </trkpt>
      <trkpt lat="45.18115" lon="5.91497">
        <ele>1513</ele>
        <time>2012-03-31T05:25:34.000Z</time>
      </trkpt>
      <trkpt lat="45.18117" lon="5.91505">
        <ele>1513.1999511719</ele>
        <time>2012-03-31T05:25:39.000Z</time>
      </trkpt>
      <trkpt lat="45.18119" lon="5.91507">
        <ele>1513.4000244141</ele>
        <time>2012-03-31T05:25:41.000Z</time>
      </trkpt>
      <trkpt lat="45.1812" lon="5.91516">
        <ele>1513.8000488281</ele>
        <time>2012-03-31T05:25:45.000Z</time>
      </trkpt>
      <trkpt lat="45.18124" lon="5.91521">
        <ele>1513.5999755859</ele>
        <time>2012-03-31T05:25:49.000Z</time>
      </trkpt>
      <trkpt lat="45.18126" lon="5.91532">
        <ele>1514.8000488281</ele>
        <time>2012-03-31T05:25:56.000Z</time>
      </trkpt>
      <trkpt lat="45.18125" lon="5.91538">
        <ele>1515.1999511719</ele>
        <time>2012-03-31T05:25:59.000Z</time>
      </trkpt>
      <trkpt lat="45.18122" lon="5.9154">
        <ele>1515.5999755859</ele>
        <time>2012-03-31T05:26:05.000Z</time>
      </trkpt>
      <trkpt lat="45.18119" lon="5.91551">
        <ele>1516.8000488281</ele>
        <time>2012-03-31T05:26:12.000Z</time>
      </trkpt>
      <trkpt lat="45.18115" lon="5.91558">
        <ele>1518.4000244141</ele>
        <time>2012-03-31T05:26:20.000Z</time>
      </trkpt>
      <trkpt lat="45.18111" lon="5.91563">
        <ele>1518.8000488281</ele>
        <time>2012-03-31T05:26:25.000Z</time>
      </trkpt>
      <trkpt lat="45.18108" lon="5.91564">
        <ele>1519</ele>
        <time>2012-03-31T05:26:27.000Z</time>
      </trkpt>
      <trkpt lat="45.18102" lon="5.91567">
        <ele>1519.8000488281</ele>
        <time>2012-03-31T05:26:33.000Z</time>
      </trkpt>
      <trkpt lat="45.18094" lon="5.91569">
        <ele>1520.8000488281</ele>
        <time>2012-03-31T05:26:39.000Z</time>
      </trkpt>
      <trkpt lat="45.18087" lon="5.9157">
        <ele>1521.8000488281</ele>
        <time>2012-03-31T05:26:45.000Z</time>
      </trkpt>
      <trkpt lat="45.18079" lon="5.91571">
        <ele>1521.8000488281</ele>
        <time>2012-03-31T05:26:50.000Z</time>
      </trkpt>
      <trkpt lat="45.18076" lon="5.91572">
        <ele>1522</ele>
        <time>2012-03-31T05:26:52.000Z</time>
      </trkpt>
      <trkpt lat="45.18069" lon="5.91579">
        <ele>1522.4000244141</ele>
        <time>2012-03-31T05:26:58.000Z</time>
      </trkpt>
      <trkpt lat="45.18059" lon="5.9158">
        <ele>1523</ele>
        <time>2012-03-31T05:27:05.000Z</time>
      </trkpt>
      <trkpt lat="45.18054" lon="5.91584">
        <ele>1523.8000488281</ele>
        <time>2012-03-31T05:27:10.000Z</time>
      </trkpt>
      <trkpt lat="45.18046" lon="5.91586">
        <ele>1524.1999511719</ele>
        <time>2012-03-31T05:27:15.000Z</time>
      </trkpt>
      <trkpt lat="45.18037" lon="5.91585">
        <ele>1524.4000244141</ele>
        <time>2012-03-31T05:27:21.000Z</time>
      </trkpt>
      <trkpt lat="45.1803" lon="5.91585">
        <ele>1524.5999755859</ele>
        <time>2012-03-31T05:27:25.000Z</time>
      </trkpt>
      <trkpt lat="45.18026" lon="5.91582">
        <ele>1525</ele>
        <time>2012-03-31T05:27:29.000Z</time>
      </trkpt>
      <trkpt lat="45.18016" lon="5.91583">
        <ele>1525.4000244141</ele>
        <time>2012-03-31T05:27:35.000Z</time>
      </trkpt>
      <trkpt lat="45.18005" lon="5.91584">
        <ele>1526.5999755859</ele>
        <time>2012-03-31T05:27:42.000Z</time>
      </trkpt>
      <trkpt lat="45.17999" lon="5.91584">
        <ele>1527.5999755859</ele>
        <time>2012-03-31T05:27:48.000Z</time>
      </trkpt>
      <trkpt lat="45.17993" lon="5.91589">
        <ele>1529</ele>
        <time>2012-03-31T05:27:55.000Z</time>
      </trkpt>
      <trkpt lat="45.1799" lon="5.91591">
        <ele>1529.8000488281</ele>
        <time>2012-03-31T05:28:00.000Z</time>
      </trkpt>
      <trkpt lat="45.17986" lon="5.91595">
        <ele>1531</ele>
        <time>2012-03-31T05:28:06.000Z</time>
      </trkpt>
      <trkpt lat="45.17984" lon="5.91595">
        <ele>1531.8000488281</ele>
        <time>2012-03-31T05:28:09.000Z</time>
      </trkpt>
      <trkpt lat="45.17977" lon="5.91597">
        <ele>1533</ele>
        <time>2012-03-31T05:28:22.000Z</time>
      </trkpt>
      <trkpt lat="45.17975" lon="5.91599">
        <ele>1533.4000244141</ele>
        <time>2012-03-31T05:28:25.000Z</time>
      </trkpt>
      <trkpt lat="45.17971" lon="5.91601">
        <ele>1534.1999511719</ele>
        <time>2012-03-31T05:28:31.000Z</time>
      </trkpt>
      <trkpt lat="45.17966" lon="5.91605">
        <ele>1534.5999755859</ele>
        <time>2012-03-31T05:28:36.000Z</time>
      </trkpt>
      <trkpt lat="45.17965" lon="5.91605">
        <ele>1534.8000488281</ele>
        <time>2012-03-31T05:28:37.000Z</time>
      </trkpt>
      <trkpt lat="45.17962" lon="5.91606">
        <ele>1536.4000244141</ele>
        <time>2012-03-31T05:28:42.000Z</time>
      </trkpt>
      <trkpt lat="45.17957" lon="5.91609">
        <ele>1538</ele>
        <time>2012-03-31T05:28:49.000Z</time>
      </trkpt>
      <trkpt lat="45.1795" lon="5.9161">
        <ele>1539.5999755859</ele>
        <time>2012-03-31T05:28:56.000Z</time>
      </trkpt>
      <trkpt lat="45.17946" lon="5.91612">
        <ele>1540.4000244141</ele>
        <time>2012-03-31T05:29:01.000Z</time>
      </trkpt>
      <trkpt lat="45.17941" lon="5.91615">
        <ele>1541.8000488281</ele>
        <time>2012-03-31T05:29:07.000Z</time>
      </trkpt>
      <trkpt lat="45.17935" lon="5.91617">
        <ele>1542.5999755859</ele>
        <time>2012-03-31T05:29:13.000Z</time>
      </trkpt>
      <trkpt lat="45.17928" lon="5.91619">
        <ele>1544.1999511719</ele>
        <time>2012-03-31T05:29:21.000Z</time>
      </trkpt>
      <trkpt lat="45.17921" lon="5.91622">
        <ele>1545.8000488281</ele>
        <time>2012-03-31T05:29:28.000Z</time>
      </trkpt>
      <trkpt lat="45.17918" lon="5.91624">
        <ele>1546.1999511719</ele>
        <time>2012-03-31T05:29:30.000Z</time>
      </trkpt>
      <trkpt lat="45.17914" lon="5.91628">
        <ele>1547.1999511719</ele>
        <time>2012-03-31T05:29:35.000Z</time>
      </trkpt>
      <trkpt lat="45.17911" lon="5.91628">
        <ele>1547.8000488281</ele>
        <time>2012-03-31T05:29:39.000Z</time>
      </trkpt>
      <trkpt lat="45.17906" lon="5.91629">
        <ele>1548.5999755859</ele>
        <time>2012-03-31T05:29:44.000Z</time>
      </trkpt>
      <trkpt lat="45.17901" lon="5.91631">
        <ele>1550</ele>
        <time>2012-03-31T05:29:50.000Z</time>
      </trkpt>
      <trkpt lat="45.17896" lon="5.91633">
        <ele>1551.1999511719</ele>
        <time>2012-03-31T05:29:55.000Z</time>
      </trkpt>
      <trkpt lat="45.17888" lon="5.91637">
        <ele>1552.8000488281</ele>
        <time>2012-03-31T05:30:03.000Z</time>
      </trkpt>
      <trkpt lat="45.17882" lon="5.9164">
        <ele>1554.4000244141</ele>
        <time>2012-03-31T05:30:10.000Z</time>
      </trkpt>
      <trkpt lat="45.17879" lon="5.91643">
        <ele>1555.4000244141</ele>
        <time>2012-03-31T05:30:15.000Z</time>
      </trkpt>
      <trkpt lat="45.17875" lon="5.91645">
        <ele>1556.5999755859</ele>
        <time>2012-03-31T05:30:20.000Z</time>
      </trkpt>
      <trkpt lat="45.17874" lon="5.91645">
        <ele>1556.5999755859</ele>
        <time>2012-03-31T05:30:21.000Z</time>
      </trkpt>
      <trkpt lat="45.17869" lon="5.91648">
        <ele>1557.4000244141</ele>
        <time>2012-03-31T05:30:26.000Z</time>
      </trkpt>
      <trkpt lat="45.17862" lon="5.91653">
        <ele>1559</ele>
        <time>2012-03-31T05:30:34.000Z</time>
      </trkpt>
      <trkpt lat="45.17858" lon="5.91657">
        <ele>1560.5999755859</ele>
        <time>2012-03-31T05:30:40.000Z</time>
      </trkpt>
      <trkpt lat="45.17853" lon="5.91659">
        <ele>1562</ele>
        <time>2012-03-31T05:30:46.000Z</time>
      </trkpt>
      <trkpt lat="45.17849" lon="5.9166">
        <ele>1563</ele>
        <time>2012-03-31T05:30:51.000Z</time>
      </trkpt>
      <trkpt lat="45.17844" lon="5.91663">
        <ele>1564.4000244141</ele>
        <time>2012-03-31T05:30:57.000Z</time>
      </trkpt>
      <trkpt lat="45.17836" lon="5.91667">
        <ele>1566</ele>
        <time>2012-03-31T05:31:05.000Z</time>
      </trkpt>
      <trkpt lat="45.17833" lon="5.9167">
        <ele>1567</ele>
        <time>2012-03-31T05:31:09.000Z</time>
      </trkpt>
      <trkpt lat="45.17826" lon="5.91671">
        <ele>1568.5999755859</ele>
        <time>2012-03-31T05:31:17.000Z</time>
      </trkpt>
      <trkpt lat="45.17821" lon="5.91675">
        <ele>1569.8000488281</ele>
        <time>2012-03-31T05:31:23.000Z</time>
      </trkpt>
      <trkpt lat="45.17811" lon="5.91679">
        <ele>1571.4000244141</ele>
        <time>2012-03-31T05:31:32.000Z</time>
      </trkpt>
      <trkpt lat="45.17806" lon="5.9168">
        <ele>1572.4000244141</ele>
        <time>2012-03-31T05:31:38.000Z</time>
      </trkpt>
      <trkpt lat="45.17801" lon="5.91686">
        <ele>1574.8000488281</ele>
        <time>2012-03-31T05:31:48.000Z</time>
      </trkpt>
      <trkpt lat="45.17804" lon="5.91687">
        <ele>1575.8000488281</ele>
        <time>2012-03-31T05:31:52.000Z</time>
      </trkpt>
      <trkpt lat="45.17808" lon="5.9169">
        <ele>1576.8000488281</ele>
        <time>2012-03-31T05:31:56.000Z</time>
      </trkpt>
      <trkpt lat="45.17815" lon="5.91697">
        <ele>1578.1999511719</ele>
        <time>2012-03-31T05:32:02.000Z</time>
      </trkpt>
      <trkpt lat="45.17821" lon="5.91701">
        <ele>1580.1999511719</ele>
        <time>2012-03-31T05:32:10.000Z</time>
      </trkpt>
      <trkpt lat="45.17822" lon="5.91701">
        <ele>1580.5999755859</ele>
        <time>2012-03-31T05:32:12.000Z</time>
      </trkpt>
      <trkpt lat="45.17828" lon="5.91704">
        <ele>1581.8000488281</ele>
        <time>2012-03-31T05:32:18.000Z</time>
      </trkpt>
      <trkpt lat="45.1783" lon="5.91699">
        <ele>1583.8000488281</ele>
        <time>2012-03-31T05:32:26.000Z</time>
      </trkpt>
      <trkpt lat="45.17832" lon="5.91699">
        <ele>1584.8000488281</ele>
        <time>2012-03-31T05:32:30.000Z</time>
      </trkpt>
      <trkpt lat="45.17839" lon="5.917">
        <ele>1585.4000244141</ele>
        <time>2012-03-31T05:32:35.000Z</time>
      </trkpt>
      <trkpt lat="45.1784" lon="5.917">
        <ele>1585.5999755859</ele>
        <time>2012-03-31T05:32:36.000Z</time>
      </trkpt>
      <trkpt lat="45.17844" lon="5.91701">
        <ele>1586.4000244141</ele>
        <time>2012-03-31T05:32:41.000Z</time>
      </trkpt>
      <trkpt lat="45.17842" lon="5.91706">
        <ele>1587.4000244141</ele>
        <time>2012-03-31T05:32:45.000Z</time>
      </trkpt>
      <trkpt lat="45.17836" lon="5.9171">
        <ele>1589</ele>
        <time>2012-03-31T05:32:53.000Z</time>
      </trkpt>
      <trkpt lat="45.17831" lon="5.91713">
        <ele>1590</ele>
        <time>2012-03-31T05:32:58.000Z</time>
      </trkpt>
      <trkpt lat="45.17823" lon="5.91722">
        <ele>1591.5999755859</ele>
        <time>2012-03-31T05:33:07.000Z</time>
      </trkpt>
      <trkpt lat="45.17821" lon="5.91723">
        <ele>1592.4000244141</ele>
        <time>2012-03-31T05:33:11.000Z</time>
      </trkpt>
      <trkpt lat="45.1782" lon="5.91724">
        <ele>1592.5999755859</ele>
        <time>2012-03-31T05:33:12.000Z</time>
      </trkpt>
      <trkpt lat="45.17817" lon="5.91727">
        <ele>1594</ele>
        <time>2012-03-31T05:33:18.000Z</time>
      </trkpt>
      <trkpt lat="45.17816" lon="5.91727">
        <ele>1594.1999511719</ele>
        <time>2012-03-31T05:33:19.000Z</time>
      </trkpt>
      <trkpt lat="45.17808" lon="5.9173">
        <ele>1595.1999511719</ele>
        <time>2012-03-31T05:33:27.000Z</time>
      </trkpt>
      <trkpt lat="45.17803" lon="5.91731">
        <ele>1597.5999755859</ele>
        <time>2012-03-31T05:33:35.000Z</time>
      </trkpt>
      <trkpt lat="45.178" lon="5.91731">
        <ele>1598</ele>
        <time>2012-03-31T05:33:37.000Z</time>
      </trkpt>
      <trkpt lat="45.17795" lon="5.91733">
        <ele>1598.8000488281</ele>
        <time>2012-03-31T05:33:41.000Z</time>
      </trkpt>
      <trkpt lat="45.17785" lon="5.91737">
        <ele>1600.4000244141</ele>
        <time>2012-03-31T05:33:48.000Z</time>
      </trkpt>
      <trkpt lat="45.17781" lon="5.9174">
        <ele>1601.5999755859</ele>
        <time>2012-03-31T05:33:53.000Z</time>
      </trkpt>
      <trkpt lat="45.17778" lon="5.91746">
        <ele>1603</ele>
        <time>2012-03-31T05:34:00.000Z</time>
      </trkpt>
      <trkpt lat="45.17772" lon="5.91749">
        <ele>1604.5999755859</ele>
        <time>2012-03-31T05:34:06.000Z</time>
      </trkpt>
      <trkpt lat="45.17765" lon="5.91752">
        <ele>1606</ele>
        <time>2012-03-31T05:34:13.000Z</time>
      </trkpt>
      <trkpt lat="45.17764" lon="5.91752">
        <ele>1606.4000244141</ele>
        <time>2012-03-31T05:34:14.000Z</time>
      </trkpt>
      <trkpt lat="45.17762" lon="5.91752">
        <ele>1606.8000488281</ele>
        <time>2012-03-31T05:34:16.000Z</time>
      </trkpt>
      <trkpt lat="45.17755" lon="5.91755">
        <ele>1608.1999511719</ele>
        <time>2012-03-31T05:34:23.000Z</time>
      </trkpt>
      <trkpt lat="45.17751" lon="5.91757">
        <ele>1609</ele>
        <time>2012-03-31T05:34:27.000Z</time>
      </trkpt>
      <trkpt lat="45.17753" lon="5.91766">
        <ele>1611.1999511719</ele>
        <time>2012-03-31T05:34:38.000Z</time>
      </trkpt>
      <trkpt lat="45.17757" lon="5.9177">
        <ele>1612.1999511719</ele>
        <time>2012-03-31T05:34:43.000Z</time>
      </trkpt>
      <trkpt lat="45.17758" lon="5.9177">
        <ele>1612.4000244141</ele>
        <time>2012-03-31T05:34:45.000Z</time>
      </trkpt>
      <trkpt lat="45.17764" lon="5.91772">
        <ele>1613.5999755859</ele>
        <time>2012-03-31T05:34:50.000Z</time>
      </trkpt>
      <trkpt lat="45.17764" lon="5.91771">
        <ele>1613.8000488281</ele>
        <time>2012-03-31T05:34:51.000Z</time>
      </trkpt>
      <trkpt lat="45.17772" lon="5.91765">
        <ele>1615.4000244141</ele>
        <time>2012-03-31T05:35:01.000Z</time>
      </trkpt>
      <trkpt lat="45.17774" lon="5.91766">
        <ele>1616.5999755859</ele>
        <time>2012-03-31T05:35:05.000Z</time>
      </trkpt>
      <trkpt lat="45.17777" lon="5.91767">
        <ele>1617.8000488281</ele>
        <time>2012-03-31T05:35:10.000Z</time>
      </trkpt>
      <trkpt lat="45.17783" lon="5.9177">
        <ele>1619.5999755859</ele>
        <time>2012-03-31T05:35:17.000Z</time>
      </trkpt>
      <trkpt lat="45.17789" lon="5.91772">
        <ele>1620.4000244141</ele>
        <time>2012-03-31T05:35:24.000Z</time>
      </trkpt>
      <trkpt lat="45.17789" lon="5.91772">
        <ele>1620.5999755859</ele>
        <time>2012-03-31T05:35:25.000Z</time>
      </trkpt>
      <trkpt lat="45.17792" lon="5.91774">
        <ele>1621.8000488281</ele>
        <time>2012-03-31T05:35:30.000Z</time>
      </trkpt>
      <trkpt lat="45.17793" lon="5.91775">
        <ele>1622.1999511719</ele>
        <time>2012-03-31T05:35:32.000Z</time>
      </trkpt>
      <trkpt lat="45.17796" lon="5.91781">
        <ele>1623.5999755859</ele>
        <time>2012-03-31T05:35:38.000Z</time>
      </trkpt>
      <trkpt lat="45.17799" lon="5.91787">
        <ele>1624.5999755859</ele>
        <time>2012-03-31T05:35:44.000Z</time>
      </trkpt>
      <trkpt lat="45.17802" lon="5.9179">
        <ele>1625.5999755859</ele>
        <time>2012-03-31T05:35:49.000Z</time>
      </trkpt>
      <trkpt lat="45.17797" lon="5.91798">
        <ele>1630</ele>
        <time>2012-03-31T05:36:06.000Z</time>
      </trkpt>
      <trkpt lat="45.17792" lon="5.91799">
        <ele>1631.4000244141</ele>
        <time>2012-03-31T05:36:13.000Z</time>
      </trkpt>
      <trkpt lat="45.17788" lon="5.91802">
        <ele>1632.4000244141</ele>
        <time>2012-03-31T05:36:19.000Z</time>
      </trkpt>
      <trkpt lat="45.17785" lon="5.91804">
        <ele>1633.1999511719</ele>
        <time>2012-03-31T05:36:23.000Z</time>
      </trkpt>
      <trkpt lat="45.17781" lon="5.91804">
        <ele>1633.5999755859</ele>
        <time>2012-03-31T05:36:26.000Z</time>
      </trkpt>
      <trkpt lat="45.17776" lon="5.91809">
        <ele>1634.8000488281</ele>
        <time>2012-03-31T05:36:32.000Z</time>
      </trkpt>
      <trkpt lat="45.17769" lon="5.91814">
        <ele>1636.1999511719</ele>
        <time>2012-03-31T05:36:40.000Z</time>
      </trkpt>
      <trkpt lat="45.17774" lon="5.91808">
        <ele>1638.4000244141</ele>
        <time>2012-03-31T05:36:50.000Z</time>
      </trkpt>
      <trkpt lat="45.17778" lon="5.91814">
        <ele>1639.5999755859</ele>
        <time>2012-03-31T05:36:56.000Z</time>
      </trkpt>
      <trkpt lat="45.17783" lon="5.9182">
        <ele>1641.5999755859</ele>
        <time>2012-03-31T05:37:04.000Z</time>
      </trkpt>
      <trkpt lat="45.17786" lon="5.91824">
        <ele>1642.8000488281</ele>
        <time>2012-03-31T05:37:10.000Z</time>
      </trkpt>
      <trkpt lat="45.1779" lon="5.91829">
        <ele>1643.5999755859</ele>
        <time>2012-03-31T05:37:16.000Z</time>
      </trkpt>
      <trkpt lat="45.17787" lon="5.91827">
        <ele>1644.5999755859</ele>
        <time>2012-03-31T05:37:22.000Z</time>
      </trkpt>
      <trkpt lat="45.17786" lon="5.91826">
        <ele>1645.1999511719</ele>
        <time>2012-03-31T05:37:25.000Z</time>
      </trkpt>
      <trkpt lat="45.17783" lon="5.91827">
        <ele>1646</ele>
        <time>2012-03-31T05:37:28.000Z</time>
      </trkpt>
      <trkpt lat="45.17778" lon="5.91829">
        <ele>1646.5999755859</ele>
        <time>2012-03-31T05:37:32.000Z</time>
      </trkpt>
      <trkpt lat="45.17774" lon="5.9183">
        <ele>1647</ele>
        <time>2012-03-31T05:37:35.000Z</time>
      </trkpt>
      <trkpt lat="45.17767" lon="5.91834">
        <ele>1648</ele>
        <time>2012-03-31T05:37:40.000Z</time>
      </trkpt>
      <trkpt lat="45.17761" lon="5.91837">
        <ele>1648.8000488281</ele>
        <time>2012-03-31T05:37:45.000Z</time>
      </trkpt>
      <trkpt lat="45.17755" lon="5.91842">
        <ele>1650.4000244141</ele>
        <time>2012-03-31T05:37:52.000Z</time>
      </trkpt>
      <trkpt lat="45.17753" lon="5.91846">
        <ele>1651.1999511719</ele>
        <time>2012-03-31T05:37:57.000Z</time>
      </trkpt>
      <trkpt lat="45.17756" lon="5.91847">
        <ele>1651.8000488281</ele>
        <time>2012-03-31T05:37:59.000Z</time>
      </trkpt>
      <trkpt lat="45.1776" lon="5.91844">
        <ele>1652.8000488281</ele>
        <time>2012-03-31T05:38:04.000Z</time>
      </trkpt>
      <trkpt lat="45.17761" lon="5.91842">
        <ele>1653.1999511719</ele>
        <time>2012-03-31T05:38:06.000Z</time>
      </trkpt>
      <trkpt lat="45.17766" lon="5.91847">
        <ele>1654.8000488281</ele>
        <time>2012-03-31T05:38:14.000Z</time>
      </trkpt>
      <trkpt lat="45.17766" lon="5.91851">
        <ele>1655.5999755859</ele>
        <time>2012-03-31T05:38:18.000Z</time>
      </trkpt>
      <trkpt lat="45.17762" lon="5.91854">
        <ele>1656.8000488281</ele>
        <time>2012-03-31T05:38:24.000Z</time>
      </trkpt>
      <trkpt lat="45.17757" lon="5.91855">
        <ele>1658.4000244141</ele>
        <time>2012-03-31T05:38:30.000Z</time>
      </trkpt>
      <trkpt lat="45.17753" lon="5.91856">
        <ele>1659.8000488281</ele>
        <time>2012-03-31T05:38:36.000Z</time>
      </trkpt>
      <trkpt lat="45.17748" lon="5.91858">
        <ele>1661.1999511719</ele>
        <time>2012-03-31T05:38:41.000Z</time>
      </trkpt>
      <trkpt lat="45.17744" lon="5.91862">
        <ele>1663</ele>
        <time>2012-03-31T05:38:48.000Z</time>
      </trkpt>
      <trkpt lat="45.17742" lon="5.91865">
        <ele>1663.8000488281</ele>
        <time>2012-03-31T05:38:53.000Z</time>
      </trkpt>
      <trkpt lat="45.1774" lon="5.91868">
        <ele>1665</ele>
        <time>2012-03-31T05:38:59.000Z</time>
      </trkpt>
      <trkpt lat="45.17736" lon="5.91871">
        <ele>1666</ele>
        <time>2012-03-31T05:39:04.000Z</time>
      </trkpt>
      <trkpt lat="45.17734" lon="5.91872">
        <ele>1666.5999755859</ele>
        <time>2012-03-31T05:39:07.000Z</time>
      </trkpt>
      <trkpt lat="45.17731" lon="5.91878">
        <ele>1667.5999755859</ele>
        <time>2012-03-31T05:39:12.000Z</time>
      </trkpt>
      <trkpt lat="45.1773" lon="5.91882">
        <ele>1668.8000488281</ele>
        <time>2012-03-31T05:39:17.000Z</time>
      </trkpt>
      <trkpt lat="45.17729" lon="5.91889">
        <ele>1670</ele>
        <time>2012-03-31T05:39:23.000Z</time>
      </trkpt>
      <trkpt lat="45.17725" lon="5.91892">
        <ele>1671.4000244141</ele>
        <time>2012-03-31T05:39:31.000Z</time>
      </trkpt>
      <trkpt lat="45.17721" lon="5.91892">
        <ele>1672.5999755859</ele>
        <time>2012-03-31T05:39:36.000Z</time>
      </trkpt>
      <trkpt lat="45.17719" lon="5.91895">
        <ele>1673.8000488281</ele>
        <time>2012-03-31T05:39:41.000Z</time>
      </trkpt>
      <trkpt lat="45.17717" lon="5.91898">
        <ele>1674.5999755859</ele>
        <time>2012-03-31T05:39:45.000Z</time>
      </trkpt>
      <trkpt lat="45.17716" lon="5.91901">
        <ele>1675.8000488281</ele>
        <time>2012-03-31T05:39:53.000Z</time>
      </trkpt>
      <trkpt lat="45.17712" lon="5.91906">
        <ele>1677.1999511719</ele>
        <time>2012-03-31T05:39:59.000Z</time>
      </trkpt>
      <trkpt lat="45.1771" lon="5.9191">
        <ele>1678.4000244141</ele>
        <time>2012-03-31T05:40:04.000Z</time>
      </trkpt>
      <trkpt lat="45.17707" lon="5.91915">
        <ele>1680.8000488281</ele>
        <time>2012-03-31T05:40:12.000Z</time>
      </trkpt>
      <trkpt lat="45.17707" lon="5.9192">
        <ele>1681.5999755859</ele>
        <time>2012-03-31T05:40:17.000Z</time>
      </trkpt>
      <trkpt lat="45.17708" lon="5.91925">
        <ele>1682.4000244141</ele>
        <time>2012-03-31T05:40:22.000Z</time>
      </trkpt>
      <trkpt lat="45.17707" lon="5.91931">
        <ele>1682.8000488281</ele>
        <time>2012-03-31T05:40:26.000Z</time>
      </trkpt>
      <trkpt lat="45.17705" lon="5.91935">
        <ele>1683.5999755859</ele>
        <time>2012-03-31T05:40:29.000Z</time>
      </trkpt>
      <trkpt lat="45.17704" lon="5.91942">
        <ele>1684</ele>
        <time>2012-03-31T05:40:35.000Z</time>
      </trkpt>
      <trkpt lat="45.17703" lon="5.91946">
        <ele>1684.4000244141</ele>
        <time>2012-03-31T05:40:39.000Z</time>
      </trkpt>
      <trkpt lat="45.17703" lon="5.91957">
        <ele>1685.5999755859</ele>
        <time>2012-03-31T05:40:46.000Z</time>
      </trkpt>
      <trkpt lat="45.17702" lon="5.91959">
        <ele>1686.4000244141</ele>
        <time>2012-03-31T05:40:48.000Z</time>
      </trkpt>
      <trkpt lat="45.17703" lon="5.91963">
        <ele>1687</ele>
        <time>2012-03-31T05:40:52.000Z</time>
      </trkpt>
      <trkpt lat="45.17704" lon="5.91963">
        <ele>1687.1999511719</ele>
        <time>2012-03-31T05:40:53.000Z</time>
      </trkpt>
      <trkpt lat="45.17696" lon="5.91974">
        <ele>1687.1999511719</ele>
        <time>2012-03-31T05:41:04.000Z</time>
      </trkpt>
      <trkpt lat="45.17694" lon="5.91976">
        <ele>1687.4000244141</ele>
        <time>2012-03-31T05:41:06.000Z</time>
      </trkpt>
      <trkpt lat="45.17687" lon="5.9198">
        <ele>1688</ele>
        <time>2012-03-31T05:41:13.000Z</time>
      </trkpt>
      <trkpt lat="45.17687" lon="5.9198">
        <ele>1688.1999511719</ele>
        <time>2012-03-31T05:41:14.000Z</time>
      </trkpt>
      <trkpt lat="45.17676" lon="5.91988">
        <ele>1689.4000244141</ele>
        <time>2012-03-31T05:41:25.000Z</time>
      </trkpt>
      <trkpt lat="45.17673" lon="5.91995">
        <ele>1690</ele>
        <time>2012-03-31T05:41:31.000Z</time>
      </trkpt>
      <trkpt lat="45.17673" lon="5.92007">
        <ele>1690.8000488281</ele>
        <time>2012-03-31T05:41:39.000Z</time>
      </trkpt>
      <trkpt lat="45.17672" lon="5.92016">
        <ele>1691</ele>
        <time>2012-03-31T05:41:44.000Z</time>
      </trkpt>
      <trkpt lat="45.1767" lon="5.92025">
        <ele>1691.4000244141</ele>
        <time>2012-03-31T05:41:49.000Z</time>
      </trkpt>
      <trkpt lat="45.17669" lon="5.92033">
        <ele>1691.4000244141</ele>
        <time>2012-03-31T05:41:53.000Z</time>
      </trkpt>
      <trkpt lat="45.17666" lon="5.92045">
        <ele>1692</ele>
        <time>2012-03-31T05:42:00.000Z</time>
      </trkpt>
      <trkpt lat="45.17665" lon="5.92046">
        <ele>1692.1999511719</ele>
        <time>2012-03-31T05:42:01.000Z</time>
      </trkpt>
      <trkpt lat="45.17657" lon="5.92056">
        <ele>1691.8000488281</ele>
        <time>2012-03-31T05:42:07.000Z</time>
      </trkpt>
      <trkpt lat="45.17645" lon="5.9206">
        <ele>1692</ele>
        <time>2012-03-31T05:42:15.000Z</time>
      </trkpt>
      <trkpt lat="45.17638" lon="5.92062">
        <ele>1692.8000488281</ele>
        <time>2012-03-31T05:42:22.000Z</time>
      </trkpt>
      <trkpt lat="45.1763" lon="5.92065">
        <ele>1693.5999755859</ele>
        <time>2012-03-31T05:42:29.000Z</time>
      </trkpt>
      <trkpt lat="45.17622" lon="5.92071">
        <ele>1694.1999511719</ele>
        <time>2012-03-31T05:42:36.000Z</time>
      </trkpt>
      <trkpt lat="45.17618" lon="5.92078">
        <ele>1694.4000244141</ele>
        <time>2012-03-31T05:42:41.000Z</time>
      </trkpt>
      <trkpt lat="45.17615" lon="5.92082">
        <ele>1694.8000488281</ele>
        <time>2012-03-31T05:42:44.000Z</time>
      </trkpt>
      <trkpt lat="45.1761" lon="5.92092">
        <ele>1695</ele>
        <time>2012-03-31T05:42:51.000Z</time>
      </trkpt>
      <trkpt lat="45.17609" lon="5.92103">
        <ele>1695.8000488281</ele>
        <time>2012-03-31T05:42:58.000Z</time>
      </trkpt>
      <trkpt lat="45.17607" lon="5.92112">
        <ele>1695.8000488281</ele>
        <time>2012-03-31T05:43:04.000Z</time>
      </trkpt>
      <trkpt lat="45.17604" lon="5.92119">
        <ele>1696</ele>
        <time>2012-03-31T05:43:09.000Z</time>
      </trkpt>
      <trkpt lat="45.176" lon="5.92124">
        <ele>1696</ele>
        <time>2012-03-31T05:43:13.000Z</time>
      </trkpt>
      <trkpt lat="45.17597" lon="5.92131">
        <ele>1696.4000244141</ele>
        <time>2012-03-31T05:43:18.000Z</time>
      </trkpt>
      <trkpt lat="45.17596" lon="5.92132">
        <ele>1696.4000244141</ele>
        <time>2012-03-31T05:43:19.000Z</time>
      </trkpt>
      <trkpt lat="45.17588" lon="5.92139">
        <ele>1697</ele>
        <time>2012-03-31T05:43:26.000Z</time>
      </trkpt>
      <trkpt lat="45.17586" lon="5.92142">
        <ele>1697.1999511719</ele>
        <time>2012-03-31T05:43:29.000Z</time>
      </trkpt>
      <trkpt lat="45.17584" lon="5.92149">
        <ele>1697</ele>
        <time>2012-03-31T05:43:37.000Z</time>
      </trkpt>
      <trkpt lat="45.17578" lon="5.92159">
        <ele>1697.5999755859</ele>
        <time>2012-03-31T05:43:44.000Z</time>
      </trkpt>
      <trkpt lat="45.17572" lon="5.92167">
        <ele>1698</ele>
        <time>2012-03-31T05:43:50.000Z</time>
      </trkpt>
      <trkpt lat="45.17571" lon="5.92169">
        <ele>1698.4000244141</ele>
        <time>2012-03-31T05:43:53.000Z</time>
      </trkpt>
      <trkpt lat="45.17566" lon="5.92176">
        <ele>1699</ele>
        <time>2012-03-31T05:43:59.000Z</time>
      </trkpt>
      <trkpt lat="45.17563" lon="5.92183">
        <ele>1699.8000488281</ele>
        <time>2012-03-31T05:44:04.000Z</time>
      </trkpt>
      <trkpt lat="45.17557" lon="5.92189">
        <ele>1700.1999511719</ele>
        <time>2012-03-31T05:44:10.000Z</time>
      </trkpt>
      <trkpt lat="45.17553" lon="5.92198">
        <ele>1700.5999755859</ele>
        <time>2012-03-31T05:44:16.000Z</time>
      </trkpt>
      <trkpt lat="45.17546" lon="5.92211">
        <ele>1701.1999511719</ele>
        <time>2012-03-31T05:44:24.000Z</time>
      </trkpt>
      <trkpt lat="45.17539" lon="5.92224">
        <ele>1702</ele>
        <time>2012-03-31T05:44:32.000Z</time>
      </trkpt>
      <trkpt lat="45.17536" lon="5.92234">
        <ele>1702.1999511719</ele>
        <time>2012-03-31T05:44:37.000Z</time>
      </trkpt>
      <trkpt lat="45.17531" lon="5.92245">
        <ele>1702.8000488281</ele>
        <time>2012-03-31T05:44:45.000Z</time>
      </trkpt>
      <trkpt lat="45.17528" lon="5.92249">
        <ele>1703</ele>
        <time>2012-03-31T05:44:50.000Z</time>
      </trkpt>
      <trkpt lat="45.17526" lon="5.92258">
        <ele>1703.1999511719</ele>
        <time>2012-03-31T05:44:57.000Z</time>
      </trkpt>
      <trkpt lat="45.17524" lon="5.92266">
        <ele>1703.5999755859</ele>
        <time>2012-03-31T05:45:02.000Z</time>
      </trkpt>
      <trkpt lat="45.17519" lon="5.92278">
        <ele>1703.8000488281</ele>
        <time>2012-03-31T05:45:08.000Z</time>
      </trkpt>
      <trkpt lat="45.17518" lon="5.92285">
        <ele>1703.8000488281</ele>
        <time>2012-03-31T05:45:13.000Z</time>
      </trkpt>
      <trkpt lat="45.17518" lon="5.92288">
        <ele>1703.1999511719</ele>
        <time>2012-03-31T05:45:17.000Z</time>
      </trkpt>
      <trkpt lat="45.17516" lon="5.92296">
        <ele>1703.5999755859</ele>
        <time>2012-03-31T05:45:24.000Z</time>
      </trkpt>
      <trkpt lat="45.17516" lon="5.92301">
        <ele>1703.5999755859</ele>
        <time>2012-03-31T05:45:28.000Z</time>
      </trkpt>
      <trkpt lat="45.17517" lon="5.92309">
        <ele>1703.4000244141</ele>
        <time>2012-03-31T05:45:32.000Z</time>
      </trkpt>
      <trkpt lat="45.17524" lon="5.92318">
        <ele>1703.4000244141</ele>
        <time>2012-03-31T05:45:39.000Z</time>
      </trkpt>
      <trkpt lat="45.17531" lon="5.92326">
        <ele>1704</ele>
        <time>2012-03-31T05:45:45.000Z</time>
      </trkpt>
      <trkpt lat="45.17533" lon="5.92336">
        <ele>1704.1999511719</ele>
        <time>2012-03-31T05:45:51.000Z</time>
      </trkpt>
      <trkpt lat="45.17536" lon="5.92343">
        <ele>1704</ele>
        <time>2012-03-31T05:45:55.000Z</time>
      </trkpt>
      <trkpt lat="45.17537" lon="5.92349">
        <ele>1703.5999755859</ele>
        <time>2012-03-31T05:45:59.000Z</time>
      </trkpt>
      <trkpt lat="45.17536" lon="5.92358">
        <ele>1703.5999755859</ele>
        <time>2012-03-31T05:46:03.000Z</time>
      </trkpt>
      <trkpt lat="45.1753" lon="5.92366">
        <ele>1703</ele>
        <time>2012-03-31T05:46:08.000Z</time>
      </trkpt>
      <trkpt lat="45.17523" lon="5.92373">
        <ele>1704</ele>
        <time>2012-03-31T05:46:15.000Z</time>
      </trkpt>
      <trkpt lat="45.17516" lon="5.92377">
        <ele>1704.8000488281</ele>
        <time>2012-03-31T05:46:21.000Z</time>
      </trkpt>
      <trkpt lat="45.17515" lon="5.92377">
        <ele>1705</ele>
        <time>2012-03-31T05:46:22.000Z</time>
      </trkpt>
      <trkpt lat="45.17507" lon="5.92381">
        <ele>1705</ele>
        <time>2012-03-31T05:46:28.000Z</time>
      </trkpt>
      <trkpt lat="45.17499" lon="5.92385">
        <ele>1706.1999511719</ele>
        <time>2012-03-31T05:46:35.000Z</time>
      </trkpt>
      <trkpt lat="45.17491" lon="5.92389">
        <ele>1707</ele>
        <time>2012-03-31T05:46:42.000Z</time>
      </trkpt>
      <trkpt lat="45.17488" lon="5.92392">
        <ele>1707</ele>
        <time>2012-03-31T05:46:45.000Z</time>
      </trkpt>
      <trkpt lat="45.17485" lon="5.92401">
        <ele>1707.4000244141</ele>
        <time>2012-03-31T05:46:49.000Z</time>
      </trkpt>
      <trkpt lat="45.17478" lon="5.92411">
        <ele>1708.8000488281</ele>
        <time>2012-03-31T05:46:57.000Z</time>
      </trkpt>
      <trkpt lat="45.17475" lon="5.92415">
        <ele>1710.1999511719</ele>
        <time>2012-03-31T05:47:02.000Z</time>
      </trkpt>
      <trkpt lat="45.1747" lon="5.92418">
        <ele>1712</ele>
        <time>2012-03-31T05:47:09.000Z</time>
      </trkpt>
      <trkpt lat="45.17464" lon="5.92422">
        <ele>1713.5999755859</ele>
        <time>2012-03-31T05:47:16.000Z</time>
      </trkpt>
      <trkpt lat="45.17458" lon="5.92425">
        <ele>1714</ele>
        <time>2012-03-31T05:47:22.000Z</time>
      </trkpt>
      <trkpt lat="45.17456" lon="5.92425">
        <ele>1714.1999511719</ele>
        <time>2012-03-31T05:47:23.000Z</time>
      </trkpt>
      <trkpt lat="45.1745" lon="5.92431">
        <ele>1713.4000244141</ele>
        <time>2012-03-31T05:47:30.000Z</time>
      </trkpt>
      <trkpt lat="45.17443" lon="5.92435">
        <ele>1714.4000244141</ele>
        <time>2012-03-31T05:47:38.000Z</time>
      </trkpt>
      <trkpt lat="45.17441" lon="5.92437">
        <ele>1715</ele>
        <time>2012-03-31T05:47:44.000Z</time>
      </trkpt>
      <trkpt lat="45.17438" lon="5.92442">
        <ele>1716.5999755859</ele>
        <time>2012-03-31T05:48:55.000Z</time>
      </trkpt>
      <trkpt lat="45.17432" lon="5.9244">
        <ele>1716.4000244141</ele>
        <time>2012-03-31T05:49:01.000Z</time>
      </trkpt>
      <trkpt lat="45.17429" lon="5.9244">
        <ele>1717.4000244141</ele>
        <time>2012-03-31T05:49:06.000Z</time>
      </trkpt>
      <trkpt lat="45.17422" lon="5.92442">
        <ele>1717.8000488281</ele>
        <time>2012-03-31T05:49:11.000Z</time>
      </trkpt>
      <trkpt lat="45.17414" lon="5.92444">
        <ele>1719.5999755859</ele>
        <time>2012-03-31T05:49:19.000Z</time>
      </trkpt>
      <trkpt lat="45.17407" lon="5.92447">
        <ele>1721.5999755859</ele>
        <time>2012-03-31T05:49:26.000Z</time>
      </trkpt>
      <trkpt lat="45.174" lon="5.92451">
        <ele>1723.8000488281</ele>
        <time>2012-03-31T05:49:34.000Z</time>
      </trkpt>
      <trkpt lat="45.17396" lon="5.92458">
        <ele>1725</ele>
        <time>2012-03-31T05:49:40.000Z</time>
      </trkpt>
      <trkpt lat="45.17392" lon="5.92463">
        <ele>1726.1999511719</ele>
        <time>2012-03-31T05:49:46.000Z</time>
      </trkpt>
      <trkpt lat="45.17388" lon="5.92472">
        <ele>1727.8000488281</ele>
        <time>2012-03-31T05:49:54.000Z</time>
      </trkpt>
      <trkpt lat="45.17384" lon="5.92481">
        <ele>1729</ele>
        <time>2012-03-31T05:50:02.000Z</time>
      </trkpt>
      <trkpt lat="45.1738" lon="5.92487">
        <ele>1730.8000488281</ele>
        <time>2012-03-31T05:50:09.000Z</time>
      </trkpt>
      <trkpt lat="45.17377" lon="5.92496">
        <ele>1731.8000488281</ele>
        <time>2012-03-31T05:50:16.000Z</time>
      </trkpt>
      <trkpt lat="45.17373" lon="5.92505">
        <ele>1733.4000244141</ele>
        <time>2012-03-31T05:50:23.000Z</time>
      </trkpt>
      <trkpt lat="45.17371" lon="5.9251">
        <ele>1734.8000488281</ele>
        <time>2012-03-31T05:50:28.000Z</time>
      </trkpt>
      <trkpt lat="45.17365" lon="5.92516">
        <ele>1736.4000244141</ele>
        <time>2012-03-31T05:50:36.000Z</time>
      </trkpt>
      <trkpt lat="45.17364" lon="5.92517">
        <ele>1736.5999755859</ele>
        <time>2012-03-31T05:50:37.000Z</time>
      </trkpt>
      <trkpt lat="45.17358" lon="5.92523">
        <ele>1737.8000488281</ele>
        <time>2012-03-31T05:50:44.000Z</time>
      </trkpt>
      <trkpt lat="45.17353" lon="5.92531">
        <ele>1739.8000488281</ele>
        <time>2012-03-31T05:50:53.000Z</time>
      </trkpt>
      <trkpt lat="45.1735" lon="5.92539">
        <ele>1740.4000244141</ele>
        <time>2012-03-31T05:50:59.000Z</time>
      </trkpt>
      <trkpt lat="45.17349" lon="5.92548">
        <ele>1741.1999511719</ele>
        <time>2012-03-31T05:51:06.000Z</time>
      </trkpt>
      <trkpt lat="45.17346" lon="5.92559">
        <ele>1742.4000244141</ele>
        <time>2012-03-31T05:51:14.000Z</time>
      </trkpt>
      <trkpt lat="45.17339" lon="5.92568">
        <ele>1744.5999755859</ele>
        <time>2012-03-31T05:51:23.000Z</time>
      </trkpt>
      <trkpt lat="45.17331" lon="5.92575">
        <ele>1747.5999755859</ele>
        <time>2012-03-31T05:51:33.000Z</time>
      </trkpt>
      <trkpt lat="45.17327" lon="5.92581">
        <ele>1749.1999511719</ele>
        <time>2012-03-31T05:51:40.000Z</time>
      </trkpt>
      <trkpt lat="45.17324" lon="5.92588">
        <ele>1750.5999755859</ele>
        <time>2012-03-31T05:51:48.000Z</time>
      </trkpt>
      <trkpt lat="45.17321" lon="5.9259">
        <ele>1752</ele>
        <time>2012-03-31T05:51:54.000Z</time>
      </trkpt>
      <trkpt lat="45.17319" lon="5.92597">
        <ele>1754</ele>
        <time>2012-03-31T05:52:02.000Z</time>
      </trkpt>
      <trkpt lat="45.17317" lon="5.92598">
        <ele>1754.4000244141</ele>
        <time>2012-03-31T05:52:04.000Z</time>
      </trkpt>
      <trkpt lat="45.17317" lon="5.926">
        <ele>1755</ele>
        <time>2012-03-31T05:52:06.000Z</time>
      </trkpt>
      <trkpt lat="45.1731" lon="5.92606">
        <ele>1756.8000488281</ele>
        <time>2012-03-31T05:52:15.000Z</time>
      </trkpt>
      <trkpt lat="45.17311" lon="5.92604">
        <ele>1757.4000244141</ele>
        <time>2012-03-31T05:52:24.000Z</time>
      </trkpt>
      <trkpt lat="45.17305" lon="5.92612">
        <ele>1759.1999511719</ele>
        <time>2012-03-31T05:52:31.000Z</time>
      </trkpt>
      <trkpt lat="45.17299" lon="5.92621">
        <ele>1760.8000488281</ele>
        <time>2012-03-31T05:52:38.000Z</time>
      </trkpt>
      <trkpt lat="45.17293" lon="5.92629">
        <ele>1762.8000488281</ele>
        <time>2012-03-31T05:52:46.000Z</time>
      </trkpt>
      <trkpt lat="45.17286" lon="5.92633">
        <ele>1764.8000488281</ele>
        <time>2012-03-31T05:52:54.000Z</time>
      </trkpt>
      <trkpt lat="45.1728" lon="5.92641">
        <ele>1766.8000488281</ele>
        <time>2012-03-31T05:53:03.000Z</time>
      </trkpt>
      <trkpt lat="45.17274" lon="5.92644">
        <ele>1768.5999755859</ele>
        <time>2012-03-31T05:53:10.000Z</time>
      </trkpt>
      <trkpt lat="45.17272" lon="5.92648">
        <ele>1769.4000244141</ele>
        <time>2012-03-31T05:53:14.000Z</time>
      </trkpt>
      <trkpt lat="45.17267" lon="5.92653">
        <ele>1771.4000244141</ele>
        <time>2012-03-31T05:53:22.000Z</time>
      </trkpt>
      <trkpt lat="45.17266" lon="5.92654">
        <ele>1771.8000488281</ele>
        <time>2012-03-31T05:53:24.000Z</time>
      </trkpt>
      <trkpt lat="45.17263" lon="5.92667">
        <ele>1773.4000244141</ele>
        <time>2012-03-31T05:53:34.000Z</time>
      </trkpt>
      <trkpt lat="45.17263" lon="5.92668">
        <ele>1773.5999755859</ele>
        <time>2012-03-31T05:53:35.000Z</time>
      </trkpt>
      <trkpt lat="45.17264" lon="5.92677">
        <ele>1775</ele>
        <time>2012-03-31T05:53:42.000Z</time>
      </trkpt>
      <trkpt lat="45.17269" lon="5.92686">
        <ele>1776.5999755859</ele>
        <time>2012-03-31T05:53:50.000Z</time>
      </trkpt>
      <trkpt lat="45.17272" lon="5.9269">
        <ele>1777</ele>
        <time>2012-03-31T05:53:54.000Z</time>
      </trkpt>
      <trkpt lat="45.17277" lon="5.92697">
        <ele>1778.8000488281</ele>
        <time>2012-03-31T05:54:03.000Z</time>
      </trkpt>
      <trkpt lat="45.17283" lon="5.92701">
        <ele>1780.1999511719</ele>
        <time>2012-03-31T05:54:11.000Z</time>
      </trkpt>
      <trkpt lat="45.17292" lon="5.92703">
        <ele>1781.4000244141</ele>
        <time>2012-03-31T05:54:20.000Z</time>
      </trkpt>
      <trkpt lat="45.17299" lon="5.92704">
        <ele>1782.8000488281</ele>
        <time>2012-03-31T05:54:27.000Z</time>
      </trkpt>
      <trkpt lat="45.17307" lon="5.92704">
        <ele>1784</ele>
        <time>2012-03-31T05:54:35.000Z</time>
      </trkpt>
      <trkpt lat="45.17313" lon="5.92705">
        <ele>1785.8000488281</ele>
        <time>2012-03-31T05:54:45.000Z</time>
      </trkpt>
      <trkpt lat="45.17315" lon="5.92708">
        <ele>1786.5999755859</ele>
        <time>2012-03-31T05:54:49.000Z</time>
      </trkpt>
      <trkpt lat="45.17315" lon="5.92718">
        <ele>1787.8000488281</ele>
        <time>2012-03-31T05:55:04.000Z</time>
      </trkpt>
      <trkpt lat="45.17316" lon="5.92719">
        <ele>1788</ele>
        <time>2012-03-31T05:55:05.000Z</time>
      </trkpt>
      <trkpt lat="45.17316" lon="5.92722">
        <ele>1788.5999755859</ele>
        <time>2012-03-31T05:55:07.000Z</time>
      </trkpt>
      <trkpt lat="45.17314" lon="5.92734">
        <ele>1790.8000488281</ele>
        <time>2012-03-31T05:55:17.000Z</time>
      </trkpt>
      <trkpt lat="45.17315" lon="5.92745">
        <ele>1791.8000488281</ele>
        <time>2012-03-31T05:55:25.000Z</time>
      </trkpt>
      <trkpt lat="45.17315" lon="5.92751">
        <ele>1792.5999755859</ele>
        <time>2012-03-31T05:55:31.000Z</time>
      </trkpt>
      <trkpt lat="45.17312" lon="5.92764">
        <ele>1794.1999511719</ele>
        <time>2012-03-31T05:55:40.000Z</time>
      </trkpt>
      <trkpt lat="45.17314" lon="5.92769">
        <ele>1794.4000244141</ele>
        <time>2012-03-31T05:55:44.000Z</time>
      </trkpt>
      <trkpt lat="45.17316" lon="5.92778">
        <ele>1794.8000488281</ele>
        <time>2012-03-31T05:55:51.000Z</time>
      </trkpt>
      <trkpt lat="45.17318" lon="5.92788">
        <ele>1795.4000244141</ele>
        <time>2012-03-31T05:55:58.000Z</time>
      </trkpt>
      <trkpt lat="45.1732" lon="5.92794">
        <ele>1795.1999511719</ele>
        <time>2012-03-31T05:56:02.000Z</time>
      </trkpt>
      <trkpt lat="45.17324" lon="5.92802">
        <ele>1797</ele>
        <time>2012-03-31T05:56:09.000Z</time>
      </trkpt>
      <trkpt lat="45.17329" lon="5.92812">
        <ele>1798.4000244141</ele>
        <time>2012-03-31T05:56:17.000Z</time>
      </trkpt>
      <trkpt lat="45.17333" lon="5.92819">
        <ele>1800.4000244141</ele>
        <time>2012-03-31T05:56:25.000Z</time>
      </trkpt>
      <trkpt lat="45.17337" lon="5.92824">
        <ele>1801.8000488281</ele>
        <time>2012-03-31T05:56:32.000Z</time>
      </trkpt>
      <trkpt lat="45.17343" lon="5.92831">
        <ele>1804.1999511719</ele>
        <time>2012-03-31T05:56:41.000Z</time>
      </trkpt>
      <trkpt lat="45.17345" lon="5.92838">
        <ele>1806</ele>
        <time>2012-03-31T05:56:49.000Z</time>
      </trkpt>
      <trkpt lat="45.17348" lon="5.92843">
        <ele>1806.8000488281</ele>
        <time>2012-03-31T05:56:55.000Z</time>
      </trkpt>
      <trkpt lat="45.17356" lon="5.92847">
        <ele>1808.4000244141</ele>
        <time>2012-03-31T05:57:05.000Z</time>
      </trkpt>
      <trkpt lat="45.17356" lon="5.92855">
        <ele>1809.8000488281</ele>
        <time>2012-03-31T05:57:12.000Z</time>
      </trkpt>
      <trkpt lat="45.17355" lon="5.92863">
        <ele>1811.4000244141</ele>
        <time>2012-03-31T05:57:19.000Z</time>
      </trkpt>
      <trkpt lat="45.17354" lon="5.92869">
        <ele>1813</ele>
        <time>2012-03-31T05:57:26.000Z</time>
      </trkpt>
      <trkpt lat="45.17354" lon="5.9287">
        <ele>1813.1999511719</ele>
        <time>2012-03-31T05:57:27.000Z</time>
      </trkpt>
      <trkpt lat="45.17352" lon="5.92873">
        <ele>1814</ele>
        <time>2012-03-31T05:57:31.000Z</time>
      </trkpt>
      <trkpt lat="45.17349" lon="5.92876">
        <ele>1815.4000244141</ele>
        <time>2012-03-31T05:57:37.000Z</time>
      </trkpt>
      <trkpt lat="45.17347" lon="5.92875">
        <ele>1815.8000488281</ele>
        <time>2012-03-31T05:57:40.000Z</time>
      </trkpt>
      <trkpt lat="45.17348" lon="5.92877">
        <ele>1816.1999511719</ele>
        <time>2012-03-31T05:57:44.000Z</time>
      </trkpt>
      <trkpt lat="45.17349" lon="5.9288">
        <ele>1817.1999511719</ele>
        <time>2012-03-31T05:57:47.000Z</time>
      </trkpt>
      <trkpt lat="45.17352" lon="5.92889">
        <ele>1819</ele>
        <time>2012-03-31T05:57:56.000Z</time>
      </trkpt>
      <trkpt lat="45.17353" lon="5.92898">
        <ele>1820.4000244141</ele>
        <time>2012-03-31T05:58:03.000Z</time>
      </trkpt>
      <trkpt lat="45.17355" lon="5.92907">
        <ele>1822.4000244141</ele>
        <time>2012-03-31T05:58:12.000Z</time>
      </trkpt>
      <trkpt lat="45.17356" lon="5.92916">
        <ele>1823.8000488281</ele>
        <time>2012-03-31T05:58:20.000Z</time>
      </trkpt>
      <trkpt lat="45.17358" lon="5.92922">
        <ele>1824.1999511719</ele>
        <time>2012-03-31T05:58:25.000Z</time>
      </trkpt>
      <trkpt lat="45.17363" lon="5.92933">
        <ele>1826</ele>
        <time>2012-03-31T05:58:35.000Z</time>
      </trkpt>
      <trkpt lat="45.17367" lon="5.92937">
        <ele>1827.1999511719</ele>
        <time>2012-03-31T05:58:42.000Z</time>
      </trkpt>
      <trkpt lat="45.17367" lon="5.92937">
        <ele>1827.5999755859</ele>
        <time>2012-03-31T05:58:43.000Z</time>
      </trkpt>
      <trkpt lat="45.17373" lon="5.92941">
        <ele>1829.1999511719</ele>
        <time>2012-03-31T05:58:51.000Z</time>
      </trkpt>
      <trkpt lat="45.17378" lon="5.92944">
        <ele>1831</ele>
        <time>2012-03-31T05:58:59.000Z</time>
      </trkpt>
      <trkpt lat="45.17379" lon="5.92947">
        <ele>1831.4000244141</ele>
        <time>2012-03-31T05:59:02.000Z</time>
      </trkpt>
      <trkpt lat="45.17385" lon="5.9295">
        <ele>1833</ele>
        <time>2012-03-31T05:59:10.000Z</time>
      </trkpt>
      <trkpt lat="45.17388" lon="5.92953">
        <ele>1834</ele>
        <time>2012-03-31T05:59:16.000Z</time>
      </trkpt>
      <trkpt lat="45.17392" lon="5.92958">
        <ele>1835.5999755859</ele>
        <time>2012-03-31T05:59:24.000Z</time>
      </trkpt>
      <trkpt lat="45.17396" lon="5.92963">
        <ele>1836.8000488281</ele>
        <time>2012-03-31T05:59:32.000Z</time>
      </trkpt>
      <trkpt lat="45.17397" lon="5.92963">
        <ele>1836.8000488281</ele>
        <time>2012-03-31T05:59:33.000Z</time>
      </trkpt>
      <trkpt lat="45.17406" lon="5.92971">
        <ele>1837.8000488281</ele>
        <time>2012-03-31T05:59:42.000Z</time>
      </trkpt>
      <trkpt lat="45.1741" lon="5.92977">
        <ele>1839.8000488281</ele>
        <time>2012-03-31T05:59:50.000Z</time>
      </trkpt>
      <trkpt lat="45.17413" lon="5.92981">
        <ele>1841.8000488281</ele>
        <time>2012-03-31T05:59:57.000Z</time>
      </trkpt>
      <trkpt lat="45.17416" lon="5.92989">
        <ele>1843.1999511719</ele>
        <time>2012-03-31T06:00:04.000Z</time>
      </trkpt>
      <trkpt lat="45.17417" lon="5.92997">
        <ele>1845.4000244141</ele>
        <time>2012-03-31T06:00:13.000Z</time>
      </trkpt>
      <trkpt lat="45.17419" lon="5.93007">
        <ele>1847.4000244141</ele>
        <time>2012-03-31T06:00:22.000Z</time>
      </trkpt>
      <trkpt lat="45.1742" lon="5.93007">
        <ele>1847.5999755859</ele>
        <time>2012-03-31T06:00:23.000Z</time>
      </trkpt>
      <trkpt lat="45.17419" lon="5.93011">
        <ele>1848.4000244141</ele>
        <time>2012-03-31T06:00:26.000Z</time>
      </trkpt>
      <trkpt lat="45.17421" lon="5.93016">
        <ele>1849.1999511719</ele>
        <time>2012-03-31T06:00:31.000Z</time>
      </trkpt>
      <trkpt lat="45.17422" lon="5.93028">
        <ele>1850.5999755859</ele>
        <time>2012-03-31T06:00:40.000Z</time>
      </trkpt>
      <trkpt lat="45.17423" lon="5.93034">
        <ele>1851.5999755859</ele>
        <time>2012-03-31T06:00:46.000Z</time>
      </trkpt>
      <trkpt lat="45.17423" lon="5.93037">
        <ele>1852.1999511719</ele>
        <time>2012-03-31T06:00:48.000Z</time>
      </trkpt>
      <trkpt lat="45.17424" lon="5.93042">
        <ele>1853</ele>
        <time>2012-03-31T06:00:52.000Z</time>
      </trkpt>
      <trkpt lat="45.17425" lon="5.93052">
        <ele>1854</ele>
        <time>2012-03-31T06:00:59.000Z</time>
      </trkpt>
      <trkpt lat="45.17426" lon="5.9306">
        <ele>1855</ele>
        <time>2012-03-31T06:01:05.000Z</time>
      </trkpt>
      <trkpt lat="45.17427" lon="5.93067">
        <ele>1856.5999755859</ele>
        <time>2012-03-31T06:01:12.000Z</time>
      </trkpt>
      <trkpt lat="45.17426" lon="5.93076">
        <ele>1857.8000488281</ele>
        <time>2012-03-31T06:01:19.000Z</time>
      </trkpt>
      <trkpt lat="45.17426" lon="5.93082">
        <ele>1858.8000488281</ele>
        <time>2012-03-31T06:01:25.000Z</time>
      </trkpt>
      <trkpt lat="45.17426" lon="5.93087">
        <ele>1859.8000488281</ele>
        <time>2012-03-31T06:01:31.000Z</time>
      </trkpt>
      <trkpt lat="45.17426" lon="5.93092">
        <ele>1861</ele>
        <time>2012-03-31T06:01:37.000Z</time>
      </trkpt>
      <trkpt lat="45.1743" lon="5.93096">
        <ele>1862.1999511719</ele>
        <time>2012-03-31T06:01:44.000Z</time>
      </trkpt>
      <trkpt lat="45.17431" lon="5.93096">
        <ele>1862.4000244141</ele>
        <time>2012-03-31T06:01:47.000Z</time>
      </trkpt>
      <trkpt lat="45.17429" lon="5.93101">
        <ele>1863.8000488281</ele>
        <time>2012-03-31T06:01:56.000Z</time>
      </trkpt>
      <trkpt lat="45.17427" lon="5.93102">
        <ele>1864.8000488281</ele>
        <time>2012-03-31T06:02:00.000Z</time>
      </trkpt>
      <trkpt lat="45.17426" lon="5.93091">
        <ele>1865.4000244141</ele>
        <time>2012-03-31T06:02:11.000Z</time>
      </trkpt>
      <trkpt lat="45.17426" lon="5.93091">
        <ele>1865.8000488281</ele>
        <time>2012-03-31T06:02:13.000Z</time>
      </trkpt>
      <trkpt lat="45.17425" lon="5.93098">
        <ele>1866.8000488281</ele>
        <time>2012-03-31T06:02:21.000Z</time>
      </trkpt>
      <trkpt lat="45.17426" lon="5.93103">
        <ele>1867.4000244141</ele>
        <time>2012-03-31T06:02:25.000Z</time>
      </trkpt>
      <trkpt lat="45.17428" lon="5.93109">
        <ele>1868</ele>
        <time>2012-03-31T06:02:30.000Z</time>
      </trkpt>
      <trkpt lat="45.17423" lon="5.93114">
        <ele>1869.4000244141</ele>
        <time>2012-03-31T06:02:35.000Z</time>
      </trkpt>
      <trkpt lat="45.17425" lon="5.93123">
        <ele>1869.8000488281</ele>
        <time>2012-03-31T06:02:41.000Z</time>
      </trkpt>
      <trkpt lat="45.17425" lon="5.93125">
        <ele>1870</ele>
        <time>2012-03-31T06:02:43.000Z</time>
      </trkpt>
      <trkpt lat="45.17426" lon="5.9313">
        <ele>1871.5999755859</ele>
        <time>2012-03-31T06:02:49.000Z</time>
      </trkpt>
      <trkpt lat="45.17426" lon="5.9313">
        <ele>1871.8000488281</ele>
        <time>2012-03-31T06:02:50.000Z</time>
      </trkpt>
      <trkpt lat="45.17419" lon="5.93143">
        <ele>1875</ele>
        <time>2012-03-31T06:03:05.000Z</time>
      </trkpt>
      <trkpt lat="45.17419" lon="5.93152">
        <ele>1876.5999755859</ele>
        <time>2012-03-31T06:03:12.000Z</time>
      </trkpt>
      <trkpt lat="45.17418" lon="5.93156">
        <ele>1878</ele>
        <time>2012-03-31T06:03:17.000Z</time>
      </trkpt>
      <trkpt lat="45.17413" lon="5.93164">
        <ele>1879.1999511719</ele>
        <time>2012-03-31T06:03:25.000Z</time>
      </trkpt>
      <trkpt lat="45.1741" lon="5.93166">
        <ele>1880</ele>
        <time>2012-03-31T06:03:31.000Z</time>
      </trkpt>
      <trkpt lat="45.17408" lon="5.93166">
        <ele>1880.5999755859</ele>
        <time>2012-03-31T06:03:34.000Z</time>
      </trkpt>
      <trkpt lat="45.17406" lon="5.93164">
        <ele>1882</ele>
        <time>2012-03-31T06:03:40.000Z</time>
      </trkpt>
      <trkpt lat="45.17404" lon="5.93166">
        <ele>1883</ele>
        <time>2012-03-31T06:03:44.000Z</time>
      </trkpt>
      <trkpt lat="45.17402" lon="5.93171">
        <ele>1884.5999755859</ele>
        <time>2012-03-31T06:03:52.000Z</time>
      </trkpt>
      <trkpt lat="45.17402" lon="5.93175">
        <ele>1885.4000244141</ele>
        <time>2012-03-31T06:03:56.000Z</time>
      </trkpt>
      <trkpt lat="45.17403" lon="5.93183">
        <ele>1886.1999511719</ele>
        <time>2012-03-31T06:04:03.000Z</time>
      </trkpt>
      <trkpt lat="45.17405" lon="5.93192">
        <ele>1886</ele>
        <time>2012-03-31T06:04:09.000Z</time>
      </trkpt>
      <trkpt lat="45.17405" lon="5.932">
        <ele>1886.1999511719</ele>
        <time>2012-03-31T06:04:13.000Z</time>
      </trkpt>
      <trkpt lat="45.17404" lon="5.93207">
        <ele>1886.4000244141</ele>
        <time>2012-03-31T06:04:17.000Z</time>
      </trkpt>
      <trkpt lat="45.17403" lon="5.93215">
        <ele>1886.8000488281</ele>
        <time>2012-03-31T06:04:23.000Z</time>
      </trkpt>
      <trkpt lat="45.174" lon="5.93227">
        <ele>1888.1999511719</ele>
        <time>2012-03-31T06:04:33.000Z</time>
      </trkpt>
      <trkpt lat="45.17395" lon="5.93237">
        <ele>1889.8000488281</ele>
        <time>2012-03-31T06:04:42.000Z</time>
      </trkpt>
      <trkpt lat="45.17393" lon="5.93248">
        <ele>1891</ele>
        <time>2012-03-31T06:04:50.000Z</time>
      </trkpt>
      <trkpt lat="45.17391" lon="5.93262">
        <ele>1891.4000244141</ele>
        <time>2012-03-31T06:04:57.000Z</time>
      </trkpt>
      <trkpt lat="45.17389" lon="5.93274">
        <ele>1891.5999755859</ele>
        <time>2012-03-31T06:05:04.000Z</time>
      </trkpt>
      <trkpt lat="45.17386" lon="5.93285">
        <ele>1891.8000488281</ele>
        <time>2012-03-31T06:05:11.000Z</time>
      </trkpt>
      <trkpt lat="45.17386" lon="5.93285">
        <ele>1891.8000488281</ele>
        <time>2012-03-31T06:05:12.000Z</time>
      </trkpt>
      <trkpt lat="45.17383" lon="5.9329">
        <ele>1892.1999511719</ele>
        <time>2012-03-31T06:05:38.000Z</time>
      </trkpt>
      <trkpt lat="45.17382" lon="5.93305">
        <ele>1892.8000488281</ele>
        <time>2012-03-31T06:05:47.000Z</time>
      </trkpt>
      <trkpt lat="45.1738" lon="5.9331">
        <ele>1894.1999511719</ele>
        <time>2012-03-31T06:05:53.000Z</time>
      </trkpt>
      <trkpt lat="45.1738" lon="5.9331">
        <ele>1895</ele>
        <time>2012-03-31T06:05:56.000Z</time>
      </trkpt>
      <trkpt lat="45.17375" lon="5.93316">
        <ele>1896.4000244141</ele>
        <time>2012-03-31T06:06:06.000Z</time>
      </trkpt>
      <trkpt lat="45.17374" lon="5.93319">
        <ele>1896.5999755859</ele>
        <time>2012-03-31T06:06:08.000Z</time>
      </trkpt>
      <trkpt lat="45.17371" lon="5.93331">
        <ele>1897</ele>
        <time>2012-03-31T06:06:15.000Z</time>
      </trkpt>
      <trkpt lat="45.17369" lon="5.93347">
        <ele>1897.8000488281</ele>
        <time>2012-03-31T06:06:24.000Z</time>
      </trkpt>
      <trkpt lat="45.17368" lon="5.9336">
        <ele>1898.1999511719</ele>
        <time>2012-03-31T06:06:31.000Z</time>
      </trkpt>
      <trkpt lat="45.17368" lon="5.93371">
        <ele>1898.1999511719</ele>
        <time>2012-03-31T06:06:37.000Z</time>
      </trkpt>
      <trkpt lat="45.17367" lon="5.93378">
        <ele>1899</ele>
        <time>2012-03-31T06:06:42.000Z</time>
      </trkpt>
      <trkpt lat="45.17366" lon="5.93389">
        <ele>1899.5999755859</ele>
        <time>2012-03-31T06:06:48.000Z</time>
      </trkpt>
      <trkpt lat="45.17365" lon="5.93396">
        <ele>1900.1999511719</ele>
        <time>2012-03-31T06:06:53.000Z</time>
      </trkpt>
      <trkpt lat="45.17364" lon="5.93406">
        <ele>1901.1999511719</ele>
        <time>2012-03-31T06:07:00.000Z</time>
      </trkpt>
      <trkpt lat="45.17365" lon="5.93412">
        <ele>1902.5999755859</ele>
        <time>2012-03-31T06:07:06.000Z</time>
      </trkpt>
      <trkpt lat="45.17365" lon="5.93422">
        <ele>1904</ele>
        <time>2012-03-31T06:07:13.000Z</time>
      </trkpt>
      <trkpt lat="45.17362" lon="5.93431">
        <ele>1905.4000244141</ele>
        <time>2012-03-31T06:07:19.000Z</time>
      </trkpt>
      <trkpt lat="45.1736" lon="5.9344">
        <ele>1907</ele>
        <time>2012-03-31T06:07:27.000Z</time>
      </trkpt>
      <trkpt lat="45.1736" lon="5.93444">
        <ele>1908</ele>
        <time>2012-03-31T06:07:32.000Z</time>
      </trkpt>
      <trkpt lat="45.1736" lon="5.93452">
        <ele>1909.5999755859</ele>
        <time>2012-03-31T06:07:39.000Z</time>
      </trkpt>
      <trkpt lat="45.1736" lon="5.93459">
        <ele>1911.1999511719</ele>
        <time>2012-03-31T06:07:46.000Z</time>
      </trkpt>
      <trkpt lat="45.17364" lon="5.93467">
        <ele>1913.8000488281</ele>
        <time>2012-03-31T06:07:56.000Z</time>
      </trkpt>
      <trkpt lat="45.17362" lon="5.93473">
        <ele>1914.8000488281</ele>
        <time>2012-03-31T06:08:01.000Z</time>
      </trkpt>
      <trkpt lat="45.17358" lon="5.93483">
        <ele>1916.5999755859</ele>
        <time>2012-03-31T06:08:10.000Z</time>
      </trkpt>
      <trkpt lat="45.17356" lon="5.93491">
        <ele>1918</ele>
        <time>2012-03-31T06:08:17.000Z</time>
      </trkpt>
      <trkpt lat="45.17357" lon="5.935">
        <ele>1919.1999511719</ele>
        <time>2012-03-31T06:08:23.000Z</time>
      </trkpt>
      <trkpt lat="45.1736" lon="5.93508">
        <ele>1920.8000488281</ele>
        <time>2012-03-31T06:08:32.000Z</time>
      </trkpt>
      <trkpt lat="45.1736" lon="5.93519">
        <ele>1922.4000244141</ele>
        <time>2012-03-31T06:08:40.000Z</time>
      </trkpt>
      <trkpt lat="45.17363" lon="5.93525">
        <ele>1923.1999511719</ele>
        <time>2012-03-31T06:08:47.000Z</time>
      </trkpt>
      <trkpt lat="45.17363" lon="5.93528">
        <ele>1923.4000244141</ele>
        <time>2012-03-31T06:08:49.000Z</time>
      </trkpt>
      <trkpt lat="45.17365" lon="5.93533">
        <ele>1924.1999511719</ele>
        <time>2012-03-31T06:08:53.000Z</time>
      </trkpt>
      <trkpt lat="45.17366" lon="5.93537">
        <ele>1924.8000488281</ele>
        <time>2012-03-31T06:08:57.000Z</time>
      </trkpt>
      <trkpt lat="45.17368" lon="5.93546">
        <ele>1926</ele>
        <time>2012-03-31T06:09:03.000Z</time>
      </trkpt>
      <trkpt lat="45.17365" lon="5.93556">
        <ele>1927.4000244141</ele>
        <time>2012-03-31T06:09:10.000Z</time>
      </trkpt>
      <trkpt lat="45.17366" lon="5.93557">
        <ele>1927.5999755859</ele>
        <time>2012-03-31T06:09:11.000Z</time>
      </trkpt>
      <trkpt lat="45.17369" lon="5.93564">
        <ele>1929.1999511719</ele>
        <time>2012-03-31T06:09:18.000Z</time>
      </trkpt>
      <trkpt lat="45.17373" lon="5.93572">
        <ele>1930.4000244141</ele>
        <time>2012-03-31T06:09:25.000Z</time>
      </trkpt>
      <trkpt lat="45.17373" lon="5.93577">
        <ele>1931.4000244141</ele>
        <time>2012-03-31T06:09:30.000Z</time>
      </trkpt>
      <trkpt lat="45.17376" lon="5.93582">
        <ele>1932.8000488281</ele>
        <time>2012-03-31T06:09:36.000Z</time>
      </trkpt>
      <trkpt lat="45.17374" lon="5.93586">
        <ele>1934.1999511719</ele>
        <time>2012-03-31T06:09:41.000Z</time>
      </trkpt>
      <trkpt lat="45.17377" lon="5.9359">
        <ele>1934.8000488281</ele>
        <time>2012-03-31T06:09:47.000Z</time>
      </trkpt>
      <trkpt lat="45.17378" lon="5.93594">
        <ele>1935.8000488281</ele>
        <time>2012-03-31T06:09:51.000Z</time>
      </trkpt>
      <trkpt lat="45.17382" lon="5.93596">
        <ele>1937.4000244141</ele>
        <time>2012-03-31T06:09:58.000Z</time>
      </trkpt>
      <trkpt lat="45.17389" lon="5.93605">
        <ele>1939</ele>
        <time>2012-03-31T06:10:09.000Z</time>
      </trkpt>
      <trkpt lat="45.17395" lon="5.93612">
        <ele>1940.5999755859</ele>
        <time>2012-03-31T06:10:17.000Z</time>
      </trkpt>
      <trkpt lat="45.174" lon="5.93617">
        <ele>1941.5999755859</ele>
        <time>2012-03-31T06:10:22.000Z</time>
      </trkpt>
      <trkpt lat="45.17398" lon="5.93613">
        <ele>1943.1999511719</ele>
        <time>2012-03-31T06:10:42.000Z</time>
      </trkpt>
      <trkpt lat="45.17396" lon="5.93614">
        <ele>1943.8000488281</ele>
        <time>2012-03-31T06:10:48.000Z</time>
      </trkpt>
      <trkpt lat="45.17395" lon="5.93616">
        <ele>1943.5999755859</ele>
        <time>2012-03-31T06:10:52.000Z</time>
      </trkpt>
      <trkpt lat="45.17392" lon="5.93619">
        <ele>1943.8000488281</ele>
        <time>2012-03-31T06:10:58.000Z</time>
      </trkpt>
      <trkpt lat="45.17388" lon="5.9362">
        <ele>1943.8000488281</ele>
        <time>2012-03-31T06:11:03.000Z</time>
      </trkpt>
      <trkpt lat="45.17379" lon="5.9362">
        <ele>1944.5999755859</ele>
        <time>2012-03-31T06:11:11.000Z</time>
      </trkpt>
      <trkpt lat="45.17376" lon="5.93621">
        <ele>1945.4000244141</ele>
        <time>2012-03-31T06:11:15.000Z</time>
      </trkpt>
      <trkpt lat="45.17368" lon="5.93621">
        <ele>1947.1999511719</ele>
        <time>2012-03-31T06:11:24.000Z</time>
      </trkpt>
      <trkpt lat="45.17365" lon="5.93623">
        <ele>1948.8000488281</ele>
        <time>2012-03-31T06:11:30.000Z</time>
      </trkpt>
      <trkpt lat="45.1736" lon="5.93622">
        <ele>1950</ele>
        <time>2012-03-31T06:11:35.000Z</time>
      </trkpt>
      <trkpt lat="45.17357" lon="5.93621">
        <ele>1951.1999511719</ele>
        <time>2012-03-31T06:11:41.000Z</time>
      </trkpt>
      <trkpt lat="45.17356" lon="5.93621">
        <ele>1951.4000244141</ele>
        <time>2012-03-31T06:11:42.000Z</time>
      </trkpt>
      <trkpt lat="45.17354" lon="5.9362">
        <ele>1952.5999755859</ele>
        <time>2012-03-31T06:11:48.000Z</time>
      </trkpt>
      <trkpt lat="45.17348" lon="5.93616">
        <ele>1953.4000244141</ele>
        <time>2012-03-31T06:11:58.000Z</time>
      </trkpt>
      <trkpt lat="45.17344" lon="5.93611">
        <ele>1954.1999511719</ele>
        <time>2012-03-31T06:12:04.000Z</time>
      </trkpt>
      <trkpt lat="45.17341" lon="5.93606">
        <ele>1955.1999511719</ele>
        <time>2012-03-31T06:12:09.000Z</time>
      </trkpt>
      <trkpt lat="45.17333" lon="5.93599">
        <ele>1957.8000488281</ele>
        <time>2012-03-31T06:12:20.000Z</time>
      </trkpt>
      <trkpt lat="45.17331" lon="5.93598">
        <ele>1958</ele>
        <time>2012-03-31T06:12:22.000Z</time>
      </trkpt>
      <trkpt lat="45.17325" lon="5.93597">
        <ele>1959.5999755859</ele>
        <time>2012-03-31T06:12:29.000Z</time>
      </trkpt>
      <trkpt lat="45.17319" lon="5.936">
        <ele>1961.4000244141</ele>
        <time>2012-03-31T06:12:37.000Z</time>
      </trkpt>
      <trkpt lat="45.17318" lon="5.93607">
        <ele>1962.8000488281</ele>
        <time>2012-03-31T06:12:43.000Z</time>
      </trkpt>
      <trkpt lat="45.17316" lon="5.93608">
        <ele>1963.1999511719</ele>
        <time>2012-03-31T06:12:45.000Z</time>
      </trkpt>
      <trkpt lat="45.17311" lon="5.93608">
        <ele>1964</ele>
        <time>2012-03-31T06:12:50.000Z</time>
      </trkpt>
      <trkpt lat="45.17307" lon="5.93609">
        <ele>1965</ele>
        <time>2012-03-31T06:12:54.000Z</time>
      </trkpt>
      <trkpt lat="45.17299" lon="5.93609">
        <ele>1966.5999755859</ele>
        <time>2012-03-31T06:13:03.000Z</time>
      </trkpt>
      <trkpt lat="45.17295" lon="5.9361">
        <ele>1967.5999755859</ele>
        <time>2012-03-31T06:13:07.000Z</time>
      </trkpt>
      <trkpt lat="45.17293" lon="5.93612">
        <ele>1968.4000244141</ele>
        <time>2012-03-31T06:13:10.000Z</time>
      </trkpt>
      <trkpt lat="45.17291" lon="5.93613">
        <ele>1969.4000244141</ele>
        <time>2012-03-31T06:13:15.000Z</time>
      </trkpt>
      <trkpt lat="45.17288" lon="5.93616">
        <ele>1969.5999755859</ele>
        <time>2012-03-31T06:13:21.000Z</time>
      </trkpt>
      <trkpt lat="45.17281" lon="5.9362">
        <ele>1971.5999755859</ele>
        <time>2012-03-31T06:13:31.000Z</time>
      </trkpt>
      <trkpt lat="45.17281" lon="5.93621">
        <ele>1971.8000488281</ele>
        <time>2012-03-31T06:13:32.000Z</time>
      </trkpt>
      <trkpt lat="45.17282" lon="5.9362">
        <ele>1972</ele>
        <time>2012-03-31T06:13:39.000Z</time>
      </trkpt>
      <trkpt lat="45.17278" lon="5.93619">
        <ele>1972.4000244141</ele>
        <time>2012-03-31T06:13:47.000Z</time>
      </trkpt>
      <trkpt lat="45.17278" lon="5.93621">
        <ele>1972.5999755859</ele>
        <time>2012-03-31T06:13:49.000Z</time>
      </trkpt>
      <trkpt lat="45.17274" lon="5.93627">
        <ele>1973.4000244141</ele>
        <time>2012-03-31T06:13:54.000Z</time>
      </trkpt>
      <trkpt lat="45.17269" lon="5.93632">
        <ele>1973.4000244141</ele>
        <time>2012-03-31T06:14:04.000Z</time>
      </trkpt>
      <trkpt lat="45.17264" lon="5.93633">
        <ele>1973.4000244141</ele>
        <time>2012-03-31T06:14:23.000Z</time>
      </trkpt>
      <trkpt lat="45.17258" lon="5.93636">
        <ele>1974</ele>
        <time>2012-03-31T06:14:40.000Z</time>
      </trkpt>
      <trkpt lat="45.17253" lon="5.93638">
        <ele>1974.5999755859</ele>
        <time>2012-03-31T06:14:47.000Z</time>
      </trkpt>
      <trkpt lat="45.17245" lon="5.9364">
        <ele>1975</ele>
        <time>2012-03-31T06:14:55.000Z</time>
      </trkpt>
      <trkpt lat="45.17235" lon="5.93644">
        <ele>1975.8000488281</ele>
        <time>2012-03-31T06:15:05.000Z</time>
      </trkpt>
      <trkpt lat="45.17223" lon="5.93648">
        <ele>1976.4000244141</ele>
        <time>2012-03-31T06:15:16.000Z</time>
      </trkpt>
      <trkpt lat="45.17218" lon="5.9365">
        <ele>1977</ele>
        <time>2012-03-31T06:15:23.000Z</time>
      </trkpt>
      <trkpt lat="45.17212" lon="5.93652">
        <ele>1977</ele>
        <time>2012-03-31T06:15:38.000Z</time>
      </trkpt>
      <trkpt lat="45.172" lon="5.93652">
        <ele>1977.8000488281</ele>
        <time>2012-03-31T06:15:47.000Z</time>
      </trkpt>
      <trkpt lat="45.17187" lon="5.9365">
        <ele>1978</ele>
        <time>2012-03-31T06:15:57.000Z</time>
      </trkpt>
      <trkpt lat="45.17177" lon="5.93648">
        <ele>1979.4000244141</ele>
        <time>2012-03-31T06:16:06.000Z</time>
      </trkpt>
      <trkpt lat="45.17171" lon="5.93648">
        <ele>1980.4000244141</ele>
        <time>2012-03-31T06:16:11.000Z</time>
      </trkpt>
      <trkpt lat="45.17167" lon="5.93644">
        <ele>1980.1999511719</ele>
        <time>2012-03-31T06:16:15.000Z</time>
      </trkpt>
      <trkpt lat="45.17156" lon="5.9363">
        <ele>1981</ele>
        <time>2012-03-31T06:16:27.000Z</time>
      </trkpt>
      <trkpt lat="45.17152" lon="5.93625">
        <ele>1982</ele>
        <time>2012-03-31T06:16:33.000Z</time>
      </trkpt>
      <trkpt lat="45.17146" lon="5.93622">
        <ele>1982.4000244141</ele>
        <time>2012-03-31T06:16:39.000Z</time>
      </trkpt>
      <trkpt lat="45.17136" lon="5.93629">
        <ele>1982.1999511719</ele>
        <time>2012-03-31T06:16:49.000Z</time>
      </trkpt>
      <trkpt lat="45.17128" lon="5.93637">
        <ele>1982.1999511719</ele>
        <time>2012-03-31T06:16:57.000Z</time>
      </trkpt>
      <trkpt lat="45.17127" lon="5.93638">
        <ele>1982.1999511719</ele>
        <time>2012-03-31T06:16:58.000Z</time>
      </trkpt>
      <trkpt lat="45.17125" lon="5.9364">
        <ele>1982.1999511719</ele>
        <time>2012-03-31T06:17:01.000Z</time>
      </trkpt>
      <trkpt lat="45.17122" lon="5.93643">
        <ele>1982.4000244141</ele>
        <time>2012-03-31T06:17:05.000Z</time>
      </trkpt>
      <trkpt lat="45.17116" lon="5.93652">
        <ele>1982.5999755859</ele>
        <time>2012-03-31T06:17:13.000Z</time>
      </trkpt>
      <trkpt lat="45.17113" lon="5.93659">
        <ele>1982.5999755859</ele>
        <time>2012-03-31T06:17:18.000Z</time>
      </trkpt>
      <trkpt lat="45.1711" lon="5.93674">
        <ele>1983.5999755859</ele>
        <time>2012-03-31T06:17:28.000Z</time>
      </trkpt>
      <trkpt lat="45.1711" lon="5.93674">
        <ele>1983.8000488281</ele>
        <time>2012-03-31T06:17:29.000Z</time>
      </trkpt>
      <trkpt lat="45.17106" lon="5.93667">
        <ele>1981.8000488281</ele>
        <time>2012-03-31T06:18:36.000Z</time>
      </trkpt>
      <trkpt lat="45.17111" lon="5.93672">
        <ele>1982.5999755859</ele>
        <time>2012-03-31T06:18:42.000Z</time>
      </trkpt>
      <trkpt lat="45.17111" lon="5.93672">
        <ele>1983.4000244141</ele>
        <time>2012-03-31T06:18:44.000Z</time>
      </trkpt>
      <trkpt lat="45.1711" lon="5.93678">
        <ele>1984.1999511719</ele>
        <time>2012-03-31T06:18:58.000Z</time>
      </trkpt>
      <trkpt lat="45.17107" lon="5.93689">
        <ele>1983.8000488281</ele>
        <time>2012-03-31T06:19:05.000Z</time>
      </trkpt>
      <trkpt lat="45.171" lon="5.93697">
        <ele>1984.4000244141</ele>
        <time>2012-03-31T06:19:13.000Z</time>
      </trkpt>
      <trkpt lat="45.17093" lon="5.93701">
        <ele>1985.1999511719</ele>
        <time>2012-03-31T06:19:21.000Z</time>
      </trkpt>
      <trkpt lat="45.17089" lon="5.93713">
        <ele>1986.1999511719</ele>
        <time>2012-03-31T06:19:29.000Z</time>
      </trkpt>
      <trkpt lat="45.17083" lon="5.93721">
        <ele>1986</ele>
        <time>2012-03-31T06:19:38.000Z</time>
      </trkpt>
      <trkpt lat="45.17076" lon="5.93729">
        <ele>1984.1999511719</ele>
        <time>2012-03-31T06:19:46.000Z</time>
      </trkpt>
      <trkpt lat="45.17067" lon="5.93733">
        <ele>1983.8000488281</ele>
        <time>2012-03-31T06:19:54.000Z</time>
      </trkpt>
      <trkpt lat="45.17056" lon="5.93735">
        <ele>1982.8000488281</ele>
        <time>2012-03-31T06:20:02.000Z</time>
      </trkpt>
      <trkpt lat="45.17051" lon="5.93735">
        <ele>1982.1999511719</ele>
        <time>2012-03-31T06:20:06.000Z</time>
      </trkpt>
      <trkpt lat="45.17037" lon="5.9373">
        <ele>1984</ele>
        <time>2012-03-31T06:20:18.000Z</time>
      </trkpt>
      <trkpt lat="45.17029" lon="5.93729">
        <ele>1985.1999511719</ele>
        <time>2012-03-31T06:20:25.000Z</time>
      </trkpt>
      <trkpt lat="45.17022" lon="5.93729">
        <ele>1986</ele>
        <time>2012-03-31T06:20:31.000Z</time>
      </trkpt>
      <trkpt lat="45.17021" lon="5.93729">
        <ele>1986.1999511719</ele>
        <time>2012-03-31T06:20:32.000Z</time>
      </trkpt>
      <trkpt lat="45.17012" lon="5.9373">
        <ele>1986.8000488281</ele>
        <time>2012-03-31T06:20:39.000Z</time>
      </trkpt>
      <trkpt lat="45.17" lon="5.93732">
        <ele>1987</ele>
        <time>2012-03-31T06:20:50.000Z</time>
      </trkpt>
      <trkpt lat="45.16995" lon="5.93736">
        <ele>1988</ele>
        <time>2012-03-31T06:20:56.000Z</time>
      </trkpt>
      <trkpt lat="45.16988" lon="5.93741">
        <ele>1989</ele>
        <time>2012-03-31T06:21:03.000Z</time>
      </trkpt>
      <trkpt lat="45.16982" lon="5.93745">
        <ele>1989.8000488281</ele>
        <time>2012-03-31T06:21:11.000Z</time>
      </trkpt>
      <trkpt lat="45.16971" lon="5.9375">
        <ele>1990</ele>
        <time>2012-03-31T06:21:21.000Z</time>
      </trkpt>
      <trkpt lat="45.16962" lon="5.93753">
        <ele>1990.5999755859</ele>
        <time>2012-03-31T06:21:29.000Z</time>
      </trkpt>
      <trkpt lat="45.16952" lon="5.93757">
        <ele>1990.1999511719</ele>
        <time>2012-03-31T06:21:38.000Z</time>
      </trkpt>
      <trkpt lat="45.16941" lon="5.93762">
        <ele>1990.1999511719</ele>
        <time>2012-03-31T06:21:47.000Z</time>
      </trkpt>
      <trkpt lat="45.16932" lon="5.93766">
        <ele>1990</ele>
        <time>2012-03-31T06:21:55.000Z</time>
      </trkpt>
      <trkpt lat="45.16922" lon="5.93771">
        <ele>1989.1999511719</ele>
        <time>2012-03-31T06:22:04.000Z</time>
      </trkpt>
      <trkpt lat="45.1691" lon="5.93778">
        <ele>1989</ele>
        <time>2012-03-31T06:22:15.000Z</time>
      </trkpt>
      <trkpt lat="45.169" lon="5.93783">
        <ele>1987.8000488281</ele>
        <time>2012-03-31T06:22:24.000Z</time>
      </trkpt>
      <trkpt lat="45.16889" lon="5.93789">
        <ele>1986.4000244141</ele>
        <time>2012-03-31T06:22:32.000Z</time>
      </trkpt>
      <trkpt lat="45.16885" lon="5.93794">
        <ele>1986.4000244141</ele>
        <time>2012-03-31T06:22:36.000Z</time>
      </trkpt>
      <trkpt lat="45.16876" lon="5.938">
        <ele>1986</ele>
        <time>2012-03-31T06:22:45.000Z</time>
      </trkpt>
      <trkpt lat="45.1686" lon="5.93806">
        <ele>1984.5999755859</ele>
        <time>2012-03-31T06:22:56.000Z</time>
      </trkpt>
      <trkpt lat="45.1685" lon="5.93811">
        <ele>1982.5999755859</ele>
        <time>2012-03-31T06:23:05.000Z</time>
      </trkpt>
      <trkpt lat="45.16841" lon="5.93814">
        <ele>1982.4000244141</ele>
        <time>2012-03-31T06:23:12.000Z</time>
      </trkpt>
      <trkpt lat="45.16834" lon="5.93813">
        <ele>1983.1999511719</ele>
        <time>2012-03-31T06:23:17.000Z</time>
      </trkpt>
      <trkpt lat="45.16829" lon="5.93814">
        <ele>1983.8000488281</ele>
        <time>2012-03-31T06:23:22.000Z</time>
      </trkpt>
      <trkpt lat="45.16817" lon="5.93815">
        <ele>1984.5999755859</ele>
        <time>2012-03-31T06:23:29.000Z</time>
      </trkpt>
      <trkpt lat="45.1681" lon="5.93818">
        <ele>1985.1999511719</ele>
        <time>2012-03-31T06:23:36.000Z</time>
      </trkpt>
      <trkpt lat="45.16809" lon="5.93818">
        <ele>1985.8000488281</ele>
        <time>2012-03-31T06:23:37.000Z</time>
      </trkpt>
      <trkpt lat="45.16802" lon="5.93819">
        <ele>1986.1999511719</ele>
        <time>2012-03-31T06:23:42.000Z</time>
      </trkpt>
      <trkpt lat="45.16798" lon="5.93822">
        <ele>1985.5999755859</ele>
        <time>2012-03-31T06:23:46.000Z</time>
      </trkpt>
      <trkpt lat="45.16795" lon="5.93823">
        <ele>1986.5999755859</ele>
        <time>2012-03-31T06:23:49.000Z</time>
      </trkpt>
      <trkpt lat="45.16789" lon="5.93825">
        <ele>1987.8000488281</ele>
        <time>2012-03-31T06:23:55.000Z</time>
      </trkpt>
      <trkpt lat="45.16784" lon="5.93827">
        <ele>1988.8000488281</ele>
        <time>2012-03-31T06:24:01.000Z</time>
      </trkpt>
      <trkpt lat="45.16781" lon="5.93828">
        <ele>1990</ele>
        <time>2012-03-31T06:24:06.000Z</time>
      </trkpt>
      <trkpt lat="45.16777" lon="5.93831">
        <ele>1991.4000244141</ele>
        <time>2012-03-31T06:24:11.000Z</time>
      </trkpt>
      <trkpt lat="45.16775" lon="5.93832">
        <ele>1991.8000488281</ele>
        <time>2012-03-31T06:24:13.000Z</time>
      </trkpt>
      <trkpt lat="45.16771" lon="5.93833">
        <ele>1992.8000488281</ele>
        <time>2012-03-31T06:24:18.000Z</time>
      </trkpt>
      <trkpt lat="45.16764" lon="5.93833">
        <ele>1994.8000488281</ele>
        <time>2012-03-31T06:24:26.000Z</time>
      </trkpt>
      <trkpt lat="45.16762" lon="5.93835">
        <ele>1995.5999755859</ele>
        <time>2012-03-31T06:24:31.000Z</time>
      </trkpt>
      <trkpt lat="45.16756" lon="5.93835">
        <ele>1996.5999755859</ele>
        <time>2012-03-31T06:24:36.000Z</time>
      </trkpt>
      <trkpt lat="45.16751" lon="5.9384">
        <ele>1997.8000488281</ele>
        <time>2012-03-31T06:24:42.000Z</time>
      </trkpt>
      <trkpt lat="45.16748" lon="5.93844">
        <ele>1999.4000244141</ele>
        <time>2012-03-31T06:24:48.000Z</time>
      </trkpt>
      <trkpt lat="45.16747" lon="5.93849">
        <ele>2000</ele>
        <time>2012-03-31T06:24:53.000Z</time>
      </trkpt>
      <trkpt lat="45.16744" lon="5.93851">
        <ele>2001</ele>
        <time>2012-03-31T06:24:57.000Z</time>
      </trkpt>
      <trkpt lat="45.16741" lon="5.93853">
        <ele>2001.5999755859</ele>
        <time>2012-03-31T06:25:02.000Z</time>
      </trkpt>
      <trkpt lat="45.16739" lon="5.93852">
        <ele>2003</ele>
        <time>2012-03-31T06:25:06.000Z</time>
      </trkpt>
      <trkpt lat="45.16736" lon="5.93852">
        <ele>2004.5999755859</ele>
        <time>2012-03-31T06:25:12.000Z</time>
      </trkpt>
      <trkpt lat="45.16729" lon="5.93855">
        <ele>2006.5999755859</ele>
        <time>2012-03-31T06:25:21.000Z</time>
      </trkpt>
      <trkpt lat="45.16726" lon="5.93856">
        <ele>2007.4000244141</ele>
        <time>2012-03-31T06:25:26.000Z</time>
      </trkpt>
      <trkpt lat="45.16723" lon="5.93856">
        <ele>2007.8000488281</ele>
        <time>2012-03-31T06:25:30.000Z</time>
      </trkpt>
      <trkpt lat="45.1672" lon="5.93859">
        <ele>2009.8000488281</ele>
        <time>2012-03-31T06:25:36.000Z</time>
      </trkpt>
      <trkpt lat="45.16718" lon="5.93861">
        <ele>2010.1999511719</ele>
        <time>2012-03-31T06:25:39.000Z</time>
      </trkpt>
      <trkpt lat="45.16714" lon="5.93867">
        <ele>2012</ele>
        <time>2012-03-31T06:25:47.000Z</time>
      </trkpt>
      <trkpt lat="45.16709" lon="5.9387">
        <ele>2013.1999511719</ele>
        <time>2012-03-31T06:25:53.000Z</time>
      </trkpt>
      <trkpt lat="45.16706" lon="5.93874">
        <ele>2013.8000488281</ele>
        <time>2012-03-31T06:25:58.000Z</time>
      </trkpt>
      <trkpt lat="45.16704" lon="5.93877">
        <ele>2015</ele>
        <time>2012-03-31T06:26:02.000Z</time>
      </trkpt>
      <trkpt lat="45.16702" lon="5.93878">
        <ele>2015.1999511719</ele>
        <time>2012-03-31T06:26:05.000Z</time>
      </trkpt>
      <trkpt lat="45.16697" lon="5.93884">
        <ele>2016.1999511719</ele>
        <time>2012-03-31T06:26:12.000Z</time>
      </trkpt>
      <trkpt lat="45.16695" lon="5.93888">
        <ele>2016.5999755859</ele>
        <time>2012-03-31T06:26:15.000Z</time>
      </trkpt>
      <trkpt lat="45.16691" lon="5.93891">
        <ele>2017.5999755859</ele>
        <time>2012-03-31T06:26:21.000Z</time>
      </trkpt>
      <trkpt lat="45.16686" lon="5.9389">
        <ele>2018</ele>
        <time>2012-03-31T06:26:25.000Z</time>
      </trkpt>
      <trkpt lat="45.16684" lon="5.93888">
        <ele>2018.4000244141</ele>
        <time>2012-03-31T06:26:27.000Z</time>
      </trkpt>
      <trkpt lat="45.16679" lon="5.93889">
        <ele>2019.4000244141</ele>
        <time>2012-03-31T06:26:33.000Z</time>
      </trkpt>
      <trkpt lat="45.16671" lon="5.93889">
        <ele>2021.8000488281</ele>
        <time>2012-03-31T06:26:42.000Z</time>
      </trkpt>
      <trkpt lat="45.16669" lon="5.93889">
        <ele>2022.4000244141</ele>
        <time>2012-03-31T06:26:45.000Z</time>
      </trkpt>
      <trkpt lat="45.16665" lon="5.93892">
        <ele>2023.1999511719</ele>
        <time>2012-03-31T06:26:51.000Z</time>
      </trkpt>
      <trkpt lat="45.16664" lon="5.93897">
        <ele>2025</ele>
        <time>2012-03-31T06:26:55.000Z</time>
      </trkpt>
      <trkpt lat="45.16664" lon="5.93904">
        <ele>2026</ele>
        <time>2012-03-31T06:26:58.000Z</time>
      </trkpt>
      <trkpt lat="45.16666" lon="5.93913">
        <ele>2027.5999755859</ele>
        <time>2012-03-31T06:27:04.000Z</time>
      </trkpt>
      <trkpt lat="45.16661" lon="5.93913">
        <ele>2028.5999755859</ele>
        <time>2012-03-31T06:27:11.000Z</time>
      </trkpt>
      <trkpt lat="45.1666" lon="5.93912">
        <ele>2029</ele>
        <time>2012-03-31T06:27:12.000Z</time>
      </trkpt>
      <trkpt lat="45.16654" lon="5.93907">
        <ele>2029.8000488281</ele>
        <time>2012-03-31T06:27:20.000Z</time>
      </trkpt>
      <trkpt lat="45.1665" lon="5.93902">
        <ele>2031.4000244141</ele>
        <time>2012-03-31T06:27:26.000Z</time>
      </trkpt>
      <trkpt lat="45.16647" lon="5.93899">
        <ele>2033.1999511719</ele>
        <time>2012-03-31T06:27:31.000Z</time>
      </trkpt>
      <trkpt lat="45.16645" lon="5.93899">
        <ele>2034</ele>
        <time>2012-03-31T06:27:33.000Z</time>
      </trkpt>
      <trkpt lat="45.16642" lon="5.93905">
        <ele>2035.4000244141</ele>
        <time>2012-03-31T06:27:40.000Z</time>
      </trkpt>
      <trkpt lat="45.1664" lon="5.93911">
        <ele>2036.5999755859</ele>
        <time>2012-03-31T06:27:46.000Z</time>
      </trkpt>
      <trkpt lat="45.1664" lon="5.93921">
        <ele>2037</ele>
        <time>2012-03-31T06:27:52.000Z</time>
      </trkpt>
      <trkpt lat="45.16641" lon="5.93925">
        <ele>2037.4000244141</ele>
        <time>2012-03-31T06:27:55.000Z</time>
      </trkpt>
      <trkpt lat="45.16641" lon="5.93928">
        <ele>2037.8000488281</ele>
        <time>2012-03-31T06:27:57.000Z</time>
      </trkpt>
      <trkpt lat="45.16644" lon="5.93933">
        <ele>2039</ele>
        <time>2012-03-31T06:28:03.000Z</time>
      </trkpt>
      <trkpt lat="45.16646" lon="5.93936">
        <ele>2040.1999511719</ele>
        <time>2012-03-31T06:28:09.000Z</time>
      </trkpt>
      <trkpt lat="45.16646" lon="5.93937">
        <ele>2040.5999755859</ele>
        <time>2012-03-31T06:28:11.000Z</time>
      </trkpt>
      <trkpt lat="45.16642" lon="5.93937">
        <ele>2041</ele>
        <time>2012-03-31T06:28:16.000Z</time>
      </trkpt>
      <trkpt lat="45.16637" lon="5.93937">
        <ele>2042.4000244141</ele>
        <time>2012-03-31T06:28:23.000Z</time>
      </trkpt>
      <trkpt lat="45.16634" lon="5.93937">
        <ele>2043.1999511719</ele>
        <time>2012-03-31T06:28:26.000Z</time>
      </trkpt>
      <trkpt lat="45.1663" lon="5.93937">
        <ele>2043.8000488281</ele>
        <time>2012-03-31T06:28:33.000Z</time>
      </trkpt>
      <trkpt lat="45.1663" lon="5.93938">
        <ele>2043.8000488281</ele>
        <time>2012-03-31T06:28:34.000Z</time>
      </trkpt>
      <trkpt lat="45.16635" lon="5.93945">
        <ele>2045</ele>
        <time>2012-03-31T06:28:41.000Z</time>
      </trkpt>
      <trkpt lat="45.16636" lon="5.93951">
        <ele>2046.4000244141</ele>
        <time>2012-03-31T06:28:46.000Z</time>
      </trkpt>
      <trkpt lat="45.16634" lon="5.93962">
        <ele>2047.5999755859</ele>
        <time>2012-03-31T06:28:52.000Z</time>
      </trkpt>
      <trkpt lat="45.16632" lon="5.93972">
        <ele>2049.6000976562</ele>
        <time>2012-03-31T06:28:58.000Z</time>
      </trkpt>
      <trkpt lat="45.16629" lon="5.93979">
        <ele>2050.6000976562</ele>
        <time>2012-03-31T06:29:05.000Z</time>
      </trkpt>
      <trkpt lat="45.16628" lon="5.93981">
        <ele>2051</ele>
        <time>2012-03-31T06:29:06.000Z</time>
      </trkpt>
      <trkpt lat="45.1663" lon="5.93992">
        <ele>2052.6000976562</ele>
        <time>2012-03-31T06:29:10.000Z</time>
      </trkpt>
      <trkpt lat="45.16628" lon="5.93993">
        <ele>2053</ele>
        <time>2012-03-31T06:29:12.000Z</time>
      </trkpt>
      <trkpt lat="45.16626" lon="5.93994">
        <ele>2053.3999023438</ele>
        <time>2012-03-31T06:29:15.000Z</time>
      </trkpt>
      <trkpt lat="45.16623" lon="5.94001">
        <ele>2055.1999511719</ele>
        <time>2012-03-31T06:29:22.000Z</time>
      </trkpt>
      <trkpt lat="45.16624" lon="5.94013">
        <ele>2056.3999023438</ele>
        <time>2012-03-31T06:29:27.000Z</time>
      </trkpt>
      <trkpt lat="45.16622" lon="5.94014">
        <ele>2057.1999511719</ele>
        <time>2012-03-31T06:29:32.000Z</time>
      </trkpt>
      <trkpt lat="45.16625" lon="5.94023">
        <ele>2058.8000488281</ele>
        <time>2012-03-31T06:29:38.000Z</time>
      </trkpt>
      <trkpt lat="45.16626" lon="5.94031">
        <ele>2059.8000488281</ele>
        <time>2012-03-31T06:29:46.000Z</time>
      </trkpt>
      <trkpt lat="45.16624" lon="5.94033">
        <ele>2061</ele>
        <time>2012-03-31T06:29:51.000Z</time>
      </trkpt>
      <trkpt lat="45.16623" lon="5.94033">
        <ele>2061.1999511719</ele>
        <time>2012-03-31T06:29:53.000Z</time>
      </trkpt>
      <trkpt lat="45.16618" lon="5.94031">
        <ele>2062.6000976562</ele>
        <time>2012-03-31T06:29:58.000Z</time>
      </trkpt>
      <trkpt lat="45.16615" lon="5.94036">
        <ele>2063.3999023438</ele>
        <time>2012-03-31T06:30:04.000Z</time>
      </trkpt>
      <trkpt lat="45.16614" lon="5.94042">
        <ele>2064.6000976562</ele>
        <time>2012-03-31T06:30:09.000Z</time>
      </trkpt>
      <trkpt lat="45.16615" lon="5.94056">
        <ele>2065.8000488281</ele>
        <time>2012-03-31T06:30:15.000Z</time>
      </trkpt>
      <trkpt lat="45.16609" lon="5.9406">
        <ele>2066.8000488281</ele>
        <time>2012-03-31T06:30:24.000Z</time>
      </trkpt>
      <trkpt lat="45.16608" lon="5.94066">
        <ele>2067.3999023438</ele>
        <time>2012-03-31T06:30:28.000Z</time>
      </trkpt>
      <trkpt lat="45.16607" lon="5.94073">
        <ele>2068.3999023438</ele>
        <time>2012-03-31T06:30:33.000Z</time>
      </trkpt>
      <trkpt lat="45.16606" lon="5.94081">
        <ele>2069.3999023438</ele>
        <time>2012-03-31T06:30:38.000Z</time>
      </trkpt>
      <trkpt lat="45.16606" lon="5.94082">
        <ele>2069.6000976562</ele>
        <time>2012-03-31T06:30:39.000Z</time>
      </trkpt>
      <trkpt lat="45.16603" lon="5.94087">
        <ele>2070.3999023438</ele>
        <time>2012-03-31T06:30:44.000Z</time>
      </trkpt>
      <trkpt lat="45.16594" lon="5.94092">
        <ele>2071.1999511719</ele>
        <time>2012-03-31T06:30:54.000Z</time>
      </trkpt>
      <trkpt lat="45.16588" lon="5.94098">
        <ele>2071</ele>
        <time>2012-03-31T06:31:02.000Z</time>
      </trkpt>
      <trkpt lat="45.16586" lon="5.94101">
        <ele>2070.3999023438</ele>
        <time>2012-03-31T06:31:07.000Z</time>
      </trkpt>
      <trkpt lat="45.16582" lon="5.94103">
        <ele>2070.3999023438</ele>
        <time>2012-03-31T06:31:14.000Z</time>
      </trkpt>
      <trkpt lat="45.16581" lon="5.94118">
        <ele>2069.1999511719</ele>
        <time>2012-03-31T06:31:20.000Z</time>
      </trkpt>
      <trkpt lat="45.16577" lon="5.94139">
        <ele>2068.3999023438</ele>
        <time>2012-03-31T06:31:29.000Z</time>
      </trkpt>
      <trkpt lat="45.16575" lon="5.94157">
        <ele>2068.6000976562</ele>
        <time>2012-03-31T06:31:37.000Z</time>
      </trkpt>
      <trkpt lat="45.16571" lon="5.94168">
        <ele>2069.1999511719</ele>
        <time>2012-03-31T06:31:45.000Z</time>
      </trkpt>
      <trkpt lat="45.16569" lon="5.94185">
        <ele>2070.6000976562</ele>
        <time>2012-03-31T06:31:53.000Z</time>
      </trkpt>
      <trkpt lat="45.16567" lon="5.94191">
        <ele>2071.3999023438</ele>
        <time>2012-03-31T06:31:58.000Z</time>
      </trkpt>
      <trkpt lat="45.16565" lon="5.942">
        <ele>2071.8000488281</ele>
        <time>2012-03-31T06:32:04.000Z</time>
      </trkpt>
      <trkpt lat="45.16562" lon="5.94205">
        <ele>2072.6000976562</ele>
        <time>2012-03-31T06:32:08.000Z</time>
      </trkpt>
      <trkpt lat="45.16561" lon="5.94213">
        <ele>2073.3999023438</ele>
        <time>2012-03-31T06:32:12.000Z</time>
      </trkpt>
      <trkpt lat="45.16557" lon="5.94218">
        <ele>2073.8000488281</ele>
        <time>2012-03-31T06:32:18.000Z</time>
      </trkpt>
      <trkpt lat="45.16553" lon="5.94219">
        <ele>2075.3999023438</ele>
        <time>2012-03-31T06:32:23.000Z</time>
      </trkpt>
      <trkpt lat="45.1655" lon="5.94223">
        <ele>2077</ele>
        <time>2012-03-31T06:32:29.000Z</time>
      </trkpt>
      <trkpt lat="45.1655" lon="5.94225">
        <ele>2077.6000976562</ele>
        <time>2012-03-31T06:32:31.000Z</time>
      </trkpt>
      <trkpt lat="45.16547" lon="5.94231">
        <ele>2078</ele>
        <time>2012-03-31T06:32:35.000Z</time>
      </trkpt>
      <trkpt lat="45.16541" lon="5.94239">
        <ele>2079</ele>
        <time>2012-03-31T06:32:42.000Z</time>
      </trkpt>
      <trkpt lat="45.16533" lon="5.94241">
        <ele>2079.8000488281</ele>
        <time>2012-03-31T06:32:49.000Z</time>
      </trkpt>
      <trkpt lat="45.16531" lon="5.94241">
        <ele>2080.1999511719</ele>
        <time>2012-03-31T06:32:52.000Z</time>
      </trkpt>
      <trkpt lat="45.16526" lon="5.94245">
        <ele>2079.8000488281</ele>
        <time>2012-03-31T06:32:56.000Z</time>
      </trkpt>
      <trkpt lat="45.16515" lon="5.9426">
        <ele>2076.1999511719</ele>
        <time>2012-03-31T06:33:01.000Z</time>
      </trkpt>
      <trkpt lat="45.16509" lon="5.9427">
        <ele>2076</ele>
        <time>2012-03-31T06:33:07.000Z</time>
      </trkpt>
      <trkpt lat="45.16507" lon="5.94272">
        <ele>2076</ele>
        <time>2012-03-31T06:33:09.000Z</time>
      </trkpt>
      <trkpt lat="45.16501" lon="5.94279">
        <ele>2077</ele>
        <time>2012-03-31T06:33:16.000Z</time>
      </trkpt>
      <trkpt lat="45.165" lon="5.94279">
        <ele>2077.1999511719</ele>
        <time>2012-03-31T06:33:17.000Z</time>
      </trkpt>
      <trkpt lat="45.16496" lon="5.94283">
        <ele>2077.6000976562</ele>
        <time>2012-03-31T06:33:21.000Z</time>
      </trkpt>
      <trkpt lat="45.16488" lon="5.94289">
        <ele>2078</ele>
        <time>2012-03-31T06:33:29.000Z</time>
      </trkpt>
      <trkpt lat="45.16481" lon="5.94294">
        <ele>2078.8000488281</ele>
        <time>2012-03-31T06:33:36.000Z</time>
      </trkpt>
      <trkpt lat="45.16477" lon="5.94299">
        <ele>2079.6000976562</ele>
        <time>2012-03-31T06:33:41.000Z</time>
      </trkpt>
      <trkpt lat="45.16475" lon="5.943">
        <ele>2079.8000488281</ele>
        <time>2012-03-31T06:33:43.000Z</time>
      </trkpt>
      <trkpt lat="45.16465" lon="5.94301">
        <ele>2082</ele>
        <time>2012-03-31T06:33:52.000Z</time>
      </trkpt>
      <trkpt lat="45.16461" lon="5.94303">
        <ele>2082.8000488281</ele>
        <time>2012-03-31T06:33:56.000Z</time>
      </trkpt>
      <trkpt lat="45.16457" lon="5.94309">
        <ele>2084.1999511719</ele>
        <time>2012-03-31T06:34:02.000Z</time>
      </trkpt>
      <trkpt lat="45.16456" lon="5.9431">
        <ele>2084.8000488281</ele>
        <time>2012-03-31T06:34:04.000Z</time>
      </trkpt>
      <trkpt lat="45.16453" lon="5.94313">
        <ele>2086</ele>
        <time>2012-03-31T06:34:15.000Z</time>
      </trkpt>
      <trkpt lat="45.16451" lon="5.94317">
        <ele>2086.6000976562</ele>
        <time>2012-03-31T06:34:18.000Z</time>
      </trkpt>
      <trkpt lat="45.16446" lon="5.94321">
        <ele>2088.1999511719</ele>
        <time>2012-03-31T06:34:25.000Z</time>
      </trkpt>
      <trkpt lat="45.16442" lon="5.94325">
        <ele>2089.3999023438</ele>
        <time>2012-03-31T06:34:30.000Z</time>
      </trkpt>
      <trkpt lat="45.1644" lon="5.94327">
        <ele>2090</ele>
        <time>2012-03-31T06:34:33.000Z</time>
      </trkpt>
      <trkpt lat="45.16434" lon="5.94334">
        <ele>2091.8000488281</ele>
        <time>2012-03-31T06:34:40.000Z</time>
      </trkpt>
      <trkpt lat="45.1643" lon="5.94333">
        <ele>2093.3999023438</ele>
        <time>2012-03-31T06:34:48.000Z</time>
      </trkpt>
      <trkpt lat="45.16425" lon="5.94324">
        <ele>2094.8000488281</ele>
        <time>2012-03-31T06:34:56.000Z</time>
      </trkpt>
      <trkpt lat="45.16419" lon="5.94314">
        <ele>2096.6000976562</ele>
        <time>2012-03-31T06:35:04.000Z</time>
      </trkpt>
      <trkpt lat="45.16419" lon="5.94307">
        <ele>2097.6000976562</ele>
        <time>2012-03-31T06:35:09.000Z</time>
      </trkpt>
      <trkpt lat="45.16416" lon="5.94303">
        <ele>2098.6000976562</ele>
        <time>2012-03-31T06:35:13.000Z</time>
      </trkpt>
      <trkpt lat="45.16415" lon="5.94297">
        <ele>2099.8000488281</ele>
        <time>2012-03-31T06:35:18.000Z</time>
      </trkpt>
      <trkpt lat="45.16415" lon="5.94296">
        <ele>2100.8000488281</ele>
        <time>2012-03-31T06:35:21.000Z</time>
      </trkpt>
      <trkpt lat="45.16414" lon="5.9429">
        <ele>2102.3999023438</ele>
        <time>2012-03-31T06:35:29.000Z</time>
      </trkpt>
      <trkpt lat="45.16413" lon="5.94284">
        <ele>2103.3999023438</ele>
        <time>2012-03-31T06:35:34.000Z</time>
      </trkpt>
      <trkpt lat="45.16412" lon="5.94279">
        <ele>2105</ele>
        <time>2012-03-31T06:35:41.000Z</time>
      </trkpt>
      <trkpt lat="45.16407" lon="5.94275">
        <ele>2106</ele>
        <time>2012-03-31T06:35:48.000Z</time>
      </trkpt>
      <trkpt lat="45.16407" lon="5.94277">
        <ele>2106.1999511719</ele>
        <time>2012-03-31T06:35:52.000Z</time>
      </trkpt>
      <trkpt lat="45.16406" lon="5.94282">
        <ele>2106.3999023438</ele>
        <time>2012-03-31T06:35:56.000Z</time>
      </trkpt>
      <trkpt lat="45.16404" lon="5.94295">
        <ele>2107.3999023438</ele>
        <time>2012-03-31T06:36:03.000Z</time>
      </trkpt>
      <trkpt lat="45.16403" lon="5.94299">
        <ele>2107.8000488281</ele>
        <time>2012-03-31T06:36:05.000Z</time>
      </trkpt>
      <trkpt lat="45.164" lon="5.94306">
        <ele>2109.1999511719</ele>
        <time>2012-03-31T06:36:11.000Z</time>
      </trkpt>
      <trkpt lat="45.16399" lon="5.94309">
        <ele>2109.8000488281</ele>
        <time>2012-03-31T06:36:13.000Z</time>
      </trkpt>
      <trkpt lat="45.16396" lon="5.94317">
        <ele>2110</ele>
        <time>2012-03-31T06:36:19.000Z</time>
      </trkpt>
      <trkpt lat="45.16395" lon="5.94319">
        <ele>2110</ele>
        <time>2012-03-31T06:36:21.000Z</time>
      </trkpt>
      <trkpt lat="45.16395" lon="5.94328">
        <ele>2110.8000488281</ele>
        <time>2012-03-31T06:36:26.000Z</time>
      </trkpt>
      <trkpt lat="45.16395" lon="5.94333">
        <ele>2111.1999511719</ele>
        <time>2012-03-31T06:36:29.000Z</time>
      </trkpt>
      <trkpt lat="45.16395" lon="5.94336">
        <ele>2111.3999023438</ele>
        <time>2012-03-31T06:36:31.000Z</time>
      </trkpt>
      <trkpt lat="45.16391" lon="5.94346">
        <ele>2112.1999511719</ele>
        <time>2012-03-31T06:36:37.000Z</time>
      </trkpt>
      <trkpt lat="45.16392" lon="5.94349">
        <ele>2112.6000976562</ele>
        <time>2012-03-31T06:36:39.000Z</time>
      </trkpt>
      <trkpt lat="45.16393" lon="5.94352">
        <ele>2113.1999511719</ele>
        <time>2012-03-31T06:36:42.000Z</time>
      </trkpt>
      <trkpt lat="45.16393" lon="5.94354">
        <ele>2114.8000488281</ele>
        <time>2012-03-31T06:36:46.000Z</time>
      </trkpt>
      <trkpt lat="45.16396" lon="5.94363">
        <ele>2116</ele>
        <time>2012-03-31T06:36:53.000Z</time>
      </trkpt>
      <trkpt lat="45.16393" lon="5.94367">
        <ele>2117.6000976562</ele>
        <time>2012-03-31T06:36:58.000Z</time>
      </trkpt>
      <trkpt lat="45.16392" lon="5.94371">
        <ele>2118</ele>
        <time>2012-03-31T06:37:01.000Z</time>
      </trkpt>
      <trkpt lat="45.16391" lon="5.94385">
        <ele>2119.3999023438</ele>
        <time>2012-03-31T06:37:10.000Z</time>
      </trkpt>
      <trkpt lat="45.16393" lon="5.94392">
        <ele>2119.8000488281</ele>
        <time>2012-03-31T06:37:16.000Z</time>
      </trkpt>
      <trkpt lat="45.16392" lon="5.94393">
        <ele>2120.1999511719</ele>
        <time>2012-03-31T06:37:19.000Z</time>
      </trkpt>
      <trkpt lat="45.16391" lon="5.94395">
        <ele>2120.6000976562</ele>
        <time>2012-03-31T06:37:21.000Z</time>
      </trkpt>
      <trkpt lat="45.1639" lon="5.94399">
        <ele>2121.3999023438</ele>
        <time>2012-03-31T06:37:24.000Z</time>
      </trkpt>
      <trkpt lat="45.16388" lon="5.94399">
        <ele>2122.6000976562</ele>
        <time>2012-03-31T06:37:29.000Z</time>
      </trkpt>
      <trkpt lat="45.16385" lon="5.944">
        <ele>2123.8000488281</ele>
        <time>2012-03-31T06:37:34.000Z</time>
      </trkpt>
      <trkpt lat="45.16385" lon="5.94404">
        <ele>2124.6000976562</ele>
        <time>2012-03-31T06:37:39.000Z</time>
      </trkpt>
      <trkpt lat="45.16385" lon="5.94407">
        <ele>2125.8000488281</ele>
        <time>2012-03-31T06:37:43.000Z</time>
      </trkpt>
      <trkpt lat="45.16383" lon="5.94412">
        <ele>2127</ele>
        <time>2012-03-31T06:37:48.000Z</time>
      </trkpt>
      <trkpt lat="45.16381" lon="5.94414">
        <ele>2127.1999511719</ele>
        <time>2012-03-31T06:37:50.000Z</time>
      </trkpt>
      <trkpt lat="45.16381" lon="5.94421">
        <ele>2128.8000488281</ele>
        <time>2012-03-31T06:37:57.000Z</time>
      </trkpt>
      <trkpt lat="45.16381" lon="5.94428">
        <ele>2130.1999511719</ele>
        <time>2012-03-31T06:38:03.000Z</time>
      </trkpt>
      <trkpt lat="45.16379" lon="5.94435">
        <ele>2131.3999023438</ele>
        <time>2012-03-31T06:38:10.000Z</time>
      </trkpt>
      <trkpt lat="45.16379" lon="5.94435">
        <ele>2131.8000488281</ele>
        <time>2012-03-31T06:38:12.000Z</time>
      </trkpt>
      <trkpt lat="45.16383" lon="5.94457">
        <ele>2136</ele>
        <time>2012-03-31T06:38:30.000Z</time>
      </trkpt>
      <trkpt lat="45.16383" lon="5.9446">
        <ele>2137</ele>
        <time>2012-03-31T06:38:35.000Z</time>
      </trkpt>
      <trkpt lat="45.16384" lon="5.94462">
        <ele>2137.1999511719</ele>
        <time>2012-03-31T06:38:36.000Z</time>
      </trkpt>
      <trkpt lat="45.16384" lon="5.94473">
        <ele>2139</ele>
        <time>2012-03-31T06:38:42.000Z</time>
      </trkpt>
      <trkpt lat="45.16386" lon="5.94481">
        <ele>2140.3999023438</ele>
        <time>2012-03-31T06:38:49.000Z</time>
      </trkpt>
      <trkpt lat="45.16387" lon="5.94487">
        <ele>2141.8000488281</ele>
        <time>2012-03-31T06:38:55.000Z</time>
      </trkpt>
      <trkpt lat="45.16385" lon="5.94492">
        <ele>2142.6000976562</ele>
        <time>2012-03-31T06:39:00.000Z</time>
      </trkpt>
      <trkpt lat="45.16382" lon="5.9449">
        <ele>2144.3999023438</ele>
        <time>2012-03-31T06:39:07.000Z</time>
      </trkpt>
      <trkpt lat="45.1638" lon="5.9449">
        <ele>2145.6000976562</ele>
        <time>2012-03-31T06:39:12.000Z</time>
      </trkpt>
      <trkpt lat="45.16379" lon="5.94493">
        <ele>2147</ele>
        <time>2012-03-31T06:39:18.000Z</time>
      </trkpt>
      <trkpt lat="45.16377" lon="5.94498">
        <ele>2148.6000976562</ele>
        <time>2012-03-31T06:39:24.000Z</time>
      </trkpt>
      <trkpt lat="45.16378" lon="5.94503">
        <ele>2150.1999511719</ele>
        <time>2012-03-31T06:39:30.000Z</time>
      </trkpt>
      <trkpt lat="45.16379" lon="5.94506">
        <ele>2150.8000488281</ele>
        <time>2012-03-31T06:39:33.000Z</time>
      </trkpt>
      <trkpt lat="45.16379" lon="5.9451">
        <ele>2151.8000488281</ele>
        <time>2012-03-31T06:39:39.000Z</time>
      </trkpt>
      <trkpt lat="45.16378" lon="5.94514">
        <ele>2152.8000488281</ele>
        <time>2012-03-31T06:39:43.000Z</time>
      </trkpt>
      <trkpt lat="45.1638" lon="5.94518">
        <ele>2153.1999511719</ele>
        <time>2012-03-31T06:39:45.000Z</time>
      </trkpt>
      <trkpt lat="45.1638" lon="5.94522">
        <ele>2154</ele>
        <time>2012-03-31T06:39:49.000Z</time>
      </trkpt>
      <trkpt lat="45.16375" lon="5.94521">
        <ele>2155.3999023438</ele>
        <time>2012-03-31T06:39:55.000Z</time>
      </trkpt>
      <trkpt lat="45.1637" lon="5.94518">
        <ele>2156.6000976562</ele>
        <time>2012-03-31T06:40:01.000Z</time>
      </trkpt>
      <trkpt lat="45.16367" lon="5.94519">
        <ele>2157.8000488281</ele>
        <time>2012-03-31T06:40:06.000Z</time>
      </trkpt>
      <trkpt lat="45.16364" lon="5.94525">
        <ele>2159.8000488281</ele>
        <time>2012-03-31T06:40:14.000Z</time>
      </trkpt>
      <trkpt lat="45.16363" lon="5.94533">
        <ele>2161.3999023438</ele>
        <time>2012-03-31T06:40:21.000Z</time>
      </trkpt>
      <trkpt lat="45.16359" lon="5.94539">
        <ele>2163.8000488281</ele>
        <time>2012-03-31T06:40:31.000Z</time>
      </trkpt>
      <trkpt lat="45.16355" lon="5.9454">
        <ele>2165</ele>
        <time>2012-03-31T06:40:36.000Z</time>
      </trkpt>
      <trkpt lat="45.16354" lon="5.94539">
        <ele>2165.1999511719</ele>
        <time>2012-03-31T06:40:37.000Z</time>
      </trkpt>
      <trkpt lat="45.16352" lon="5.94542">
        <ele>2166</ele>
        <time>2012-03-31T06:40:44.000Z</time>
      </trkpt>
      <trkpt lat="45.16353" lon="5.94548">
        <ele>2166.6000976562</ele>
        <time>2012-03-31T06:40:49.000Z</time>
      </trkpt>
      <trkpt lat="45.16353" lon="5.94548">
        <ele>2166.6000976562</ele>
        <time>2012-03-31T06:40:51.000Z</time>
      </trkpt>
      <trkpt lat="45.16352" lon="5.94548">
        <ele>2166.8000488281</ele>
        <time>2012-03-31T06:40:54.000Z</time>
      </trkpt>
      <trkpt lat="45.16361" lon="5.94563">
        <ele>2168.1999511719</ele>
        <time>2012-03-31T06:41:02.000Z</time>
      </trkpt>
      <trkpt lat="45.16368" lon="5.94574">
        <ele>2169</ele>
        <time>2012-03-31T06:41:08.000Z</time>
      </trkpt>
      <trkpt lat="45.16377" lon="5.94587">
        <ele>2169.3999023438</ele>
        <time>2012-03-31T06:41:17.000Z</time>
      </trkpt>
      <trkpt lat="45.16382" lon="5.94594">
        <ele>2170</ele>
        <time>2012-03-31T06:41:23.000Z</time>
      </trkpt>
      <trkpt lat="45.16385" lon="5.94601">
        <ele>2170.3999023438</ele>
        <time>2012-03-31T06:41:28.000Z</time>
      </trkpt>
      <trkpt lat="45.16384" lon="5.94609">
        <ele>2170.8000488281</ele>
        <time>2012-03-31T06:41:34.000Z</time>
      </trkpt>
      <trkpt lat="45.16381" lon="5.9461">
        <ele>2171.6000976562</ele>
        <time>2012-03-31T06:41:38.000Z</time>
      </trkpt>
      <trkpt lat="45.1638" lon="5.94613">
        <ele>2172</ele>
        <time>2012-03-31T06:41:43.000Z</time>
      </trkpt>
      <trkpt lat="45.16381" lon="5.94617">
        <ele>2173.6000976562</ele>
        <time>2012-03-31T06:41:49.000Z</time>
      </trkpt>
      <trkpt lat="45.16385" lon="5.94621">
        <ele>2175.3999023438</ele>
        <time>2012-03-31T06:42:03.000Z</time>
      </trkpt>
      <trkpt lat="45.16389" lon="5.94619">
        <ele>2176.6000976562</ele>
        <time>2012-03-31T06:42:09.000Z</time>
      </trkpt>
      <trkpt lat="45.16392" lon="5.94617">
        <ele>2178.1999511719</ele>
        <time>2012-03-31T06:42:16.000Z</time>
      </trkpt>
      <trkpt lat="45.16392" lon="5.94622">
        <ele>2180.8000488281</ele>
        <time>2012-03-31T06:42:25.000Z</time>
      </trkpt>
      <trkpt lat="45.1639" lon="5.94626">
        <ele>2182.1999511719</ele>
        <time>2012-03-31T06:42:30.000Z</time>
      </trkpt>
      <trkpt lat="45.1639" lon="5.94633">
        <ele>2183</ele>
        <time>2012-03-31T06:42:36.000Z</time>
      </trkpt>
      <trkpt lat="45.16391" lon="5.94642">
        <ele>2183.8000488281</ele>
        <time>2012-03-31T06:42:41.000Z</time>
      </trkpt>
      <trkpt lat="45.16392" lon="5.94648">
        <ele>2183.1999511719</ele>
        <time>2012-03-31T06:42:45.000Z</time>
      </trkpt>
      <trkpt lat="45.16399" lon="5.94662">
        <ele>2184.3999023438</ele>
        <time>2012-03-31T06:42:51.000Z</time>
      </trkpt>
      <trkpt lat="45.16407" lon="5.94673">
        <ele>2185.8000488281</ele>
        <time>2012-03-31T06:42:58.000Z</time>
      </trkpt>
      <trkpt lat="45.16417" lon="5.94682">
        <ele>2184.8000488281</ele>
        <time>2012-03-31T06:43:05.000Z</time>
      </trkpt>
      <trkpt lat="45.16424" lon="5.94693">
        <ele>2185.3999023438</ele>
        <time>2012-03-31T06:43:10.000Z</time>
      </trkpt>
      <trkpt lat="45.16434" lon="5.94711">
        <ele>2185.6000976562</ele>
        <time>2012-03-31T06:43:15.000Z</time>
      </trkpt>
      <trkpt lat="45.16445" lon="5.94728">
        <ele>2186.3999023438</ele>
        <time>2012-03-31T06:43:22.000Z</time>
      </trkpt>
      <trkpt lat="45.16452" lon="5.94736">
        <ele>2187.6000976562</ele>
        <time>2012-03-31T06:43:29.000Z</time>
      </trkpt>
      <trkpt lat="45.16456" lon="5.94735">
        <ele>2187.1999511719</ele>
        <time>2012-03-31T06:43:35.000Z</time>
      </trkpt>
      <trkpt lat="45.16459" lon="5.94735">
        <ele>2187</ele>
        <time>2012-03-31T06:43:40.000Z</time>
      </trkpt>
      <trkpt lat="45.16464" lon="5.94741">
        <ele>2187.3999023438</ele>
        <time>2012-03-31T06:43:47.000Z</time>
      </trkpt>
      <trkpt lat="45.16465" lon="5.94742">
        <ele>2187.8000488281</ele>
        <time>2012-03-31T06:43:51.000Z</time>
      </trkpt>
      <trkpt lat="45.16467" lon="5.94743">
        <ele>2188.6000976562</ele>
        <time>2012-03-31T06:43:57.000Z</time>
      </trkpt>
      <trkpt lat="45.16467" lon="5.94742">
        <ele>2188.8000488281</ele>
        <time>2012-03-31T06:43:58.000Z</time>
      </trkpt>
      <trkpt lat="45.16473" lon="5.94742">
        <ele>2188.6000976562</ele>
        <time>2012-03-31T06:44:07.000Z</time>
      </trkpt>
      <trkpt lat="45.16474" lon="5.94739">
        <ele>2188.6000976562</ele>
        <time>2012-03-31T06:44:09.000Z</time>
      </trkpt>
      <trkpt lat="45.16478" lon="5.94745">
        <ele>2188.3999023438</ele>
        <time>2012-03-31T06:44:14.000Z</time>
      </trkpt>
      <trkpt lat="45.16479" lon="5.94747">
        <ele>2188.6000976562</ele>
        <time>2012-03-31T06:44:16.000Z</time>
      </trkpt>
      <trkpt lat="45.16486" lon="5.94757">
        <ele>2191</ele>
        <time>2012-03-31T06:44:23.000Z</time>
      </trkpt>
      <trkpt lat="45.16489" lon="5.94755">
        <ele>2191.6000976562</ele>
        <time>2012-03-31T06:44:26.000Z</time>
      </trkpt>
      <trkpt lat="45.16491" lon="5.94752">
        <ele>2192.6000976562</ele>
        <time>2012-03-31T06:44:31.000Z</time>
      </trkpt>
      <trkpt lat="45.16486" lon="5.94724">
        <ele>2193</ele>
        <time>2012-03-31T06:44:36.000Z</time>
      </trkpt>
      <trkpt lat="45.16486" lon="5.94721">
        <ele>2193.3999023438</ele>
        <time>2012-03-31T06:44:38.000Z</time>
      </trkpt>
      <trkpt lat="45.16488" lon="5.94711">
        <ele>2193.3999023438</ele>
        <time>2012-03-31T06:44:46.000Z</time>
      </trkpt>
      <trkpt lat="45.16493" lon="5.94713">
        <ele>2196.6000976562</ele>
        <time>2012-03-31T06:44:51.000Z</time>
      </trkpt>
      <trkpt lat="45.16498" lon="5.9472">
        <ele>2197.8000488281</ele>
        <time>2012-03-31T06:44:59.000Z</time>
      </trkpt>
      <trkpt lat="45.16501" lon="5.94722">
        <ele>2198.1999511719</ele>
        <time>2012-03-31T06:45:02.000Z</time>
      </trkpt>
      <trkpt lat="45.16505" lon="5.94725">
        <ele>2198.3999023438</ele>
        <time>2012-03-31T06:45:05.000Z</time>
      </trkpt>
      <trkpt lat="45.16513" lon="5.94732">
        <ele>2198.3999023438</ele>
        <time>2012-03-31T06:45:11.000Z</time>
      </trkpt>
      <trkpt lat="45.16519" lon="5.94737">
        <ele>2197.3999023438</ele>
        <time>2012-03-31T06:45:16.000Z</time>
      </trkpt>
      <trkpt lat="45.16524" lon="5.94742">
        <ele>2197.8000488281</ele>
        <time>2012-03-31T06:45:21.000Z</time>
      </trkpt>
      <trkpt lat="45.16527" lon="5.94746">
        <ele>2199.1999511719</ele>
        <time>2012-03-31T06:45:24.000Z</time>
      </trkpt>
      <trkpt lat="45.16528" lon="5.94743">
        <ele>2199.8000488281</ele>
        <time>2012-03-31T06:45:31.000Z</time>
      </trkpt>
      <trkpt lat="45.16528" lon="5.9474">
        <ele>2199</ele>
        <time>2012-03-31T06:45:33.000Z</time>
      </trkpt>
      <trkpt lat="45.16529" lon="5.94728">
        <ele>2199.1999511719</ele>
        <time>2012-03-31T06:45:39.000Z</time>
      </trkpt>
      <trkpt lat="45.16529" lon="5.94727">
        <ele>2199</ele>
        <time>2012-03-31T06:45:40.000Z</time>
      </trkpt>
      <trkpt lat="45.16531" lon="5.94727">
        <ele>2200.8000488281</ele>
        <time>2012-03-31T06:45:43.000Z</time>
      </trkpt>
      <trkpt lat="45.16535" lon="5.9473">
        <ele>2200.3999023438</ele>
        <time>2012-03-31T06:45:46.000Z</time>
      </trkpt>
      <trkpt lat="45.16537" lon="5.94721">
        <ele>2202</ele>
        <time>2012-03-31T06:45:50.000Z</time>
      </trkpt>
      <trkpt lat="45.16538" lon="5.9472">
        <ele>2203</ele>
        <time>2012-03-31T06:45:51.000Z</time>
      </trkpt>
      <trkpt lat="45.16543" lon="5.94713">
        <ele>2203.3999023438</ele>
        <time>2012-03-31T06:45:58.000Z</time>
      </trkpt>
      <trkpt lat="45.16546" lon="5.94708">
        <ele>2203.1999511719</ele>
        <time>2012-03-31T06:46:04.000Z</time>
      </trkpt>
      <trkpt lat="45.16544" lon="5.94715">
        <ele>2202.8000488281</ele>
        <time>2012-03-31T06:48:16.000Z</time>
      </trkpt>
      <trkpt lat="45.16536" lon="5.94719">
        <ele>2201.8000488281</ele>
        <time>2012-03-31T06:48:31.000Z</time>
      </trkpt>
      <trkpt lat="45.16532" lon="5.94724">
        <ele>2201.3999023438</ele>
        <time>2012-03-31T06:48:37.000Z</time>
      </trkpt>
      <trkpt lat="45.16532" lon="5.94724">
        <ele>2201.3999023438</ele>
        <time>2012-03-31T06:48:38.000Z</time>
      </trkpt>
      <trkpt lat="45.16524" lon="5.94729">
        <ele>2200.1999511719</ele>
        <time>2012-03-31T06:48:55.000Z</time>
      </trkpt>
      <trkpt lat="45.16522" lon="5.94726">
        <ele>2199.8000488281</ele>
        <time>2012-03-31T06:48:57.000Z</time>
      </trkpt>
      <trkpt lat="45.16517" lon="5.94731">
        <ele>2200.8000488281</ele>
        <time>2012-03-31T06:49:09.000Z</time>
      </trkpt>
      <trkpt lat="45.16517" lon="5.94731">
        <ele>2200.8000488281</ele>
        <time>2012-03-31T06:49:10.000Z</time>
      </trkpt>
      <trkpt lat="45.16528" lon="5.94747">
        <ele>2199.3999023438</ele>
        <time>2012-03-31T06:50:03.000Z</time>
      </trkpt>
      <trkpt lat="45.16535" lon="5.94758">
        <ele>2202.1999511719</ele>
        <time>2012-03-31T06:50:11.000Z</time>
      </trkpt>
      <trkpt lat="45.16539" lon="5.94767">
        <ele>2203</ele>
        <time>2012-03-31T06:50:18.000Z</time>
      </trkpt>
      <trkpt lat="45.16543" lon="5.94778">
        <ele>2204.1999511719</ele>
        <time>2012-03-31T06:50:26.000Z</time>
      </trkpt>
      <trkpt lat="45.16543" lon="5.9478">
        <ele>2205.6000976562</ele>
        <time>2012-03-31T06:50:28.000Z</time>
      </trkpt>
      <trkpt lat="45.16539" lon="5.94783">
        <ele>2206</ele>
        <time>2012-03-31T06:50:32.000Z</time>
      </trkpt>
      <trkpt lat="45.16529" lon="5.94785">
        <ele>2204.3999023438</ele>
        <time>2012-03-31T06:50:39.000Z</time>
      </trkpt>
      <trkpt lat="45.16518" lon="5.9478">
        <ele>2203.3999023438</ele>
        <time>2012-03-31T06:50:44.000Z</time>
      </trkpt>
      <trkpt lat="45.16512" lon="5.94783">
        <ele>2202.6000976562</ele>
        <time>2012-03-31T06:50:49.000Z</time>
      </trkpt>
      <trkpt lat="45.16506" lon="5.94785">
        <ele>2201.1999511719</ele>
        <time>2012-03-31T06:50:53.000Z</time>
      </trkpt>
      <trkpt lat="45.16496" lon="5.94792">
        <ele>2199.3999023438</ele>
        <time>2012-03-31T06:51:00.000Z</time>
      </trkpt>
      <trkpt lat="45.16492" lon="5.94799">
        <ele>2199.1999511719</ele>
        <time>2012-03-31T06:51:06.000Z</time>
      </trkpt>
      <trkpt lat="45.16491" lon="5.948">
        <ele>2200.1999511719</ele>
        <time>2012-03-31T06:51:08.000Z</time>
      </trkpt>
      <trkpt lat="45.16486" lon="5.94801">
        <ele>2201.8000488281</ele>
        <time>2012-03-31T06:51:13.000Z</time>
      </trkpt>
      <trkpt lat="45.16479" lon="5.94802">
        <ele>2202.8000488281</ele>
        <time>2012-03-31T06:51:20.000Z</time>
      </trkpt>
      <trkpt lat="45.16478" lon="5.94802">
        <ele>2203</ele>
        <time>2012-03-31T06:51:21.000Z</time>
      </trkpt>
      <trkpt lat="45.16473" lon="5.94802">
        <ele>2204.3999023438</ele>
        <time>2012-03-31T06:51:26.000Z</time>
      </trkpt>
      <trkpt lat="45.1647" lon="5.94804">
        <ele>2205.6000976562</ele>
        <time>2012-03-31T06:51:30.000Z</time>
      </trkpt>
      <trkpt lat="45.16465" lon="5.94803">
        <ele>2206.3999023438</ele>
        <time>2012-03-31T06:51:34.000Z</time>
      </trkpt>
      <trkpt lat="45.16456" lon="5.94802">
        <ele>2206.3999023438</ele>
        <time>2012-03-31T06:51:43.000Z</time>
      </trkpt>
      <trkpt lat="45.16448" lon="5.94803">
        <ele>2208.3999023438</ele>
        <time>2012-03-31T06:51:51.000Z</time>
      </trkpt>
      <trkpt lat="45.16441" lon="5.94801">
        <ele>2209.1999511719</ele>
        <time>2012-03-31T06:51:57.000Z</time>
      </trkpt>
      <trkpt lat="45.16436" lon="5.94801">
        <ele>2210.8000488281</ele>
        <time>2012-03-31T06:52:02.000Z</time>
      </trkpt>
      <trkpt lat="45.1643" lon="5.948">
        <ele>2211.6000976562</ele>
        <time>2012-03-31T06:52:08.000Z</time>
      </trkpt>
      <trkpt lat="45.16428" lon="5.94804">
        <ele>2212.8000488281</ele>
        <time>2012-03-31T06:52:14.000Z</time>
      </trkpt>
      <trkpt lat="45.16424" lon="5.94807">
        <ele>2215.1999511719</ele>
        <time>2012-03-31T06:52:21.000Z</time>
      </trkpt>
      <trkpt lat="45.16423" lon="5.94807">
        <ele>2216</ele>
        <time>2012-03-31T06:52:23.000Z</time>
      </trkpt>
      <trkpt lat="45.16419" lon="5.94808">
        <ele>2216.6000976562</ele>
        <time>2012-03-31T06:52:27.000Z</time>
      </trkpt>
      <trkpt lat="45.16419" lon="5.94821">
        <ele>2219</ele>
        <time>2012-03-31T06:52:43.000Z</time>
      </trkpt>
      <trkpt lat="45.16423" lon="5.94828">
        <ele>2219.3999023438</ele>
        <time>2012-03-31T06:52:47.000Z</time>
      </trkpt>
      <trkpt lat="45.16429" lon="5.94831">
        <ele>2220.3999023438</ele>
        <time>2012-03-31T06:52:54.000Z</time>
      </trkpt>
      <trkpt lat="45.16433" lon="5.94843">
        <ele>2221.6000976562</ele>
        <time>2012-03-31T06:52:58.000Z</time>
      </trkpt>
      <trkpt lat="45.16439" lon="5.9485">
        <ele>2223.3999023438</ele>
        <time>2012-03-31T06:53:03.000Z</time>
      </trkpt>
      <trkpt lat="45.16441" lon="5.94845">
        <ele>2223.6000976562</ele>
        <time>2012-03-31T06:53:08.000Z</time>
      </trkpt>
      <trkpt lat="45.16444" lon="5.94848">
        <ele>2224.3999023438</ele>
        <time>2012-03-31T06:53:12.000Z</time>
      </trkpt>
      <trkpt lat="45.16448" lon="5.94848">
        <ele>2225.3999023438</ele>
        <time>2012-03-31T06:53:16.000Z</time>
      </trkpt>
      <trkpt lat="45.16451" lon="5.94849">
        <ele>2226</ele>
        <time>2012-03-31T06:53:21.000Z</time>
      </trkpt>
      <trkpt lat="45.16455" lon="5.94851">
        <ele>2227.1999511719</ele>
        <time>2012-03-31T06:53:27.000Z</time>
      </trkpt>
      <trkpt lat="45.16456" lon="5.94848">
        <ele>2227.6000976562</ele>
        <time>2012-03-31T06:53:31.000Z</time>
      </trkpt>
      <trkpt lat="45.16456" lon="5.94863">
        <ele>2232</ele>
        <time>2012-03-31T06:53:46.000Z</time>
      </trkpt>
      <trkpt lat="45.1646" lon="5.94863">
        <ele>2232.6000976562</ele>
        <time>2012-03-31T06:53:51.000Z</time>
      </trkpt>
      <trkpt lat="45.16469" lon="5.94872">
        <ele>2234.8000488281</ele>
        <time>2012-03-31T06:54:02.000Z</time>
      </trkpt>
      <trkpt lat="45.16474" lon="5.94875">
        <ele>2236.3999023438</ele>
        <time>2012-03-31T06:54:08.000Z</time>
      </trkpt>
      <trkpt lat="45.1648" lon="5.94883">
        <ele>2238.1999511719</ele>
        <time>2012-03-31T06:54:16.000Z</time>
      </trkpt>
      <trkpt lat="45.16483" lon="5.94888">
        <ele>2238.8000488281</ele>
        <time>2012-03-31T06:54:20.000Z</time>
      </trkpt>
      <trkpt lat="45.16486" lon="5.94893">
        <ele>2240.1999511719</ele>
        <time>2012-03-31T06:54:25.000Z</time>
      </trkpt>
      <trkpt lat="45.16489" lon="5.94898">
        <ele>2240.6000976562</ele>
        <time>2012-03-31T06:54:31.000Z</time>
      </trkpt>
      <trkpt lat="45.16489" lon="5.94904">
        <ele>2240.8000488281</ele>
        <time>2012-03-31T06:54:37.000Z</time>
      </trkpt>
      <trkpt lat="45.16492" lon="5.94909">
        <ele>2242.1999511719</ele>
        <time>2012-03-31T06:54:46.000Z</time>
      </trkpt>
      <trkpt lat="45.16493" lon="5.94922">
        <ele>2244.8000488281</ele>
        <time>2012-03-31T06:54:58.000Z</time>
      </trkpt>
      <trkpt lat="45.16493" lon="5.94921">
        <ele>2245.8000488281</ele>
        <time>2012-03-31T06:55:03.000Z</time>
      </trkpt>
      <trkpt lat="45.16505" lon="5.94932">
        <ele>2249.1999511719</ele>
        <time>2012-03-31T06:55:19.000Z</time>
      </trkpt>
      <trkpt lat="45.1651" lon="5.94937">
        <ele>2250</ele>
        <time>2012-03-31T06:55:26.000Z</time>
      </trkpt>
      <trkpt lat="45.16513" lon="5.94941">
        <ele>2251.8000488281</ele>
        <time>2012-03-31T06:55:30.000Z</time>
      </trkpt>
      <trkpt lat="45.16514" lon="5.94943">
        <ele>2252.1999511719</ele>
        <time>2012-03-31T06:55:31.000Z</time>
      </trkpt>
      <trkpt lat="45.1652" lon="5.94952">
        <ele>2253.1999511719</ele>
        <time>2012-03-31T06:55:36.000Z</time>
      </trkpt>
      <trkpt lat="45.16526" lon="5.94956">
        <ele>2255.1999511719</ele>
        <time>2012-03-31T06:55:43.000Z</time>
      </trkpt>
      <trkpt lat="45.16526" lon="5.94947">
        <ele>2255.6000976562</ele>
        <time>2012-03-31T06:55:49.000Z</time>
      </trkpt>
      <trkpt lat="45.16526" lon="5.94946">
        <ele>2256.6000976562</ele>
        <time>2012-03-31T06:55:53.000Z</time>
      </trkpt>
      <trkpt lat="45.16533" lon="5.94956">
        <ele>2257</ele>
        <time>2012-03-31T06:55:59.000Z</time>
      </trkpt>
      <trkpt lat="45.16535" lon="5.9496">
        <ele>2256.3999023438</ele>
        <time>2012-03-31T06:56:03.000Z</time>
      </trkpt>
      <trkpt lat="45.16536" lon="5.94961">
        <ele>2256.6000976562</ele>
        <time>2012-03-31T06:56:05.000Z</time>
      </trkpt>
      <trkpt lat="45.16537" lon="5.94964">
        <ele>2257.8000488281</ele>
        <time>2012-03-31T06:56:07.000Z</time>
      </trkpt>
      <trkpt lat="45.16539" lon="5.94974">
        <ele>2259.8000488281</ele>
        <time>2012-03-31T06:56:13.000Z</time>
      </trkpt>
      <trkpt lat="45.1654" lon="5.94978">
        <ele>2260.1999511719</ele>
        <time>2012-03-31T06:56:17.000Z</time>
      </trkpt>
      <trkpt lat="45.1654" lon="5.9498">
        <ele>2261</ele>
        <time>2012-03-31T06:56:21.000Z</time>
      </trkpt>
      <trkpt lat="45.16539" lon="5.94986">
        <ele>2261.8000488281</ele>
        <time>2012-03-31T06:56:26.000Z</time>
      </trkpt>
      <trkpt lat="45.16537" lon="5.94986">
        <ele>2262.6000976562</ele>
        <time>2012-03-31T06:56:30.000Z</time>
      </trkpt>
      <trkpt lat="45.16535" lon="5.94986">
        <ele>2262.8000488281</ele>
        <time>2012-03-31T06:56:34.000Z</time>
      </trkpt>
      <trkpt lat="45.16535" lon="5.94986">
        <ele>2263.1999511719</ele>
        <time>2012-03-31T06:56:35.000Z</time>
      </trkpt>
      <trkpt lat="45.16541" lon="5.95006">
        <ele>2263.1999511719</ele>
        <time>2012-03-31T06:56:46.000Z</time>
      </trkpt>
      <trkpt lat="45.16541" lon="5.95008">
        <ele>2263.3999023438</ele>
        <time>2012-03-31T06:56:47.000Z</time>
      </trkpt>
      <trkpt lat="45.16545" lon="5.95029">
        <ele>2263.8000488281</ele>
        <time>2012-03-31T06:56:54.000Z</time>
      </trkpt>
      <trkpt lat="45.16546" lon="5.95032">
        <ele>2264.3999023438</ele>
        <time>2012-03-31T06:56:58.000Z</time>
      </trkpt>
      <trkpt lat="45.1654" lon="5.95037">
        <ele>2266.8000488281</ele>
        <time>2012-03-31T06:57:08.000Z</time>
      </trkpt>
      <trkpt lat="45.16536" lon="5.95037">
        <ele>2268.6000976562</ele>
        <time>2012-03-31T06:57:15.000Z</time>
      </trkpt>
      <trkpt lat="45.16536" lon="5.95037">
        <ele>2270</ele>
        <time>2012-03-31T06:57:19.000Z</time>
      </trkpt>
      <trkpt lat="45.16529" lon="5.95047">
        <ele>2271.6000976562</ele>
        <time>2012-03-31T06:57:31.000Z</time>
      </trkpt>
      <trkpt lat="45.16531" lon="5.95053">
        <ele>2272.6000976562</ele>
        <time>2012-03-31T06:57:36.000Z</time>
      </trkpt>
      <trkpt lat="45.16529" lon="5.95062">
        <ele>2273.3999023438</ele>
        <time>2012-03-31T06:57:42.000Z</time>
      </trkpt>
      <trkpt lat="45.16527" lon="5.95068">
        <ele>2274.3999023438</ele>
        <time>2012-03-31T06:57:48.000Z</time>
      </trkpt>
      <trkpt lat="45.16526" lon="5.95069">
        <ele>2274.6000976562</ele>
        <time>2012-03-31T06:57:49.000Z</time>
      </trkpt>
      <trkpt lat="45.16523" lon="5.95072">
        <ele>2275.6000976562</ele>
        <time>2012-03-31T06:57:52.000Z</time>
      </trkpt>
      <trkpt lat="45.16525" lon="5.95081">
        <ele>2275.8000488281</ele>
        <time>2012-03-31T06:57:55.000Z</time>
      </trkpt>
      <trkpt lat="45.16527" lon="5.95087">
        <ele>2276</ele>
        <time>2012-03-31T06:57:57.000Z</time>
      </trkpt>
      <trkpt lat="45.16526" lon="5.95097">
        <ele>2277</ele>
        <time>2012-03-31T06:58:04.000Z</time>
      </trkpt>
      <trkpt lat="45.16521" lon="5.95097">
        <ele>2276.1999511719</ele>
        <time>2012-03-31T06:58:10.000Z</time>
      </trkpt>
      <trkpt lat="45.1652" lon="5.95098">
        <ele>2276.8000488281</ele>
        <time>2012-03-31T06:58:11.000Z</time>
      </trkpt>
      <trkpt lat="45.16523" lon="5.95109">
        <ele>2278.3999023438</ele>
        <time>2012-03-31T06:58:15.000Z</time>
      </trkpt>
      <trkpt lat="45.16526" lon="5.95131">
        <ele>2278.1999511719</ele>
        <time>2012-03-31T06:58:22.000Z</time>
      </trkpt>
      <trkpt lat="45.1652" lon="5.95132">
        <ele>2278.6000976562</ele>
        <time>2012-03-31T06:58:28.000Z</time>
      </trkpt>
      <trkpt lat="45.16516" lon="5.95133">
        <ele>2279.6000976562</ele>
        <time>2012-03-31T06:58:32.000Z</time>
      </trkpt>
      <trkpt lat="45.16514" lon="5.95136">
        <ele>2279</ele>
        <time>2012-03-31T06:58:35.000Z</time>
      </trkpt>
      <trkpt lat="45.16516" lon="5.95144">
        <ele>2278.8000488281</ele>
        <time>2012-03-31T06:58:40.000Z</time>
      </trkpt>
      <trkpt lat="45.16513" lon="5.9515">
        <ele>2278.8000488281</ele>
        <time>2012-03-31T06:58:44.000Z</time>
      </trkpt>
      <trkpt lat="45.16515" lon="5.9516">
        <ele>2281</ele>
        <time>2012-03-31T06:58:57.000Z</time>
      </trkpt>
      <trkpt lat="45.16518" lon="5.9517">
        <ele>2282.8000488281</ele>
        <time>2012-03-31T06:59:07.000Z</time>
      </trkpt>
      <trkpt lat="45.16523" lon="5.95179">
        <ele>2283.8000488281</ele>
        <time>2012-03-31T06:59:12.000Z</time>
      </trkpt>
      <trkpt lat="45.16526" lon="5.95191">
        <ele>2286.1999511719</ele>
        <time>2012-03-31T06:59:21.000Z</time>
      </trkpt>
      <trkpt lat="45.16531" lon="5.95198">
        <ele>2287.1999511719</ele>
        <time>2012-03-31T06:59:25.000Z</time>
      </trkpt>
      <trkpt lat="45.1653" lon="5.95197">
        <ele>2287.3999023438</ele>
        <time>2012-03-31T06:59:30.000Z</time>
      </trkpt>
      <trkpt lat="45.16534" lon="5.95205">
        <ele>2288.6000976562</ele>
        <time>2012-03-31T06:59:36.000Z</time>
      </trkpt>
      <trkpt lat="45.16537" lon="5.95213">
        <ele>2289.1999511719</ele>
        <time>2012-03-31T06:59:40.000Z</time>
      </trkpt>
      <trkpt lat="45.16541" lon="5.95222">
        <ele>2289.8000488281</ele>
        <time>2012-03-31T06:59:49.000Z</time>
      </trkpt>
      <trkpt lat="45.16537" lon="5.95213">
        <ele>2289.8000488281</ele>
        <time>2012-03-31T06:59:52.000Z</time>
      </trkpt>
      <trkpt lat="45.16543" lon="5.95225">
        <ele>2292.6000976562</ele>
        <time>2012-03-31T07:00:17.000Z</time>
      </trkpt>
      <trkpt lat="45.16541" lon="5.95223">
        <ele>2293.8000488281</ele>
        <time>2012-03-31T07:00:23.000Z</time>
      </trkpt>
      <trkpt lat="45.16542" lon="5.95229">
        <ele>2294.1999511719</ele>
        <time>2012-03-31T07:00:27.000Z</time>
      </trkpt>
      <trkpt lat="45.16548" lon="5.95238">
        <ele>2295</ele>
        <time>2012-03-31T07:00:30.000Z</time>
      </trkpt>
      <trkpt lat="45.16553" lon="5.95255">
        <ele>2297.6000976562</ele>
        <time>2012-03-31T07:00:36.000Z</time>
      </trkpt>
      <trkpt lat="45.16556" lon="5.9526">
        <ele>2297</ele>
        <time>2012-03-31T07:00:39.000Z</time>
      </trkpt>
      <trkpt lat="45.16563" lon="5.95282">
        <ele>2298.1999511719</ele>
        <time>2012-03-31T07:00:48.000Z</time>
      </trkpt>
      <trkpt lat="45.1657" lon="5.95299">
        <ele>2299.3999023438</ele>
        <time>2012-03-31T07:00:54.000Z</time>
      </trkpt>
      <trkpt lat="45.16574" lon="5.95303">
        <ele>2300.1999511719</ele>
        <time>2012-03-31T07:01:00.000Z</time>
      </trkpt>
      <trkpt lat="45.16577" lon="5.95309">
        <ele>2300.6000976562</ele>
        <time>2012-03-31T07:01:03.000Z</time>
      </trkpt>
      <trkpt lat="45.16579" lon="5.95318">
        <ele>2301.3999023438</ele>
        <time>2012-03-31T07:01:09.000Z</time>
      </trkpt>
      <trkpt lat="45.16582" lon="5.95324">
        <ele>2301.6000976562</ele>
        <time>2012-03-31T07:01:10.000Z</time>
      </trkpt>
      <trkpt lat="45.16575" lon="5.95316">
        <ele>2302.8000488281</ele>
        <time>2012-03-31T07:01:15.000Z</time>
      </trkpt>
      <trkpt lat="45.16565" lon="5.95306">
        <ele>2303.6000976562</ele>
        <time>2012-03-31T07:01:22.000Z</time>
      </trkpt>
      <trkpt lat="45.16563" lon="5.95303">
        <ele>2304.1999511719</ele>
        <time>2012-03-31T07:01:25.000Z</time>
      </trkpt>
      <trkpt lat="45.16556" lon="5.95298">
        <ele>2305.3999023438</ele>
        <time>2012-03-31T07:01:33.000Z</time>
      </trkpt>
      <trkpt lat="45.16555" lon="5.95299">
        <ele>2306.3999023438</ele>
        <time>2012-03-31T07:01:38.000Z</time>
      </trkpt>
      <trkpt lat="45.16552" lon="5.953">
        <ele>2308.1999511719</ele>
        <time>2012-03-31T07:01:45.000Z</time>
      </trkpt>
      <trkpt lat="45.16538" lon="5.95296">
        <ele>2311.8000488281</ele>
        <time>2012-03-31T07:02:09.000Z</time>
      </trkpt>
      <trkpt lat="45.16537" lon="5.95306">
        <ele>2313.8000488281</ele>
        <time>2012-03-31T07:02:18.000Z</time>
      </trkpt>
      <trkpt lat="45.16536" lon="5.95311">
        <ele>2315</ele>
        <time>2012-03-31T07:02:23.000Z</time>
      </trkpt>
      <trkpt lat="45.16538" lon="5.95315">
        <ele>2315.3999023438</ele>
        <time>2012-03-31T07:02:27.000Z</time>
      </trkpt>
      <trkpt lat="45.16538" lon="5.95321">
        <ele>2315.8000488281</ele>
        <time>2012-03-31T07:02:33.000Z</time>
      </trkpt>
      <trkpt lat="45.16535" lon="5.95324">
        <ele>2316.3999023438</ele>
        <time>2012-03-31T07:02:37.000Z</time>
      </trkpt>
      <trkpt lat="45.1653" lon="5.95312">
        <ele>2317.1999511719</ele>
        <time>2012-03-31T07:02:43.000Z</time>
      </trkpt>
      <trkpt lat="45.16537" lon="5.95315">
        <ele>2318.3999023438</ele>
        <time>2012-03-31T07:02:49.000Z</time>
      </trkpt>
      <trkpt lat="45.16538" lon="5.95313">
        <ele>2319.3999023438</ele>
        <time>2012-03-31T07:02:54.000Z</time>
      </trkpt>
      <trkpt lat="45.16555" lon="5.95327">
        <ele>2322.6000976562</ele>
        <time>2012-03-31T07:03:08.000Z</time>
      </trkpt>
      <trkpt lat="45.16556" lon="5.95328">
        <ele>2322.8000488281</ele>
        <time>2012-03-31T07:03:09.000Z</time>
      </trkpt>
      <trkpt lat="45.16558" lon="5.95339">
        <ele>2323</ele>
        <time>2012-03-31T07:03:12.000Z</time>
      </trkpt>
      <trkpt lat="45.1656" lon="5.95348">
        <ele>2324.6000976562</ele>
        <time>2012-03-31T07:03:18.000Z</time>
      </trkpt>
      <trkpt lat="45.16555" lon="5.9534">
        <ele>2326</ele>
        <time>2012-03-31T07:03:22.000Z</time>
      </trkpt>
      <trkpt lat="45.16567" lon="5.95371">
        <ele>2334</ele>
        <time>2012-03-31T07:03:57.000Z</time>
      </trkpt>
      <trkpt lat="45.16568" lon="5.95372">
        <ele>2334.8000488281</ele>
        <time>2012-03-31T07:04:01.000Z</time>
      </trkpt>
      <trkpt lat="45.1657" lon="5.95373">
        <ele>2336.1999511719</ele>
        <time>2012-03-31T07:04:08.000Z</time>
      </trkpt>
      <trkpt lat="45.16567" lon="5.95371">
        <ele>2337.3999023438</ele>
        <time>2012-03-31T07:04:14.000Z</time>
      </trkpt>
      <trkpt lat="45.16564" lon="5.9537">
        <ele>2338</ele>
        <time>2012-03-31T07:04:19.000Z</time>
      </trkpt>
      <trkpt lat="45.16555" lon="5.95364">
        <ele>2341</ele>
        <time>2012-03-31T07:04:28.000Z</time>
      </trkpt>
      <trkpt lat="45.16553" lon="5.95361">
        <ele>2342.1999511719</ele>
        <time>2012-03-31T07:04:33.000Z</time>
      </trkpt>
      <trkpt lat="45.16551" lon="5.95362">
        <ele>2343</ele>
        <time>2012-03-31T07:04:38.000Z</time>
      </trkpt>
      <trkpt lat="45.16545" lon="5.9535">
        <ele>2344.3999023438</ele>
        <time>2012-03-31T07:04:44.000Z</time>
      </trkpt>
      <trkpt lat="45.16543" lon="5.95348">
        <ele>2344.8000488281</ele>
        <time>2012-03-31T07:04:48.000Z</time>
      </trkpt>
      <trkpt lat="45.16543" lon="5.95349">
        <ele>2344.8000488281</ele>
        <time>2012-03-31T07:04:49.000Z</time>
      </trkpt>
      <trkpt lat="45.1653" lon="5.95344">
        <ele>2350.3999023438</ele>
        <time>2012-03-31T07:05:17.000Z</time>
      </trkpt>
      <trkpt lat="45.16531" lon="5.95348">
        <ele>2350.6000976562</ele>
        <time>2012-03-31T07:05:19.000Z</time>
      </trkpt>
      <trkpt lat="45.16529" lon="5.9535">
        <ele>2351.8000488281</ele>
        <time>2012-03-31T07:05:26.000Z</time>
      </trkpt>
      <trkpt lat="45.16517" lon="5.95343">
        <ele>2353.8000488281</ele>
        <time>2012-03-31T07:05:40.000Z</time>
      </trkpt>
      <trkpt lat="45.16511" lon="5.95343">
        <ele>2354.8000488281</ele>
        <time>2012-03-31T07:05:47.000Z</time>
      </trkpt>
      <trkpt lat="45.16508" lon="5.95342">
        <ele>2351.1999511719</ele>
        <time>2012-03-31T07:05:51.000Z</time>
      </trkpt>
      <trkpt lat="45.1651" lon="5.95353">
        <ele>2352.8000488281</ele>
        <time>2012-03-31T07:05:56.000Z</time>
      </trkpt>
      <trkpt lat="45.16512" lon="5.95361">
        <ele>2354.1999511719</ele>
        <time>2012-03-31T07:06:00.000Z</time>
      </trkpt>
      <trkpt lat="45.16513" lon="5.95368">
        <ele>2355.8000488281</ele>
        <time>2012-03-31T07:06:04.000Z</time>
      </trkpt>
      <trkpt lat="45.16511" lon="5.9537">
        <ele>2355.3999023438</ele>
        <time>2012-03-31T07:06:10.000Z</time>
      </trkpt>
      <trkpt lat="45.1651" lon="5.95372">
        <ele>2356</ele>
        <time>2012-03-31T07:06:13.000Z</time>
      </trkpt>
      <trkpt lat="45.16512" lon="5.95383">
        <ele>2357.8000488281</ele>
        <time>2012-03-31T07:06:24.000Z</time>
      </trkpt>
      <trkpt lat="45.16516" lon="5.95394">
        <ele>2359</ele>
        <time>2012-03-31T07:06:31.000Z</time>
      </trkpt>
      <trkpt lat="45.16515" lon="5.95401">
        <ele>2358.1999511719</ele>
        <time>2012-03-31T07:06:37.000Z</time>
      </trkpt>
      <trkpt lat="45.16518" lon="5.95409">
        <ele>2361.1999511719</ele>
        <time>2012-03-31T07:06:44.000Z</time>
      </trkpt>
      <trkpt lat="45.16519" lon="5.95411">
        <ele>2361.1999511719</ele>
        <time>2012-03-31T07:06:45.000Z</time>
      </trkpt>
      <trkpt lat="45.16522" lon="5.95423">
        <ele>2362.8000488281</ele>
        <time>2012-03-31T07:06:52.000Z</time>
      </trkpt>
      <trkpt lat="45.16522" lon="5.95428">
        <ele>2365</ele>
        <time>2012-03-31T07:06:58.000Z</time>
      </trkpt>
      <trkpt lat="45.16522" lon="5.95428">
        <ele>2365.1999511719</ele>
        <time>2012-03-31T07:06:59.000Z</time>
      </trkpt>
      <trkpt lat="45.16528" lon="5.95436">
        <ele>2368.3999023438</ele>
        <time>2012-03-31T07:07:07.000Z</time>
      </trkpt>
      <trkpt lat="45.16532" lon="5.95439">
        <ele>2370.3999023438</ele>
        <time>2012-03-31T07:07:13.000Z</time>
      </trkpt>
      <trkpt lat="45.16537" lon="5.95439">
        <ele>2373.1999511719</ele>
        <time>2012-03-31T07:07:23.000Z</time>
      </trkpt>
      <trkpt lat="45.16541" lon="5.95441">
        <ele>2371.8000488281</ele>
        <time>2012-03-31T07:07:28.000Z</time>
      </trkpt>
      <trkpt lat="45.16542" lon="5.95439">
        <ele>2373.1999511719</ele>
        <time>2012-03-31T07:07:34.000Z</time>
      </trkpt>
      <trkpt lat="45.16549" lon="5.95454">
        <ele>2373.3999023438</ele>
        <time>2012-03-31T07:07:40.000Z</time>
      </trkpt>
      <trkpt lat="45.16551" lon="5.95458">
        <ele>2373.3999023438</ele>
        <time>2012-03-31T07:07:42.000Z</time>
      </trkpt>
      <trkpt lat="45.16549" lon="5.95459">
        <ele>2374.6000976562</ele>
        <time>2012-03-31T07:07:48.000Z</time>
      </trkpt>
      <trkpt lat="45.16548" lon="5.95462">
        <ele>2375</ele>
        <time>2012-03-31T07:07:51.000Z</time>
      </trkpt>
      <trkpt lat="45.16552" lon="5.95464">
        <ele>2375.1999511719</ele>
        <time>2012-03-31T07:07:56.000Z</time>
      </trkpt>
      <trkpt lat="45.16556" lon="5.95464">
        <ele>2375.3999023438</ele>
        <time>2012-03-31T07:08:00.000Z</time>
      </trkpt>
      <trkpt lat="45.1656" lon="5.95464">
        <ele>2375.8000488281</ele>
        <time>2012-03-31T07:08:04.000Z</time>
      </trkpt>
      <trkpt lat="45.16563" lon="5.95465">
        <ele>2376</ele>
        <time>2012-03-31T07:08:08.000Z</time>
      </trkpt>
      <trkpt lat="45.16567" lon="5.95462">
        <ele>2378.1999511719</ele>
        <time>2012-03-31T07:08:16.000Z</time>
      </trkpt>
      <trkpt lat="45.1657" lon="5.9546">
        <ele>2378.6000976562</ele>
        <time>2012-03-31T07:08:22.000Z</time>
      </trkpt>
      <trkpt lat="45.1657" lon="5.95462">
        <ele>2378.3999023438</ele>
        <time>2012-03-31T07:08:24.000Z</time>
      </trkpt>
      <trkpt lat="45.16568" lon="5.9547">
        <ele>2380.6000976562</ele>
        <time>2012-03-31T07:08:34.000Z</time>
      </trkpt>
      <trkpt lat="45.16565" lon="5.9548">
        <ele>2382</ele>
        <time>2012-03-31T07:08:47.000Z</time>
      </trkpt>
      <trkpt lat="45.16564" lon="5.95478">
        <ele>2383</ele>
        <time>2012-03-31T07:08:50.000Z</time>
      </trkpt>
      <trkpt lat="45.16573" lon="5.95478">
        <ele>2384</ele>
        <time>2012-03-31T07:09:01.000Z</time>
      </trkpt>
      <trkpt lat="45.16586" lon="5.95486">
        <ele>2386.8000488281</ele>
        <time>2012-03-31T07:09:20.000Z</time>
      </trkpt>
      <trkpt lat="45.16585" lon="5.95496">
        <ele>2388.6000976562</ele>
        <time>2012-03-31T07:09:26.000Z</time>
      </trkpt>
      <trkpt lat="45.16582" lon="5.95502">
        <ele>2389.8000488281</ele>
        <time>2012-03-31T07:09:32.000Z</time>
      </trkpt>
      <trkpt lat="45.16578" lon="5.95507">
        <ele>2390.3999023438</ele>
        <time>2012-03-31T07:09:39.000Z</time>
      </trkpt>
      <trkpt lat="45.16577" lon="5.95517">
        <ele>2391.3999023438</ele>
        <time>2012-03-31T07:09:45.000Z</time>
      </trkpt>
      <trkpt lat="45.16575" lon="5.95522">
        <ele>2392.1999511719</ele>
        <time>2012-03-31T07:09:49.000Z</time>
      </trkpt>
      <trkpt lat="45.16577" lon="5.95528">
        <ele>2394.3999023438</ele>
        <time>2012-03-31T07:09:55.000Z</time>
      </trkpt>
      <trkpt lat="45.16577" lon="5.95534">
        <ele>2395.3999023438</ele>
        <time>2012-03-31T07:10:01.000Z</time>
      </trkpt>
      <trkpt lat="45.1658" lon="5.9554">
        <ele>2396.3999023438</ele>
        <time>2012-03-31T07:10:03.000Z</time>
      </trkpt>
      <trkpt lat="45.1658" lon="5.9554">
        <ele>2397</ele>
        <time>2012-03-31T07:10:05.000Z</time>
      </trkpt>
      <trkpt lat="45.1658" lon="5.95534">
        <ele>2397.3999023438</ele>
        <time>2012-03-31T07:10:07.000Z</time>
      </trkpt>
      <trkpt lat="45.16581" lon="5.95528">
        <ele>2398</ele>
        <time>2012-03-31T07:10:09.000Z</time>
      </trkpt>
      <trkpt lat="45.16583" lon="5.95519">
        <ele>2399</ele>
        <time>2012-03-31T07:10:14.000Z</time>
      </trkpt>
      <trkpt lat="45.16584" lon="5.9551">
        <ele>2400.1999511719</ele>
        <time>2012-03-31T07:10:19.000Z</time>
      </trkpt>
      <trkpt lat="45.16585" lon="5.95508">
        <ele>2400.3999023438</ele>
        <time>2012-03-31T07:10:21.000Z</time>
      </trkpt>
      <trkpt lat="45.16588" lon="5.95503">
        <ele>2401.3999023438</ele>
        <time>2012-03-31T07:10:26.000Z</time>
      </trkpt>
      <trkpt lat="45.16589" lon="5.95502">
        <ele>2401.8000488281</ele>
        <time>2012-03-31T07:10:27.000Z</time>
      </trkpt>
      <trkpt lat="45.16593" lon="5.95499">
        <ele>2403.3999023438</ele>
        <time>2012-03-31T07:10:34.000Z</time>
      </trkpt>
      <trkpt lat="45.16596" lon="5.95495">
        <ele>2403.8000488281</ele>
        <time>2012-03-31T07:10:39.000Z</time>
      </trkpt>
      <trkpt lat="45.166" lon="5.95489">
        <ele>2405</ele>
        <time>2012-03-31T07:10:46.000Z</time>
      </trkpt>
      <trkpt lat="45.16603" lon="5.95492">
        <ele>2405.8000488281</ele>
        <time>2012-03-31T07:10:49.000Z</time>
      </trkpt>
      <trkpt lat="45.16605" lon="5.955">
        <ele>2407</ele>
        <time>2012-03-31T07:10:55.000Z</time>
      </trkpt>
      <trkpt lat="45.16606" lon="5.95504">
        <ele>2409</ele>
        <time>2012-03-31T07:11:01.000Z</time>
      </trkpt>
      <trkpt lat="45.16606" lon="5.95505">
        <ele>2409.3999023438</ele>
        <time>2012-03-31T07:11:02.000Z</time>
      </trkpt>
      <trkpt lat="45.16605" lon="5.95514">
        <ele>2410.3999023438</ele>
        <time>2012-03-31T07:11:11.000Z</time>
      </trkpt>
      <trkpt lat="45.16606" lon="5.9552">
        <ele>2411.3999023438</ele>
        <time>2012-03-31T07:11:15.000Z</time>
      </trkpt>
      <trkpt lat="45.16608" lon="5.95522">
        <ele>2414.1999511719</ele>
        <time>2012-03-31T07:11:22.000Z</time>
      </trkpt>
      <trkpt lat="45.16609" lon="5.95515">
        <ele>2415</ele>
        <time>2012-03-31T07:11:28.000Z</time>
      </trkpt>
      <trkpt lat="45.16611" lon="5.95506">
        <ele>2415.8000488281</ele>
        <time>2012-03-31T07:11:34.000Z</time>
      </trkpt>
      <trkpt lat="45.16617" lon="5.95503">
        <ele>2416.6000976562</ele>
        <time>2012-03-31T07:11:42.000Z</time>
      </trkpt>
      <trkpt lat="45.16617" lon="5.95498">
        <ele>2417.6000976562</ele>
        <time>2012-03-31T07:11:47.000Z</time>
      </trkpt>
      <trkpt lat="45.16625" lon="5.95525">
        <ele>2419.3999023438</ele>
        <time>2012-03-31T07:12:04.000Z</time>
      </trkpt>
      <trkpt lat="45.16624" lon="5.95529">
        <ele>2421.1999511719</ele>
        <time>2012-03-31T07:12:12.000Z</time>
      </trkpt>
      <trkpt lat="45.16624" lon="5.95542">
        <ele>2421.3999023438</ele>
        <time>2012-03-31T07:12:16.000Z</time>
      </trkpt>
      <trkpt lat="45.16621" lon="5.95547">
        <ele>2423.1999511719</ele>
        <time>2012-03-31T07:12:20.000Z</time>
      </trkpt>
      <trkpt lat="45.16625" lon="5.9555">
        <ele>2424.6000976562</ele>
        <time>2012-03-31T07:12:31.000Z</time>
      </trkpt>
      <trkpt lat="45.16625" lon="5.95542">
        <ele>2425.3999023438</ele>
        <time>2012-03-31T07:12:36.000Z</time>
      </trkpt>
      <trkpt lat="45.16628" lon="5.95534">
        <ele>2426.8000488281</ele>
        <time>2012-03-31T07:12:43.000Z</time>
      </trkpt>
      <trkpt lat="45.16635" lon="5.95528">
        <ele>2429.1999511719</ele>
        <time>2012-03-31T07:12:58.000Z</time>
      </trkpt>
      <trkpt lat="45.16636" lon="5.95536">
        <ele>2432.3999023438</ele>
        <time>2012-03-31T07:13:17.000Z</time>
      </trkpt>
      <trkpt lat="45.16638" lon="5.95555">
        <ele>2433.8000488281</ele>
        <time>2012-03-31T07:13:24.000Z</time>
      </trkpt>
      <trkpt lat="45.16639" lon="5.95562">
        <ele>2434.3999023438</ele>
        <time>2012-03-31T07:13:28.000Z</time>
      </trkpt>
      <trkpt lat="45.16637" lon="5.95562">
        <ele>2435</ele>
        <time>2012-03-31T07:13:32.000Z</time>
      </trkpt>
      <trkpt lat="45.16638" lon="5.95569">
        <ele>2435.8000488281</ele>
        <time>2012-03-31T07:13:41.000Z</time>
      </trkpt>
      <trkpt lat="45.1663" lon="5.95566">
        <ele>2440</ele>
        <time>2012-03-31T07:14:11.000Z</time>
      </trkpt>
      <trkpt lat="45.16635" lon="5.95561">
        <ele>2441.3999023438</ele>
        <time>2012-03-31T07:14:21.000Z</time>
      </trkpt>
      <trkpt lat="45.16636" lon="5.95561">
        <ele>2441.8000488281</ele>
        <time>2012-03-31T07:14:23.000Z</time>
      </trkpt>
      <trkpt lat="45.16639" lon="5.95558">
        <ele>2442.6000976562</ele>
        <time>2012-03-31T07:14:29.000Z</time>
      </trkpt>
      <trkpt lat="45.16643" lon="5.95554">
        <ele>2443.3999023438</ele>
        <time>2012-03-31T07:14:35.000Z</time>
      </trkpt>
      <trkpt lat="45.16648" lon="5.95542">
        <ele>2445.6000976562</ele>
        <time>2012-03-31T07:14:48.000Z</time>
      </trkpt>
      <trkpt lat="45.16653" lon="5.95542">
        <ele>2447</ele>
        <time>2012-03-31T07:14:54.000Z</time>
      </trkpt>
      <trkpt lat="45.16656" lon="5.95545">
        <ele>2447.3999023438</ele>
        <time>2012-03-31T07:14:56.000Z</time>
      </trkpt>
      <trkpt lat="45.1666" lon="5.95547">
        <ele>2448.3999023438</ele>
        <time>2012-03-31T07:15:00.000Z</time>
      </trkpt>
      <trkpt lat="45.16661" lon="5.95548">
        <ele>2448.8000488281</ele>
        <time>2012-03-31T07:15:02.000Z</time>
      </trkpt>
      <trkpt lat="45.16662" lon="5.95549">
        <ele>2449.1999511719</ele>
        <time>2012-03-31T07:15:04.000Z</time>
      </trkpt>
      <trkpt lat="45.16666" lon="5.95565">
        <ele>2450.6000976562</ele>
        <time>2012-03-31T07:15:10.000Z</time>
      </trkpt>
      <trkpt lat="45.16675" lon="5.95596">
        <ele>2452.3999023438</ele>
        <time>2012-03-31T07:15:18.000Z</time>
      </trkpt>
      <trkpt lat="45.16678" lon="5.95605">
        <ele>2453.1999511719</ele>
        <time>2012-03-31T07:15:25.000Z</time>
      </trkpt>
      <trkpt lat="45.16674" lon="5.956">
        <ele>2454.3999023438</ele>
        <time>2012-03-31T07:15:29.000Z</time>
      </trkpt>
      <trkpt lat="45.16677" lon="5.95607">
        <ele>2455.3999023438</ele>
        <time>2012-03-31T07:15:38.000Z</time>
      </trkpt>
      <trkpt lat="45.16675" lon="5.95587">
        <ele>2456.1999511719</ele>
        <time>2012-03-31T07:15:44.000Z</time>
      </trkpt>
      <trkpt lat="45.16673" lon="5.95573">
        <ele>2457.3999023438</ele>
        <time>2012-03-31T07:15:49.000Z</time>
      </trkpt>
      <trkpt lat="45.16676" lon="5.95565">
        <ele>2458.3999023438</ele>
        <time>2012-03-31T07:15:55.000Z</time>
      </trkpt>
      <trkpt lat="45.16681" lon="5.9556">
        <ele>2459.1999511719</ele>
        <time>2012-03-31T07:16:02.000Z</time>
      </trkpt>
      <trkpt lat="45.16685" lon="5.9556">
        <ele>2460.1999511719</ele>
        <time>2012-03-31T07:16:07.000Z</time>
      </trkpt>
      <trkpt lat="45.16689" lon="5.9556">
        <ele>2461.8000488281</ele>
        <time>2012-03-31T07:16:15.000Z</time>
      </trkpt>
      <trkpt lat="45.16696" lon="5.95558">
        <ele>2463</ele>
        <time>2012-03-31T07:16:24.000Z</time>
      </trkpt>
      <trkpt lat="45.16698" lon="5.95555">
        <ele>2463.8000488281</ele>
        <time>2012-03-31T07:16:27.000Z</time>
      </trkpt>
      <trkpt lat="45.16703" lon="5.95562">
        <ele>2464.1999511719</ele>
        <time>2012-03-31T07:16:31.000Z</time>
      </trkpt>
      <trkpt lat="45.16711" lon="5.95582">
        <ele>2466.3999023438</ele>
        <time>2012-03-31T07:16:40.000Z</time>
      </trkpt>
      <trkpt lat="45.16712" lon="5.95589">
        <ele>2467.3999023438</ele>
        <time>2012-03-31T07:16:44.000Z</time>
      </trkpt>
      <trkpt lat="45.16713" lon="5.95594">
        <ele>2468.1999511719</ele>
        <time>2012-03-31T07:16:48.000Z</time>
      </trkpt>
      <trkpt lat="45.16713" lon="5.956">
        <ele>2469.1999511719</ele>
        <time>2012-03-31T07:16:52.000Z</time>
      </trkpt>
      <trkpt lat="45.16714" lon="5.95606">
        <ele>2469.6000976562</ele>
        <time>2012-03-31T07:16:55.000Z</time>
      </trkpt>
      <trkpt lat="45.16714" lon="5.9561">
        <ele>2470</ele>
        <time>2012-03-31T07:16:59.000Z</time>
      </trkpt>
      <trkpt lat="45.16716" lon="5.95618">
        <ele>2471.8000488281</ele>
        <time>2012-03-31T07:17:06.000Z</time>
      </trkpt>
      <trkpt lat="45.16717" lon="5.95623">
        <ele>2472.6000976562</ele>
        <time>2012-03-31T07:17:12.000Z</time>
      </trkpt>
      <trkpt lat="45.16715" lon="5.9562">
        <ele>2473</ele>
        <time>2012-03-31T07:17:14.000Z</time>
      </trkpt>
      <trkpt lat="45.16722" lon="5.95607">
        <ele>2476.6000976562</ele>
        <time>2012-03-31T07:17:31.000Z</time>
      </trkpt>
      <trkpt lat="45.16725" lon="5.95606">
        <ele>2477.8000488281</ele>
        <time>2012-03-31T07:17:37.000Z</time>
      </trkpt>
      <trkpt lat="45.1673" lon="5.95606">
        <ele>2478.8000488281</ele>
        <time>2012-03-31T07:17:44.000Z</time>
      </trkpt>
      <trkpt lat="45.16734" lon="5.95603">
        <ele>2480.3999023438</ele>
        <time>2012-03-31T07:17:53.000Z</time>
      </trkpt>
      <trkpt lat="45.16731" lon="5.95614">
        <ele>2481.3999023438</ele>
        <time>2012-03-31T07:18:03.000Z</time>
      </trkpt>
      <trkpt lat="45.16731" lon="5.9563">
        <ele>2484.1999511719</ele>
        <time>2012-03-31T07:18:12.000Z</time>
      </trkpt>
      <trkpt lat="45.1673" lon="5.95644">
        <ele>2486</ele>
        <time>2012-03-31T07:18:22.000Z</time>
      </trkpt>
      <trkpt lat="45.16728" lon="5.95642">
        <ele>2486.3999023438</ele>
        <time>2012-03-31T07:18:24.000Z</time>
      </trkpt>
      <trkpt lat="45.16735" lon="5.95619">
        <ele>2489.1999511719</ele>
        <time>2012-03-31T07:18:43.000Z</time>
      </trkpt>
      <trkpt lat="45.16743" lon="5.95616">
        <ele>2490.3999023438</ele>
        <time>2012-03-31T07:18:53.000Z</time>
      </trkpt>
      <trkpt lat="45.16743" lon="5.95615">
        <ele>2491</ele>
        <time>2012-03-31T07:18:55.000Z</time>
      </trkpt>
      <trkpt lat="45.16744" lon="5.95624">
        <ele>2492</ele>
        <time>2012-03-31T07:19:05.000Z</time>
      </trkpt>
      <trkpt lat="45.16745" lon="5.95632">
        <ele>2493.1999511719</ele>
        <time>2012-03-31T07:19:11.000Z</time>
      </trkpt>
      <trkpt lat="45.16747" lon="5.95636">
        <ele>2493.3999023438</ele>
        <time>2012-03-31T07:19:14.000Z</time>
      </trkpt>
      <trkpt lat="45.16749" lon="5.95641">
        <ele>2494.3999023438</ele>
        <time>2012-03-31T07:19:21.000Z</time>
      </trkpt>
      <trkpt lat="45.16748" lon="5.95644">
        <ele>2495.1999511719</ele>
        <time>2012-03-31T07:19:25.000Z</time>
      </trkpt>
      <trkpt lat="45.16747" lon="5.95635">
        <ele>2496</ele>
        <time>2012-03-31T07:19:42.000Z</time>
      </trkpt>
      <trkpt lat="45.1675" lon="5.95625">
        <ele>2497.1999511719</ele>
        <time>2012-03-31T07:19:49.000Z</time>
      </trkpt>
      <trkpt lat="45.1675" lon="5.95621">
        <ele>2497.6000976562</ele>
        <time>2012-03-31T07:19:54.000Z</time>
      </trkpt>
      <trkpt lat="45.16752" lon="5.95613">
        <ele>2499.3999023438</ele>
        <time>2012-03-31T07:20:04.000Z</time>
      </trkpt>
      <trkpt lat="45.16753" lon="5.95613">
        <ele>2499.8000488281</ele>
        <time>2012-03-31T07:20:07.000Z</time>
      </trkpt>
      <trkpt lat="45.16759" lon="5.95635">
        <ele>2501.1999511719</ele>
        <time>2012-03-31T07:20:28.000Z</time>
      </trkpt>
      <trkpt lat="45.16764" lon="5.95644">
        <ele>2501.6000976562</ele>
        <time>2012-03-31T07:20:32.000Z</time>
      </trkpt>
      <trkpt lat="45.16764" lon="5.95645">
        <ele>2501.6000976562</ele>
        <time>2012-03-31T07:20:36.000Z</time>
      </trkpt>
      <trkpt lat="45.16764" lon="5.95645">
        <ele>2502</ele>
        <time>2012-03-31T07:20:39.000Z</time>
      </trkpt>
      <trkpt lat="45.16762" lon="5.95641">
        <ele>2501.8000488281</ele>
        <time>2012-03-31T07:20:43.000Z</time>
      </trkpt>
      <trkpt lat="45.1676" lon="5.95639">
        <ele>2502.8000488281</ele>
        <time>2012-03-31T07:21:33.000Z</time>
      </trkpt>
      <trkpt lat="45.16756" lon="5.95646">
        <ele>2504.3999023438</ele>
        <time>2012-03-31T07:22:14.000Z</time>
      </trkpt>
      <trkpt lat="45.16753" lon="5.95648">
        <ele>2503.8000488281</ele>
        <time>2012-03-31T07:22:29.000Z</time>
      </trkpt>
      <trkpt lat="45.16755" lon="5.95648">
        <ele>2505.1999511719</ele>
        <time>2012-03-31T07:22:34.000Z</time>
      </trkpt>
      <trkpt lat="45.16757" lon="5.9564">
        <ele>2505.6000976562</ele>
        <time>2012-03-31T07:22:40.000Z</time>
      </trkpt>
      <trkpt lat="45.16758" lon="5.95638">
        <ele>2506</ele>
        <time>2012-03-31T07:22:42.000Z</time>
      </trkpt>
      <trkpt lat="45.16762" lon="5.95627">
        <ele>2508</ele>
        <time>2012-03-31T07:22:51.000Z</time>
      </trkpt>
      <trkpt lat="45.16764" lon="5.95617">
        <ele>2510</ele>
        <time>2012-03-31T07:22:58.000Z</time>
      </trkpt>
      <trkpt lat="45.16771" lon="5.95609">
        <ele>2512.8000488281</ele>
        <time>2012-03-31T07:23:12.000Z</time>
      </trkpt>
      <trkpt lat="45.16769" lon="5.95621">
        <ele>2514.1999511719</ele>
        <time>2012-03-31T07:23:29.000Z</time>
      </trkpt>
      <trkpt lat="45.16769" lon="5.95624">
        <ele>2514.3999023438</ele>
        <time>2012-03-31T07:23:33.000Z</time>
      </trkpt>
      <trkpt lat="45.16772" lon="5.95634">
        <ele>2515.1999511719</ele>
        <time>2012-03-31T07:23:39.000Z</time>
      </trkpt>
      <trkpt lat="45.16774" lon="5.9564">
        <ele>2516</ele>
        <time>2012-03-31T07:23:46.000Z</time>
      </trkpt>
      <trkpt lat="45.16775" lon="5.95643">
        <ele>2517.3999023438</ele>
        <time>2012-03-31T07:23:51.000Z</time>
      </trkpt>
      <trkpt lat="45.16778" lon="5.9565">
        <ele>2519.3999023438</ele>
        <time>2012-03-31T07:23:56.000Z</time>
      </trkpt>
      <trkpt lat="45.16778" lon="5.95651">
        <ele>2520.1999511719</ele>
        <time>2012-03-31T07:23:58.000Z</time>
      </trkpt>
      <trkpt lat="45.1678" lon="5.95637">
        <ele>2521.8000488281</ele>
        <time>2012-03-31T07:24:16.000Z</time>
      </trkpt>
      <trkpt lat="45.1678" lon="5.95636">
        <ele>2522</ele>
        <time>2012-03-31T07:24:17.000Z</time>
      </trkpt>
      <trkpt lat="45.16782" lon="5.9563">
        <ele>2522.3999023438</ele>
        <time>2012-03-31T07:24:22.000Z</time>
      </trkpt>
      <trkpt lat="45.16784" lon="5.95626">
        <ele>2523.1999511719</ele>
        <time>2012-03-31T07:24:27.000Z</time>
      </trkpt>
      <trkpt lat="45.16786" lon="5.95622">
        <ele>2524.8000488281</ele>
        <time>2012-03-31T07:24:34.000Z</time>
      </trkpt>
      <trkpt lat="45.16787" lon="5.95637">
        <ele>2525.8000488281</ele>
        <time>2012-03-31T07:24:56.000Z</time>
      </trkpt>
      <trkpt lat="45.16788" lon="5.95643">
        <ele>2526.3999023438</ele>
        <time>2012-03-31T07:25:00.000Z</time>
      </trkpt>
      <trkpt lat="45.16789" lon="5.95648">
        <ele>2527.3999023438</ele>
        <time>2012-03-31T07:25:04.000Z</time>
      </trkpt>
      <trkpt lat="45.16791" lon="5.95653">
        <ele>2528.3999023438</ele>
        <time>2012-03-31T07:25:10.000Z</time>
      </trkpt>
      <trkpt lat="45.1679" lon="5.95654">
        <ele>2529.3999023438</ele>
        <time>2012-03-31T07:25:14.000Z</time>
      </trkpt>
      <trkpt lat="45.16791" lon="5.95649">
        <ele>2530</ele>
        <time>2012-03-31T07:25:22.000Z</time>
      </trkpt>
      <trkpt lat="45.16793" lon="5.95637">
        <ele>2531.1999511719</ele>
        <time>2012-03-31T07:25:32.000Z</time>
      </trkpt>
      <trkpt lat="45.16794" lon="5.95634">
        <ele>2532.6000976562</ele>
        <time>2012-03-31T07:25:38.000Z</time>
      </trkpt>
      <trkpt lat="45.16797" lon="5.95644">
        <ele>2534.1999511719</ele>
        <time>2012-03-31T07:25:50.000Z</time>
      </trkpt>
      <trkpt lat="45.16797" lon="5.95649">
        <ele>2535</ele>
        <time>2012-03-31T07:25:55.000Z</time>
      </trkpt>
      <trkpt lat="45.16797" lon="5.95653">
        <ele>2536.6000976562</ele>
        <time>2012-03-31T07:26:03.000Z</time>
      </trkpt>
      <trkpt lat="45.16796" lon="5.95657">
        <ele>2538.6000976562</ele>
        <time>2012-03-31T07:26:08.000Z</time>
      </trkpt>
      <trkpt lat="45.16801" lon="5.95655">
        <ele>2538.3999023438</ele>
        <time>2012-03-31T07:26:16.000Z</time>
      </trkpt>
      <trkpt lat="45.16803" lon="5.95651">
        <ele>2539.3999023438</ele>
        <time>2012-03-31T07:26:21.000Z</time>
      </trkpt>
      <trkpt lat="45.16808" lon="5.95647">
        <ele>2541</ele>
        <time>2012-03-31T07:26:29.000Z</time>
      </trkpt>
      <trkpt lat="45.16812" lon="5.95641">
        <ele>2541.1999511719</ele>
        <time>2012-03-31T07:26:35.000Z</time>
      </trkpt>
      <trkpt lat="45.16809" lon="5.95631">
        <ele>2544.1999511719</ele>
        <time>2012-03-31T07:26:43.000Z</time>
      </trkpt>
      <trkpt lat="45.16808" lon="5.95621">
        <ele>2546.3999023438</ele>
        <time>2012-03-31T07:26:52.000Z</time>
      </trkpt>
      <trkpt lat="45.1681" lon="5.95616">
        <ele>2548</ele>
        <time>2012-03-31T07:27:00.000Z</time>
      </trkpt>
      <trkpt lat="45.16811" lon="5.95616">
        <ele>2548</ele>
        <time>2012-03-31T07:27:01.000Z</time>
      </trkpt>
      <trkpt lat="45.16813" lon="5.95622">
        <ele>2546.6000976562</ele>
        <time>2012-03-31T07:27:09.000Z</time>
      </trkpt>
      <trkpt lat="45.16815" lon="5.95627">
        <ele>2548</ele>
        <time>2012-03-31T07:27:12.000Z</time>
      </trkpt>
      <trkpt lat="45.16822" lon="5.95644">
        <ele>2550.3999023438</ele>
        <time>2012-03-31T07:27:24.000Z</time>
      </trkpt>
      <trkpt lat="45.16826" lon="5.95652">
        <ele>2551.8000488281</ele>
        <time>2012-03-31T07:27:32.000Z</time>
      </trkpt>
      <trkpt lat="45.16828" lon="5.95656">
        <ele>2553.3999023438</ele>
        <time>2012-03-31T07:27:39.000Z</time>
      </trkpt>
      <trkpt lat="45.16829" lon="5.95655">
        <ele>2554.6000976562</ele>
        <time>2012-03-31T07:27:44.000Z</time>
      </trkpt>
      <trkpt lat="45.16828" lon="5.95647">
        <ele>2555.3999023438</ele>
        <time>2012-03-31T07:27:50.000Z</time>
      </trkpt>
      <trkpt lat="45.16829" lon="5.95638">
        <ele>2557.1999511719</ele>
        <time>2012-03-31T07:27:57.000Z</time>
      </trkpt>
      <trkpt lat="45.1683" lon="5.95632">
        <ele>2558.6000976562</ele>
        <time>2012-03-31T07:28:02.000Z</time>
      </trkpt>
      <trkpt lat="45.16831" lon="5.95629">
        <ele>2559.3999023438</ele>
        <time>2012-03-31T07:28:05.000Z</time>
      </trkpt>
      <trkpt lat="45.16834" lon="5.95625">
        <ele>2561.1999511719</ele>
        <time>2012-03-31T07:28:10.000Z</time>
      </trkpt>
      <trkpt lat="45.16836" lon="5.95621">
        <ele>2562.1999511719</ele>
        <time>2012-03-31T07:28:15.000Z</time>
      </trkpt>
      <trkpt lat="45.16836" lon="5.95621">
        <ele>2562.6000976562</ele>
        <time>2012-03-31T07:28:16.000Z</time>
      </trkpt>
      <trkpt lat="45.16843" lon="5.95644">
        <ele>2562.6000976562</ele>
        <time>2012-03-31T07:28:38.000Z</time>
      </trkpt>
      <trkpt lat="45.16846" lon="5.95654">
        <ele>2562.3999023438</ele>
        <time>2012-03-31T07:28:48.000Z</time>
      </trkpt>
      <trkpt lat="45.16846" lon="5.95664">
        <ele>2565</ele>
        <time>2012-03-31T07:28:56.000Z</time>
      </trkpt>
      <trkpt lat="45.16846" lon="5.95672">
        <ele>2566.1999511719</ele>
        <time>2012-03-31T07:29:04.000Z</time>
      </trkpt>
      <trkpt lat="45.16846" lon="5.95673">
        <ele>2566</ele>
        <time>2012-03-31T07:29:05.000Z</time>
      </trkpt>
      <trkpt lat="45.16845" lon="5.95677">
        <ele>2565.6000976562</ele>
        <time>2012-03-31T07:29:09.000Z</time>
      </trkpt>
      <trkpt lat="45.16851" lon="5.95668">
        <ele>2567.8000488281</ele>
        <time>2012-03-31T07:29:24.000Z</time>
      </trkpt>
      <trkpt lat="45.16853" lon="5.95663">
        <ele>2569.8000488281</ele>
        <time>2012-03-31T07:29:30.000Z</time>
      </trkpt>
      <trkpt lat="45.16855" lon="5.9566">
        <ele>2569.8000488281</ele>
        <time>2012-03-31T07:29:35.000Z</time>
      </trkpt>
      <trkpt lat="45.16855" lon="5.95663">
        <ele>2570</ele>
        <time>2012-03-31T07:29:41.000Z</time>
      </trkpt>
      <trkpt lat="45.16855" lon="5.95669">
        <ele>2571.6000976562</ele>
        <time>2012-03-31T07:29:46.000Z</time>
      </trkpt>
      <trkpt lat="45.16855" lon="5.95677">
        <ele>2573.8000488281</ele>
        <time>2012-03-31T07:29:54.000Z</time>
      </trkpt>
      <trkpt lat="45.16858" lon="5.95671">
        <ele>2575.1999511719</ele>
        <time>2012-03-31T07:30:02.000Z</time>
      </trkpt>
      <trkpt lat="45.16862" lon="5.95661">
        <ele>2577</ele>
        <time>2012-03-31T07:30:13.000Z</time>
      </trkpt>
      <trkpt lat="45.16866" lon="5.95673">
        <ele>2579.6000976562</ele>
        <time>2012-03-31T07:30:24.000Z</time>
      </trkpt>
      <trkpt lat="45.16867" lon="5.95677">
        <ele>2581.1999511719</ele>
        <time>2012-03-31T07:30:31.000Z</time>
      </trkpt>
      <trkpt lat="45.1687" lon="5.95676">
        <ele>2581.6000976562</ele>
        <time>2012-03-31T07:30:34.000Z</time>
      </trkpt>
      <trkpt lat="45.16872" lon="5.9567">
        <ele>2583.3999023438</ele>
        <time>2012-03-31T07:30:40.000Z</time>
      </trkpt>
      <trkpt lat="45.16874" lon="5.95666">
        <ele>2584.8000488281</ele>
        <time>2012-03-31T07:30:44.000Z</time>
      </trkpt>
      <trkpt lat="45.16873" lon="5.95656">
        <ele>2585.3999023438</ele>
        <time>2012-03-31T07:30:50.000Z</time>
      </trkpt>
      <trkpt lat="45.16878" lon="5.95655">
        <ele>2586.6000976562</ele>
        <time>2012-03-31T07:31:00.000Z</time>
      </trkpt>
      <trkpt lat="45.16883" lon="5.95657">
        <ele>2588.1999511719</ele>
        <time>2012-03-31T07:31:45.000Z</time>
      </trkpt>
      <trkpt lat="45.16888" lon="5.95661">
        <ele>2589</ele>
        <time>2012-03-31T07:31:51.000Z</time>
      </trkpt>
      <trkpt lat="45.16891" lon="5.95663">
        <ele>2590</ele>
        <time>2012-03-31T07:31:55.000Z</time>
      </trkpt>
      <trkpt lat="45.16895" lon="5.95665">
        <ele>2590.3999023438</ele>
        <time>2012-03-31T07:31:59.000Z</time>
      </trkpt>
      <trkpt lat="45.169" lon="5.9567">
        <ele>2591.3999023438</ele>
        <time>2012-03-31T07:32:06.000Z</time>
      </trkpt>
      <trkpt lat="45.16903" lon="5.95671">
        <ele>2593</ele>
        <time>2012-03-31T07:32:13.000Z</time>
      </trkpt>
      <trkpt lat="45.16906" lon="5.95673">
        <ele>2593.8000488281</ele>
        <time>2012-03-31T07:32:17.000Z</time>
      </trkpt>
      <trkpt lat="45.16911" lon="5.95675">
        <ele>2595.3999023438</ele>
        <time>2012-03-31T07:32:23.000Z</time>
      </trkpt>
      <trkpt lat="45.16916" lon="5.95676">
        <ele>2596.3999023438</ele>
        <time>2012-03-31T07:32:31.000Z</time>
      </trkpt>
      <trkpt lat="45.16924" lon="5.95681">
        <ele>2598.8000488281</ele>
        <time>2012-03-31T07:32:41.000Z</time>
      </trkpt>
      <trkpt lat="45.16929" lon="5.95687">
        <ele>2601.3999023438</ele>
        <time>2012-03-31T07:32:50.000Z</time>
      </trkpt>
      <trkpt lat="45.16932" lon="5.95688">
        <ele>2602</ele>
        <time>2012-03-31T07:32:56.000Z</time>
      </trkpt>
      <trkpt lat="45.16935" lon="5.95689">
        <ele>2602.8000488281</ele>
        <time>2012-03-31T07:33:03.000Z</time>
      </trkpt>
      <trkpt lat="45.16939" lon="5.95692">
        <ele>2604.6000976562</ele>
        <time>2012-03-31T07:33:10.000Z</time>
      </trkpt>
      <trkpt lat="45.16943" lon="5.95692">
        <ele>2607.6000976562</ele>
        <time>2012-03-31T07:33:17.000Z</time>
      </trkpt>
      <trkpt lat="45.16948" lon="5.95691">
        <ele>2609.1999511719</ele>
        <time>2012-03-31T07:33:25.000Z</time>
      </trkpt>
      <trkpt lat="45.16955" lon="5.95691">
        <ele>2610.8000488281</ele>
        <time>2012-03-31T07:33:33.000Z</time>
      </trkpt>
      <trkpt lat="45.16961" lon="5.95693">
        <ele>2611.6000976562</ele>
        <time>2012-03-31T07:33:40.000Z</time>
      </trkpt>
      <trkpt lat="45.16964" lon="5.95689">
        <ele>2612.6000976562</ele>
        <time>2012-03-31T07:33:45.000Z</time>
      </trkpt>
      <trkpt lat="45.16968" lon="5.95685">
        <ele>2615</ele>
        <time>2012-03-31T07:33:52.000Z</time>
      </trkpt>
      <trkpt lat="45.1697" lon="5.95685">
        <ele>2616.6000976562</ele>
        <time>2012-03-31T07:33:58.000Z</time>
      </trkpt>
      <trkpt lat="45.16969" lon="5.95699">
        <ele>2618.6000976562</ele>
        <time>2012-03-31T07:34:12.000Z</time>
      </trkpt>
      <trkpt lat="45.16969" lon="5.95704">
        <ele>2619.3999023438</ele>
        <time>2012-03-31T07:34:16.000Z</time>
      </trkpt>
      <trkpt lat="45.16969" lon="5.95709">
        <ele>2620.6000976562</ele>
        <time>2012-03-31T07:34:23.000Z</time>
      </trkpt>
      <trkpt lat="45.16968" lon="5.95712">
        <ele>2620.8000488281</ele>
        <time>2012-03-31T07:34:32.000Z</time>
      </trkpt>
      <trkpt lat="45.16964" lon="5.95721">
        <ele>2621.1999511719</ele>
        <time>2012-03-31T07:34:43.000Z</time>
      </trkpt>
      <trkpt lat="45.1696" lon="5.95727">
        <ele>2622.8000488281</ele>
        <time>2012-03-31T07:34:50.000Z</time>
      </trkpt>
      <trkpt lat="45.16956" lon="5.95733">
        <ele>2625.1999511719</ele>
        <time>2012-03-31T07:34:59.000Z</time>
      </trkpt>
      <trkpt lat="45.16951" lon="5.95736">
        <ele>2626.6000976562</ele>
        <time>2012-03-31T07:35:08.000Z</time>
      </trkpt>
      <trkpt lat="45.16947" lon="5.95741">
        <ele>2627.3999023438</ele>
        <time>2012-03-31T07:35:16.000Z</time>
      </trkpt>
      <trkpt lat="45.1694" lon="5.95746">
        <ele>2628.3999023438</ele>
        <time>2012-03-31T07:35:26.000Z</time>
      </trkpt>
      <trkpt lat="45.16933" lon="5.95753">
        <ele>2628.8000488281</ele>
        <time>2012-03-31T07:35:37.000Z</time>
      </trkpt>
      <trkpt lat="45.16929" lon="5.95758">
        <ele>2632.3999023438</ele>
        <time>2012-03-31T07:35:46.000Z</time>
      </trkpt>
      <trkpt lat="45.16923" lon="5.95765">
        <ele>2632.8000488281</ele>
        <time>2012-03-31T07:35:57.000Z</time>
      </trkpt>
      <trkpt lat="45.16921" lon="5.95775">
        <ele>2633.8000488281</ele>
        <time>2012-03-31T07:36:07.000Z</time>
      </trkpt>
      <trkpt lat="45.16919" lon="5.95784">
        <ele>2635.1999511719</ele>
        <time>2012-03-31T07:36:16.000Z</time>
      </trkpt>
      <trkpt lat="45.16916" lon="5.95793">
        <ele>2636</ele>
        <time>2012-03-31T07:36:25.000Z</time>
      </trkpt>
      <trkpt lat="45.16919" lon="5.95802">
        <ele>2637</ele>
        <time>2012-03-31T07:36:34.000Z</time>
      </trkpt>
      <trkpt lat="45.16919" lon="5.95802">
        <ele>2637</ele>
        <time>2012-03-31T07:36:35.000Z</time>
      </trkpt>
      <trkpt lat="45.16924" lon="5.95812">
        <ele>2639.8000488281</ele>
        <time>2012-03-31T07:36:47.000Z</time>
      </trkpt>
      <trkpt lat="45.16928" lon="5.95822">
        <ele>2641.3999023438</ele>
        <time>2012-03-31T07:36:58.000Z</time>
      </trkpt>
      <trkpt lat="45.16933" lon="5.95831">
        <ele>2642.8000488281</ele>
        <time>2012-03-31T07:37:10.000Z</time>
      </trkpt>
      <trkpt lat="45.16938" lon="5.95841">
        <ele>2643.8000488281</ele>
        <time>2012-03-31T07:37:21.000Z</time>
      </trkpt>
      <trkpt lat="45.16941" lon="5.9585">
        <ele>2645.3999023438</ele>
        <time>2012-03-31T07:37:30.000Z</time>
      </trkpt>
      <trkpt lat="45.16945" lon="5.95857">
        <ele>2647.1999511719</ele>
        <time>2012-03-31T07:37:40.000Z</time>
      </trkpt>
      <trkpt lat="45.16946" lon="5.95867">
        <ele>2648.1999511719</ele>
        <time>2012-03-31T07:37:49.000Z</time>
      </trkpt>
      <trkpt lat="45.16946" lon="5.95867">
        <ele>2648.8000488281</ele>
        <time>2012-03-31T07:37:50.000Z</time>
      </trkpt>
      <trkpt lat="45.16948" lon="5.95872">
        <ele>2649.6000976562</ele>
        <time>2012-03-31T07:37:57.000Z</time>
      </trkpt>
      <trkpt lat="45.16949" lon="5.95878">
        <ele>2651.3999023438</ele>
        <time>2012-03-31T07:38:03.000Z</time>
      </trkpt>
      <trkpt lat="45.16949" lon="5.95883">
        <ele>2652.1999511719</ele>
        <time>2012-03-31T07:38:08.000Z</time>
      </trkpt>
      <trkpt lat="45.16949" lon="5.95891">
        <ele>2654.8000488281</ele>
        <time>2012-03-31T07:38:18.000Z</time>
      </trkpt>
      <trkpt lat="45.1695" lon="5.95898">
        <ele>2657</ele>
        <time>2012-03-31T07:38:29.000Z</time>
      </trkpt>
      <trkpt lat="45.16953" lon="5.95903">
        <ele>2659.3999023438</ele>
        <time>2012-03-31T07:38:40.000Z</time>
      </trkpt>
      <trkpt lat="45.16954" lon="5.95903">
        <ele>2659.6000976562</ele>
        <time>2012-03-31T07:38:41.000Z</time>
      </trkpt>
      <trkpt lat="45.16964" lon="5.95902">
        <ele>2662</ele>
        <time>2012-03-31T07:38:57.000Z</time>
      </trkpt>
      <trkpt lat="45.16967" lon="5.95901">
        <ele>2663</ele>
        <time>2012-03-31T07:39:03.000Z</time>
      </trkpt>
      <trkpt lat="45.1697" lon="5.959">
        <ele>2664.1999511719</ele>
        <time>2012-03-31T07:39:08.000Z</time>
      </trkpt>
      <trkpt lat="45.16977" lon="5.959">
        <ele>2666.1999511719</ele>
        <time>2012-03-31T07:39:15.000Z</time>
      </trkpt>
      <trkpt lat="45.1698" lon="5.95899">
        <ele>2667.1999511719</ele>
        <time>2012-03-31T07:39:22.000Z</time>
      </trkpt>
      <trkpt lat="45.16982" lon="5.95896">
        <ele>2668.1999511719</ele>
        <time>2012-03-31T07:39:30.000Z</time>
      </trkpt>
      <trkpt lat="45.16986" lon="5.95895">
        <ele>2668.6000976562</ele>
        <time>2012-03-31T07:39:36.000Z</time>
      </trkpt>
      <trkpt lat="45.1699" lon="5.95892">
        <ele>2670.1999511719</ele>
        <time>2012-03-31T07:39:45.000Z</time>
      </trkpt>
      <trkpt lat="45.16995" lon="5.9589">
        <ele>2671.8000488281</ele>
        <time>2012-03-31T07:39:52.000Z</time>
      </trkpt>
      <trkpt lat="45.16997" lon="5.95887">
        <ele>2673</ele>
        <time>2012-03-31T07:39:57.000Z</time>
      </trkpt>
      <trkpt lat="45.16999" lon="5.95884">
        <ele>2675</ele>
        <time>2012-03-31T07:40:03.000Z</time>
      </trkpt>
      <trkpt lat="45.17003" lon="5.95883">
        <ele>2676.3999023438</ele>
        <time>2012-03-31T07:40:08.000Z</time>
      </trkpt>
      <trkpt lat="45.17005" lon="5.9588">
        <ele>2676.6000976562</ele>
        <time>2012-03-31T07:40:13.000Z</time>
      </trkpt>
      <trkpt lat="45.17009" lon="5.95878">
        <ele>2677</ele>
        <time>2012-03-31T07:40:19.000Z</time>
      </trkpt>
      <trkpt lat="45.17012" lon="5.95871">
        <ele>2678</ele>
        <time>2012-03-31T07:40:29.000Z</time>
      </trkpt>
      <trkpt lat="45.17012" lon="5.95865">
        <ele>2678.8000488281</ele>
        <time>2012-03-31T07:40:35.000Z</time>
      </trkpt>
      <trkpt lat="45.17012" lon="5.9586">
        <ele>2680.1999511719</ele>
        <time>2012-03-31T07:40:43.000Z</time>
      </trkpt>
      <trkpt lat="45.17015" lon="5.95869">
        <ele>2682.1999511719</ele>
        <time>2012-03-31T07:40:58.000Z</time>
      </trkpt>
      <trkpt lat="45.17019" lon="5.95875">
        <ele>2684</ele>
        <time>2012-03-31T07:41:08.000Z</time>
      </trkpt>
      <trkpt lat="45.17024" lon="5.95882">
        <ele>2686</ele>
        <time>2012-03-31T07:41:18.000Z</time>
      </trkpt>
      <trkpt lat="45.17025" lon="5.95883">
        <ele>2686.8000488281</ele>
        <time>2012-03-31T07:41:20.000Z</time>
      </trkpt>
      <trkpt lat="45.17027" lon="5.95888">
        <ele>2689</ele>
        <time>2012-03-31T07:41:29.000Z</time>
      </trkpt>
      <trkpt lat="45.17028" lon="5.95889">
        <ele>2689.1999511719</ele>
        <time>2012-03-31T07:41:31.000Z</time>
      </trkpt>
      <trkpt lat="45.17038" lon="5.95888">
        <ele>2691.1999511719</ele>
        <time>2012-03-31T07:41:43.000Z</time>
      </trkpt>
      <trkpt lat="45.17041" lon="5.95888">
        <ele>2692.1999511719</ele>
        <time>2012-03-31T07:41:46.000Z</time>
      </trkpt>
      <trkpt lat="45.17045" lon="5.95886">
        <ele>2693.1999511719</ele>
        <time>2012-03-31T07:41:51.000Z</time>
      </trkpt>
      <trkpt lat="45.17046" lon="5.95882">
        <ele>2693.8000488281</ele>
        <time>2012-03-31T07:41:56.000Z</time>
      </trkpt>
      <trkpt lat="45.17047" lon="5.95877">
        <ele>2695.1999511719</ele>
        <time>2012-03-31T07:42:02.000Z</time>
      </trkpt>
      <trkpt lat="45.17048" lon="5.95866">
        <ele>2698.3999023438</ele>
        <time>2012-03-31T07:42:15.000Z</time>
      </trkpt>
      <trkpt lat="45.17047" lon="5.95866">
        <ele>2698.3999023438</ele>
        <time>2012-03-31T07:42:16.000Z</time>
      </trkpt>
      <trkpt lat="45.17054" lon="5.95873">
        <ele>2698.3999023438</ele>
        <time>2012-03-31T07:42:34.000Z</time>
      </trkpt>
      <trkpt lat="45.17057" lon="5.95879">
        <ele>2699</ele>
        <time>2012-03-31T07:42:42.000Z</time>
      </trkpt>
      <trkpt lat="45.17057" lon="5.95884">
        <ele>2699.6000976562</ele>
        <time>2012-03-31T07:42:46.000Z</time>
      </trkpt>
      <trkpt lat="45.17057" lon="5.95886">
        <ele>2700.1999511719</ele>
        <time>2012-03-31T07:42:48.000Z</time>
      </trkpt>
      <trkpt lat="45.17056" lon="5.95893">
        <ele>2701.8000488281</ele>
        <time>2012-03-31T07:42:56.000Z</time>
      </trkpt>
      <trkpt lat="45.17052" lon="5.95903">
        <ele>2703.3999023438</ele>
        <time>2012-03-31T07:43:05.000Z</time>
      </trkpt>
      <trkpt lat="45.17047" lon="5.95913">
        <ele>2704.6000976562</ele>
        <time>2012-03-31T07:43:16.000Z</time>
      </trkpt>
      <trkpt lat="45.17043" lon="5.95919">
        <ele>2705.8000488281</ele>
        <time>2012-03-31T07:43:24.000Z</time>
      </trkpt>
      <trkpt lat="45.17039" lon="5.95924">
        <ele>2706.8000488281</ele>
        <time>2012-03-31T07:43:33.000Z</time>
      </trkpt>
      <trkpt lat="45.17034" lon="5.95928">
        <ele>2708.1999511719</ele>
        <time>2012-03-31T07:43:42.000Z</time>
      </trkpt>
      <trkpt lat="45.1703" lon="5.95933">
        <ele>2709.1999511719</ele>
        <time>2012-03-31T07:43:51.000Z</time>
      </trkpt>
      <trkpt lat="45.17026" lon="5.95942">
        <ele>2710.8000488281</ele>
        <time>2012-03-31T07:44:01.000Z</time>
      </trkpt>
      <trkpt lat="45.17025" lon="5.95944">
        <ele>2711.3999023438</ele>
        <time>2012-03-31T07:44:04.000Z</time>
      </trkpt>
      <trkpt lat="45.17022" lon="5.95954">
        <ele>2711.1999511719</ele>
        <time>2012-03-31T07:44:16.000Z</time>
      </trkpt>
      <trkpt lat="45.17019" lon="5.95961">
        <ele>2711.3999023438</ele>
        <time>2012-03-31T07:44:25.000Z</time>
      </trkpt>
      <trkpt lat="45.17015" lon="5.95969">
        <ele>2712.8000488281</ele>
        <time>2012-03-31T07:44:34.000Z</time>
      </trkpt>
      <trkpt lat="45.17011" lon="5.95978">
        <ele>2713.8000488281</ele>
        <time>2012-03-31T07:44:43.000Z</time>
      </trkpt>
      <trkpt lat="45.17009" lon="5.95984">
        <ele>2715</ele>
        <time>2012-03-31T07:44:52.000Z</time>
      </trkpt>
      <trkpt lat="45.17008" lon="5.95987">
        <ele>2717.3999023438</ele>
        <time>2012-03-31T07:44:57.000Z</time>
      </trkpt>
      <trkpt lat="45.17013" lon="5.95986">
        <ele>2719.1999511719</ele>
        <time>2012-03-31T07:45:05.000Z</time>
      </trkpt>
      <trkpt lat="45.17017" lon="5.95981">
        <ele>2720</ele>
        <time>2012-03-31T07:45:13.000Z</time>
      </trkpt>
      <trkpt lat="45.17019" lon="5.95979">
        <ele>2719.3999023438</ele>
        <time>2012-03-31T07:45:16.000Z</time>
      </trkpt>
      <trkpt lat="45.17019" lon="5.95984">
        <ele>2719.6000976562</ele>
        <time>2012-03-31T07:45:28.000Z</time>
      </trkpt>
      <trkpt lat="45.17017" lon="5.95992">
        <ele>2720.8000488281</ele>
        <time>2012-03-31T07:45:37.000Z</time>
      </trkpt>
      <trkpt lat="45.17018" lon="5.96001">
        <ele>2725.1999511719</ele>
        <time>2012-03-31T07:45:48.000Z</time>
      </trkpt>
      <trkpt lat="45.1702" lon="5.96003">
        <ele>2727.3999023438</ele>
        <time>2012-03-31T07:45:51.000Z</time>
      </trkpt>
      <trkpt lat="45.17026" lon="5.95997">
        <ele>2726</ele>
        <time>2012-03-31T07:45:59.000Z</time>
      </trkpt>
      <trkpt lat="45.17027" lon="5.95997">
        <ele>2726</ele>
        <time>2012-03-31T07:46:00.000Z</time>
      </trkpt>
      <trkpt lat="45.17034" lon="5.95989">
        <ele>2727.1999511719</ele>
        <time>2012-03-31T07:46:11.000Z</time>
      </trkpt>
      <trkpt lat="45.17037" lon="5.95984">
        <ele>2728.3999023438</ele>
        <time>2012-03-31T07:46:18.000Z</time>
      </trkpt>
      <trkpt lat="45.17041" lon="5.95976">
        <ele>2728</ele>
        <time>2012-03-31T07:46:26.000Z</time>
      </trkpt>
      <trkpt lat="45.17047" lon="5.95975">
        <ele>2728.8000488281</ele>
        <time>2012-03-31T07:46:35.000Z</time>
      </trkpt>
      <trkpt lat="45.17048" lon="5.95976">
        <ele>2728.3999023438</ele>
        <time>2012-03-31T07:46:36.000Z</time>
      </trkpt>
      <trkpt lat="45.1705" lon="5.95979">
        <ele>2728.3999023438</ele>
        <time>2012-03-31T07:46:40.000Z</time>
      </trkpt>
      <trkpt lat="45.17055" lon="5.95984">
        <ele>2730.1999511719</ele>
        <time>2012-03-31T07:46:48.000Z</time>
      </trkpt>
      <trkpt lat="45.17059" lon="5.95991">
        <ele>2732.1999511719</ele>
        <time>2012-03-31T07:46:58.000Z</time>
      </trkpt>
      <trkpt lat="45.17064" lon="5.95998">
        <ele>2733.6000976562</ele>
        <time>2012-03-31T07:47:08.000Z</time>
      </trkpt>
      <trkpt lat="45.17069" lon="5.96006">
        <ele>2735.3999023438</ele>
        <time>2012-03-31T07:47:18.000Z</time>
      </trkpt>
      <trkpt lat="45.17074" lon="5.96012">
        <ele>2736.8000488281</ele>
        <time>2012-03-31T07:47:27.000Z</time>
      </trkpt>
      <trkpt lat="45.1708" lon="5.96018">
        <ele>2738.1999511719</ele>
        <time>2012-03-31T07:47:37.000Z</time>
      </trkpt>
      <trkpt lat="45.17085" lon="5.96018">
        <ele>2740.1999511719</ele>
        <time>2012-03-31T07:47:46.000Z</time>
      </trkpt>
      <trkpt lat="45.17091" lon="5.96018">
        <ele>2741</ele>
        <time>2012-03-31T07:47:54.000Z</time>
      </trkpt>
      <trkpt lat="45.17098" lon="5.96017">
        <ele>2744.1999511719</ele>
        <time>2012-03-31T07:48:04.000Z</time>
      </trkpt>
      <trkpt lat="45.17106" lon="5.96017">
        <ele>2744.8000488281</ele>
        <time>2012-03-31T07:48:14.000Z</time>
      </trkpt>
      <trkpt lat="45.17114" lon="5.96018">
        <ele>2747</ele>
        <time>2012-03-31T07:48:25.000Z</time>
      </trkpt>
      <trkpt lat="45.17121" lon="5.96019">
        <ele>2748.3999023438</ele>
        <time>2012-03-31T07:48:35.000Z</time>
      </trkpt>
      <trkpt lat="45.17127" lon="5.96021">
        <ele>2750.1999511719</ele>
        <time>2012-03-31T07:48:44.000Z</time>
      </trkpt>
      <trkpt lat="45.17132" lon="5.96022">
        <ele>2751.1999511719</ele>
        <time>2012-03-31T07:48:53.000Z</time>
      </trkpt>
      <trkpt lat="45.1714" lon="5.96022">
        <ele>2752.1999511719</ele>
        <time>2012-03-31T07:49:04.000Z</time>
      </trkpt>
      <trkpt lat="45.17146" lon="5.96023">
        <ele>2753.6000976562</ele>
        <time>2012-03-31T07:49:13.000Z</time>
      </trkpt>
      <trkpt lat="45.17151" lon="5.96025">
        <ele>2754.8000488281</ele>
        <time>2012-03-31T07:49:24.000Z</time>
      </trkpt>
      <trkpt lat="45.17156" lon="5.96025">
        <ele>2756</ele>
        <time>2012-03-31T07:49:32.000Z</time>
      </trkpt>
      <trkpt lat="45.17161" lon="5.96025">
        <ele>2757.3999023438</ele>
        <time>2012-03-31T07:49:41.000Z</time>
      </trkpt>
      <trkpt lat="45.17166" lon="5.96022">
        <ele>2758.8000488281</ele>
        <time>2012-03-31T07:49:49.000Z</time>
      </trkpt>
      <trkpt lat="45.17169" lon="5.96021">
        <ele>2760</ele>
        <time>2012-03-31T07:49:54.000Z</time>
      </trkpt>
      <trkpt lat="45.17169" lon="5.96019">
        <ele>2762</ele>
        <time>2012-03-31T07:49:58.000Z</time>
      </trkpt>
      <trkpt lat="45.17165" lon="5.96015">
        <ele>2764.1999511719</ele>
        <time>2012-03-31T07:50:07.000Z</time>
      </trkpt>
      <trkpt lat="45.17165" lon="5.96015">
        <ele>2765</ele>
        <time>2012-03-31T07:50:08.000Z</time>
      </trkpt>
      <trkpt lat="45.17161" lon="5.96009">
        <ele>2765</ele>
        <time>2012-03-31T07:50:17.000Z</time>
      </trkpt>
      <trkpt lat="45.17161" lon="5.96009">
        <ele>2765.1999511719</ele>
        <time>2012-03-31T07:50:18.000Z</time>
      </trkpt>
      <trkpt lat="45.17159" lon="5.96004">
        <ele>2767</ele>
        <time>2012-03-31T07:50:25.000Z</time>
      </trkpt>
      <trkpt lat="45.17155" lon="5.95995">
        <ele>2769</ele>
        <time>2012-03-31T07:50:35.000Z</time>
      </trkpt>
      <trkpt lat="45.17152" lon="5.95988">
        <ele>2770.3999023438</ele>
        <time>2012-03-31T07:50:44.000Z</time>
      </trkpt>
      <trkpt lat="45.1715" lon="5.95984">
        <ele>2771.3999023438</ele>
        <time>2012-03-31T07:50:50.000Z</time>
      </trkpt>
      <trkpt lat="45.17154" lon="5.95983">
        <ele>2771.8000488281</ele>
        <time>2012-03-31T07:50:57.000Z</time>
      </trkpt>
      <trkpt lat="45.1716" lon="5.95981">
        <ele>2773.1999511719</ele>
        <time>2012-03-31T07:51:06.000Z</time>
      </trkpt>
      <trkpt lat="45.17163" lon="5.95979">
        <ele>2775</ele>
        <time>2012-03-31T07:51:11.000Z</time>
      </trkpt>
      <trkpt lat="45.17164" lon="5.95978">
        <ele>2775</ele>
        <time>2012-03-31T07:51:15.000Z</time>
      </trkpt>
      <trkpt lat="45.17159" lon="5.95973">
        <ele>2776.3999023438</ele>
        <time>2012-03-31T07:51:31.000Z</time>
      </trkpt>
      <trkpt lat="45.17156" lon="5.95966">
        <ele>2778.6000976562</ele>
        <time>2012-03-31T07:51:40.000Z</time>
      </trkpt>
      <trkpt lat="45.17155" lon="5.95962">
        <ele>2780.3999023438</ele>
        <time>2012-03-31T07:51:45.000Z</time>
      </trkpt>
      <trkpt lat="45.17154" lon="5.95961">
        <ele>2780.8000488281</ele>
        <time>2012-03-31T07:51:47.000Z</time>
      </trkpt>
      <trkpt lat="45.1716" lon="5.95961">
        <ele>2781.1999511719</ele>
        <time>2012-03-31T07:51:57.000Z</time>
      </trkpt>
      <trkpt lat="45.17161" lon="5.95958">
        <ele>2782</ele>
        <time>2012-03-31T07:52:03.000Z</time>
      </trkpt>
      <trkpt lat="45.17158" lon="5.95954">
        <ele>2783.6000976562</ele>
        <time>2012-03-31T07:52:12.000Z</time>
      </trkpt>
      <trkpt lat="45.17158" lon="5.95954">
        <ele>2784.1999511719</ele>
        <time>2012-03-31T07:52:13.000Z</time>
      </trkpt>
      <trkpt lat="45.17164" lon="5.9595">
        <ele>2785</ele>
        <time>2012-03-31T07:52:23.000Z</time>
      </trkpt>
      <trkpt lat="45.17165" lon="5.95946">
        <ele>2786.6000976562</ele>
        <time>2012-03-31T07:52:28.000Z</time>
      </trkpt>
      <trkpt lat="45.17167" lon="5.95943">
        <ele>2787.3999023438</ele>
        <time>2012-03-31T07:52:33.000Z</time>
      </trkpt>
      <trkpt lat="45.17166" lon="5.95936">
        <ele>2789.3999023438</ele>
        <time>2012-03-31T07:52:41.000Z</time>
      </trkpt>
      <trkpt lat="45.17165" lon="5.95935">
        <ele>2790</ele>
        <time>2012-03-31T07:52:43.000Z</time>
      </trkpt>
      <trkpt lat="45.17162" lon="5.95934">
        <ele>2792.1999511719</ele>
        <time>2012-03-31T07:54:16.000Z</time>
      </trkpt>
      <trkpt lat="45.17162" lon="5.95934">
        <ele>2792.3999023438</ele>
        <time>2012-03-31T07:54:17.000Z</time>
      </trkpt>
      <trkpt lat="45.17166" lon="5.95932">
        <ele>2792.3999023438</ele>
        <time>2012-03-31T07:56:09.000Z</time>
      </trkpt>
      <trkpt lat="45.17162" lon="5.95935">
        <ele>2793.1999511719</ele>
        <time>2012-03-31T07:59:24.000Z</time>
      </trkpt>
      <trkpt lat="45.17168" lon="5.95931">
        <ele>2793.8000488281</ele>
        <time>2012-03-31T08:00:06.000Z</time>
      </trkpt>
      <trkpt lat="45.17168" lon="5.9593">
        <ele>2793.8000488281</ele>
        <time>2012-03-31T08:00:09.000Z</time>
      </trkpt>
      <trkpt lat="45.17163" lon="5.95939">
        <ele>2793.6000976562</ele>
        <time>2012-03-31T08:02:29.000Z</time>
      </trkpt>
      <trkpt lat="45.17163" lon="5.95939">
        <ele>2793</ele>
        <time>2012-03-31T08:02:32.000Z</time>
      </trkpt>
      <trkpt lat="45.17167" lon="5.95952">
        <ele>2792.3999023438</ele>
        <time>2012-03-31T08:04:09.000Z</time>
      </trkpt>
      <trkpt lat="45.17167" lon="5.95952">
        <ele>2792.1999511719</ele>
        <time>2012-03-31T08:04:11.000Z</time>
      </trkpt>
      <trkpt lat="45.17164" lon="5.95956">
        <ele>2790.3999023438</ele>
        <time>2012-03-31T08:04:17.000Z</time>
      </trkpt>
      <trkpt lat="45.17166" lon="5.95965">
        <ele>2787.3999023438</ele>
        <time>2012-03-31T08:04:21.000Z</time>
      </trkpt>
      <trkpt lat="45.17165" lon="5.95976">
        <ele>2783.1999511719</ele>
        <time>2012-03-31T08:04:25.000Z</time>
      </trkpt>
      <trkpt lat="45.17164" lon="5.95987">
        <ele>2779.3999023438</ele>
        <time>2012-03-31T08:04:28.000Z</time>
      </trkpt>
      <trkpt lat="45.17164" lon="5.95988">
        <ele>2778.3999023438</ele>
        <time>2012-03-31T08:04:30.000Z</time>
      </trkpt>
      <trkpt lat="45.17163" lon="5.95989">
        <ele>2778.6000976562</ele>
        <time>2012-03-31T08:04:31.000Z</time>
      </trkpt>
      <trkpt lat="45.17155" lon="5.95988">
        <ele>2777</ele>
        <time>2012-03-31T08:04:36.000Z</time>
      </trkpt>
      <trkpt lat="45.17155" lon="5.95988">
        <ele>2777</ele>
        <time>2012-03-31T08:04:37.000Z</time>
      </trkpt>
      <trkpt lat="45.17151" lon="5.95989">
        <ele>2776.8000488281</ele>
        <time>2012-03-31T08:04:44.000Z</time>
      </trkpt>
      <trkpt lat="45.17148" lon="5.96001">
        <ele>2770.6000976562</ele>
        <time>2012-03-31T08:04:48.000Z</time>
      </trkpt>
      <trkpt lat="45.1714" lon="5.96002">
        <ele>2767.8000488281</ele>
        <time>2012-03-31T08:04:51.000Z</time>
      </trkpt>
      <trkpt lat="45.1714" lon="5.96009">
        <ele>2765</ele>
        <time>2012-03-31T08:04:54.000Z</time>
      </trkpt>
      <trkpt lat="45.17143" lon="5.96017">
        <ele>2762.8000488281</ele>
        <time>2012-03-31T08:04:56.000Z</time>
      </trkpt>
      <trkpt lat="45.1713" lon="5.96022">
        <ele>2758.3999023438</ele>
        <time>2012-03-31T08:05:00.000Z</time>
      </trkpt>
      <trkpt lat="45.17126" lon="5.96021">
        <ele>2757</ele>
        <time>2012-03-31T08:05:01.000Z</time>
      </trkpt>
      <trkpt lat="45.17124" lon="5.9602">
        <ele>2753.8000488281</ele>
        <time>2012-03-31T08:05:04.000Z</time>
      </trkpt>
      <trkpt lat="45.17118" lon="5.96029">
        <ele>2751.3999023438</ele>
        <time>2012-03-31T08:05:34.000Z</time>
      </trkpt>
      <trkpt lat="45.17123" lon="5.9604">
        <ele>2749.3999023438</ele>
        <time>2012-03-31T08:05:36.000Z</time>
      </trkpt>
      <trkpt lat="45.17131" lon="5.96059">
        <ele>2745.1999511719</ele>
        <time>2012-03-31T08:05:39.000Z</time>
      </trkpt>
      <trkpt lat="45.17144" lon="5.96089">
        <ele>2738.3999023438</ele>
        <time>2012-03-31T08:05:43.000Z</time>
      </trkpt>
      <trkpt lat="45.17156" lon="5.96121">
        <ele>2730.6000976562</ele>
        <time>2012-03-31T08:05:48.000Z</time>
      </trkpt>
      <trkpt lat="45.17144" lon="5.96123">
        <ele>2725.1999511719</ele>
        <time>2012-03-31T08:05:52.000Z</time>
      </trkpt>
      <trkpt lat="45.17141" lon="5.96145">
        <ele>2719.8000488281</ele>
        <time>2012-03-31T08:05:55.000Z</time>
      </trkpt>
      <trkpt lat="45.17147" lon="5.9616">
        <ele>2715.3999023438</ele>
        <time>2012-03-31T08:05:57.000Z</time>
      </trkpt>
      <trkpt lat="45.17138" lon="5.96177">
        <ele>2707.1999511719</ele>
        <time>2012-03-31T08:06:02.000Z</time>
      </trkpt>
      <trkpt lat="45.1713" lon="5.96175">
        <ele>2704.6000976562</ele>
        <time>2012-03-31T08:06:03.000Z</time>
      </trkpt>
      <trkpt lat="45.17109" lon="5.96184">
        <ele>2696.3999023438</ele>
        <time>2012-03-31T08:06:08.000Z</time>
      </trkpt>
      <trkpt lat="45.17117" lon="5.96201">
        <ele>2693.1999511719</ele>
        <time>2012-03-31T08:06:10.000Z</time>
      </trkpt>
      <trkpt lat="45.17123" lon="5.96208">
        <ele>2690.8000488281</ele>
        <time>2012-03-31T08:06:11.000Z</time>
      </trkpt>
      <trkpt lat="45.17147" lon="5.96242">
        <ele>2684</ele>
        <time>2012-03-31T08:06:16.000Z</time>
      </trkpt>
      <trkpt lat="45.17148" lon="5.96248">
        <ele>2680.3999023438</ele>
        <time>2012-03-31T08:06:19.000Z</time>
      </trkpt>
      <trkpt lat="45.17139" lon="5.96252">
        <ele>2676.1999511719</ele>
        <time>2012-03-31T08:06:21.000Z</time>
      </trkpt>
      <trkpt lat="45.1714" lon="5.96264">
        <ele>2671.1999511719</ele>
        <time>2012-03-31T08:06:23.000Z</time>
      </trkpt>
      <trkpt lat="45.17148" lon="5.96294">
        <ele>2665.3999023438</ele>
        <time>2012-03-31T08:06:26.000Z</time>
      </trkpt>
      <trkpt lat="45.17147" lon="5.96335">
        <ele>2657.8000488281</ele>
        <time>2012-03-31T08:06:30.000Z</time>
      </trkpt>
      <trkpt lat="45.17147" lon="5.96354">
        <ele>2654.8000488281</ele>
        <time>2012-03-31T08:06:34.000Z</time>
      </trkpt>
      <trkpt lat="45.17146" lon="5.96354">
        <ele>2654.3999023438</ele>
        <time>2012-03-31T08:06:35.000Z</time>
      </trkpt>
      <trkpt lat="45.17135" lon="5.96357">
        <ele>2649.1999511719</ele>
        <time>2012-03-31T08:06:47.000Z</time>
      </trkpt>
      <trkpt lat="45.17129" lon="5.9636">
        <ele>2645.6000976562</ele>
        <time>2012-03-31T08:06:50.000Z</time>
      </trkpt>
      <trkpt lat="45.17123" lon="5.96362">
        <ele>2636.1999511719</ele>
        <time>2012-03-31T08:06:54.000Z</time>
      </trkpt>
      <trkpt lat="45.17114" lon="5.96348">
        <ele>2632.3999023438</ele>
        <time>2012-03-31T08:06:57.000Z</time>
      </trkpt>
      <trkpt lat="45.17102" lon="5.96335">
        <ele>2630.3999023438</ele>
        <time>2012-03-31T08:07:00.000Z</time>
      </trkpt>
      <trkpt lat="45.17104" lon="5.9634">
        <ele>2627</ele>
        <time>2012-03-31T08:07:02.000Z</time>
      </trkpt>
      <trkpt lat="45.17094" lon="5.9634">
        <ele>2622</ele>
        <time>2012-03-31T08:07:06.000Z</time>
      </trkpt>
      <trkpt lat="45.17091" lon="5.96338">
        <ele>2620.6000976562</ele>
        <time>2012-03-31T08:07:07.000Z</time>
      </trkpt>
      <trkpt lat="45.17082" lon="5.96334">
        <ele>2618.3999023438</ele>
        <time>2012-03-31T08:07:10.000Z</time>
      </trkpt>
      <trkpt lat="45.17078" lon="5.96344">
        <ele>2609.8000488281</ele>
        <time>2012-03-31T08:07:14.000Z</time>
      </trkpt>
      <trkpt lat="45.17072" lon="5.96346">
        <ele>2604.8000488281</ele>
        <time>2012-03-31T08:07:18.000Z</time>
      </trkpt>
      <trkpt lat="45.17063" lon="5.96357">
        <ele>2597.3999023438</ele>
        <time>2012-03-31T08:07:21.000Z</time>
      </trkpt>
      <trkpt lat="45.17056" lon="5.96356">
        <ele>2592.3999023438</ele>
        <time>2012-03-31T08:07:24.000Z</time>
      </trkpt>
      <trkpt lat="45.17056" lon="5.9637">
        <ele>2588.8000488281</ele>
        <time>2012-03-31T08:07:27.000Z</time>
      </trkpt>
      <trkpt lat="45.17058" lon="5.96384">
        <ele>2586.1999511719</ele>
        <time>2012-03-31T08:07:29.000Z</time>
      </trkpt>
      <trkpt lat="45.17061" lon="5.96397">
        <ele>2585.3999023438</ele>
        <time>2012-03-31T08:07:31.000Z</time>
      </trkpt>
      <trkpt lat="45.17063" lon="5.96404">
        <ele>2585.1999511719</ele>
        <time>2012-03-31T08:07:33.000Z</time>
      </trkpt>
      <trkpt lat="45.17056" lon="5.96406">
        <ele>2582.1999511719</ele>
        <time>2012-03-31T08:07:37.000Z</time>
      </trkpt>
      <trkpt lat="45.17051" lon="5.96404">
        <ele>2580</ele>
        <time>2012-03-31T08:07:38.000Z</time>
      </trkpt>
      <trkpt lat="45.17045" lon="5.96423">
        <ele>2572.6000976562</ele>
        <time>2012-03-31T08:07:42.000Z</time>
      </trkpt>
      <trkpt lat="45.17044" lon="5.9646">
        <ele>2564</ele>
        <time>2012-03-31T08:07:46.000Z</time>
      </trkpt>
      <trkpt lat="45.17043" lon="5.96483">
        <ele>2560.3999023438</ele>
        <time>2012-03-31T08:07:49.000Z</time>
      </trkpt>
      <trkpt lat="45.17043" lon="5.96488">
        <ele>2560.3999023438</ele>
        <time>2012-03-31T08:07:51.000Z</time>
      </trkpt>
      <trkpt lat="45.17034" lon="5.9648">
        <ele>2557</ele>
        <time>2012-03-31T08:07:55.000Z</time>
      </trkpt>
      <trkpt lat="45.17032" lon="5.96478">
        <ele>2555</ele>
        <time>2012-03-31T08:07:56.000Z</time>
      </trkpt>
      <trkpt lat="45.17029" lon="5.96471">
        <ele>2551.3999023438</ele>
        <time>2012-03-31T08:07:58.000Z</time>
      </trkpt>
      <trkpt lat="45.17009" lon="5.96485">
        <ele>2540.6000976562</ele>
        <time>2012-03-31T08:08:03.000Z</time>
      </trkpt>
      <trkpt lat="45.17001" lon="5.96463">
        <ele>2534.6000976562</ele>
        <time>2012-03-31T08:08:06.000Z</time>
      </trkpt>
      <trkpt lat="45.16992" lon="5.96443">
        <ele>2529</ele>
        <time>2012-03-31T08:08:11.000Z</time>
      </trkpt>
      <trkpt lat="45.16972" lon="5.96445">
        <ele>2521.1999511719</ele>
        <time>2012-03-31T08:08:14.000Z</time>
      </trkpt>
      <trkpt lat="45.16961" lon="5.9643">
        <ele>2516.1999511719</ele>
        <time>2012-03-31T08:08:17.000Z</time>
      </trkpt>
      <trkpt lat="45.16953" lon="5.96427">
        <ele>2514</ele>
        <time>2012-03-31T08:08:21.000Z</time>
      </trkpt>
      <trkpt lat="45.16938" lon="5.96447">
        <ele>2502.1999511719</ele>
        <time>2012-03-31T08:08:26.000Z</time>
      </trkpt>
      <trkpt lat="45.16939" lon="5.96469">
        <ele>2497.1999511719</ele>
        <time>2012-03-31T08:08:29.000Z</time>
      </trkpt>
      <trkpt lat="45.1694" lon="5.96477">
        <ele>2496.6000976562</ele>
        <time>2012-03-31T08:08:30.000Z</time>
      </trkpt>
      <trkpt lat="45.16947" lon="5.96504">
        <ele>2492.8000488281</ele>
        <time>2012-03-31T08:08:34.000Z</time>
      </trkpt>
      <trkpt lat="45.16954" lon="5.96541">
        <ele>2488</ele>
        <time>2012-03-31T08:08:39.000Z</time>
      </trkpt>
      <trkpt lat="45.16954" lon="5.96548">
        <ele>2487</ele>
        <time>2012-03-31T08:08:40.000Z</time>
      </trkpt>
      <trkpt lat="45.16948" lon="5.96576">
        <ele>2484.6000976562</ele>
        <time>2012-03-31T08:08:44.000Z</time>
      </trkpt>
      <trkpt lat="45.16937" lon="5.96567">
        <ele>2480.8000488281</ele>
        <time>2012-03-31T08:08:47.000Z</time>
      </trkpt>
      <trkpt lat="45.16923" lon="5.96562">
        <ele>2475.8000488281</ele>
        <time>2012-03-31T08:08:50.000Z</time>
      </trkpt>
      <trkpt lat="45.16919" lon="5.96566">
        <ele>2473.6000976562</ele>
        <time>2012-03-31T08:08:51.000Z</time>
      </trkpt>
      <trkpt lat="45.16903" lon="5.96586">
        <ele>2467.8000488281</ele>
        <time>2012-03-31T08:08:54.000Z</time>
      </trkpt>
      <trkpt lat="45.16886" lon="5.96613">
        <ele>2461.8000488281</ele>
        <time>2012-03-31T08:08:57.000Z</time>
      </trkpt>
      <trkpt lat="45.16861" lon="5.96644">
        <ele>2453.8000488281</ele>
        <time>2012-03-31T08:09:01.000Z</time>
      </trkpt>
      <trkpt lat="45.16843" lon="5.96672">
        <ele>2449.3999023438</ele>
        <time>2012-03-31T08:09:05.000Z</time>
      </trkpt>
      <trkpt lat="45.16838" lon="5.96683">
        <ele>2450.3999023438</ele>
        <time>2012-03-31T08:09:08.000Z</time>
      </trkpt>
      <trkpt lat="45.16826" lon="5.96708">
        <ele>2446</ele>
        <time>2012-03-31T08:09:13.000Z</time>
      </trkpt>
      <trkpt lat="45.16817" lon="5.96719">
        <ele>2445.1999511719</ele>
        <time>2012-03-31T08:09:15.000Z</time>
      </trkpt>
      <trkpt lat="45.16792" lon="5.96744">
        <ele>2443.8000488281</ele>
        <time>2012-03-31T08:09:20.000Z</time>
      </trkpt>
      <trkpt lat="45.16781" lon="5.96772">
        <ele>2441.8000488281</ele>
        <time>2012-03-31T08:09:24.000Z</time>
      </trkpt>
      <trkpt lat="45.16778" lon="5.96787">
        <ele>2442.3999023438</ele>
        <time>2012-03-31T08:09:27.000Z</time>
      </trkpt>
      <trkpt lat="45.16775" lon="5.96796">
        <ele>2443.1999511719</ele>
        <time>2012-03-31T08:09:32.000Z</time>
      </trkpt>
      <trkpt lat="45.16774" lon="5.96796">
        <ele>2443.8000488281</ele>
        <time>2012-03-31T08:09:34.000Z</time>
      </trkpt>
      <trkpt lat="45.16772" lon="5.96794">
        <ele>2443</ele>
        <time>2012-03-31T08:10:11.000Z</time>
      </trkpt>
      <trkpt lat="45.16772" lon="5.96795">
        <ele>2444.3999023438</ele>
        <time>2012-03-31T08:12:05.000Z</time>
      </trkpt>
      <trkpt lat="45.16767" lon="5.96792">
        <ele>2444</ele>
        <time>2012-03-31T08:12:27.000Z</time>
      </trkpt>
      <trkpt lat="45.16771" lon="5.96802">
        <ele>2445.1999511719</ele>
        <time>2012-03-31T08:14:33.000Z</time>
      </trkpt>
      <trkpt lat="45.16771" lon="5.96805">
        <ele>2445.8000488281</ele>
        <time>2012-03-31T08:14:35.000Z</time>
      </trkpt>
      <trkpt lat="45.1677" lon="5.96813">
        <ele>2446.8000488281</ele>
        <time>2012-03-31T08:14:42.000Z</time>
      </trkpt>
      <trkpt lat="45.16764" lon="5.96821">
        <ele>2447.3999023438</ele>
        <time>2012-03-31T08:14:50.000Z</time>
      </trkpt>
      <trkpt lat="45.16763" lon="5.96824">
        <ele>2447.8000488281</ele>
        <time>2012-03-31T08:14:52.000Z</time>
      </trkpt>
      <trkpt lat="45.16762" lon="5.96829">
        <ele>2448.3999023438</ele>
        <time>2012-03-31T08:14:56.000Z</time>
      </trkpt>
      <trkpt lat="45.1676" lon="5.96839">
        <ele>2449.3999023438</ele>
        <time>2012-03-31T08:15:03.000Z</time>
      </trkpt>
      <trkpt lat="45.16758" lon="5.96844">
        <ele>2450.3999023438</ele>
        <time>2012-03-31T08:15:06.000Z</time>
      </trkpt>
      <trkpt lat="45.16754" lon="5.96853">
        <ele>2451.3999023438</ele>
        <time>2012-03-31T08:15:13.000Z</time>
      </trkpt>
      <trkpt lat="45.16752" lon="5.96857">
        <ele>2452.3999023438</ele>
        <time>2012-03-31T08:15:17.000Z</time>
      </trkpt>
      <trkpt lat="45.16749" lon="5.96864">
        <ele>2454</ele>
        <time>2012-03-31T08:15:25.000Z</time>
      </trkpt>
      <trkpt lat="45.16748" lon="5.96866">
        <ele>2454.6000976562</ele>
        <time>2012-03-31T08:15:28.000Z</time>
      </trkpt>
      <trkpt lat="45.16746" lon="5.9687">
        <ele>2455.1999511719</ele>
        <time>2012-03-31T08:15:32.000Z</time>
      </trkpt>
      <trkpt lat="45.16745" lon="5.96873">
        <ele>2455.6000976562</ele>
        <time>2012-03-31T08:15:35.000Z</time>
      </trkpt>
      <trkpt lat="45.16744" lon="5.96877">
        <ele>2456.1999511719</ele>
        <time>2012-03-31T08:15:40.000Z</time>
      </trkpt>
      <trkpt lat="45.16744" lon="5.96876">
        <ele>2456.3999023438</ele>
        <time>2012-03-31T08:15:41.000Z</time>
      </trkpt>
      <trkpt lat="45.16743" lon="5.96876">
        <ele>2458</ele>
        <time>2012-03-31T08:15:52.000Z</time>
      </trkpt>
      <trkpt lat="45.16737" lon="5.96885">
        <ele>2459.1999511719</ele>
        <time>2012-03-31T08:15:59.000Z</time>
      </trkpt>
      <trkpt lat="45.16733" lon="5.96889">
        <ele>2459.8000488281</ele>
        <time>2012-03-31T08:16:03.000Z</time>
      </trkpt>
      <trkpt lat="45.16729" lon="5.96894">
        <ele>2461</ele>
        <time>2012-03-31T08:16:08.000Z</time>
      </trkpt>
      <trkpt lat="45.16723" lon="5.96902">
        <ele>2462</ele>
        <time>2012-03-31T08:16:16.000Z</time>
      </trkpt>
      <trkpt lat="45.16717" lon="5.96909">
        <ele>2462.6000976562</ele>
        <time>2012-03-31T08:16:23.000Z</time>
      </trkpt>
      <trkpt lat="45.16712" lon="5.96917">
        <ele>2463.1999511719</ele>
        <time>2012-03-31T08:16:30.000Z</time>
      </trkpt>
      <trkpt lat="45.16706" lon="5.96925">
        <ele>2463.6000976562</ele>
        <time>2012-03-31T08:16:38.000Z</time>
      </trkpt>
      <trkpt lat="45.16698" lon="5.96934">
        <ele>2464.3999023438</ele>
        <time>2012-03-31T08:16:47.000Z</time>
      </trkpt>
      <trkpt lat="45.16687" lon="5.96943">
        <ele>2464.3999023438</ele>
        <time>2012-03-31T08:16:57.000Z</time>
      </trkpt>
      <trkpt lat="45.16681" lon="5.96946">
        <ele>2465.1999511719</ele>
        <time>2012-03-31T08:17:03.000Z</time>
      </trkpt>
      <trkpt lat="45.16676" lon="5.96949">
        <ele>2465.3999023438</ele>
        <time>2012-03-31T08:17:08.000Z</time>
      </trkpt>
      <trkpt lat="45.16668" lon="5.96957">
        <ele>2466.1999511719</ele>
        <time>2012-03-31T08:17:17.000Z</time>
      </trkpt>
      <trkpt lat="45.16667" lon="5.96959">
        <ele>2466.1999511719</ele>
        <time>2012-03-31T08:17:18.000Z</time>
      </trkpt>
      <trkpt lat="45.16659" lon="5.96963">
        <ele>2467.3999023438</ele>
        <time>2012-03-31T08:17:26.000Z</time>
      </trkpt>
      <trkpt lat="45.1665" lon="5.96966">
        <ele>2468.1999511719</ele>
        <time>2012-03-31T08:17:35.000Z</time>
      </trkpt>
      <trkpt lat="45.16647" lon="5.96972">
        <ele>2469</ele>
        <time>2012-03-31T08:17:43.000Z</time>
      </trkpt>
      <trkpt lat="45.16647" lon="5.96978">
        <ele>2469.3999023438</ele>
        <time>2012-03-31T08:18:01.000Z</time>
      </trkpt>
      <trkpt lat="45.16644" lon="5.96981">
        <ele>2470.1999511719</ele>
        <time>2012-03-31T08:18:10.000Z</time>
      </trkpt>
      <trkpt lat="45.16638" lon="5.9699">
        <ele>2471.3999023438</ele>
        <time>2012-03-31T08:18:18.000Z</time>
      </trkpt>
      <trkpt lat="45.16632" lon="5.96995">
        <ele>2472.6000976562</ele>
        <time>2012-03-31T08:18:24.000Z</time>
      </trkpt>
      <trkpt lat="45.16624" lon="5.97">
        <ele>2473.8000488281</ele>
        <time>2012-03-31T08:18:32.000Z</time>
      </trkpt>
      <trkpt lat="45.16619" lon="5.97006">
        <ele>2474.6000976562</ele>
        <time>2012-03-31T08:18:39.000Z</time>
      </trkpt>
      <trkpt lat="45.16619" lon="5.97006">
        <ele>2475</ele>
        <time>2012-03-31T08:18:41.000Z</time>
      </trkpt>
      <trkpt lat="45.16614" lon="5.97011">
        <ele>2474.8000488281</ele>
        <time>2012-03-31T08:18:48.000Z</time>
      </trkpt>
      <trkpt lat="45.16607" lon="5.97021">
        <ele>2474.8000488281</ele>
        <time>2012-03-31T08:18:55.000Z</time>
      </trkpt>
      <trkpt lat="45.16602" lon="5.97029">
        <ele>2475.3999023438</ele>
        <time>2012-03-31T08:19:01.000Z</time>
      </trkpt>
      <trkpt lat="45.16594" lon="5.97039">
        <ele>2475.3999023438</ele>
        <time>2012-03-31T08:19:09.000Z</time>
      </trkpt>
      <trkpt lat="45.16591" lon="5.97044">
        <ele>2476.1999511719</ele>
        <time>2012-03-31T08:19:14.000Z</time>
      </trkpt>
      <trkpt lat="45.16588" lon="5.9705">
        <ele>2477.8000488281</ele>
        <time>2012-03-31T08:19:20.000Z</time>
      </trkpt>
      <trkpt lat="45.16586" lon="5.97057">
        <ele>2479.6000976562</ele>
        <time>2012-03-31T08:19:27.000Z</time>
      </trkpt>
      <trkpt lat="45.16586" lon="5.9706">
        <ele>2480.3999023438</ele>
        <time>2012-03-31T08:19:31.000Z</time>
      </trkpt>
      <trkpt lat="45.16587" lon="5.97064">
        <ele>2481</ele>
        <time>2012-03-31T08:19:40.000Z</time>
      </trkpt>
      <trkpt lat="45.16586" lon="5.97068">
        <ele>2482</ele>
        <time>2012-03-31T08:19:44.000Z</time>
      </trkpt>
      <trkpt lat="45.16586" lon="5.97077">
        <ele>2483.8000488281</ele>
        <time>2012-03-31T08:19:52.000Z</time>
      </trkpt>
      <trkpt lat="45.16587" lon="5.97084">
        <ele>2485.8000488281</ele>
        <time>2012-03-31T08:20:00.000Z</time>
      </trkpt>
      <trkpt lat="45.16587" lon="5.97092">
        <ele>2487</ele>
        <time>2012-03-31T08:20:08.000Z</time>
      </trkpt>
      <trkpt lat="45.16589" lon="5.97097">
        <ele>2488.3999023438</ele>
        <time>2012-03-31T08:20:16.000Z</time>
      </trkpt>
      <trkpt lat="45.16587" lon="5.97103">
        <ele>2489.8000488281</ele>
        <time>2012-03-31T08:20:21.000Z</time>
      </trkpt>
      <trkpt lat="45.16588" lon="5.97109">
        <ele>2490.8000488281</ele>
        <time>2012-03-31T08:20:27.000Z</time>
      </trkpt>
      <trkpt lat="45.16587" lon="5.97114">
        <ele>2492.1999511719</ele>
        <time>2012-03-31T08:20:32.000Z</time>
      </trkpt>
      <trkpt lat="45.16587" lon="5.97119">
        <ele>2493</ele>
        <time>2012-03-31T08:20:37.000Z</time>
      </trkpt>
      <trkpt lat="45.16587" lon="5.9712">
        <ele>2493.3999023438</ele>
        <time>2012-03-31T08:20:38.000Z</time>
      </trkpt>
      <trkpt lat="45.16587" lon="5.97128">
        <ele>2495.3999023438</ele>
        <time>2012-03-31T08:20:48.000Z</time>
      </trkpt>
      <trkpt lat="45.16587" lon="5.9713">
        <ele>2496.3999023438</ele>
        <time>2012-03-31T08:20:52.000Z</time>
      </trkpt>
      <trkpt lat="45.16586" lon="5.97134">
        <ele>2497.6000976562</ele>
        <time>2012-03-31T08:20:55.000Z</time>
      </trkpt>
      <trkpt lat="45.16586" lon="5.97137">
        <ele>2498.8000488281</ele>
        <time>2012-03-31T08:20:59.000Z</time>
      </trkpt>
      <trkpt lat="45.16586" lon="5.97141">
        <ele>2499.6000976562</ele>
        <time>2012-03-31T08:21:04.000Z</time>
      </trkpt>
      <trkpt lat="45.16585" lon="5.97147">
        <ele>2500.8000488281</ele>
        <time>2012-03-31T08:21:10.000Z</time>
      </trkpt>
      <trkpt lat="45.16585" lon="5.9715">
        <ele>2501.6000976562</ele>
        <time>2012-03-31T08:21:15.000Z</time>
      </trkpt>
      <trkpt lat="45.16585" lon="5.97156">
        <ele>2502.3999023438</ele>
        <time>2012-03-31T08:21:22.000Z</time>
      </trkpt>
      <trkpt lat="45.16584" lon="5.9716">
        <ele>2503.8000488281</ele>
        <time>2012-03-31T08:21:27.000Z</time>
      </trkpt>
      <trkpt lat="45.16584" lon="5.97166">
        <ele>2505</ele>
        <time>2012-03-31T08:21:34.000Z</time>
      </trkpt>
      <trkpt lat="45.16583" lon="5.97173">
        <ele>2506.6000976562</ele>
        <time>2012-03-31T08:21:42.000Z</time>
      </trkpt>
      <trkpt lat="45.16582" lon="5.97177">
        <ele>2507.8000488281</ele>
        <time>2012-03-31T08:21:48.000Z</time>
      </trkpt>
      <trkpt lat="45.16582" lon="5.97182">
        <ele>2509</ele>
        <time>2012-03-31T08:21:54.000Z</time>
      </trkpt>
      <trkpt lat="45.16582" lon="5.97186">
        <ele>2510.1999511719</ele>
        <time>2012-03-31T08:21:59.000Z</time>
      </trkpt>
      <trkpt lat="45.16582" lon="5.97191">
        <ele>2510.1999511719</ele>
        <time>2012-03-31T08:22:04.000Z</time>
      </trkpt>
      <trkpt lat="45.16581" lon="5.97198">
        <ele>2511.1999511719</ele>
        <time>2012-03-31T08:22:10.000Z</time>
      </trkpt>
      <trkpt lat="45.16581" lon="5.97205">
        <ele>2512.1999511719</ele>
        <time>2012-03-31T08:22:16.000Z</time>
      </trkpt>
      <trkpt lat="45.16581" lon="5.97212">
        <ele>2513.8000488281</ele>
        <time>2012-03-31T08:22:23.000Z</time>
      </trkpt>
      <trkpt lat="45.16581" lon="5.97218">
        <ele>2515.1999511719</ele>
        <time>2012-03-31T08:22:29.000Z</time>
      </trkpt>
      <trkpt lat="45.1658" lon="5.97227">
        <ele>2517.6000976562</ele>
        <time>2012-03-31T08:22:40.000Z</time>
      </trkpt>
      <trkpt lat="45.1658" lon="5.97235">
        <ele>2518.8000488281</ele>
        <time>2012-03-31T08:22:48.000Z</time>
      </trkpt>
      <trkpt lat="45.16579" lon="5.97241">
        <ele>2520.3999023438</ele>
        <time>2012-03-31T08:22:55.000Z</time>
      </trkpt>
      <trkpt lat="45.16579" lon="5.97247">
        <ele>2521.3999023438</ele>
        <time>2012-03-31T08:23:01.000Z</time>
      </trkpt>
      <trkpt lat="45.16579" lon="5.97252">
        <ele>2522.1999511719</ele>
        <time>2012-03-31T08:23:06.000Z</time>
      </trkpt>
      <trkpt lat="45.16578" lon="5.9726">
        <ele>2523.6000976562</ele>
        <time>2012-03-31T08:23:14.000Z</time>
      </trkpt>
      <trkpt lat="45.16576" lon="5.97268">
        <ele>2525</ele>
        <time>2012-03-31T08:23:20.000Z</time>
      </trkpt>
      <trkpt lat="45.16576" lon="5.97272">
        <ele>2526.6000976562</ele>
        <time>2012-03-31T08:23:27.000Z</time>
      </trkpt>
      <trkpt lat="45.16575" lon="5.97275">
        <ele>2527.3999023438</ele>
        <time>2012-03-31T08:23:32.000Z</time>
      </trkpt>
      <trkpt lat="45.16575" lon="5.97275">
        <ele>2527.6000976562</ele>
        <time>2012-03-31T08:23:33.000Z</time>
      </trkpt>
      <trkpt lat="45.16573" lon="5.97275">
        <ele>2527.8000488281</ele>
        <time>2012-03-31T08:23:36.000Z</time>
      </trkpt>
      <trkpt lat="45.16566" lon="5.97265">
        <ele>2529.6000976562</ele>
        <time>2012-03-31T08:23:47.000Z</time>
      </trkpt>
      <trkpt lat="45.16562" lon="5.9726">
        <ele>2530.8000488281</ele>
        <time>2012-03-31T08:23:54.000Z</time>
      </trkpt>
      <trkpt lat="45.16558" lon="5.97255">
        <ele>2532.1999511719</ele>
        <time>2012-03-31T08:24:01.000Z</time>
      </trkpt>
      <trkpt lat="45.16555" lon="5.97252">
        <ele>2533.1999511719</ele>
        <time>2012-03-31T08:24:07.000Z</time>
      </trkpt>
      <trkpt lat="45.16554" lon="5.97251">
        <ele>2533.1999511719</ele>
        <time>2012-03-31T08:24:08.000Z</time>
      </trkpt>
      <trkpt lat="45.16551" lon="5.9725">
        <ele>2534.3999023438</ele>
        <time>2012-03-31T08:24:14.000Z</time>
      </trkpt>
      <trkpt lat="45.16546" lon="5.9726">
        <ele>2536</ele>
        <time>2012-03-31T08:24:22.000Z</time>
      </trkpt>
      <trkpt lat="45.16544" lon="5.97266">
        <ele>2537.3999023438</ele>
        <time>2012-03-31T08:24:27.000Z</time>
      </trkpt>
      <trkpt lat="45.16543" lon="5.97272">
        <ele>2537.8000488281</ele>
        <time>2012-03-31T08:24:31.000Z</time>
      </trkpt>
      <trkpt lat="45.1654" lon="5.97277">
        <ele>2538.3999023438</ele>
        <time>2012-03-31T08:24:37.000Z</time>
      </trkpt>
      <trkpt lat="45.16538" lon="5.97275">
        <ele>2539</ele>
        <time>2012-03-31T08:24:41.000Z</time>
      </trkpt>
      <trkpt lat="45.16534" lon="5.97269">
        <ele>2540.6000976562</ele>
        <time>2012-03-31T08:24:47.000Z</time>
      </trkpt>
      <trkpt lat="45.1653" lon="5.97263">
        <ele>2541.8000488281</ele>
        <time>2012-03-31T08:24:54.000Z</time>
      </trkpt>
      <trkpt lat="45.16529" lon="5.9726">
        <ele>2542.3999023438</ele>
        <time>2012-03-31T08:24:58.000Z</time>
      </trkpt>
      <trkpt lat="45.16528" lon="5.97255">
        <ele>2543.3999023438</ele>
        <time>2012-03-31T08:25:06.000Z</time>
      </trkpt>
      <trkpt lat="45.16527" lon="5.97252">
        <ele>2544.3999023438</ele>
        <time>2012-03-31T08:25:11.000Z</time>
      </trkpt>
      <trkpt lat="45.16527" lon="5.97251">
        <ele>2544.8000488281</ele>
        <time>2012-03-31T08:25:13.000Z</time>
      </trkpt>
      <trkpt lat="45.16525" lon="5.97242">
        <ele>2547</ele>
        <time>2012-03-31T08:25:22.000Z</time>
      </trkpt>
      <trkpt lat="45.16522" lon="5.97234">
        <ele>2548.6000976562</ele>
        <time>2012-03-31T08:25:31.000Z</time>
      </trkpt>
      <trkpt lat="45.16519" lon="5.97227">
        <ele>2550.3999023438</ele>
        <time>2012-03-31T08:25:39.000Z</time>
      </trkpt>
      <trkpt lat="45.16517" lon="5.9722">
        <ele>2552</ele>
        <time>2012-03-31T08:25:47.000Z</time>
      </trkpt>
      <trkpt lat="45.16516" lon="5.97215">
        <ele>2552.6000976562</ele>
        <time>2012-03-31T08:25:53.000Z</time>
      </trkpt>
      <trkpt lat="45.16514" lon="5.97209">
        <ele>2554.1999511719</ele>
        <time>2012-03-31T08:26:01.000Z</time>
      </trkpt>
      <trkpt lat="45.16512" lon="5.97202">
        <ele>2556</ele>
        <time>2012-03-31T08:26:09.000Z</time>
      </trkpt>
      <trkpt lat="45.1651" lon="5.97199">
        <ele>2556.6000976562</ele>
        <time>2012-03-31T08:26:14.000Z</time>
      </trkpt>
      <trkpt lat="45.1651" lon="5.972">
        <ele>2556.3999023438</ele>
        <time>2012-03-31T08:26:15.000Z</time>
      </trkpt>
      <trkpt lat="45.16508" lon="5.97211">
        <ele>2558</ele>
        <time>2012-03-31T08:26:23.000Z</time>
      </trkpt>
      <trkpt lat="45.16507" lon="5.97213">
        <ele>2558.1999511719</ele>
        <time>2012-03-31T08:26:25.000Z</time>
      </trkpt>
      <trkpt lat="45.16504" lon="5.97225">
        <ele>2560.3999023438</ele>
        <time>2012-03-31T08:26:35.000Z</time>
      </trkpt>
      <trkpt lat="45.16502" lon="5.97234">
        <ele>2561.3999023438</ele>
        <time>2012-03-31T08:26:43.000Z</time>
      </trkpt>
      <trkpt lat="45.16501" lon="5.97238">
        <ele>2562.3999023438</ele>
        <time>2012-03-31T08:26:49.000Z</time>
      </trkpt>
      <trkpt lat="45.16499" lon="5.97242">
        <ele>2563.3999023438</ele>
        <time>2012-03-31T08:26:54.000Z</time>
      </trkpt>
      <trkpt lat="45.16498" lon="5.97246">
        <ele>2565</ele>
        <time>2012-03-31T08:26:59.000Z</time>
      </trkpt>
      <trkpt lat="45.16498" lon="5.97246">
        <ele>2565.1999511719</ele>
        <time>2012-03-31T08:27:00.000Z</time>
      </trkpt>
      <trkpt lat="45.16496" lon="5.97249">
        <ele>2566.1999511719</ele>
        <time>2012-03-31T08:27:06.000Z</time>
      </trkpt>
      <trkpt lat="45.16497" lon="5.97247">
        <ele>2566.3999023438</ele>
        <time>2012-03-31T08:27:11.000Z</time>
      </trkpt>
      <trkpt lat="45.16496" lon="5.97243">
        <ele>2567</ele>
        <time>2012-03-31T08:27:15.000Z</time>
      </trkpt>
      <trkpt lat="45.16495" lon="5.97235">
        <ele>2568.6000976562</ele>
        <time>2012-03-31T08:27:23.000Z</time>
      </trkpt>
      <trkpt lat="45.16493" lon="5.97226">
        <ele>2569.8000488281</ele>
        <time>2012-03-31T08:27:31.000Z</time>
      </trkpt>
      <trkpt lat="45.16491" lon="5.97218">
        <ele>2571.3999023438</ele>
        <time>2012-03-31T08:27:41.000Z</time>
      </trkpt>
      <trkpt lat="45.16489" lon="5.9721">
        <ele>2572.3999023438</ele>
        <time>2012-03-31T08:27:48.000Z</time>
      </trkpt>
      <trkpt lat="45.16487" lon="5.97205">
        <ele>2573.3999023438</ele>
        <time>2012-03-31T08:27:55.000Z</time>
      </trkpt>
      <trkpt lat="45.16486" lon="5.97208">
        <ele>2573.1999511719</ele>
        <time>2012-03-31T08:27:59.000Z</time>
      </trkpt>
      <trkpt lat="45.16483" lon="5.97217">
        <ele>2574.8000488281</ele>
        <time>2012-03-31T08:28:07.000Z</time>
      </trkpt>
      <trkpt lat="45.16481" lon="5.97226">
        <ele>2576.3999023438</ele>
        <time>2012-03-31T08:28:15.000Z</time>
      </trkpt>
      <trkpt lat="45.16475" lon="5.97235">
        <ele>2578.8000488281</ele>
        <time>2012-03-31T08:28:25.000Z</time>
      </trkpt>
      <trkpt lat="45.16473" lon="5.97239">
        <ele>2580</ele>
        <time>2012-03-31T08:28:31.000Z</time>
      </trkpt>
      <trkpt lat="45.16473" lon="5.9724">
        <ele>2580.1999511719</ele>
        <time>2012-03-31T08:28:32.000Z</time>
      </trkpt>
      <trkpt lat="45.1647" lon="5.97244">
        <ele>2581.3999023438</ele>
        <time>2012-03-31T08:28:38.000Z</time>
      </trkpt>
      <trkpt lat="45.16467" lon="5.97249">
        <ele>2581.8000488281</ele>
        <time>2012-03-31T08:28:43.000Z</time>
      </trkpt>
      <trkpt lat="45.16467" lon="5.9725">
        <ele>2582.3999023438</ele>
        <time>2012-03-31T08:28:45.000Z</time>
      </trkpt>
      <trkpt lat="45.16464" lon="5.97254">
        <ele>2583.6000976562</ele>
        <time>2012-03-31T08:28:51.000Z</time>
      </trkpt>
      <trkpt lat="45.16459" lon="5.97258">
        <ele>2585.1999511719</ele>
        <time>2012-03-31T08:28:59.000Z</time>
      </trkpt>
      <trkpt lat="45.16455" lon="5.97262">
        <ele>2586.3999023438</ele>
        <time>2012-03-31T08:29:07.000Z</time>
      </trkpt>
      <trkpt lat="45.16453" lon="5.97266">
        <ele>2587.3999023438</ele>
        <time>2012-03-31T08:29:12.000Z</time>
      </trkpt>
      <trkpt lat="45.1645" lon="5.97269">
        <ele>2588.3999023438</ele>
        <time>2012-03-31T08:29:17.000Z</time>
      </trkpt>
      <trkpt lat="45.1645" lon="5.97275">
        <ele>2589.8000488281</ele>
        <time>2012-03-31T08:29:23.000Z</time>
      </trkpt>
      <trkpt lat="45.16449" lon="5.9728">
        <ele>2590.8000488281</ele>
        <time>2012-03-31T08:29:30.000Z</time>
      </trkpt>
      <trkpt lat="45.16449" lon="5.9728">
        <ele>2591</ele>
        <time>2012-03-31T08:29:31.000Z</time>
      </trkpt>
      <trkpt lat="45.16449" lon="5.97284">
        <ele>2591.8000488281</ele>
        <time>2012-03-31T08:29:36.000Z</time>
      </trkpt>
      <trkpt lat="45.16449" lon="5.97288">
        <ele>2593.1999511719</ele>
        <time>2012-03-31T08:29:41.000Z</time>
      </trkpt>
      <trkpt lat="45.1645" lon="5.97292">
        <ele>2594</ele>
        <time>2012-03-31T08:29:56.000Z</time>
      </trkpt>
      <trkpt lat="45.1645" lon="5.97302">
        <ele>2594.8000488281</ele>
        <time>2012-03-31T08:30:06.000Z</time>
      </trkpt>
      <trkpt lat="45.16448" lon="5.9731">
        <ele>2596.3999023438</ele>
        <time>2012-03-31T08:30:14.000Z</time>
      </trkpt>
      <trkpt lat="45.16448" lon="5.97316">
        <ele>2596.8000488281</ele>
        <time>2012-03-31T08:30:20.000Z</time>
      </trkpt>
      <trkpt lat="45.16448" lon="5.97324">
        <ele>2598.8000488281</ele>
        <time>2012-03-31T08:30:29.000Z</time>
      </trkpt>
      <trkpt lat="45.16447" lon="5.97332">
        <ele>2600.1999511719</ele>
        <time>2012-03-31T08:30:37.000Z</time>
      </trkpt>
      <trkpt lat="45.16447" lon="5.97338">
        <ele>2601.3999023438</ele>
        <time>2012-03-31T08:30:43.000Z</time>
      </trkpt>
      <trkpt lat="45.16446" lon="5.97349">
        <ele>2602.1999511719</ele>
        <time>2012-03-31T08:30:51.000Z</time>
      </trkpt>
      <trkpt lat="45.16446" lon="5.97359">
        <ele>2603.3999023438</ele>
        <time>2012-03-31T08:31:00.000Z</time>
      </trkpt>
      <trkpt lat="45.16448" lon="5.97367">
        <ele>2605.1999511719</ele>
        <time>2012-03-31T08:31:08.000Z</time>
      </trkpt>
      <trkpt lat="45.16447" lon="5.97381">
        <ele>2606.3999023438</ele>
        <time>2012-03-31T08:31:17.000Z</time>
      </trkpt>
      <trkpt lat="45.16444" lon="5.97393">
        <ele>2607.3999023438</ele>
        <time>2012-03-31T08:31:24.000Z</time>
      </trkpt>
      <trkpt lat="45.16449" lon="5.97401">
        <ele>2608.8000488281</ele>
        <time>2012-03-31T08:31:32.000Z</time>
      </trkpt>
      <trkpt lat="45.16449" lon="5.97403">
        <ele>2609</ele>
        <time>2012-03-31T08:31:33.000Z</time>
      </trkpt>
      <trkpt lat="45.16447" lon="5.97411">
        <ele>2609.8000488281</ele>
        <time>2012-03-31T08:31:40.000Z</time>
      </trkpt>
      <trkpt lat="45.16448" lon="5.97418">
        <ele>2611</ele>
        <time>2012-03-31T08:31:48.000Z</time>
      </trkpt>
      <trkpt lat="45.16448" lon="5.97423">
        <ele>2611.8000488281</ele>
        <time>2012-03-31T08:31:54.000Z</time>
      </trkpt>
      <trkpt lat="45.16454" lon="5.97428">
        <ele>2612.6000976562</ele>
        <time>2012-03-31T08:32:01.000Z</time>
      </trkpt>
      <trkpt lat="45.16453" lon="5.97436">
        <ele>2613.8000488281</ele>
        <time>2012-03-31T08:32:08.000Z</time>
      </trkpt>
      <trkpt lat="45.16455" lon="5.97445">
        <ele>2614.3999023438</ele>
        <time>2012-03-31T08:32:17.000Z</time>
      </trkpt>
      <trkpt lat="45.16456" lon="5.97444">
        <ele>2614.8000488281</ele>
        <time>2012-03-31T08:32:19.000Z</time>
      </trkpt>
      <trkpt lat="45.16457" lon="5.97445">
        <ele>2615.1999511719</ele>
        <time>2012-03-31T08:32:22.000Z</time>
      </trkpt>
      <trkpt lat="45.16458" lon="5.97455">
        <ele>2616.3999023438</ele>
        <time>2012-03-31T08:32:29.000Z</time>
      </trkpt>
      <trkpt lat="45.16457" lon="5.97461">
        <ele>2618</ele>
        <time>2012-03-31T08:32:39.000Z</time>
      </trkpt>
      <trkpt lat="45.16452" lon="5.97469">
        <ele>2619</ele>
        <time>2012-03-31T08:32:46.000Z</time>
      </trkpt>
      <trkpt lat="45.16453" lon="5.9747">
        <ele>2620.6000976562</ele>
        <time>2012-03-31T08:32:51.000Z</time>
      </trkpt>
      <trkpt lat="45.16453" lon="5.9747">
        <ele>2621</ele>
        <time>2012-03-31T08:32:52.000Z</time>
      </trkpt>
      <trkpt lat="45.16455" lon="5.9748">
        <ele>2624.1999511719</ele>
        <time>2012-03-31T08:33:06.000Z</time>
      </trkpt>
      <trkpt lat="45.16453" lon="5.97484">
        <ele>2625</ele>
        <time>2012-03-31T08:33:12.000Z</time>
      </trkpt>
      <trkpt lat="45.16455" lon="5.97492">
        <ele>2627</ele>
        <time>2012-03-31T08:33:25.000Z</time>
      </trkpt>
      <trkpt lat="45.16458" lon="5.97494">
        <ele>2627.8000488281</ele>
        <time>2012-03-31T08:33:30.000Z</time>
      </trkpt>
      <trkpt lat="45.1646" lon="5.97495">
        <ele>2628.6000976562</ele>
        <time>2012-03-31T08:33:35.000Z</time>
      </trkpt>
      <trkpt lat="45.16464" lon="5.97497">
        <ele>2629.1999511719</ele>
        <time>2012-03-31T08:33:40.000Z</time>
      </trkpt>
      <trkpt lat="45.16469" lon="5.97501">
        <ele>2630.6000976562</ele>
        <time>2012-03-31T08:33:49.000Z</time>
      </trkpt>
      <trkpt lat="45.16473" lon="5.97504">
        <ele>2631.8000488281</ele>
        <time>2012-03-31T08:33:54.000Z</time>
      </trkpt>
      <trkpt lat="45.16473" lon="5.97505">
        <ele>2632</ele>
        <time>2012-03-31T08:33:56.000Z</time>
      </trkpt>
      <trkpt lat="45.16476" lon="5.97507">
        <ele>2633</ele>
        <time>2012-03-31T08:34:03.000Z</time>
      </trkpt>
      <trkpt lat="45.16479" lon="5.97513">
        <ele>2634.8000488281</ele>
        <time>2012-03-31T08:34:12.000Z</time>
      </trkpt>
      <trkpt lat="45.16482" lon="5.97516">
        <ele>2635.1999511719</ele>
        <time>2012-03-31T08:34:17.000Z</time>
      </trkpt>
      <trkpt lat="45.16487" lon="5.97518">
        <ele>2636.3999023438</ele>
        <time>2012-03-31T08:34:24.000Z</time>
      </trkpt>
      <trkpt lat="45.16493" lon="5.97518">
        <ele>2638</ele>
        <time>2012-03-31T08:34:31.000Z</time>
      </trkpt>
      <trkpt lat="45.16499" lon="5.97519">
        <ele>2639.3999023438</ele>
        <time>2012-03-31T08:34:38.000Z</time>
      </trkpt>
      <trkpt lat="45.16505" lon="5.97517">
        <ele>2641.1999511719</ele>
        <time>2012-03-31T08:34:46.000Z</time>
      </trkpt>
      <trkpt lat="45.16513" lon="5.97512">
        <ele>2643</ele>
        <time>2012-03-31T08:34:54.000Z</time>
      </trkpt>
      <trkpt lat="45.16518" lon="5.97509">
        <ele>2644.3999023438</ele>
        <time>2012-03-31T08:35:00.000Z</time>
      </trkpt>
      <trkpt lat="45.16526" lon="5.97513">
        <ele>2645.6000976562</ele>
        <time>2012-03-31T08:35:08.000Z</time>
      </trkpt>
      <trkpt lat="45.16527" lon="5.97513">
        <ele>2646.6000976562</ele>
        <time>2012-03-31T08:35:12.000Z</time>
      </trkpt>
      <trkpt lat="45.16524" lon="5.97524">
        <ele>2647.8000488281</ele>
        <time>2012-03-31T08:35:20.000Z</time>
      </trkpt>
      <trkpt lat="45.16521" lon="5.97533">
        <ele>2649</ele>
        <time>2012-03-31T08:35:27.000Z</time>
      </trkpt>
      <trkpt lat="45.1652" lon="5.9754">
        <ele>2650</ele>
        <time>2012-03-31T08:35:33.000Z</time>
      </trkpt>
      <trkpt lat="45.16521" lon="5.97541">
        <ele>2650.1999511719</ele>
        <time>2012-03-31T08:35:35.000Z</time>
      </trkpt>
      <trkpt lat="45.16521" lon="5.97548">
        <ele>2651.6000976562</ele>
        <time>2012-03-31T08:35:43.000Z</time>
      </trkpt>
      <trkpt lat="45.1652" lon="5.97556">
        <ele>2653.1999511719</ele>
        <time>2012-03-31T08:35:50.000Z</time>
      </trkpt>
      <trkpt lat="45.16524" lon="5.97563">
        <ele>2654.3999023438</ele>
        <time>2012-03-31T08:35:55.000Z</time>
      </trkpt>
      <trkpt lat="45.16527" lon="5.97566">
        <ele>2655.8000488281</ele>
        <time>2012-03-31T08:36:01.000Z</time>
      </trkpt>
      <trkpt lat="45.16528" lon="5.97571">
        <ele>2656.6000976562</ele>
        <time>2012-03-31T08:36:08.000Z</time>
      </trkpt>
      <trkpt lat="45.16534" lon="5.97577">
        <ele>2658.1999511719</ele>
        <time>2012-03-31T08:36:17.000Z</time>
      </trkpt>
      <trkpt lat="45.16533" lon="5.97581">
        <ele>2659</ele>
        <time>2012-03-31T08:36:24.000Z</time>
      </trkpt>
      <trkpt lat="45.16532" lon="5.97581">
        <ele>2659.6000976562</ele>
        <time>2012-03-31T08:36:26.000Z</time>
      </trkpt>
      <trkpt lat="45.16533" lon="5.97584">
        <ele>2660.3999023438</ele>
        <time>2012-03-31T08:36:32.000Z</time>
      </trkpt>
      <trkpt lat="45.16535" lon="5.97584">
        <ele>2661.1999511719</ele>
        <time>2012-03-31T08:36:36.000Z</time>
      </trkpt>
      <trkpt lat="45.16535" lon="5.97587">
        <ele>2662</ele>
        <time>2012-03-31T08:36:42.000Z</time>
      </trkpt>
      <trkpt lat="45.16538" lon="5.97593">
        <ele>2663.1999511719</ele>
        <time>2012-03-31T08:36:49.000Z</time>
      </trkpt>
      <trkpt lat="45.16539" lon="5.97597">
        <ele>2664</ele>
        <time>2012-03-31T08:36:54.000Z</time>
      </trkpt>
      <trkpt lat="45.16541" lon="5.97605">
        <ele>2665.3999023438</ele>
        <time>2012-03-31T08:37:01.000Z</time>
      </trkpt>
      <trkpt lat="45.16543" lon="5.9761">
        <ele>2666.6000976562</ele>
        <time>2012-03-31T08:37:08.000Z</time>
      </trkpt>
      <trkpt lat="45.16542" lon="5.97615">
        <ele>2667.8000488281</ele>
        <time>2012-03-31T08:37:15.000Z</time>
      </trkpt>
      <trkpt lat="45.1654" lon="5.97623">
        <ele>2668.8000488281</ele>
        <time>2012-03-31T08:37:22.000Z</time>
      </trkpt>
      <trkpt lat="45.16538" lon="5.97627">
        <ele>2670.3999023438</ele>
        <time>2012-03-31T08:37:29.000Z</time>
      </trkpt>
      <trkpt lat="45.16537" lon="5.97631">
        <ele>2671.1999511719</ele>
        <time>2012-03-31T08:37:34.000Z</time>
      </trkpt>
      <trkpt lat="45.16536" lon="5.97636">
        <ele>2672.3999023438</ele>
        <time>2012-03-31T08:37:40.000Z</time>
      </trkpt>
      <trkpt lat="45.16536" lon="5.97638">
        <ele>2673.1999511719</ele>
        <time>2012-03-31T08:37:44.000Z</time>
      </trkpt>
      <trkpt lat="45.16535" lon="5.9764">
        <ele>2674</ele>
        <time>2012-03-31T08:37:49.000Z</time>
      </trkpt>
      <trkpt lat="45.16533" lon="5.97641">
        <ele>2675.1999511719</ele>
        <time>2012-03-31T08:37:54.000Z</time>
      </trkpt>
      <trkpt lat="45.16535" lon="5.97641">
        <ele>2675.3999023438</ele>
        <time>2012-03-31T08:37:58.000Z</time>
      </trkpt>
      <trkpt lat="45.16538" lon="5.97645">
        <ele>2676</ele>
        <time>2012-03-31T08:38:05.000Z</time>
      </trkpt>
      <trkpt lat="45.16542" lon="5.97648">
        <ele>2677.8000488281</ele>
        <time>2012-03-31T08:38:13.000Z</time>
      </trkpt>
      <trkpt lat="45.16542" lon="5.97649">
        <ele>2678.3999023438</ele>
        <time>2012-03-31T08:38:15.000Z</time>
      </trkpt>
      <trkpt lat="45.16544" lon="5.97651">
        <ele>2679.3999023438</ele>
        <time>2012-03-31T08:38:20.000Z</time>
      </trkpt>
      <trkpt lat="45.16547" lon="5.97654">
        <ele>2680.1999511719</ele>
        <time>2012-03-31T08:38:23.000Z</time>
      </trkpt>
      <trkpt lat="45.16549" lon="5.97656">
        <ele>2681.3999023438</ele>
        <time>2012-03-31T08:38:34.000Z</time>
      </trkpt>
      <trkpt lat="45.16545" lon="5.97665">
        <ele>2683.3999023438</ele>
        <time>2012-03-31T08:38:45.000Z</time>
      </trkpt>
      <trkpt lat="45.16543" lon="5.97672">
        <ele>2684.8000488281</ele>
        <time>2012-03-31T08:38:53.000Z</time>
      </trkpt>
      <trkpt lat="45.16543" lon="5.97673">
        <ele>2685.1999511719</ele>
        <time>2012-03-31T08:38:55.000Z</time>
      </trkpt>
      <trkpt lat="45.16543" lon="5.97678">
        <ele>2687.3999023438</ele>
        <time>2012-03-31T08:39:06.000Z</time>
      </trkpt>
      <trkpt lat="45.16548" lon="5.97682">
        <ele>2688.3999023438</ele>
        <time>2012-03-31T08:39:14.000Z</time>
      </trkpt>
      <trkpt lat="45.16552" lon="5.97686">
        <ele>2689.1999511719</ele>
        <time>2012-03-31T08:39:18.000Z</time>
      </trkpt>
      <trkpt lat="45.16553" lon="5.97687">
        <ele>2690</ele>
        <time>2012-03-31T08:39:21.000Z</time>
      </trkpt>
      <trkpt lat="45.16556" lon="5.97692">
        <ele>2692.1999511719</ele>
        <time>2012-03-31T08:39:44.000Z</time>
      </trkpt>
      <trkpt lat="45.16553" lon="5.97698">
        <ele>2693.1999511719</ele>
        <time>2012-03-31T08:39:51.000Z</time>
      </trkpt>
      <trkpt lat="45.16551" lon="5.97702">
        <ele>2694.1999511719</ele>
        <time>2012-03-31T08:39:57.000Z</time>
      </trkpt>
      <trkpt lat="45.16549" lon="5.97705">
        <ele>2695.1999511719</ele>
        <time>2012-03-31T08:40:02.000Z</time>
      </trkpt>
      <trkpt lat="45.16548" lon="5.97709">
        <ele>2696.3999023438</ele>
        <time>2012-03-31T08:40:09.000Z</time>
      </trkpt>
      <trkpt lat="45.16549" lon="5.97716">
        <ele>2698.3999023438</ele>
        <time>2012-03-31T08:40:16.000Z</time>
      </trkpt>
      <trkpt lat="45.16549" lon="5.9772">
        <ele>2699.1999511719</ele>
        <time>2012-03-31T08:40:22.000Z</time>
      </trkpt>
      <trkpt lat="45.1655" lon="5.97723">
        <ele>2700.6000976562</ele>
        <time>2012-03-31T08:40:29.000Z</time>
      </trkpt>
      <trkpt lat="45.16549" lon="5.97728">
        <ele>2701.3999023438</ele>
        <time>2012-03-31T08:40:35.000Z</time>
      </trkpt>
      <trkpt lat="45.16548" lon="5.97734">
        <ele>2702.6000976562</ele>
        <time>2012-03-31T08:40:43.000Z</time>
      </trkpt>
      <trkpt lat="45.16549" lon="5.97738">
        <ele>2703.3999023438</ele>
        <time>2012-03-31T08:40:49.000Z</time>
      </trkpt>
      <trkpt lat="45.16549" lon="5.97746">
        <ele>2704.8000488281</ele>
        <time>2012-03-31T08:40:57.000Z</time>
      </trkpt>
      <trkpt lat="45.16548" lon="5.97756">
        <ele>2706.6000976562</ele>
        <time>2012-03-31T08:41:06.000Z</time>
      </trkpt>
      <trkpt lat="45.16547" lon="5.97761">
        <ele>2707.6000976562</ele>
        <time>2012-03-31T08:41:12.000Z</time>
      </trkpt>
      <trkpt lat="45.16547" lon="5.97767">
        <ele>2709.3999023438</ele>
        <time>2012-03-31T08:41:18.000Z</time>
      </trkpt>
      <trkpt lat="45.16548" lon="5.97773">
        <ele>2710.6000976562</ele>
        <time>2012-03-31T08:41:25.000Z</time>
      </trkpt>
      <trkpt lat="45.16548" lon="5.97779">
        <ele>2711.8000488281</ele>
        <time>2012-03-31T08:41:32.000Z</time>
      </trkpt>
      <trkpt lat="45.16549" lon="5.97783">
        <ele>2712.8000488281</ele>
        <time>2012-03-31T08:41:38.000Z</time>
      </trkpt>
      <trkpt lat="45.16549" lon="5.97786">
        <ele>2713.3999023438</ele>
        <time>2012-03-31T08:41:42.000Z</time>
      </trkpt>
      <trkpt lat="45.16548" lon="5.97794">
        <ele>2714.6000976562</ele>
        <time>2012-03-31T08:41:50.000Z</time>
      </trkpt>
      <trkpt lat="45.16548" lon="5.97801">
        <ele>2716</ele>
        <time>2012-03-31T08:41:57.000Z</time>
      </trkpt>
      <trkpt lat="45.16548" lon="5.97804">
        <ele>2716.1999511719</ele>
        <time>2012-03-31T08:41:59.000Z</time>
      </trkpt>
      <trkpt lat="45.1655" lon="5.97816">
        <ele>2718.1999511719</ele>
        <time>2012-03-31T08:42:09.000Z</time>
      </trkpt>
      <trkpt lat="45.16549" lon="5.97826">
        <ele>2719.3999023438</ele>
        <time>2012-03-31T08:42:17.000Z</time>
      </trkpt>
      <trkpt lat="45.16549" lon="5.97834">
        <ele>2719.8000488281</ele>
        <time>2012-03-31T08:42:24.000Z</time>
      </trkpt>
      <trkpt lat="45.1655" lon="5.97844">
        <ele>2721.1999511719</ele>
        <time>2012-03-31T08:42:32.000Z</time>
      </trkpt>
      <trkpt lat="45.16551" lon="5.97852">
        <ele>2722.6000976562</ele>
        <time>2012-03-31T08:42:39.000Z</time>
      </trkpt>
      <trkpt lat="45.16552" lon="5.97862">
        <ele>2723.1999511719</ele>
        <time>2012-03-31T08:42:47.000Z</time>
      </trkpt>
      <trkpt lat="45.16552" lon="5.97872">
        <ele>2724.3999023438</ele>
        <time>2012-03-31T08:42:55.000Z</time>
      </trkpt>
      <trkpt lat="45.16551" lon="5.9788">
        <ele>2726</ele>
        <time>2012-03-31T08:43:05.000Z</time>
      </trkpt>
      <trkpt lat="45.16549" lon="5.97888">
        <ele>2726.6000976562</ele>
        <time>2012-03-31T08:43:11.000Z</time>
      </trkpt>
      <trkpt lat="45.16548" lon="5.97896">
        <ele>2728.3999023438</ele>
        <time>2012-03-31T08:43:18.000Z</time>
      </trkpt>
      <trkpt lat="45.16549" lon="5.97906">
        <ele>2729.8000488281</ele>
        <time>2012-03-31T08:43:26.000Z</time>
      </trkpt>
      <trkpt lat="45.16552" lon="5.97915">
        <ele>2730.1999511719</ele>
        <time>2012-03-31T08:43:34.000Z</time>
      </trkpt>
      <trkpt lat="45.16553" lon="5.9792">
        <ele>2731</ele>
        <time>2012-03-31T08:43:38.000Z</time>
      </trkpt>
      <trkpt lat="45.16556" lon="5.9793">
        <ele>2731.8000488281</ele>
        <time>2012-03-31T08:43:47.000Z</time>
      </trkpt>
      <trkpt lat="45.16558" lon="5.97941">
        <ele>2732.6000976562</ele>
        <time>2012-03-31T08:43:56.000Z</time>
      </trkpt>
      <trkpt lat="45.16558" lon="5.97944">
        <ele>2733</ele>
        <time>2012-03-31T08:43:59.000Z</time>
      </trkpt>
      <trkpt lat="45.16559" lon="5.97945">
        <ele>2733</ele>
        <time>2012-03-31T08:44:02.000Z</time>
      </trkpt>
      <trkpt lat="45.16561" lon="5.97958">
        <ele>2733.3999023438</ele>
        <time>2012-03-31T08:44:18.000Z</time>
      </trkpt>
      <trkpt lat="45.16563" lon="5.97971">
        <ele>2734.3999023438</ele>
        <time>2012-03-31T08:44:28.000Z</time>
      </trkpt>
      <trkpt lat="45.16564" lon="5.97982">
        <ele>2736</ele>
        <time>2012-03-31T08:44:37.000Z</time>
      </trkpt>
      <trkpt lat="45.16564" lon="5.97994">
        <ele>2736.6000976562</ele>
        <time>2012-03-31T08:44:46.000Z</time>
      </trkpt>
      <trkpt lat="45.16565" lon="5.98005">
        <ele>2737.6000976562</ele>
        <time>2012-03-31T08:44:55.000Z</time>
      </trkpt>
      <trkpt lat="45.16564" lon="5.98016">
        <ele>2738.3999023438</ele>
        <time>2012-03-31T08:45:03.000Z</time>
      </trkpt>
      <trkpt lat="45.16564" lon="5.98025">
        <ele>2739.6000976562</ele>
        <time>2012-03-31T08:45:10.000Z</time>
      </trkpt>
      <trkpt lat="45.16563" lon="5.98033">
        <ele>2739.8000488281</ele>
        <time>2012-03-31T08:45:18.000Z</time>
      </trkpt>
      <trkpt lat="45.16563" lon="5.98044">
        <ele>2741.8000488281</ele>
        <time>2012-03-31T08:45:28.000Z</time>
      </trkpt>
      <trkpt lat="45.16562" lon="5.98054">
        <ele>2743.1999511719</ele>
        <time>2012-03-31T08:45:38.000Z</time>
      </trkpt>
      <trkpt lat="45.16561" lon="5.98061">
        <ele>2744.3999023438</ele>
        <time>2012-03-31T08:45:45.000Z</time>
      </trkpt>
      <trkpt lat="45.1656" lon="5.98068">
        <ele>2746</ele>
        <time>2012-03-31T08:45:53.000Z</time>
      </trkpt>
      <trkpt lat="45.16559" lon="5.98078">
        <ele>2747.6000976562</ele>
        <time>2012-03-31T08:46:03.000Z</time>
      </trkpt>
      <trkpt lat="45.16558" lon="5.98086">
        <ele>2749</ele>
        <time>2012-03-31T08:46:11.000Z</time>
      </trkpt>
      <trkpt lat="45.16557" lon="5.98093">
        <ele>2749.8000488281</ele>
        <time>2012-03-31T08:46:19.000Z</time>
      </trkpt>
      <trkpt lat="45.16553" lon="5.98098">
        <ele>2751.1999511719</ele>
        <time>2012-03-31T08:46:27.000Z</time>
      </trkpt>
      <trkpt lat="45.16548" lon="5.98103">
        <ele>2753.1999511719</ele>
        <time>2012-03-31T08:46:36.000Z</time>
      </trkpt>
      <trkpt lat="45.16543" lon="5.98105">
        <ele>2754.1999511719</ele>
        <time>2012-03-31T08:46:45.000Z</time>
      </trkpt>
      <trkpt lat="45.16538" lon="5.98106">
        <ele>2755.3999023438</ele>
        <time>2012-03-31T08:46:54.000Z</time>
      </trkpt>
      <trkpt lat="45.16534" lon="5.98108">
        <ele>2756</ele>
        <time>2012-03-31T08:47:01.000Z</time>
      </trkpt>
      <trkpt lat="45.1653" lon="5.98113">
        <ele>2757.1999511719</ele>
        <time>2012-03-31T08:47:09.000Z</time>
      </trkpt>
      <trkpt lat="45.16528" lon="5.98119">
        <ele>2758.6000976562</ele>
        <time>2012-03-31T08:47:16.000Z</time>
      </trkpt>
      <trkpt lat="45.16528" lon="5.98119">
        <ele>2758.8000488281</ele>
        <time>2012-03-31T08:47:17.000Z</time>
      </trkpt>
      <trkpt lat="45.16528" lon="5.98127">
        <ele>2760.1999511719</ele>
        <time>2012-03-31T08:47:25.000Z</time>
      </trkpt>
      <trkpt lat="45.16528" lon="5.98133">
        <ele>2761</ele>
        <time>2012-03-31T08:47:31.000Z</time>
      </trkpt>
      <trkpt lat="45.16529" lon="5.98141">
        <ele>2762.1999511719</ele>
        <time>2012-03-31T08:47:38.000Z</time>
      </trkpt>
      <trkpt lat="45.1653" lon="5.98147">
        <ele>2762.8000488281</ele>
        <time>2012-03-31T08:47:43.000Z</time>
      </trkpt>
      <trkpt lat="45.16531" lon="5.98154">
        <ele>2764.1999511719</ele>
        <time>2012-03-31T08:47:50.000Z</time>
      </trkpt>
      <trkpt lat="45.16532" lon="5.98161">
        <ele>2765</ele>
        <time>2012-03-31T08:47:57.000Z</time>
      </trkpt>
      <trkpt lat="45.16536" lon="5.98168">
        <ele>2766.1999511719</ele>
        <time>2012-03-31T08:48:05.000Z</time>
      </trkpt>
      <trkpt lat="45.16538" lon="5.98171">
        <ele>2766.1999511719</ele>
        <time>2012-03-31T08:48:08.000Z</time>
      </trkpt>
      <trkpt lat="45.16539" lon="5.98177">
        <ele>2766.1999511719</ele>
        <time>2012-03-31T08:48:12.000Z</time>
      </trkpt>
      <trkpt lat="45.1654" lon="5.9818">
        <ele>2766.6000976562</ele>
        <time>2012-03-31T08:48:14.000Z</time>
      </trkpt>
      <trkpt lat="45.16539" lon="5.98183">
        <ele>2767</ele>
        <time>2012-03-31T08:48:17.000Z</time>
      </trkpt>
      <trkpt lat="45.16541" lon="5.98195">
        <ele>2767.1999511719</ele>
        <time>2012-03-31T08:48:25.000Z</time>
      </trkpt>
      <trkpt lat="45.16542" lon="5.98204">
        <ele>2767.3999023438</ele>
        <time>2012-03-31T08:48:33.000Z</time>
      </trkpt>
      <trkpt lat="45.16543" lon="5.98211">
        <ele>2768</ele>
        <time>2012-03-31T08:48:39.000Z</time>
      </trkpt>
      <trkpt lat="45.16543" lon="5.98224">
        <ele>2769.3999023438</ele>
        <time>2012-03-31T08:48:49.000Z</time>
      </trkpt>
      <trkpt lat="45.16543" lon="5.98229">
        <ele>2770</ele>
        <time>2012-03-31T08:48:54.000Z</time>
      </trkpt>
      <trkpt lat="45.16542" lon="5.98237">
        <ele>2770.8000488281</ele>
        <time>2012-03-31T08:49:00.000Z</time>
      </trkpt>
      <trkpt lat="45.16541" lon="5.98244">
        <ele>2772.3999023438</ele>
        <time>2012-03-31T08:49:07.000Z</time>
      </trkpt>
      <trkpt lat="45.16541" lon="5.98251">
        <ele>2773.6000976562</ele>
        <time>2012-03-31T08:49:14.000Z</time>
      </trkpt>
      <trkpt lat="45.1654" lon="5.98256">
        <ele>2774.1999511719</ele>
        <time>2012-03-31T08:49:19.000Z</time>
      </trkpt>
      <trkpt lat="45.16542" lon="5.98267">
        <ele>2775</ele>
        <time>2012-03-31T08:49:29.000Z</time>
      </trkpt>
      <trkpt lat="45.16544" lon="5.98278">
        <ele>2776.8000488281</ele>
        <time>2012-03-31T08:49:39.000Z</time>
      </trkpt>
      <trkpt lat="45.16546" lon="5.98285">
        <ele>2777.3999023438</ele>
        <time>2012-03-31T08:49:46.000Z</time>
      </trkpt>
      <trkpt lat="45.16548" lon="5.98295">
        <ele>2778.6000976562</ele>
        <time>2012-03-31T08:49:55.000Z</time>
      </trkpt>
      <trkpt lat="45.16551" lon="5.98304">
        <ele>2779.8000488281</ele>
        <time>2012-03-31T08:50:03.000Z</time>
      </trkpt>
      <trkpt lat="45.16554" lon="5.98315">
        <ele>2780.3999023438</ele>
        <time>2012-03-31T08:50:12.000Z</time>
      </trkpt>
      <trkpt lat="45.16558" lon="5.98326">
        <ele>2781</ele>
        <time>2012-03-31T08:50:21.000Z</time>
      </trkpt>
      <trkpt lat="45.1656" lon="5.98335">
        <ele>2781.6000976562</ele>
        <time>2012-03-31T08:50:28.000Z</time>
      </trkpt>
      <trkpt lat="45.16563" lon="5.98346">
        <ele>2782.8000488281</ele>
        <time>2012-03-31T08:50:37.000Z</time>
      </trkpt>
      <trkpt lat="45.16567" lon="5.98356">
        <ele>2783.3999023438</ele>
        <time>2012-03-31T08:50:46.000Z</time>
      </trkpt>
      <trkpt lat="45.16569" lon="5.98363">
        <ele>2784.6000976562</ele>
        <time>2012-03-31T08:50:53.000Z</time>
      </trkpt>
      <trkpt lat="45.16572" lon="5.98373">
        <ele>2786.1999511719</ele>
        <time>2012-03-31T08:51:01.000Z</time>
      </trkpt>
      <trkpt lat="45.16573" lon="5.98374">
        <ele>2786.3999023438</ele>
        <time>2012-03-31T08:51:04.000Z</time>
      </trkpt>
      <trkpt lat="45.16577" lon="5.98382">
        <ele>2787.3999023438</ele>
        <time>2012-03-31T08:51:11.000Z</time>
      </trkpt>
      <trkpt lat="45.16578" lon="5.98386">
        <ele>2788.1999511719</ele>
        <time>2012-03-31T08:51:16.000Z</time>
      </trkpt>
      <trkpt lat="45.16582" lon="5.98394">
        <ele>2789.3999023438</ele>
        <time>2012-03-31T08:51:24.000Z</time>
      </trkpt>
      <trkpt lat="45.16587" lon="5.984">
        <ele>2790.1999511719</ele>
        <time>2012-03-31T08:51:31.000Z</time>
      </trkpt>
      <trkpt lat="45.16589" lon="5.98402">
        <ele>2790.8000488281</ele>
        <time>2012-03-31T08:51:35.000Z</time>
      </trkpt>
      <trkpt lat="45.16592" lon="5.98407">
        <ele>2791.6000976562</ele>
        <time>2012-03-31T08:51:41.000Z</time>
      </trkpt>
      <trkpt lat="45.16596" lon="5.98414">
        <ele>2792</ele>
        <time>2012-03-31T08:51:48.000Z</time>
      </trkpt>
      <trkpt lat="45.16601" lon="5.98421">
        <ele>2792.8000488281</ele>
        <time>2012-03-31T08:51:56.000Z</time>
      </trkpt>
      <trkpt lat="45.16604" lon="5.98427">
        <ele>2793.6000976562</ele>
        <time>2012-03-31T08:52:02.000Z</time>
      </trkpt>
      <trkpt lat="45.16608" lon="5.98431">
        <ele>2794</ele>
        <time>2012-03-31T08:52:08.000Z</time>
      </trkpt>
      <trkpt lat="45.16612" lon="5.98433">
        <ele>2794.1999511719</ele>
        <time>2012-03-31T08:52:13.000Z</time>
      </trkpt>
      <trkpt lat="45.16615" lon="5.98435">
        <ele>2794.6000976562</ele>
        <time>2012-03-31T08:52:17.000Z</time>
      </trkpt>
      <trkpt lat="45.16619" lon="5.98434">
        <ele>2795.3999023438</ele>
        <time>2012-03-31T08:52:22.000Z</time>
      </trkpt>
      <trkpt lat="45.16623" lon="5.98433">
        <ele>2796.6000976562</ele>
        <time>2012-03-31T08:52:27.000Z</time>
      </trkpt>
      <trkpt lat="45.16627" lon="5.98432">
        <ele>2797.6000976562</ele>
        <time>2012-03-31T08:52:33.000Z</time>
      </trkpt>
      <trkpt lat="45.16629" lon="5.98432">
        <ele>2798.1999511719</ele>
        <time>2012-03-31T08:52:37.000Z</time>
      </trkpt>
      <trkpt lat="45.16633" lon="5.98432">
        <ele>2800</ele>
        <time>2012-03-31T08:52:43.000Z</time>
      </trkpt>
      <trkpt lat="45.16635" lon="5.98434">
        <ele>2800.3999023438</ele>
        <time>2012-03-31T08:52:47.000Z</time>
      </trkpt>
      <trkpt lat="45.16635" lon="5.98437">
        <ele>2802</ele>
        <time>2012-03-31T08:52:53.000Z</time>
      </trkpt>
      <trkpt lat="45.16634" lon="5.98444">
        <ele>2803.8000488281</ele>
        <time>2012-03-31T08:53:01.000Z</time>
      </trkpt>
      <trkpt lat="45.16634" lon="5.98453">
        <ele>2805.1999511719</ele>
        <time>2012-03-31T08:53:10.000Z</time>
      </trkpt>
      <trkpt lat="45.16634" lon="5.98455">
        <ele>2805.3999023438</ele>
        <time>2012-03-31T08:53:12.000Z</time>
      </trkpt>
      <trkpt lat="45.16636" lon="5.98459">
        <ele>2806.1999511719</ele>
        <time>2012-03-31T08:53:18.000Z</time>
      </trkpt>
      <trkpt lat="45.16636" lon="5.98459">
        <ele>2806.6000976562</ele>
        <time>2012-03-31T08:53:19.000Z</time>
      </trkpt>
      <trkpt lat="45.16637" lon="5.98461">
        <ele>2807.3999023438</ele>
        <time>2012-03-31T08:53:21.000Z</time>
      </trkpt>
      <trkpt lat="45.16637" lon="5.98467">
        <ele>2808.1999511719</ele>
        <time>2012-03-31T08:53:28.000Z</time>
      </trkpt>
      <trkpt lat="45.16638" lon="5.98473">
        <ele>2808.8000488281</ele>
        <time>2012-03-31T08:53:33.000Z</time>
      </trkpt>
      <trkpt lat="45.16639" lon="5.98477">
        <ele>2809.1999511719</ele>
        <time>2012-03-31T08:53:38.000Z</time>
      </trkpt>
      <trkpt lat="45.1664" lon="5.98477">
        <ele>2809.6000976562</ele>
        <time>2012-03-31T08:53:39.000Z</time>
      </trkpt>
      <trkpt lat="45.1664" lon="5.98483">
        <ele>2810.1999511719</ele>
        <time>2012-03-31T08:53:43.000Z</time>
      </trkpt>
      <trkpt lat="45.1664" lon="5.98487">
        <ele>2810.6000976562</ele>
        <time>2012-03-31T08:53:46.000Z</time>
      </trkpt>
      <trkpt lat="45.16641" lon="5.98489">
        <ele>2811.1999511719</ele>
        <time>2012-03-31T08:53:50.000Z</time>
      </trkpt>
      <trkpt lat="45.16641" lon="5.98494">
        <ele>2811.6000976562</ele>
        <time>2012-03-31T08:53:55.000Z</time>
      </trkpt>
      <trkpt lat="45.16641" lon="5.98499">
        <ele>2812.3999023438</ele>
        <time>2012-03-31T08:53:59.000Z</time>
      </trkpt>
      <trkpt lat="45.16642" lon="5.98499">
        <ele>2813</ele>
        <time>2012-03-31T08:54:02.000Z</time>
      </trkpt>
      <trkpt lat="45.16643" lon="5.985">
        <ele>2813.3999023438</ele>
        <time>2012-03-31T08:54:04.000Z</time>
      </trkpt>
      <trkpt lat="45.16644" lon="5.98501">
        <ele>2813.8000488281</ele>
        <time>2012-03-31T08:54:06.000Z</time>
      </trkpt>
      <trkpt lat="45.16644" lon="5.98507">
        <ele>2814.6000976562</ele>
        <time>2012-03-31T08:54:10.000Z</time>
      </trkpt>
      <trkpt lat="45.16644" lon="5.9851">
        <ele>2815</ele>
        <time>2012-03-31T08:54:13.000Z</time>
      </trkpt>
      <trkpt lat="45.16645" lon="5.98514">
        <ele>2815.6000976562</ele>
        <time>2012-03-31T08:54:18.000Z</time>
      </trkpt>
      <trkpt lat="45.16645" lon="5.98517">
        <ele>2816.6000976562</ele>
        <time>2012-03-31T08:54:23.000Z</time>
      </trkpt>
      <trkpt lat="45.16647" lon="5.98519">
        <ele>2817.6000976562</ele>
        <time>2012-03-31T08:54:30.000Z</time>
      </trkpt>
      <trkpt lat="45.16648" lon="5.98522">
        <ele>2818.6000976562</ele>
        <time>2012-03-31T08:54:36.000Z</time>
      </trkpt>
      <trkpt lat="45.16649" lon="5.98523">
        <ele>2819</ele>
        <time>2012-03-31T08:54:40.000Z</time>
      </trkpt>
      <trkpt lat="45.16648" lon="5.98528">
        <ele>2819.8000488281</ele>
        <time>2012-03-31T08:54:44.000Z</time>
      </trkpt>
      <trkpt lat="45.16648" lon="5.98531">
        <ele>2820.8000488281</ele>
        <time>2012-03-31T08:54:50.000Z</time>
      </trkpt>
      <trkpt lat="45.16649" lon="5.98532">
        <ele>2821.1999511719</ele>
        <time>2012-03-31T08:54:53.000Z</time>
      </trkpt>
      <trkpt lat="45.16649" lon="5.98535">
        <ele>2822</ele>
        <time>2012-03-31T08:54:57.000Z</time>
      </trkpt>
      <trkpt lat="45.16648" lon="5.98539">
        <ele>2822.3999023438</ele>
        <time>2012-03-31T08:54:59.000Z</time>
      </trkpt>
      <trkpt lat="45.16648" lon="5.98542">
        <ele>2822.8000488281</ele>
        <time>2012-03-31T08:55:01.000Z</time>
      </trkpt>
      <trkpt lat="45.1665" lon="5.98544">
        <ele>2823.8000488281</ele>
        <time>2012-03-31T08:55:06.000Z</time>
      </trkpt>
      <trkpt lat="45.16651" lon="5.98546">
        <ele>2824.6000976562</ele>
        <time>2012-03-31T08:55:11.000Z</time>
      </trkpt>
      <trkpt lat="45.16651" lon="5.98548">
        <ele>2825</ele>
        <time>2012-03-31T08:55:14.000Z</time>
      </trkpt>
      <trkpt lat="45.16651" lon="5.9855">
        <ele>2825.6000976562</ele>
        <time>2012-03-31T08:55:16.000Z</time>
      </trkpt>
      <trkpt lat="45.16652" lon="5.9855">
        <ele>2826.1999511719</ele>
        <time>2012-03-31T08:55:19.000Z</time>
      </trkpt>
      <trkpt lat="45.16652" lon="5.98553">
        <ele>2826.3999023438</ele>
        <time>2012-03-31T08:55:22.000Z</time>
      </trkpt>
      <trkpt lat="45.16651" lon="5.98557">
        <ele>2826.8000488281</ele>
        <time>2012-03-31T08:55:24.000Z</time>
      </trkpt>
      <trkpt lat="45.16652" lon="5.98562">
        <ele>2827.3999023438</ele>
        <time>2012-03-31T08:55:27.000Z</time>
      </trkpt>
      <trkpt lat="45.16652" lon="5.98563">
        <ele>2827.6000976562</ele>
        <time>2012-03-31T08:55:28.000Z</time>
      </trkpt>
      <trkpt lat="45.16651" lon="5.9857">
        <ele>2828.1999511719</ele>
        <time>2012-03-31T08:55:31.000Z</time>
      </trkpt>
      <trkpt lat="45.16651" lon="5.98574">
        <ele>2828.6000976562</ele>
        <time>2012-03-31T08:55:34.000Z</time>
      </trkpt>
      <trkpt lat="45.16651" lon="5.98574">
        <ele>2828.8000488281</ele>
        <time>2012-03-31T08:55:35.000Z</time>
      </trkpt>
      <trkpt lat="45.16652" lon="5.98575">
        <ele>2829.3999023438</ele>
        <time>2012-03-31T08:55:39.000Z</time>
      </trkpt>
      <trkpt lat="45.16652" lon="5.98574">
        <ele>2830.1999511719</ele>
        <time>2012-03-31T08:55:42.000Z</time>
      </trkpt>
      <trkpt lat="45.16653" lon="5.98577">
        <ele>2831.1999511719</ele>
        <time>2012-03-31T08:55:47.000Z</time>
      </trkpt>
      <trkpt lat="45.16653" lon="5.9858">
        <ele>2832.3999023438</ele>
        <time>2012-03-31T08:55:54.000Z</time>
      </trkpt>
      <trkpt lat="45.16653" lon="5.98581">
        <ele>2832.8000488281</ele>
        <time>2012-03-31T08:55:56.000Z</time>
      </trkpt>
      <trkpt lat="45.16653" lon="5.98588">
        <ele>2833.1999511719</ele>
        <time>2012-03-31T08:56:04.000Z</time>
      </trkpt>
      <trkpt lat="45.16653" lon="5.98591">
        <ele>2834.3999023438</ele>
        <time>2012-03-31T08:56:09.000Z</time>
      </trkpt>
      <trkpt lat="45.16654" lon="5.98596">
        <ele>2835</ele>
        <time>2012-03-31T08:56:16.000Z</time>
      </trkpt>
      <trkpt lat="45.16655" lon="5.986">
        <ele>2835.8000488281</ele>
        <time>2012-03-31T08:56:20.000Z</time>
      </trkpt>
      <trkpt lat="45.16655" lon="5.98603">
        <ele>2836.6000976562</ele>
        <time>2012-03-31T08:56:24.000Z</time>
      </trkpt>
      <trkpt lat="45.16655" lon="5.98607">
        <ele>2836.8000488281</ele>
        <time>2012-03-31T08:56:28.000Z</time>
      </trkpt>
      <trkpt lat="45.16655" lon="5.98608">
        <ele>2837</ele>
        <time>2012-03-31T08:56:29.000Z</time>
      </trkpt>
      <trkpt lat="45.16656" lon="5.98611">
        <ele>2837.8000488281</ele>
        <time>2012-03-31T08:56:34.000Z</time>
      </trkpt>
      <trkpt lat="45.16656" lon="5.98617">
        <ele>2839</ele>
        <time>2012-03-31T08:56:38.000Z</time>
      </trkpt>
      <trkpt lat="45.16656" lon="5.98622">
        <ele>2840.3999023438</ele>
        <time>2012-03-31T08:56:43.000Z</time>
      </trkpt>
      <trkpt lat="45.16656" lon="5.98626">
        <ele>2840.6000976562</ele>
        <time>2012-03-31T08:56:46.000Z</time>
      </trkpt>
      <trkpt lat="45.16656" lon="5.98629">
        <ele>2840.3999023438</ele>
        <time>2012-03-31T08:56:48.000Z</time>
      </trkpt>
      <trkpt lat="45.16659" lon="5.98634">
        <ele>2841.3999023438</ele>
        <time>2012-03-31T08:56:54.000Z</time>
      </trkpt>
      <trkpt lat="45.1666" lon="5.98637">
        <ele>2841.8000488281</ele>
        <time>2012-03-31T08:56:56.000Z</time>
      </trkpt>
      <trkpt lat="45.16662" lon="5.98639">
        <ele>2842.3999023438</ele>
        <time>2012-03-31T08:56:59.000Z</time>
      </trkpt>
      <trkpt lat="45.16665" lon="5.98641">
        <ele>2843.1999511719</ele>
        <time>2012-03-31T08:57:03.000Z</time>
      </trkpt>
      <trkpt lat="45.16667" lon="5.98644">
        <ele>2844</ele>
        <time>2012-03-31T08:57:08.000Z</time>
      </trkpt>
      <trkpt lat="45.16668" lon="5.98644">
        <ele>2844.3999023438</ele>
        <time>2012-03-31T08:57:10.000Z</time>
      </trkpt>
      <trkpt lat="45.16671" lon="5.98649">
        <ele>2845.1999511719</ele>
        <time>2012-03-31T08:57:16.000Z</time>
      </trkpt>
      <trkpt lat="45.16672" lon="5.98651">
        <ele>2845.8000488281</ele>
        <time>2012-03-31T08:57:20.000Z</time>
      </trkpt>
      <trkpt lat="45.16676" lon="5.98654">
        <ele>2846.6000976562</ele>
        <time>2012-03-31T08:57:26.000Z</time>
      </trkpt>
      <trkpt lat="45.1668" lon="5.98656">
        <ele>2847.6000976562</ele>
        <time>2012-03-31T08:57:32.000Z</time>
      </trkpt>
      <trkpt lat="45.16684" lon="5.98658">
        <ele>2849</ele>
        <time>2012-03-31T08:57:39.000Z</time>
      </trkpt>
      <trkpt lat="45.16689" lon="5.9866">
        <ele>2850.3999023438</ele>
        <time>2012-03-31T08:57:47.000Z</time>
      </trkpt>
      <trkpt lat="45.16692" lon="5.98662">
        <ele>2850.8000488281</ele>
        <time>2012-03-31T08:57:53.000Z</time>
      </trkpt>
      <trkpt lat="45.16697" lon="5.98665">
        <ele>2851.8000488281</ele>
        <time>2012-03-31T08:58:02.000Z</time>
      </trkpt>
      <trkpt lat="45.16699" lon="5.98667">
        <ele>2852.1999511719</ele>
        <time>2012-03-31T08:58:06.000Z</time>
      </trkpt>
      <trkpt lat="45.16702" lon="5.9867">
        <ele>2853.3999023438</ele>
        <time>2012-03-31T08:58:11.000Z</time>
      </trkpt>
      <trkpt lat="45.16705" lon="5.98671">
        <ele>2854.8000488281</ele>
        <time>2012-03-31T08:58:16.000Z</time>
      </trkpt>
      <trkpt lat="45.16707" lon="5.98674">
        <ele>2855.6000976562</ele>
        <time>2012-03-31T08:58:20.000Z</time>
      </trkpt>
      <trkpt lat="45.1671" lon="5.98674">
        <ele>2856.1999511719</ele>
        <time>2012-03-31T08:58:23.000Z</time>
      </trkpt>
      <trkpt lat="45.16711" lon="5.98676">
        <ele>2856.6000976562</ele>
        <time>2012-03-31T08:58:25.000Z</time>
      </trkpt>
      <trkpt lat="45.16712" lon="5.98677">
        <ele>2856.6000976562</ele>
        <time>2012-03-31T08:58:28.000Z</time>
      </trkpt>
      <trkpt lat="45.16715" lon="5.98678">
        <ele>2857</ele>
        <time>2012-03-31T08:58:33.000Z</time>
      </trkpt>
      <trkpt lat="45.16716" lon="5.98679">
        <ele>2857.1999511719</ele>
        <time>2012-03-31T08:58:35.000Z</time>
      </trkpt>
      <trkpt lat="45.16718" lon="5.98678">
        <ele>2858.1999511719</ele>
        <time>2012-03-31T08:58:40.000Z</time>
      </trkpt>
      <trkpt lat="45.16721" lon="5.98679">
        <ele>2859</ele>
        <time>2012-03-31T08:58:45.000Z</time>
      </trkpt>
      <trkpt lat="45.16724" lon="5.98678">
        <ele>2859.8000488281</ele>
        <time>2012-03-31T08:58:50.000Z</time>
      </trkpt>
      <trkpt lat="45.16725" lon="5.98679">
        <ele>2860.3999023438</ele>
        <time>2012-03-31T08:58:53.000Z</time>
      </trkpt>
      <trkpt lat="45.16726" lon="5.98679">
        <ele>2860.6000976562</ele>
        <time>2012-03-31T08:58:55.000Z</time>
      </trkpt>
      <trkpt lat="45.16727" lon="5.98677">
        <ele>2860.8000488281</ele>
        <time>2012-03-31T08:58:57.000Z</time>
      </trkpt>
      <trkpt lat="45.1673" lon="5.98678">
        <ele>2862</ele>
        <time>2012-03-31T08:59:02.000Z</time>
      </trkpt>
      <trkpt lat="45.16732" lon="5.98679">
        <ele>2862.3999023438</ele>
        <time>2012-03-31T08:59:06.000Z</time>
      </trkpt>
      <trkpt lat="45.16735" lon="5.98677">
        <ele>2863.1999511719</ele>
        <time>2012-03-31T08:59:10.000Z</time>
      </trkpt>
      <trkpt lat="45.16737" lon="5.98677">
        <ele>2864.3999023438</ele>
        <time>2012-03-31T08:59:15.000Z</time>
      </trkpt>
      <trkpt lat="45.16737" lon="5.98677">
        <ele>2864.6000976562</ele>
        <time>2012-03-31T08:59:16.000Z</time>
      </trkpt>
      <trkpt lat="45.16744" lon="5.98677">
        <ele>2866.3999023438</ele>
        <time>2012-03-31T08:59:27.000Z</time>
      </trkpt>
      <trkpt lat="45.16746" lon="5.98676">
        <ele>2866.6000976562</ele>
        <time>2012-03-31T08:59:32.000Z</time>
      </trkpt>
      <trkpt lat="45.16751" lon="5.98677">
        <ele>2867.8000488281</ele>
        <time>2012-03-31T08:59:38.000Z</time>
      </trkpt>
      <trkpt lat="45.16753" lon="5.98677">
        <ele>2868.8000488281</ele>
        <time>2012-03-31T08:59:42.000Z</time>
      </trkpt>
      <trkpt lat="45.16754" lon="5.9868">
        <ele>2870</ele>
        <time>2012-03-31T08:59:47.000Z</time>
      </trkpt>
      <trkpt lat="45.16754" lon="5.98684">
        <ele>2871.3999023438</ele>
        <time>2012-03-31T08:59:54.000Z</time>
      </trkpt>
      <trkpt lat="45.16753" lon="5.98692">
        <ele>2871.8000488281</ele>
        <time>2012-03-31T09:00:01.000Z</time>
      </trkpt>
      <trkpt lat="45.16753" lon="5.98696">
        <ele>2872.8000488281</ele>
        <time>2012-03-31T09:00:08.000Z</time>
      </trkpt>
      <trkpt lat="45.16754" lon="5.98696">
        <ele>2873.1999511719</ele>
        <time>2012-03-31T09:00:09.000Z</time>
      </trkpt>
      <trkpt lat="45.16753" lon="5.98702">
        <ele>2874.1999511719</ele>
        <time>2012-03-31T09:00:24.000Z</time>
      </trkpt>
      <trkpt lat="45.16752" lon="5.98708">
        <ele>2874.8000488281</ele>
        <time>2012-03-31T09:00:31.000Z</time>
      </trkpt>
      <trkpt lat="45.16751" lon="5.9871">
        <ele>2875.1999511719</ele>
        <time>2012-03-31T09:00:33.000Z</time>
      </trkpt>
      <trkpt lat="45.16752" lon="5.98717">
        <ele>2876.8000488281</ele>
        <time>2012-03-31T09:00:40.000Z</time>
      </trkpt>
      <trkpt lat="45.16752" lon="5.98718">
        <ele>2877</ele>
        <time>2012-03-31T09:00:42.000Z</time>
      </trkpt>
      <trkpt lat="45.16751" lon="5.98725">
        <ele>2877.8000488281</ele>
        <time>2012-03-31T09:00:48.000Z</time>
      </trkpt>
      <trkpt lat="45.16751" lon="5.98729">
        <ele>2878.8000488281</ele>
        <time>2012-03-31T09:00:53.000Z</time>
      </trkpt>
      <trkpt lat="45.16752" lon="5.98732">
        <ele>2879.1999511719</ele>
        <time>2012-03-31T09:00:57.000Z</time>
      </trkpt>
      <trkpt lat="45.16751" lon="5.98737">
        <ele>2880.8000488281</ele>
        <time>2012-03-31T09:01:03.000Z</time>
      </trkpt>
      <trkpt lat="45.1675" lon="5.9874">
        <ele>2881</ele>
        <time>2012-03-31T09:01:07.000Z</time>
      </trkpt>
      <trkpt lat="45.1675" lon="5.98743">
        <ele>2881.6000976562</ele>
        <time>2012-03-31T09:01:11.000Z</time>
      </trkpt>
      <trkpt lat="45.1675" lon="5.98746">
        <ele>2882.1999511719</ele>
        <time>2012-03-31T09:01:15.000Z</time>
      </trkpt>
      <trkpt lat="45.1675" lon="5.98752">
        <ele>2883.1999511719</ele>
        <time>2012-03-31T09:01:20.000Z</time>
      </trkpt>
      <trkpt lat="45.16751" lon="5.98755">
        <ele>2884.1999511719</ele>
        <time>2012-03-31T09:01:25.000Z</time>
      </trkpt>
      <trkpt lat="45.16752" lon="5.98757">
        <ele>2885</ele>
        <time>2012-03-31T09:01:30.000Z</time>
      </trkpt>
      <trkpt lat="45.16752" lon="5.98761">
        <ele>2886.1999511719</ele>
        <time>2012-03-31T09:01:36.000Z</time>
      </trkpt>
      <trkpt lat="45.16751" lon="5.98764">
        <ele>2886.8000488281</ele>
        <time>2012-03-31T09:01:41.000Z</time>
      </trkpt>
      <trkpt lat="45.1675" lon="5.98763">
        <ele>2887.6000976562</ele>
        <time>2012-03-31T09:01:45.000Z</time>
      </trkpt>
      <trkpt lat="45.16749" lon="5.98768">
        <ele>2888.1999511719</ele>
        <time>2012-03-31T09:01:50.000Z</time>
      </trkpt>
      <trkpt lat="45.16749" lon="5.9877">
        <ele>2888.8000488281</ele>
        <time>2012-03-31T09:01:55.000Z</time>
      </trkpt>
      <trkpt lat="45.16748" lon="5.98771">
        <ele>2889.1999511719</ele>
        <time>2012-03-31T09:01:56.000Z</time>
      </trkpt>
      <trkpt lat="45.1675" lon="5.98773">
        <ele>2890.3999023438</ele>
        <time>2012-03-31T09:02:08.000Z</time>
      </trkpt>
      <trkpt lat="45.16753" lon="5.98773">
        <ele>2890.8000488281</ele>
        <time>2012-03-31T09:02:14.000Z</time>
      </trkpt>
      <trkpt lat="45.16757" lon="5.9877">
        <ele>2891.8000488281</ele>
        <time>2012-03-31T09:02:21.000Z</time>
      </trkpt>
      <trkpt lat="45.1676" lon="5.98768">
        <ele>2892.3999023438</ele>
        <time>2012-03-31T09:02:26.000Z</time>
      </trkpt>
      <trkpt lat="45.16762" lon="5.98767">
        <ele>2893.1999511719</ele>
        <time>2012-03-31T09:02:30.000Z</time>
      </trkpt>
      <trkpt lat="45.16765" lon="5.98766">
        <ele>2894.3999023438</ele>
        <time>2012-03-31T09:02:37.000Z</time>
      </trkpt>
      <trkpt lat="45.16766" lon="5.98769">
        <ele>2894.8000488281</ele>
        <time>2012-03-31T09:02:43.000Z</time>
      </trkpt>
      <trkpt lat="45.16767" lon="5.98774">
        <ele>2896.6000976562</ele>
        <time>2012-03-31T09:02:50.000Z</time>
      </trkpt>
      <trkpt lat="45.16767" lon="5.98776">
        <ele>2897</ele>
        <time>2012-03-31T09:02:54.000Z</time>
      </trkpt>
      <trkpt lat="45.16768" lon="5.98778">
        <ele>2897.8000488281</ele>
        <time>2012-03-31T09:02:58.000Z</time>
      </trkpt>
      <trkpt lat="45.16768" lon="5.98779">
        <ele>2898</ele>
        <time>2012-03-31T09:02:59.000Z</time>
      </trkpt>
      <trkpt lat="45.16768" lon="5.98785">
        <ele>2899.1999511719</ele>
        <time>2012-03-31T09:03:05.000Z</time>
      </trkpt>
      <trkpt lat="45.16768" lon="5.98791">
        <ele>2900.6000976562</ele>
        <time>2012-03-31T09:03:12.000Z</time>
      </trkpt>
      <trkpt lat="45.16768" lon="5.98799">
        <ele>2902</ele>
        <time>2012-03-31T09:03:20.000Z</time>
      </trkpt>
      <trkpt lat="45.16769" lon="5.98802">
        <ele>2903</ele>
        <time>2012-03-31T09:03:24.000Z</time>
      </trkpt>
      <trkpt lat="45.1677" lon="5.98803">
        <ele>2904</ele>
        <time>2012-03-31T09:03:28.000Z</time>
      </trkpt>
      <trkpt lat="45.16772" lon="5.98803">
        <ele>2904.8000488281</ele>
        <time>2012-03-31T09:03:33.000Z</time>
      </trkpt>
      <trkpt lat="45.16774" lon="5.98803">
        <ele>2905.1999511719</ele>
        <time>2012-03-31T09:03:37.000Z</time>
      </trkpt>
      <trkpt lat="45.16778" lon="5.98801">
        <ele>2906.1999511719</ele>
        <time>2012-03-31T09:03:43.000Z</time>
      </trkpt>
      <trkpt lat="45.16781" lon="5.98799">
        <ele>2907.6000976562</ele>
        <time>2012-03-31T09:03:49.000Z</time>
      </trkpt>
      <trkpt lat="45.16784" lon="5.98798">
        <ele>2908.1999511719</ele>
        <time>2012-03-31T09:03:54.000Z</time>
      </trkpt>
      <trkpt lat="45.16787" lon="5.98796">
        <ele>2909</ele>
        <time>2012-03-31T09:04:00.000Z</time>
      </trkpt>
      <trkpt lat="45.1679" lon="5.98795">
        <ele>2909.8000488281</ele>
        <time>2012-03-31T09:04:05.000Z</time>
      </trkpt>
      <trkpt lat="45.16794" lon="5.98795">
        <ele>2911.1999511719</ele>
        <time>2012-03-31T09:04:11.000Z</time>
      </trkpt>
      <trkpt lat="45.16796" lon="5.98795">
        <ele>2912</ele>
        <time>2012-03-31T09:04:15.000Z</time>
      </trkpt>
      <trkpt lat="45.16798" lon="5.98797">
        <ele>2912.6000976562</ele>
        <time>2012-03-31T09:04:20.000Z</time>
      </trkpt>
      <trkpt lat="45.16801" lon="5.98799">
        <ele>2913.6000976562</ele>
        <time>2012-03-31T09:04:24.000Z</time>
      </trkpt>
      <trkpt lat="45.16805" lon="5.98799">
        <ele>2914.6000976562</ele>
        <time>2012-03-31T09:04:29.000Z</time>
      </trkpt>
      <trkpt lat="45.16807" lon="5.98799">
        <ele>2915.1999511719</ele>
        <time>2012-03-31T09:04:33.000Z</time>
      </trkpt>
      <trkpt lat="45.16809" lon="5.98799">
        <ele>2916.1999511719</ele>
        <time>2012-03-31T09:04:37.000Z</time>
      </trkpt>
      <trkpt lat="45.1681" lon="5.98801">
        <ele>2917</ele>
        <time>2012-03-31T09:04:40.000Z</time>
      </trkpt>
      <trkpt lat="45.16811" lon="5.98802">
        <ele>2917</ele>
        <time>2012-03-31T09:04:42.000Z</time>
      </trkpt>
      <trkpt lat="45.16816" lon="5.98803">
        <ele>2917.6000976562</ele>
        <time>2012-03-31T09:04:45.000Z</time>
      </trkpt>
      <trkpt lat="45.16817" lon="5.98803">
        <ele>2918.1999511719</ele>
        <time>2012-03-31T09:04:47.000Z</time>
      </trkpt>
      <trkpt lat="45.16819" lon="5.98806">
        <ele>2918.8000488281</ele>
        <time>2012-03-31T09:04:52.000Z</time>
      </trkpt>
      <trkpt lat="45.1682" lon="5.98805">
        <ele>2919.1999511719</ele>
        <time>2012-03-31T09:04:54.000Z</time>
      </trkpt>
      <trkpt lat="45.16825" lon="5.98804">
        <ele>2920.1999511719</ele>
        <time>2012-03-31T09:05:01.000Z</time>
      </trkpt>
      <trkpt lat="45.16828" lon="5.98805">
        <ele>2921.1999511719</ele>
        <time>2012-03-31T09:05:06.000Z</time>
      </trkpt>
      <trkpt lat="45.16831" lon="5.98805">
        <ele>2922.8000488281</ele>
        <time>2012-03-31T09:05:13.000Z</time>
      </trkpt>
      <trkpt lat="45.16837" lon="5.98806">
        <ele>2924.1999511719</ele>
        <time>2012-03-31T09:05:24.000Z</time>
      </trkpt>
      <trkpt lat="45.16839" lon="5.98808">
        <ele>2925.1999511719</ele>
        <time>2012-03-31T09:05:28.000Z</time>
      </trkpt>
      <trkpt lat="45.16842" lon="5.98808">
        <ele>2925.3999023438</ele>
        <time>2012-03-31T09:05:31.000Z</time>
      </trkpt>
      <trkpt lat="45.16842" lon="5.98808">
        <ele>2925.8000488281</ele>
        <time>2012-03-31T09:05:33.000Z</time>
      </trkpt>
      <trkpt lat="45.16844" lon="5.98809">
        <ele>2926.6000976562</ele>
        <time>2012-03-31T09:05:39.000Z</time>
      </trkpt>
      <trkpt lat="45.16848" lon="5.98809">
        <ele>2928.1999511719</ele>
        <time>2012-03-31T09:05:44.000Z</time>
      </trkpt>
      <trkpt lat="45.1685" lon="5.98811">
        <ele>2929</ele>
        <time>2012-03-31T09:05:48.000Z</time>
      </trkpt>
      <trkpt lat="45.16852" lon="5.98811">
        <ele>2930.3999023438</ele>
        <time>2012-03-31T09:05:54.000Z</time>
      </trkpt>
      <trkpt lat="45.16854" lon="5.98814">
        <ele>2931</ele>
        <time>2012-03-31T09:06:01.000Z</time>
      </trkpt>
      <trkpt lat="45.16856" lon="5.98814">
        <ele>2931.6000976562</ele>
        <time>2012-03-31T09:07:51.000Z</time>
      </trkpt>
      <trkpt lat="45.16858" lon="5.98815">
        <ele>2931.6000976562</ele>
        <time>2012-03-31T09:07:59.000Z</time>
      </trkpt>
      <trkpt lat="45.16858" lon="5.98815">
        <ele>2932.1999511719</ele>
        <time>2012-03-31T09:08:00.000Z</time>
      </trkpt>
      <trkpt lat="45.16857" lon="5.98812">
        <ele>2933.3999023438</ele>
        <time>2012-03-31T09:09:01.000Z</time>
      </trkpt>
      <trkpt lat="45.16854" lon="5.9881">
        <ele>2932.6000976562</ele>
        <time>2012-03-31T09:09:06.000Z</time>
      </trkpt>
      <trkpt lat="45.16852" lon="5.9881">
        <ele>2932</ele>
        <time>2012-03-31T09:09:09.000Z</time>
      </trkpt>
      <trkpt lat="45.16852" lon="5.98812">
        <ele>2931.8000488281</ele>
        <time>2012-03-31T09:09:45.000Z</time>
      </trkpt>
      <trkpt lat="45.16853" lon="5.98812">
        <ele>2931.3999023438</ele>
        <time>2012-03-31T09:13:24.000Z</time>
      </trkpt>
      <trkpt lat="45.16851" lon="5.98811">
        <ele>2931.3999023438</ele>
        <time>2012-03-31T09:13:31.000Z</time>
      </trkpt>
      <trkpt lat="45.16851" lon="5.98811">
        <ele>2931.3999023438</ele>
        <time>2012-03-31T09:13:32.000Z</time>
      </trkpt>
      <trkpt lat="45.16856" lon="5.98812">
        <ele>2931.3999023438</ele>
        <time>2012-03-31T09:13:36.000Z</time>
      </trkpt>
      <trkpt lat="45.16856" lon="5.98811">
        <ele>2931.3999023438</ele>
        <time>2012-03-31T09:13:50.000Z</time>
      </trkpt>
      <trkpt lat="45.16853" lon="5.98814">
        <ele>2931.1999511719</ele>
        <time>2012-03-31T09:14:10.000Z</time>
      </trkpt>
      <trkpt lat="45.16851" lon="5.98813">
        <ele>2931</ele>
        <time>2012-03-31T09:14:37.000Z</time>
      </trkpt>
      <trkpt lat="45.16852" lon="5.98815">
        <ele>2930.8000488281</ele>
        <time>2012-03-31T09:14:51.000Z</time>
      </trkpt>
      <trkpt lat="45.16853" lon="5.98815">
        <ele>2930.8000488281</ele>
        <time>2012-03-31T09:14:54.000Z</time>
      </trkpt>
      <trkpt lat="45.16854" lon="5.98814">
        <ele>2931.3999023438</ele>
        <time>2012-03-31T09:14:59.000Z</time>
      </trkpt>
      <trkpt lat="45.16848" lon="5.98809">
        <ele>2933.1999511719</ele>
        <time>2012-03-31T09:19:03.000Z</time>
      </trkpt>
      <trkpt lat="45.16842" lon="5.9881">
        <ele>2931</ele>
        <time>2012-03-31T09:19:10.000Z</time>
      </trkpt>
      <trkpt lat="45.16842" lon="5.98809">
        <ele>2931</ele>
        <time>2012-03-31T09:19:12.000Z</time>
      </trkpt>
      <trkpt lat="45.16845" lon="5.9881">
        <ele>2931.3999023438</ele>
        <time>2012-03-31T09:19:40.000Z</time>
      </trkpt>
      <trkpt lat="45.16849" lon="5.9881">
        <ele>2932.1999511719</ele>
        <time>2012-03-31T09:19:47.000Z</time>
      </trkpt>
      <trkpt lat="45.16851" lon="5.98811">
        <ele>2932.1999511719</ele>
        <time>2012-03-31T09:19:50.000Z</time>
      </trkpt>
      <trkpt lat="45.16854" lon="5.98813">
        <ele>2933.1999511719</ele>
        <time>2012-03-31T09:19:56.000Z</time>
      </trkpt>
      <trkpt lat="45.16855" lon="5.98812">
        <ele>2932.1999511719</ele>
        <time>2012-03-31T09:19:58.000Z</time>
      </trkpt>
      <trkpt lat="45.16854" lon="5.98809">
        <ele>2932.3999023438</ele>
        <time>2012-03-31T09:20:12.000Z</time>
      </trkpt>
      <trkpt lat="45.16852" lon="5.98814">
        <ele>2934</ele>
        <time>2012-03-31T09:21:13.000Z</time>
      </trkpt>
      <trkpt lat="45.16852" lon="5.98813">
        <ele>2933.6000976562</ele>
        <time>2012-03-31T09:21:15.000Z</time>
      </trkpt>
      <trkpt lat="45.16845" lon="5.98807">
        <ele>2932.1999511719</ele>
        <time>2012-03-31T09:22:45.000Z</time>
      </trkpt>
      <trkpt lat="45.16838" lon="5.98801">
        <ele>2930.3999023438</ele>
        <time>2012-03-31T09:22:49.000Z</time>
      </trkpt>
      <trkpt lat="45.1683" lon="5.98796">
        <ele>2927.3999023438</ele>
        <time>2012-03-31T09:22:51.000Z</time>
      </trkpt>
      <trkpt lat="45.16812" lon="5.98795">
        <ele>2921.3999023438</ele>
        <time>2012-03-31T09:22:56.000Z</time>
      </trkpt>
      <trkpt lat="45.16811" lon="5.98795">
        <ele>2920.8000488281</ele>
        <time>2012-03-31T09:22:57.000Z</time>
      </trkpt>
      <trkpt lat="45.168" lon="5.98793">
        <ele>2918.6000976562</ele>
        <time>2012-03-31T09:23:01.000Z</time>
      </trkpt>
      <trkpt lat="45.16794" lon="5.98794">
        <ele>2916.3999023438</ele>
        <time>2012-03-31T09:23:04.000Z</time>
      </trkpt>
      <trkpt lat="45.16787" lon="5.98785">
        <ele>2914.3999023438</ele>
        <time>2012-03-31T09:23:07.000Z</time>
      </trkpt>
      <trkpt lat="45.16778" lon="5.98789">
        <ele>2911.6000976562</ele>
        <time>2012-03-31T09:23:09.000Z</time>
      </trkpt>
      <trkpt lat="45.16767" lon="5.98797">
        <ele>2907.1999511719</ele>
        <time>2012-03-31T09:23:12.000Z</time>
      </trkpt>
      <trkpt lat="45.16768" lon="5.98785">
        <ele>2905.1999511719</ele>
        <time>2012-03-31T09:23:14.000Z</time>
      </trkpt>
      <trkpt lat="45.16769" lon="5.98779">
        <ele>2904</ele>
        <time>2012-03-31T09:23:15.000Z</time>
      </trkpt>
      <trkpt lat="45.16755" lon="5.98779">
        <ele>2899.6000976562</ele>
        <time>2012-03-31T09:23:19.000Z</time>
      </trkpt>
      <trkpt lat="45.16753" lon="5.98776">
        <ele>2896.6000976562</ele>
        <time>2012-03-31T09:23:22.000Z</time>
      </trkpt>
      <trkpt lat="45.16742" lon="5.98766">
        <ele>2891.8000488281</ele>
        <time>2012-03-31T09:23:25.000Z</time>
      </trkpt>
      <trkpt lat="45.16737" lon="5.98756">
        <ele>2886.6000976562</ele>
        <time>2012-03-31T09:23:28.000Z</time>
      </trkpt>
      <trkpt lat="45.16732" lon="5.98746">
        <ele>2881.8000488281</ele>
        <time>2012-03-31T09:23:31.000Z</time>
      </trkpt>
      <trkpt lat="45.16729" lon="5.98736">
        <ele>2877.1999511719</ele>
        <time>2012-03-31T09:23:34.000Z</time>
      </trkpt>
      <trkpt lat="45.16719" lon="5.98725">
        <ele>2873.3999023438</ele>
        <time>2012-03-31T09:23:37.000Z</time>
      </trkpt>
      <trkpt lat="45.16709" lon="5.98714">
        <ele>2868.8000488281</ele>
        <time>2012-03-31T09:23:40.000Z</time>
      </trkpt>
      <trkpt lat="45.16713" lon="5.987">
        <ele>2866.3999023438</ele>
        <time>2012-03-31T09:23:42.000Z</time>
      </trkpt>
      <trkpt lat="45.16703" lon="5.9869">
        <ele>2863.8000488281</ele>
        <time>2012-03-31T09:23:44.000Z</time>
      </trkpt>
      <trkpt lat="45.1668" lon="5.98663">
        <ele>2858.8000488281</ele>
        <time>2012-03-31T09:23:49.000Z</time>
      </trkpt>
      <trkpt lat="45.16687" lon="5.9865">
        <ele>2856.1999511719</ele>
        <time>2012-03-31T09:23:51.000Z</time>
      </trkpt>
      <trkpt lat="45.16689" lon="5.98626">
        <ele>2852.3999023438</ele>
        <time>2012-03-31T09:23:54.000Z</time>
      </trkpt>
      <trkpt lat="45.16678" lon="5.98618">
        <ele>2849</ele>
        <time>2012-03-31T09:23:56.000Z</time>
      </trkpt>
      <trkpt lat="45.16671" lon="5.98618">
        <ele>2846.8000488281</ele>
        <time>2012-03-31T09:23:59.000Z</time>
      </trkpt>
      <trkpt lat="45.1667" lon="5.98618">
        <ele>2846.6000976562</ele>
        <time>2012-03-31T09:24:00.000Z</time>
      </trkpt>
      <trkpt lat="45.16665" lon="5.98593">
        <ele>2844.3999023438</ele>
        <time>2012-03-31T09:24:54.000Z</time>
      </trkpt>
      <trkpt lat="45.16667" lon="5.98586">
        <ele>2843.6000976562</ele>
        <time>2012-03-31T09:24:55.000Z</time>
      </trkpt>
      <trkpt lat="45.16666" lon="5.98561">
        <ele>2839.3999023438</ele>
        <time>2012-03-31T09:25:00.000Z</time>
      </trkpt>
      <trkpt lat="45.1666" lon="5.98546">
        <ele>2836.1999511719</ele>
        <time>2012-03-31T09:25:03.000Z</time>
      </trkpt>
      <trkpt lat="45.16662" lon="5.98528">
        <ele>2833.3999023438</ele>
        <time>2012-03-31T09:25:06.000Z</time>
      </trkpt>
      <trkpt lat="45.1666" lon="5.98527">
        <ele>2833</ele>
        <time>2012-03-31T09:25:07.000Z</time>
      </trkpt>
      <trkpt lat="45.16647" lon="5.98523">
        <ele>2829.6000976562</ele>
        <time>2012-03-31T09:25:10.000Z</time>
      </trkpt>
      <trkpt lat="45.16647" lon="5.98512">
        <ele>2827.1999511719</ele>
        <time>2012-03-31T09:25:12.000Z</time>
      </trkpt>
      <trkpt lat="45.16642" lon="5.98504">
        <ele>2823.1999511719</ele>
        <time>2012-03-31T09:25:15.000Z</time>
      </trkpt>
      <trkpt lat="45.16638" lon="5.98486">
        <ele>2819.6000976562</ele>
        <time>2012-03-31T09:25:18.000Z</time>
      </trkpt>
      <trkpt lat="45.1664" lon="5.98471">
        <ele>2818.8000488281</ele>
        <time>2012-03-31T09:25:20.000Z</time>
      </trkpt>
      <trkpt lat="45.16633" lon="5.98466">
        <ele>2818.6000976562</ele>
        <time>2012-03-31T09:25:22.000Z</time>
      </trkpt>
      <trkpt lat="45.16626" lon="5.98455">
        <ele>2818.6000976562</ele>
        <time>2012-03-31T09:25:25.000Z</time>
      </trkpt>
      <trkpt lat="45.1663" lon="5.98436">
        <ele>2818.6000976562</ele>
        <time>2012-03-31T09:25:28.000Z</time>
      </trkpt>
      <trkpt lat="45.1662" lon="5.98428">
        <ele>2818.6000976562</ele>
        <time>2012-03-31T09:25:31.000Z</time>
      </trkpt>
      <trkpt lat="45.166" lon="5.98418">
        <ele>2818.6000976562</ele>
        <time>2012-03-31T09:25:34.000Z</time>
      </trkpt>
      <trkpt lat="45.16586" lon="5.98406">
        <ele>2818.6000976562</ele>
        <time>2012-03-31T09:25:37.000Z</time>
      </trkpt>
      <trkpt lat="45.16577" lon="5.98396">
        <ele>2818.6000976562</ele>
        <time>2012-03-31T09:25:39.000Z</time>
      </trkpt>
      <trkpt lat="45.16564" lon="5.98384">
        <ele>2807.1999511719</ele>
        <time>2012-03-31T09:25:41.000Z</time>
      </trkpt>
      <trkpt lat="45.16552" lon="5.98355">
        <ele>2793.1999511719</ele>
        <time>2012-03-31T09:25:44.000Z</time>
      </trkpt>
      <trkpt lat="45.16557" lon="5.98318">
        <ele>2788.8000488281</ele>
        <time>2012-03-31T09:25:47.000Z</time>
      </trkpt>
      <trkpt lat="45.16561" lon="5.98297">
        <ele>2784.1999511719</ele>
        <time>2012-03-31T09:25:50.000Z</time>
      </trkpt>
      <trkpt lat="45.16562" lon="5.98296">
        <ele>2786.3999023438</ele>
        <time>2012-03-31T09:25:52.000Z</time>
      </trkpt>
      <trkpt lat="45.16555" lon="5.98296">
        <ele>2788</ele>
        <time>2012-03-31T09:25:58.000Z</time>
      </trkpt>
      <trkpt lat="45.16546" lon="5.98286">
        <ele>2786.3999023438</ele>
        <time>2012-03-31T09:26:00.000Z</time>
      </trkpt>
      <trkpt lat="45.16539" lon="5.98254">
        <ele>2784.6000976562</ele>
        <time>2012-03-31T09:26:03.000Z</time>
      </trkpt>
      <trkpt lat="45.16547" lon="5.98219">
        <ele>2779.8000488281</ele>
        <time>2012-03-31T09:26:06.000Z</time>
      </trkpt>
      <trkpt lat="45.16547" lon="5.98194">
        <ele>2776.1999511719</ele>
        <time>2012-03-31T09:26:09.000Z</time>
      </trkpt>
      <trkpt lat="45.16538" lon="5.98181">
        <ele>2773.3999023438</ele>
        <time>2012-03-31T09:26:11.000Z</time>
      </trkpt>
      <trkpt lat="45.16537" lon="5.98159">
        <ele>2771.3999023438</ele>
        <time>2012-03-31T09:26:14.000Z</time>
      </trkpt>
      <trkpt lat="45.16528" lon="5.98145">
        <ele>2769.6000976562</ele>
        <time>2012-03-31T09:26:17.000Z</time>
      </trkpt>
      <trkpt lat="45.16526" lon="5.98134">
        <ele>2767</ele>
        <time>2012-03-31T09:26:19.000Z</time>
      </trkpt>
      <trkpt lat="45.16528" lon="5.98127">
        <ele>2764.8000488281</ele>
        <time>2012-03-31T09:26:22.000Z</time>
      </trkpt>
      <trkpt lat="45.16528" lon="5.98127">
        <ele>2764.6000976562</ele>
        <time>2012-03-31T09:26:23.000Z</time>
      </trkpt>
      <trkpt lat="45.16521" lon="5.98118">
        <ele>2763</ele>
        <time>2012-03-31T09:26:27.000Z</time>
      </trkpt>
      <trkpt lat="45.16508" lon="5.98106">
        <ele>2757.1999511719</ele>
        <time>2012-03-31T09:26:31.000Z</time>
      </trkpt>
      <trkpt lat="45.16512" lon="5.98088">
        <ele>2753.1999511719</ele>
        <time>2012-03-31T09:26:34.000Z</time>
      </trkpt>
      <trkpt lat="45.16511" lon="5.98081">
        <ele>2751.6000976562</ele>
        <time>2012-03-31T09:26:35.000Z</time>
      </trkpt>
      <trkpt lat="45.16499" lon="5.98028">
        <ele>2742.3999023438</ele>
        <time>2012-03-31T09:26:40.000Z</time>
      </trkpt>
      <trkpt lat="45.16492" lon="5.98005">
        <ele>2739.8000488281</ele>
        <time>2012-03-31T09:26:42.000Z</time>
      </trkpt>
      <trkpt lat="45.16474" lon="5.97954">
        <ele>2734.6000976562</ele>
        <time>2012-03-31T09:26:47.000Z</time>
      </trkpt>
      <trkpt lat="45.16459" lon="5.97899">
        <ele>2728.3999023438</ele>
        <time>2012-03-31T09:26:52.000Z</time>
      </trkpt>
      <trkpt lat="45.16444" lon="5.97853">
        <ele>2726.1999511719</ele>
        <time>2012-03-31T09:26:56.000Z</time>
      </trkpt>
      <trkpt lat="45.16436" lon="5.97818">
        <ele>2723</ele>
        <time>2012-03-31T09:26:59.000Z</time>
      </trkpt>
      <trkpt lat="45.16421" lon="5.97783">
        <ele>2719.8000488281</ele>
        <time>2012-03-31T09:27:03.000Z</time>
      </trkpt>
      <trkpt lat="45.16416" lon="5.97775">
        <ele>2719.3999023438</ele>
        <time>2012-03-31T09:27:04.000Z</time>
      </trkpt>
      <trkpt lat="45.1639" lon="5.97728">
        <ele>2714.3999023438</ele>
        <time>2012-03-31T09:27:09.000Z</time>
      </trkpt>
      <trkpt lat="45.16381" lon="5.97689">
        <ele>2710.6000976562</ele>
        <time>2012-03-31T09:27:13.000Z</time>
      </trkpt>
      <trkpt lat="45.16376" lon="5.97667">
        <ele>2709.1999511719</ele>
        <time>2012-03-31T09:27:16.000Z</time>
      </trkpt>
      <trkpt lat="45.16368" lon="5.97649">
        <ele>2707.6000976562</ele>
        <time>2012-03-31T09:27:18.000Z</time>
      </trkpt>
      <trkpt lat="45.16359" lon="5.97624">
        <ele>2705.1999511719</ele>
        <time>2012-03-31T09:27:21.000Z</time>
      </trkpt>
      <trkpt lat="45.16357" lon="5.97619">
        <ele>2706</ele>
        <time>2012-03-31T09:27:24.000Z</time>
      </trkpt>
      <trkpt lat="45.16357" lon="5.97619">
        <ele>2706.3999023438</ele>
        <time>2012-03-31T09:27:25.000Z</time>
      </trkpt>
      <trkpt lat="45.16341" lon="5.97624">
        <ele>2701</ele>
        <time>2012-03-31T09:27:36.000Z</time>
      </trkpt>
      <trkpt lat="45.16325" lon="5.97612">
        <ele>2695</ele>
        <time>2012-03-31T09:27:39.000Z</time>
      </trkpt>
      <trkpt lat="45.16311" lon="5.97602">
        <ele>2689.3999023438</ele>
        <time>2012-03-31T09:27:42.000Z</time>
      </trkpt>
      <trkpt lat="45.16296" lon="5.97613">
        <ele>2684.1999511719</ele>
        <time>2012-03-31T09:27:45.000Z</time>
      </trkpt>
      <trkpt lat="45.16296" lon="5.97614">
        <ele>2682.3999023438</ele>
        <time>2012-03-31T09:27:48.000Z</time>
      </trkpt>
      <trkpt lat="45.16297" lon="5.97614">
        <ele>2682.6000976562</ele>
        <time>2012-03-31T09:27:49.000Z</time>
      </trkpt>
      <trkpt lat="45.16291" lon="5.97586">
        <ele>2677.8000488281</ele>
        <time>2012-03-31T09:28:03.000Z</time>
      </trkpt>
      <trkpt lat="45.16286" lon="5.97545">
        <ele>2673.1999511719</ele>
        <time>2012-03-31T09:28:07.000Z</time>
      </trkpt>
      <trkpt lat="45.16271" lon="5.97522">
        <ele>2670.3999023438</ele>
        <time>2012-03-31T09:28:11.000Z</time>
      </trkpt>
      <trkpt lat="45.16256" lon="5.97509">
        <ele>2666.3999023438</ele>
        <time>2012-03-31T09:28:13.000Z</time>
      </trkpt>
      <trkpt lat="45.16249" lon="5.975">
        <ele>2663.6000976562</ele>
        <time>2012-03-31T09:28:14.000Z</time>
      </trkpt>
      <trkpt lat="45.16227" lon="5.97459">
        <ele>2658.1999511719</ele>
        <time>2012-03-31T09:28:18.000Z</time>
      </trkpt>
      <trkpt lat="45.16194" lon="5.97419">
        <ele>2654.1999511719</ele>
        <time>2012-03-31T09:28:23.000Z</time>
      </trkpt>
      <trkpt lat="45.16178" lon="5.974">
        <ele>2651.6000976562</ele>
        <time>2012-03-31T09:28:26.000Z</time>
      </trkpt>
      <trkpt lat="45.16148" lon="5.97408">
        <ele>2644.6000976562</ele>
        <time>2012-03-31T09:28:29.000Z</time>
      </trkpt>
      <trkpt lat="45.16138" lon="5.97417">
        <ele>2641.1999511719</ele>
        <time>2012-03-31T09:28:30.000Z</time>
      </trkpt>
      <trkpt lat="45.16101" lon="5.97442">
        <ele>2635.1999511719</ele>
        <time>2012-03-31T09:28:34.000Z</time>
      </trkpt>
      <trkpt lat="45.16077" lon="5.97444">
        <ele>2636</ele>
        <time>2012-03-31T09:28:38.000Z</time>
      </trkpt>
      <trkpt lat="45.16073" lon="5.97443">
        <ele>2636.6000976562</ele>
        <time>2012-03-31T09:28:39.000Z</time>
      </trkpt>
      <trkpt lat="45.16064" lon="5.97424">
        <ele>2636.8000488281</ele>
        <time>2012-03-31T09:28:46.000Z</time>
      </trkpt>
      <trkpt lat="45.16057" lon="5.9741">
        <ele>2636.6000976562</ele>
        <time>2012-03-31T09:28:53.000Z</time>
      </trkpt>
      <trkpt lat="45.16052" lon="5.97404">
        <ele>2636.6000976562</ele>
        <time>2012-03-31T09:28:56.000Z</time>
      </trkpt>
      <trkpt lat="45.16042" lon="5.97395">
        <ele>2637.8000488281</ele>
        <time>2012-03-31T09:29:04.000Z</time>
      </trkpt>
      <trkpt lat="45.16041" lon="5.97389">
        <ele>2638.1999511719</ele>
        <time>2012-03-31T09:29:12.000Z</time>
      </trkpt>
      <trkpt lat="45.1604" lon="5.97381">
        <ele>2639.3999023438</ele>
        <time>2012-03-31T09:29:21.000Z</time>
      </trkpt>
      <trkpt lat="45.16035" lon="5.97374">
        <ele>2640.3999023438</ele>
        <time>2012-03-31T09:29:28.000Z</time>
      </trkpt>
      <trkpt lat="45.16029" lon="5.97365">
        <ele>2641.3999023438</ele>
        <time>2012-03-31T09:29:35.000Z</time>
      </trkpt>
      <trkpt lat="45.16021" lon="5.97355">
        <ele>2640.1999511719</ele>
        <time>2012-03-31T09:29:39.000Z</time>
      </trkpt>
      <trkpt lat="45.16012" lon="5.97331">
        <ele>2637.3999023438</ele>
        <time>2012-03-31T09:29:43.000Z</time>
      </trkpt>
      <trkpt lat="45.16009" lon="5.97321">
        <ele>2637.6000976562</ele>
        <time>2012-03-31T09:29:47.000Z</time>
      </trkpt>
      <trkpt lat="45.16009" lon="5.97321">
        <ele>2637.8000488281</ele>
        <time>2012-03-31T09:29:48.000Z</time>
      </trkpt>
      <trkpt lat="45.15998" lon="5.97333">
        <ele>2635.6000976562</ele>
        <time>2012-03-31T09:29:59.000Z</time>
      </trkpt>
      <trkpt lat="45.15995" lon="5.97339">
        <ele>2634.3999023438</ele>
        <time>2012-03-31T09:30:00.000Z</time>
      </trkpt>
      <trkpt lat="45.15992" lon="5.97352">
        <ele>2632.1999511719</ele>
        <time>2012-03-31T09:30:02.000Z</time>
      </trkpt>
      <trkpt lat="45.15986" lon="5.97357">
        <ele>2630.6000976562</ele>
        <time>2012-03-31T09:30:04.000Z</time>
      </trkpt>
      <trkpt lat="45.15976" lon="5.97349">
        <ele>2627</ele>
        <time>2012-03-31T09:30:06.000Z</time>
      </trkpt>
      <trkpt lat="45.15975" lon="5.97338">
        <ele>2623.1999511719</ele>
        <time>2012-03-31T09:30:08.000Z</time>
      </trkpt>
      <trkpt lat="45.15976" lon="5.97325">
        <ele>2622.1999511719</ele>
        <time>2012-03-31T09:30:10.000Z</time>
      </trkpt>
      <trkpt lat="45.15977" lon="5.97313">
        <ele>2621.1999511719</ele>
        <time>2012-03-31T09:30:13.000Z</time>
      </trkpt>
      <trkpt lat="45.15981" lon="5.97287">
        <ele>2614.8000488281</ele>
        <time>2012-03-31T09:30:17.000Z</time>
      </trkpt>
      <trkpt lat="45.15979" lon="5.97263">
        <ele>2610.8000488281</ele>
        <time>2012-03-31T09:30:20.000Z</time>
      </trkpt>
      <trkpt lat="45.15978" lon="5.97252">
        <ele>2609.1999511719</ele>
        <time>2012-03-31T09:30:21.000Z</time>
      </trkpt>
      <trkpt lat="45.15973" lon="5.97222">
        <ele>2605.8000488281</ele>
        <time>2012-03-31T09:30:25.000Z</time>
      </trkpt>
      <trkpt lat="45.15966" lon="5.97186">
        <ele>2603.6000976562</ele>
        <time>2012-03-31T09:30:30.000Z</time>
      </trkpt>
      <trkpt lat="45.15948" lon="5.97177">
        <ele>2597.1999511719</ele>
        <time>2012-03-31T09:30:34.000Z</time>
      </trkpt>
      <trkpt lat="45.15932" lon="5.97181">
        <ele>2588</ele>
        <time>2012-03-31T09:30:38.000Z</time>
      </trkpt>
      <trkpt lat="45.15928" lon="5.97178">
        <ele>2585.1999511719</ele>
        <time>2012-03-31T09:30:39.000Z</time>
      </trkpt>
      <trkpt lat="45.15916" lon="5.97182">
        <ele>2574.3999023438</ele>
        <time>2012-03-31T09:30:44.000Z</time>
      </trkpt>
      <trkpt lat="45.15905" lon="5.97181">
        <ele>2568.1999511719</ele>
        <time>2012-03-31T09:30:48.000Z</time>
      </trkpt>
      <trkpt lat="45.15899" lon="5.97174">
        <ele>2562.8000488281</ele>
        <time>2012-03-31T09:30:51.000Z</time>
      </trkpt>
      <trkpt lat="45.15887" lon="5.97171">
        <ele>2554.3999023438</ele>
        <time>2012-03-31T09:30:55.000Z</time>
      </trkpt>
      <trkpt lat="45.15874" lon="5.97172">
        <ele>2550</ele>
        <time>2012-03-31T09:30:57.000Z</time>
      </trkpt>
      <trkpt lat="45.15862" lon="5.97146">
        <ele>2542.6000976562</ele>
        <time>2012-03-31T09:31:00.000Z</time>
      </trkpt>
      <trkpt lat="45.15858" lon="5.9713">
        <ele>2540.1999511719</ele>
        <time>2012-03-31T09:31:02.000Z</time>
      </trkpt>
      <trkpt lat="45.15841" lon="5.97104">
        <ele>2537</ele>
        <time>2012-03-31T09:31:06.000Z</time>
      </trkpt>
      <trkpt lat="45.15835" lon="5.97088">
        <ele>2533.6000976562</ele>
        <time>2012-03-31T09:31:09.000Z</time>
      </trkpt>
      <trkpt lat="45.15834" lon="5.97085">
        <ele>2533.3999023438</ele>
        <time>2012-03-31T09:31:10.000Z</time>
      </trkpt>
      <trkpt lat="45.15831" lon="5.97082">
        <ele>2533</ele>
        <time>2012-03-31T09:31:14.000Z</time>
      </trkpt>
      <trkpt lat="45.15832" lon="5.9707">
        <ele>2530.8000488281</ele>
        <time>2012-03-31T09:31:26.000Z</time>
      </trkpt>
      <trkpt lat="45.15835" lon="5.97064">
        <ele>2527.3999023438</ele>
        <time>2012-03-31T09:31:30.000Z</time>
      </trkpt>
      <trkpt lat="45.15825" lon="5.97059">
        <ele>2523.8000488281</ele>
        <time>2012-03-31T09:31:34.000Z</time>
      </trkpt>
      <trkpt lat="45.15818" lon="5.97057">
        <ele>2520</ele>
        <time>2012-03-31T09:31:38.000Z</time>
      </trkpt>
      <trkpt lat="45.15817" lon="5.97056">
        <ele>2519.8000488281</ele>
        <time>2012-03-31T09:31:39.000Z</time>
      </trkpt>
      <trkpt lat="45.15815" lon="5.97054">
        <ele>2519.3999023438</ele>
        <time>2012-03-31T09:31:40.000Z</time>
      </trkpt>
      <trkpt lat="45.15817" lon="5.97042">
        <ele>2514.8000488281</ele>
        <time>2012-03-31T09:31:44.000Z</time>
      </trkpt>
      <trkpt lat="45.1581" lon="5.97038">
        <ele>2511.1999511719</ele>
        <time>2012-03-31T09:31:47.000Z</time>
      </trkpt>
      <trkpt lat="45.15814" lon="5.97031">
        <ele>2505</ele>
        <time>2012-03-31T09:31:52.000Z</time>
      </trkpt>
      <trkpt lat="45.15815" lon="5.97025">
        <ele>2502.3999023438</ele>
        <time>2012-03-31T09:31:56.000Z</time>
      </trkpt>
      <trkpt lat="45.15816" lon="5.97007">
        <ele>2497.6000976562</ele>
        <time>2012-03-31T09:32:00.000Z</time>
      </trkpt>
      <trkpt lat="45.15822" lon="5.96988">
        <ele>2492.3999023438</ele>
        <time>2012-03-31T09:32:05.000Z</time>
      </trkpt>
      <trkpt lat="45.15825" lon="5.96972">
        <ele>2486.6000976562</ele>
        <time>2012-03-31T09:32:10.000Z</time>
      </trkpt>
      <trkpt lat="45.15826" lon="5.96967">
        <ele>2485.8000488281</ele>
        <time>2012-03-31T09:32:11.000Z</time>
      </trkpt>
      <trkpt lat="45.15834" lon="5.96941">
        <ele>2479</ele>
        <time>2012-03-31T09:32:15.000Z</time>
      </trkpt>
      <trkpt lat="45.15843" lon="5.96917">
        <ele>2475.3999023438</ele>
        <time>2012-03-31T09:32:18.000Z</time>
      </trkpt>
      <trkpt lat="45.15839" lon="5.969">
        <ele>2476.1999511719</ele>
        <time>2012-03-31T09:32:22.000Z</time>
      </trkpt>
      <trkpt lat="45.15839" lon="5.96901">
        <ele>2476.3999023438</ele>
        <time>2012-03-31T09:32:23.000Z</time>
      </trkpt>
      <trkpt lat="45.15839" lon="5.96903">
        <ele>2476.3999023438</ele>
        <time>2012-03-31T09:32:25.000Z</time>
      </trkpt>
      <trkpt lat="45.15827" lon="5.96875">
        <ele>2473</ele>
        <time>2012-03-31T09:32:35.000Z</time>
      </trkpt>
      <trkpt lat="45.15824" lon="5.9687">
        <ele>2472.6000976562</ele>
        <time>2012-03-31T09:32:36.000Z</time>
      </trkpt>
      <trkpt lat="45.15816" lon="5.96849">
        <ele>2469.3999023438</ele>
        <time>2012-03-31T09:32:40.000Z</time>
      </trkpt>
      <trkpt lat="45.15798" lon="5.96849">
        <ele>2467</ele>
        <time>2012-03-31T09:32:44.000Z</time>
      </trkpt>
      <trkpt lat="45.15793" lon="5.9685">
        <ele>2466.1999511719</ele>
        <time>2012-03-31T09:32:45.000Z</time>
      </trkpt>
      <trkpt lat="45.15767" lon="5.9684">
        <ele>2461.8000488281</ele>
        <time>2012-03-31T09:32:50.000Z</time>
      </trkpt>
      <trkpt lat="45.15754" lon="5.96833">
        <ele>2460.6000976562</ele>
        <time>2012-03-31T09:32:54.000Z</time>
      </trkpt>
      <trkpt lat="45.15753" lon="5.96833">
        <ele>2461</ele>
        <time>2012-03-31T09:32:57.000Z</time>
      </trkpt>
      <trkpt lat="45.15749" lon="5.96826">
        <ele>2458.6000976562</ele>
        <time>2012-03-31T09:34:51.000Z</time>
      </trkpt>
      <trkpt lat="45.15751" lon="5.96827">
        <ele>2458.8000488281</ele>
        <time>2012-03-31T09:34:58.000Z</time>
      </trkpt>
      <trkpt lat="45.15749" lon="5.96834">
        <ele>2459</ele>
        <time>2012-03-31T09:35:11.000Z</time>
      </trkpt>
      <trkpt lat="45.15736" lon="5.96811">
        <ele>2457.3999023438</ele>
        <time>2012-03-31T09:36:27.000Z</time>
      </trkpt>
      <trkpt lat="45.15728" lon="5.96809">
        <ele>2456.6000976562</ele>
        <time>2012-03-31T09:37:09.000Z</time>
      </trkpt>
      <trkpt lat="45.15731" lon="5.9681">
        <ele>2456.3999023438</ele>
        <time>2012-03-31T09:37:15.000Z</time>
      </trkpt>
      <trkpt lat="45.15723" lon="5.96804">
        <ele>2456.1999511719</ele>
        <time>2012-03-31T09:37:22.000Z</time>
      </trkpt>
      <trkpt lat="45.15732" lon="5.96815">
        <ele>2456.1999511719</ele>
        <time>2012-03-31T09:37:29.000Z</time>
      </trkpt>
      <trkpt lat="45.15733" lon="5.9682">
        <ele>2456</ele>
        <time>2012-03-31T09:37:31.000Z</time>
      </trkpt>
      <trkpt lat="45.15746" lon="5.9683">
        <ele>2456.3999023438</ele>
        <time>2012-03-31T09:37:49.000Z</time>
      </trkpt>
      <trkpt lat="45.1575" lon="5.96828">
        <ele>2455.8000488281</ele>
        <time>2012-03-31T09:37:58.000Z</time>
      </trkpt>
      <trkpt lat="45.1572" lon="5.96811">
        <ele>2455.8000488281</ele>
        <time>2012-03-31T09:39:09.000Z</time>
      </trkpt>
      <trkpt lat="45.15745" lon="5.9683">
        <ele>2455.8000488281</ele>
        <time>2012-03-31T09:39:48.000Z</time>
      </trkpt>
      <trkpt lat="45.15745" lon="5.96827">
        <ele>2457</ele>
        <time>2012-03-31T09:40:05.000Z</time>
      </trkpt>
      <trkpt lat="45.15733" lon="5.96816">
        <ele>2457.3999023438</ele>
        <time>2012-03-31T09:40:28.000Z</time>
      </trkpt>
      <trkpt lat="45.1572" lon="5.96805">
        <ele>2459</ele>
        <time>2012-03-31T09:40:37.000Z</time>
      </trkpt>
      <trkpt lat="45.15709" lon="5.96797">
        <ele>2460.3999023438</ele>
        <time>2012-03-31T09:40:44.000Z</time>
      </trkpt>
      <trkpt lat="45.15702" lon="5.9679">
        <ele>2461.3999023438</ele>
        <time>2012-03-31T09:40:49.000Z</time>
      </trkpt>
      <trkpt lat="45.15696" lon="5.96782">
        <ele>2461.8000488281</ele>
        <time>2012-03-31T09:40:55.000Z</time>
      </trkpt>
      <trkpt lat="45.15692" lon="5.96777">
        <ele>2463.1999511719</ele>
        <time>2012-03-31T09:41:01.000Z</time>
      </trkpt>
      <trkpt lat="45.15689" lon="5.96775">
        <ele>2463.6000976562</ele>
        <time>2012-03-31T09:41:05.000Z</time>
      </trkpt>
      <trkpt lat="45.15688" lon="5.96773">
        <ele>2465.1999511719</ele>
        <time>2012-03-31T09:41:17.000Z</time>
      </trkpt>
      <trkpt lat="45.1568" lon="5.96768">
        <ele>2466.6000976562</ele>
        <time>2012-03-31T09:41:25.000Z</time>
      </trkpt>
      <trkpt lat="45.15676" lon="5.96766">
        <ele>2467.1999511719</ele>
        <time>2012-03-31T09:41:31.000Z</time>
      </trkpt>
      <trkpt lat="45.15675" lon="5.96766">
        <ele>2467.3999023438</ele>
        <time>2012-03-31T09:41:34.000Z</time>
      </trkpt>
      <trkpt lat="45.15676" lon="5.9677">
        <ele>2468.6000976562</ele>
        <time>2012-03-31T09:41:47.000Z</time>
      </trkpt>
      <trkpt lat="45.15675" lon="5.96769">
        <ele>2469.3999023438</ele>
        <time>2012-03-31T09:41:51.000Z</time>
      </trkpt>
      <trkpt lat="45.15674" lon="5.96768">
        <ele>2470.6000976562</ele>
        <time>2012-03-31T09:41:56.000Z</time>
      </trkpt>
      <trkpt lat="45.15668" lon="5.96768">
        <ele>2476.6000976562</ele>
        <time>2012-03-31T09:42:30.000Z</time>
      </trkpt>
      <trkpt lat="45.15668" lon="5.96768">
        <ele>2477</ele>
        <time>2012-03-31T09:42:31.000Z</time>
      </trkpt>
      <trkpt lat="45.15662" lon="5.96763">
        <ele>2478.3999023438</ele>
        <time>2012-03-31T09:42:41.000Z</time>
      </trkpt>
      <trkpt lat="45.15659" lon="5.9676">
        <ele>2479.1999511719</ele>
        <time>2012-03-31T09:42:49.000Z</time>
      </trkpt>
      <trkpt lat="45.15653" lon="5.96757">
        <ele>2480.1999511719</ele>
        <time>2012-03-31T09:42:56.000Z</time>
      </trkpt>
      <trkpt lat="45.15647" lon="5.96757">
        <ele>2480.3999023438</ele>
        <time>2012-03-31T09:43:00.000Z</time>
      </trkpt>
      <trkpt lat="45.15641" lon="5.96756">
        <ele>2480.8000488281</ele>
        <time>2012-03-31T09:43:04.000Z</time>
      </trkpt>
      <trkpt lat="45.15639" lon="5.96755">
        <ele>2481.6000976562</ele>
        <time>2012-03-31T09:43:07.000Z</time>
      </trkpt>
      <trkpt lat="45.15642" lon="5.9675">
        <ele>2482.6000976562</ele>
        <time>2012-03-31T09:43:15.000Z</time>
      </trkpt>
      <trkpt lat="45.15643" lon="5.96745">
        <ele>2483.6000976562</ele>
        <time>2012-03-31T09:43:23.000Z</time>
      </trkpt>
      <trkpt lat="45.15645" lon="5.96745">
        <ele>2483.6000976562</ele>
        <time>2012-03-31T09:43:24.000Z</time>
      </trkpt>
      <trkpt lat="45.15649" lon="5.96743">
        <ele>2485</ele>
        <time>2012-03-31T09:43:29.000Z</time>
      </trkpt>
      <trkpt lat="45.15652" lon="5.96741">
        <ele>2485.3999023438</ele>
        <time>2012-03-31T09:43:33.000Z</time>
      </trkpt>
      <trkpt lat="45.15657" lon="5.9674">
        <ele>2486</ele>
        <time>2012-03-31T09:43:38.000Z</time>
      </trkpt>
      <trkpt lat="45.15663" lon="5.9674">
        <ele>2486.8000488281</ele>
        <time>2012-03-31T09:43:44.000Z</time>
      </trkpt>
      <trkpt lat="45.15666" lon="5.96738">
        <ele>2487.8000488281</ele>
        <time>2012-03-31T09:43:50.000Z</time>
      </trkpt>
      <trkpt lat="45.15668" lon="5.96737">
        <ele>2488.1999511719</ele>
        <time>2012-03-31T09:43:54.000Z</time>
      </trkpt>
      <trkpt lat="45.15673" lon="5.96736">
        <ele>2488.3999023438</ele>
        <time>2012-03-31T09:43:58.000Z</time>
      </trkpt>
      <trkpt lat="45.15686" lon="5.96731">
        <ele>2490.1999511719</ele>
        <time>2012-03-31T09:44:11.000Z</time>
      </trkpt>
      <trkpt lat="45.1568" lon="5.96725">
        <ele>2491.3999023438</ele>
        <time>2012-03-31T09:44:19.000Z</time>
      </trkpt>
      <trkpt lat="45.15673" lon="5.96719">
        <ele>2492.8000488281</ele>
        <time>2012-03-31T09:44:28.000Z</time>
      </trkpt>
      <trkpt lat="45.15665" lon="5.96718">
        <ele>2493.8000488281</ele>
        <time>2012-03-31T09:44:40.000Z</time>
      </trkpt>
      <trkpt lat="45.15664" lon="5.96721">
        <ele>2494.6000976562</ele>
        <time>2012-03-31T09:44:45.000Z</time>
      </trkpt>
      <trkpt lat="45.15657" lon="5.9672">
        <ele>2496.6000976562</ele>
        <time>2012-03-31T09:44:58.000Z</time>
      </trkpt>
      <trkpt lat="45.15653" lon="5.96719">
        <ele>2497.1999511719</ele>
        <time>2012-03-31T09:45:03.000Z</time>
      </trkpt>
      <trkpt lat="45.15647" lon="5.96719">
        <ele>2498</ele>
        <time>2012-03-31T09:45:09.000Z</time>
      </trkpt>
      <trkpt lat="45.15644" lon="5.96721">
        <ele>2498.6000976562</ele>
        <time>2012-03-31T09:45:13.000Z</time>
      </trkpt>
      <trkpt lat="45.1564" lon="5.9672">
        <ele>2500.3999023438</ele>
        <time>2012-03-31T09:45:21.000Z</time>
      </trkpt>
      <trkpt lat="45.15637" lon="5.96718">
        <ele>2501.1999511719</ele>
        <time>2012-03-31T09:45:26.000Z</time>
      </trkpt>
      <trkpt lat="45.15636" lon="5.96719">
        <ele>2501.3999023438</ele>
        <time>2012-03-31T09:45:28.000Z</time>
      </trkpt>
      <trkpt lat="45.15639" lon="5.96712">
        <ele>2502.8000488281</ele>
        <time>2012-03-31T09:45:45.000Z</time>
      </trkpt>
      <trkpt lat="45.15639" lon="5.9671">
        <ele>2503.3999023438</ele>
        <time>2012-03-31T09:45:48.000Z</time>
      </trkpt>
      <trkpt lat="45.15661" lon="5.96705">
        <ele>2506.3999023438</ele>
        <time>2012-03-31T09:46:23.000Z</time>
      </trkpt>
      <trkpt lat="45.15665" lon="5.96702">
        <ele>2507</ele>
        <time>2012-03-31T09:46:30.000Z</time>
      </trkpt>
      <trkpt lat="45.15672" lon="5.96703">
        <ele>2507.6000976562</ele>
        <time>2012-03-31T09:46:36.000Z</time>
      </trkpt>
      <trkpt lat="45.15675" lon="5.96703">
        <ele>2508.1999511719</ele>
        <time>2012-03-31T09:46:41.000Z</time>
      </trkpt>
      <trkpt lat="45.15677" lon="5.96703">
        <ele>2508.8000488281</ele>
        <time>2012-03-31T09:46:43.000Z</time>
      </trkpt>
      <trkpt lat="45.15662" lon="5.96693">
        <ele>2510.1999511719</ele>
        <time>2012-03-31T09:47:01.000Z</time>
      </trkpt>
      <trkpt lat="45.15657" lon="5.96689">
        <ele>2511.1999511719</ele>
        <time>2012-03-31T09:47:06.000Z</time>
      </trkpt>
      <trkpt lat="45.15649" lon="5.96685">
        <ele>2512</ele>
        <time>2012-03-31T09:47:14.000Z</time>
      </trkpt>
      <trkpt lat="45.15644" lon="5.96683">
        <ele>2513.6000976562</ele>
        <time>2012-03-31T09:47:22.000Z</time>
      </trkpt>
      <trkpt lat="45.15639" lon="5.96681">
        <ele>2514.8000488281</ele>
        <time>2012-03-31T09:47:28.000Z</time>
      </trkpt>
      <trkpt lat="45.15639" lon="5.96681">
        <ele>2515.1999511719</ele>
        <time>2012-03-31T09:47:30.000Z</time>
      </trkpt>
      <trkpt lat="45.15654" lon="5.96685">
        <ele>2517</ele>
        <time>2012-03-31T09:47:44.000Z</time>
      </trkpt>
      <trkpt lat="45.15658" lon="5.96683">
        <ele>2517.8000488281</ele>
        <time>2012-03-31T09:47:48.000Z</time>
      </trkpt>
      <trkpt lat="45.15658" lon="5.96681">
        <ele>2518.6000976562</ele>
        <time>2012-03-31T09:47:53.000Z</time>
      </trkpt>
      <trkpt lat="45.15659" lon="5.96681">
        <ele>2518.8000488281</ele>
        <time>2012-03-31T09:47:54.000Z</time>
      </trkpt>
      <trkpt lat="45.15664" lon="5.96664">
        <ele>2524.6000976562</ele>
        <time>2012-03-31T09:48:46.000Z</time>
      </trkpt>
      <trkpt lat="45.15663" lon="5.96662">
        <ele>2525</ele>
        <time>2012-03-31T09:48:48.000Z</time>
      </trkpt>
      <trkpt lat="45.15648" lon="5.96655">
        <ele>2526.8000488281</ele>
        <time>2012-03-31T09:49:18.000Z</time>
      </trkpt>
      <trkpt lat="45.15643" lon="5.96653">
        <ele>2527.8000488281</ele>
        <time>2012-03-31T09:49:25.000Z</time>
      </trkpt>
      <trkpt lat="45.15642" lon="5.96653">
        <ele>2528.3999023438</ele>
        <time>2012-03-31T09:49:30.000Z</time>
      </trkpt>
      <trkpt lat="45.15641" lon="5.96653">
        <ele>2528.6000976562</ele>
        <time>2012-03-31T09:49:32.000Z</time>
      </trkpt>
      <trkpt lat="45.15638" lon="5.96652">
        <ele>2529.8000488281</ele>
        <time>2012-03-31T09:49:41.000Z</time>
      </trkpt>
      <trkpt lat="45.15637" lon="5.9665">
        <ele>2530.1999511719</ele>
        <time>2012-03-31T09:49:43.000Z</time>
      </trkpt>
      <trkpt lat="45.15637" lon="5.96655">
        <ele>2531.1999511719</ele>
        <time>2012-03-31T09:49:58.000Z</time>
      </trkpt>
      <trkpt lat="45.15638" lon="5.96655">
        <ele>2531.8000488281</ele>
        <time>2012-03-31T09:50:00.000Z</time>
      </trkpt>
      <trkpt lat="45.15642" lon="5.96655">
        <ele>2532</ele>
        <time>2012-03-31T09:50:04.000Z</time>
      </trkpt>
      <trkpt lat="45.15655" lon="5.96655">
        <ele>2533.1999511719</ele>
        <time>2012-03-31T09:50:12.000Z</time>
      </trkpt>
      <trkpt lat="45.15666" lon="5.96649">
        <ele>2538.8000488281</ele>
        <time>2012-03-31T09:50:38.000Z</time>
      </trkpt>
      <trkpt lat="45.15656" lon="5.96635">
        <ele>2542</ele>
        <time>2012-03-31T09:51:05.000Z</time>
      </trkpt>
      <trkpt lat="45.15649" lon="5.96626">
        <ele>2545.8000488281</ele>
        <time>2012-03-31T09:51:27.000Z</time>
      </trkpt>
      <trkpt lat="45.15649" lon="5.96627">
        <ele>2546.3999023438</ele>
        <time>2012-03-31T09:51:29.000Z</time>
      </trkpt>
      <trkpt lat="45.15657" lon="5.96626">
        <ele>2549.6000976562</ele>
        <time>2012-03-31T09:52:06.000Z</time>
      </trkpt>
      <trkpt lat="45.15658" lon="5.96626">
        <ele>2549.8000488281</ele>
        <time>2012-03-31T09:52:07.000Z</time>
      </trkpt>
      <trkpt lat="45.15663" lon="5.96626">
        <ele>2550.6000976562</ele>
        <time>2012-03-31T09:52:11.000Z</time>
      </trkpt>
      <trkpt lat="45.15671" lon="5.96625">
        <ele>2553</ele>
        <time>2012-03-31T09:52:25.000Z</time>
      </trkpt>
      <trkpt lat="45.15671" lon="5.96625">
        <ele>2553</ele>
        <time>2012-03-31T09:52:26.000Z</time>
      </trkpt>
      <trkpt lat="45.15664" lon="5.96623">
        <ele>2555</ele>
        <time>2012-03-31T09:52:42.000Z</time>
      </trkpt>
      <trkpt lat="45.15651" lon="5.96609">
        <ele>2560</ele>
        <time>2012-03-31T09:53:05.000Z</time>
      </trkpt>
      <trkpt lat="45.15647" lon="5.96609">
        <ele>2560.8000488281</ele>
        <time>2012-03-31T09:53:10.000Z</time>
      </trkpt>
      <trkpt lat="45.15645" lon="5.96609">
        <ele>2561</ele>
        <time>2012-03-31T09:53:16.000Z</time>
      </trkpt>
      <trkpt lat="45.15643" lon="5.96607">
        <ele>2561.1999511719</ele>
        <time>2012-03-31T09:53:22.000Z</time>
      </trkpt>
      <trkpt lat="45.15648" lon="5.96608">
        <ele>2562.8000488281</ele>
        <time>2012-03-31T09:53:39.000Z</time>
      </trkpt>
      <trkpt lat="45.15649" lon="5.96608">
        <ele>2563.1999511719</ele>
        <time>2012-03-31T09:53:40.000Z</time>
      </trkpt>
      <trkpt lat="45.15652" lon="5.96603">
        <ele>2563.3999023438</ele>
        <time>2012-03-31T09:53:47.000Z</time>
      </trkpt>
      <trkpt lat="45.1566" lon="5.966">
        <ele>2565.1999511719</ele>
        <time>2012-03-31T09:53:56.000Z</time>
      </trkpt>
      <trkpt lat="45.15666" lon="5.966">
        <ele>2566.3999023438</ele>
        <time>2012-03-31T09:54:03.000Z</time>
      </trkpt>
      <trkpt lat="45.15659" lon="5.96583">
        <ele>2574.8000488281</ele>
        <time>2012-03-31T09:54:44.000Z</time>
      </trkpt>
      <trkpt lat="45.15659" lon="5.96582">
        <ele>2575.6000976562</ele>
        <time>2012-03-31T09:54:45.000Z</time>
      </trkpt>
      <trkpt lat="45.1566" lon="5.96577">
        <ele>2577.1999511719</ele>
        <time>2012-03-31T09:55:05.000Z</time>
      </trkpt>
      <trkpt lat="45.15662" lon="5.96576">
        <ele>2578.8000488281</ele>
        <time>2012-03-31T09:55:09.000Z</time>
      </trkpt>
      <trkpt lat="45.15667" lon="5.96575">
        <ele>2579.8000488281</ele>
        <time>2012-03-31T09:55:14.000Z</time>
      </trkpt>
      <trkpt lat="45.1566" lon="5.96549">
        <ele>2584.3999023438</ele>
        <time>2012-03-31T09:55:36.000Z</time>
      </trkpt>
      <trkpt lat="45.15657" lon="5.96544">
        <ele>2584.6000976562</ele>
        <time>2012-03-31T09:55:40.000Z</time>
      </trkpt>
      <trkpt lat="45.15653" lon="5.96538">
        <ele>2585.1999511719</ele>
        <time>2012-03-31T09:55:46.000Z</time>
      </trkpt>
      <trkpt lat="45.15657" lon="5.96526">
        <ele>2588.8000488281</ele>
        <time>2012-03-31T09:56:03.000Z</time>
      </trkpt>
      <trkpt lat="45.1566" lon="5.96522">
        <ele>2589.6000976562</ele>
        <time>2012-03-31T09:56:08.000Z</time>
      </trkpt>
      <trkpt lat="45.15666" lon="5.96526">
        <ele>2590.1999511719</ele>
        <time>2012-03-31T09:56:19.000Z</time>
      </trkpt>
      <trkpt lat="45.15672" lon="5.96523">
        <ele>2590</ele>
        <time>2012-03-31T09:56:24.000Z</time>
      </trkpt>
      <trkpt lat="45.15673" lon="5.96518">
        <ele>2591</ele>
        <time>2012-03-31T09:56:30.000Z</time>
      </trkpt>
      <trkpt lat="45.15663" lon="5.965">
        <ele>2593.6000976562</ele>
        <time>2012-03-31T09:56:44.000Z</time>
      </trkpt>
      <trkpt lat="45.15667" lon="5.96498">
        <ele>2595.1999511719</ele>
        <time>2012-03-31T09:56:48.000Z</time>
      </trkpt>
      <trkpt lat="45.15665" lon="5.96492">
        <ele>2596.1999511719</ele>
        <time>2012-03-31T09:56:55.000Z</time>
      </trkpt>
      <trkpt lat="45.15665" lon="5.96488">
        <ele>2596.6000976562</ele>
        <time>2012-03-31T09:56:59.000Z</time>
      </trkpt>
      <trkpt lat="45.15673" lon="5.96486">
        <ele>2597.8000488281</ele>
        <time>2012-03-31T09:57:06.000Z</time>
      </trkpt>
      <trkpt lat="45.15663" lon="5.96469">
        <ele>2600.6000976562</ele>
        <time>2012-03-31T09:57:20.000Z</time>
      </trkpt>
      <trkpt lat="45.15668" lon="5.96463">
        <ele>2603.6000976562</ele>
        <time>2012-03-31T09:57:34.000Z</time>
      </trkpt>
      <trkpt lat="45.15682" lon="5.96463">
        <ele>2604.6000976562</ele>
        <time>2012-03-31T09:57:42.000Z</time>
      </trkpt>
      <trkpt lat="45.15671" lon="5.96452">
        <ele>2606.3999023438</ele>
        <time>2012-03-31T09:57:55.000Z</time>
      </trkpt>
      <trkpt lat="45.15673" lon="5.96452">
        <ele>2607.6000976562</ele>
        <time>2012-03-31T09:58:02.000Z</time>
      </trkpt>
      <trkpt lat="45.15673" lon="5.96451">
        <ele>2609.3999023438</ele>
        <time>2012-03-31T09:58:11.000Z</time>
      </trkpt>
      <trkpt lat="45.15655" lon="5.96443">
        <ele>2611.6000976562</ele>
        <time>2012-03-31T09:58:24.000Z</time>
      </trkpt>
      <trkpt lat="45.15656" lon="5.96445">
        <ele>2612.6000976562</ele>
        <time>2012-03-31T09:58:26.000Z</time>
      </trkpt>
      <trkpt lat="45.15658" lon="5.96449">
        <ele>2613.8000488281</ele>
        <time>2012-03-31T09:58:33.000Z</time>
      </trkpt>
      <trkpt lat="45.15658" lon="5.96458">
        <ele>2616.1999511719</ele>
        <time>2012-03-31T09:58:48.000Z</time>
      </trkpt>
      <trkpt lat="45.15653" lon="5.96464">
        <ele>2617.6000976562</ele>
        <time>2012-03-31T09:58:59.000Z</time>
      </trkpt>
      <trkpt lat="45.15653" lon="5.96464">
        <ele>2618.1999511719</ele>
        <time>2012-03-31T09:59:00.000Z</time>
      </trkpt>
      <trkpt lat="45.15646" lon="5.96456">
        <ele>2620.8000488281</ele>
        <time>2012-03-31T09:59:24.000Z</time>
      </trkpt>
      <trkpt lat="45.15648" lon="5.96452">
        <ele>2620.8000488281</ele>
        <time>2012-03-31T09:59:28.000Z</time>
      </trkpt>
      <trkpt lat="45.15648" lon="5.96449">
        <ele>2621.6000976562</ele>
        <time>2012-03-31T09:59:33.000Z</time>
      </trkpt>
      <trkpt lat="45.15649" lon="5.96446">
        <ele>2622.3999023438</ele>
        <time>2012-03-31T09:59:38.000Z</time>
      </trkpt>
      <trkpt lat="45.15643" lon="5.96435">
        <ele>2624.1999511719</ele>
        <time>2012-03-31T09:59:49.000Z</time>
      </trkpt>
      <trkpt lat="45.15644" lon="5.96435">
        <ele>2624.8000488281</ele>
        <time>2012-03-31T09:59:51.000Z</time>
      </trkpt>
      <trkpt lat="45.15645" lon="5.96429">
        <ele>2626.6000976562</ele>
        <time>2012-03-31T09:59:57.000Z</time>
      </trkpt>
      <trkpt lat="45.15643" lon="5.96422">
        <ele>2628.1999511719</ele>
        <time>2012-03-31T10:00:04.000Z</time>
      </trkpt>
      <trkpt lat="45.15642" lon="5.96422">
        <ele>2628.1999511719</ele>
        <time>2012-03-31T10:00:06.000Z</time>
      </trkpt>
      <trkpt lat="45.15641" lon="5.96437">
        <ele>2630.3999023438</ele>
        <time>2012-03-31T10:00:25.000Z</time>
      </trkpt>
      <trkpt lat="45.15639" lon="5.96441">
        <ele>2631.6000976562</ele>
        <time>2012-03-31T10:00:32.000Z</time>
      </trkpt>
      <trkpt lat="45.15639" lon="5.96441">
        <ele>2632.1999511719</ele>
        <time>2012-03-31T10:00:33.000Z</time>
      </trkpt>
      <trkpt lat="45.15637" lon="5.96446">
        <ele>2633.6000976562</ele>
        <time>2012-03-31T10:00:41.000Z</time>
      </trkpt>
      <trkpt lat="45.15637" lon="5.96447">
        <ele>2633.8000488281</ele>
        <time>2012-03-31T10:00:44.000Z</time>
      </trkpt>
      <trkpt lat="45.15635" lon="5.96451">
        <ele>2634</ele>
        <time>2012-03-31T10:00:51.000Z</time>
      </trkpt>
      <trkpt lat="45.15632" lon="5.96457">
        <ele>2634.8000488281</ele>
        <time>2012-03-31T10:00:58.000Z</time>
      </trkpt>
      <trkpt lat="45.15626" lon="5.96441">
        <ele>2637.3999023438</ele>
        <time>2012-03-31T10:01:16.000Z</time>
      </trkpt>
      <trkpt lat="45.15627" lon="5.96438">
        <ele>2638.6000976562</ele>
        <time>2012-03-31T10:01:22.000Z</time>
      </trkpt>
      <trkpt lat="45.15628" lon="5.96438">
        <ele>2638.6000976562</ele>
        <time>2012-03-31T10:01:24.000Z</time>
      </trkpt>
      <trkpt lat="45.15628" lon="5.96445">
        <ele>2638.8000488281</ele>
        <time>2012-03-31T10:01:32.000Z</time>
      </trkpt>
      <trkpt lat="45.15622" lon="5.96455">
        <ele>2640.6000976562</ele>
        <time>2012-03-31T10:01:51.000Z</time>
      </trkpt>
      <trkpt lat="45.15615" lon="5.96451">
        <ele>2644</ele>
        <time>2012-03-31T10:02:17.000Z</time>
      </trkpt>
      <trkpt lat="45.1561" lon="5.96436">
        <ele>2644.6000976562</ele>
        <time>2012-03-31T10:02:36.000Z</time>
      </trkpt>
      <trkpt lat="45.15616" lon="5.96443">
        <ele>2648.6000976562</ele>
        <time>2012-03-31T10:03:17.000Z</time>
      </trkpt>
      <trkpt lat="45.15616" lon="5.96444">
        <ele>2648.8000488281</ele>
        <time>2012-03-31T10:03:18.000Z</time>
      </trkpt>
      <trkpt lat="45.1561" lon="5.96446">
        <ele>2650</ele>
        <time>2012-03-31T10:03:35.000Z</time>
      </trkpt>
      <trkpt lat="45.15612" lon="5.96438">
        <ele>2654.8000488281</ele>
        <time>2012-03-31T10:04:01.000Z</time>
      </trkpt>
      <trkpt lat="45.15612" lon="5.96439">
        <ele>2654.8000488281</ele>
        <time>2012-03-31T10:04:03.000Z</time>
      </trkpt>
      <trkpt lat="45.15609" lon="5.96441">
        <ele>2655.3999023438</ele>
        <time>2012-03-31T10:04:07.000Z</time>
      </trkpt>
      <trkpt lat="45.15607" lon="5.96426">
        <ele>2657.6000976562</ele>
        <time>2012-03-31T10:04:33.000Z</time>
      </trkpt>
      <trkpt lat="45.15604" lon="5.96417">
        <ele>2659</ele>
        <time>2012-03-31T10:04:42.000Z</time>
      </trkpt>
      <trkpt lat="45.15603" lon="5.96415">
        <ele>2659.3999023438</ele>
        <time>2012-03-31T10:04:44.000Z</time>
      </trkpt>
      <trkpt lat="45.15596" lon="5.96405">
        <ele>2661.6000976562</ele>
        <time>2012-03-31T10:05:00.000Z</time>
      </trkpt>
      <trkpt lat="45.15598" lon="5.96407">
        <ele>2661.8000488281</ele>
        <time>2012-03-31T10:05:02.000Z</time>
      </trkpt>
      <trkpt lat="45.15603" lon="5.96413">
        <ele>2663.6000976562</ele>
        <time>2012-03-31T10:05:11.000Z</time>
      </trkpt>
      <trkpt lat="45.15602" lon="5.96413">
        <ele>2663.8000488281</ele>
        <time>2012-03-31T10:05:12.000Z</time>
      </trkpt>
      <trkpt lat="45.15601" lon="5.96409">
        <ele>2669.3999023438</ele>
        <time>2012-03-31T10:06:10.000Z</time>
      </trkpt>
      <trkpt lat="45.15601" lon="5.96409">
        <ele>2669.6000976562</ele>
        <time>2012-03-31T10:06:11.000Z</time>
      </trkpt>
      <trkpt lat="45.15597" lon="5.96417">
        <ele>2670</ele>
        <time>2012-03-31T10:06:23.000Z</time>
      </trkpt>
      <trkpt lat="45.15597" lon="5.96419">
        <ele>2670.1999511719</ele>
        <time>2012-03-31T10:06:26.000Z</time>
      </trkpt>
      <trkpt lat="45.15593" lon="5.96427">
        <ele>2670.3999023438</ele>
        <time>2012-03-31T10:06:38.000Z</time>
      </trkpt>
      <trkpt lat="45.15592" lon="5.96429">
        <ele>2670.8000488281</ele>
        <time>2012-03-31T10:06:41.000Z</time>
      </trkpt>
      <trkpt lat="45.15588" lon="5.96416">
        <ele>2676</ele>
        <time>2012-03-31T10:07:36.000Z</time>
      </trkpt>
      <trkpt lat="45.1559" lon="5.96413">
        <ele>2676.3999023438</ele>
        <time>2012-03-31T10:07:41.000Z</time>
      </trkpt>
      <trkpt lat="45.15592" lon="5.96413">
        <ele>2677.1999511719</ele>
        <time>2012-03-31T10:07:43.000Z</time>
      </trkpt>
      <trkpt lat="45.15581" lon="5.96408">
        <ele>2683.3999023438</ele>
        <time>2012-03-31T10:08:42.000Z</time>
      </trkpt>
      <trkpt lat="45.15583" lon="5.96406">
        <ele>2684</ele>
        <time>2012-03-31T10:08:47.000Z</time>
      </trkpt>
      <trkpt lat="45.15586" lon="5.96402">
        <ele>2685.1999511719</ele>
        <time>2012-03-31T10:08:56.000Z</time>
      </trkpt>
      <trkpt lat="45.15581" lon="5.96404">
        <ele>2687.1999511719</ele>
        <time>2012-03-31T10:09:16.000Z</time>
      </trkpt>
      <trkpt lat="45.15577" lon="5.96404">
        <ele>2688.8000488281</ele>
        <time>2012-03-31T10:09:23.000Z</time>
      </trkpt>
      <trkpt lat="45.15574" lon="5.96406">
        <ele>2690.3999023438</ele>
        <time>2012-03-31T10:09:31.000Z</time>
      </trkpt>
      <trkpt lat="45.15573" lon="5.96406">
        <ele>2690.6000976562</ele>
        <time>2012-03-31T10:09:32.000Z</time>
      </trkpt>
      <trkpt lat="45.15568" lon="5.96408">
        <ele>2692.1999511719</ele>
        <time>2012-03-31T10:09:42.000Z</time>
      </trkpt>
      <trkpt lat="45.15567" lon="5.96409">
        <ele>2692.8000488281</ele>
        <time>2012-03-31T10:09:44.000Z</time>
      </trkpt>
      <trkpt lat="45.15567" lon="5.96403">
        <ele>2693.8000488281</ele>
        <time>2012-03-31T10:09:57.000Z</time>
      </trkpt>
      <trkpt lat="45.15567" lon="5.96401">
        <ele>2694.3999023438</ele>
        <time>2012-03-31T10:10:01.000Z</time>
      </trkpt>
      <trkpt lat="45.15568" lon="5.96398">
        <ele>2694.6000976562</ele>
        <time>2012-03-31T10:10:05.000Z</time>
      </trkpt>
      <trkpt lat="45.15565" lon="5.96398">
        <ele>2696.3999023438</ele>
        <time>2012-03-31T10:10:14.000Z</time>
      </trkpt>
      <trkpt lat="45.15561" lon="5.96399">
        <ele>2697.3999023438</ele>
        <time>2012-03-31T10:10:21.000Z</time>
      </trkpt>
      <trkpt lat="45.15557" lon="5.96395">
        <ele>2700.3999023438</ele>
        <time>2012-03-31T10:10:45.000Z</time>
      </trkpt>
      <trkpt lat="45.15557" lon="5.96394">
        <ele>2700.8000488281</ele>
        <time>2012-03-31T10:10:46.000Z</time>
      </trkpt>
      <trkpt lat="45.15554" lon="5.96393">
        <ele>2702.1999511719</ele>
        <time>2012-03-31T10:11:00.000Z</time>
      </trkpt>
      <trkpt lat="45.15551" lon="5.96393">
        <ele>2703.8000488281</ele>
        <time>2012-03-31T10:11:07.000Z</time>
      </trkpt>
      <trkpt lat="45.15549" lon="5.96393">
        <ele>2705</ele>
        <time>2012-03-31T10:11:11.000Z</time>
      </trkpt>
      <trkpt lat="45.1555" lon="5.96386">
        <ele>2706.6000976562</ele>
        <time>2012-03-31T10:11:20.000Z</time>
      </trkpt>
      <trkpt lat="45.15551" lon="5.96383">
        <ele>2707.3999023438</ele>
        <time>2012-03-31T10:11:25.000Z</time>
      </trkpt>
      <trkpt lat="45.15553" lon="5.9638">
        <ele>2708.1999511719</ele>
        <time>2012-03-31T10:11:30.000Z</time>
      </trkpt>
      <trkpt lat="45.15555" lon="5.96378">
        <ele>2708.6000976562</ele>
        <time>2012-03-31T10:11:34.000Z</time>
      </trkpt>
      <trkpt lat="45.15556" lon="5.96377">
        <ele>2709.3999023438</ele>
        <time>2012-03-31T10:11:37.000Z</time>
      </trkpt>
      <trkpt lat="45.15557" lon="5.96372">
        <ele>2710.3999023438</ele>
        <time>2012-03-31T10:11:43.000Z</time>
      </trkpt>
      <trkpt lat="45.15561" lon="5.96365">
        <ele>2712</ele>
        <time>2012-03-31T10:11:53.000Z</time>
      </trkpt>
      <trkpt lat="45.15564" lon="5.96359">
        <ele>2712.8000488281</ele>
        <time>2012-03-31T10:12:02.000Z</time>
      </trkpt>
      <trkpt lat="45.15561" lon="5.96354">
        <ele>2714.1999511719</ele>
        <time>2012-03-31T10:12:10.000Z</time>
      </trkpt>
      <trkpt lat="45.15559" lon="5.96352">
        <ele>2714.8000488281</ele>
        <time>2012-03-31T10:12:14.000Z</time>
      </trkpt>
      <trkpt lat="45.15556" lon="5.96349">
        <ele>2715.6000976562</ele>
        <time>2012-03-31T10:12:23.000Z</time>
      </trkpt>
      <trkpt lat="45.1555" lon="5.96343">
        <ele>2716.1999511719</ele>
        <time>2012-03-31T10:12:33.000Z</time>
      </trkpt>
      <trkpt lat="45.15547" lon="5.96341">
        <ele>2717</ele>
        <time>2012-03-31T10:12:38.000Z</time>
      </trkpt>
      <trkpt lat="45.15545" lon="5.96337">
        <ele>2717.3999023438</ele>
        <time>2012-03-31T10:13:03.000Z</time>
      </trkpt>
      <trkpt lat="45.15544" lon="5.96334">
        <ele>2718</ele>
        <time>2012-03-31T10:13:06.000Z</time>
      </trkpt>
      <trkpt lat="45.15543" lon="5.96324">
        <ele>2718.8000488281</ele>
        <time>2012-03-31T10:13:16.000Z</time>
      </trkpt>
      <trkpt lat="45.15542" lon="5.96323">
        <ele>2719.1999511719</ele>
        <time>2012-03-31T10:13:20.000Z</time>
      </trkpt>
      <trkpt lat="45.15543" lon="5.96319">
        <ele>2718.6000976562</ele>
        <time>2012-03-31T10:13:29.000Z</time>
      </trkpt>
      <trkpt lat="45.15543" lon="5.96318">
        <ele>2718.1999511719</ele>
        <time>2012-03-31T10:13:32.000Z</time>
      </trkpt>
      <trkpt lat="45.15546" lon="5.96318">
        <ele>2718.3999023438</ele>
        <time>2012-03-31T10:13:40.000Z</time>
      </trkpt>
      <trkpt lat="45.15555" lon="5.96319">
        <ele>2719.1999511719</ele>
        <time>2012-03-31T10:13:50.000Z</time>
      </trkpt>
      <trkpt lat="45.15557" lon="5.96318">
        <ele>2719</ele>
        <time>2012-03-31T10:13:53.000Z</time>
      </trkpt>
      <trkpt lat="45.1556" lon="5.96318">
        <ele>2719.1999511719</ele>
        <time>2012-03-31T10:13:57.000Z</time>
      </trkpt>
      <trkpt lat="45.15561" lon="5.96317">
        <ele>2719.1999511719</ele>
        <time>2012-03-31T10:13:59.000Z</time>
      </trkpt>
      <trkpt lat="45.15565" lon="5.96317">
        <ele>2719</ele>
        <time>2012-03-31T10:14:07.000Z</time>
      </trkpt>
      <trkpt lat="45.15574" lon="5.96312">
        <ele>2719.1999511719</ele>
        <time>2012-03-31T10:14:16.000Z</time>
      </trkpt>
      <trkpt lat="45.15585" lon="5.96308">
        <ele>2718.8000488281</ele>
        <time>2012-03-31T10:14:27.000Z</time>
      </trkpt>
      <trkpt lat="45.15592" lon="5.96302">
        <ele>2719.3999023438</ele>
        <time>2012-03-31T10:14:35.000Z</time>
      </trkpt>
      <trkpt lat="45.156" lon="5.96292">
        <ele>2719.1999511719</ele>
        <time>2012-03-31T10:14:42.000Z</time>
      </trkpt>
      <trkpt lat="45.15608" lon="5.96281">
        <ele>2719.8000488281</ele>
        <time>2012-03-31T10:14:51.000Z</time>
      </trkpt>
      <trkpt lat="45.15616" lon="5.96273">
        <ele>2718.3999023438</ele>
        <time>2012-03-31T10:15:00.000Z</time>
      </trkpt>
      <trkpt lat="45.15623" lon="5.96262">
        <ele>2719</ele>
        <time>2012-03-31T10:15:11.000Z</time>
      </trkpt>
      <trkpt lat="45.15629" lon="5.96252">
        <ele>2720.3999023438</ele>
        <time>2012-03-31T10:15:22.000Z</time>
      </trkpt>
      <trkpt lat="45.15635" lon="5.96244">
        <ele>2721.6000976562</ele>
        <time>2012-03-31T10:15:32.000Z</time>
      </trkpt>
      <trkpt lat="45.1564" lon="5.96237">
        <ele>2723</ele>
        <time>2012-03-31T10:15:41.000Z</time>
      </trkpt>
      <trkpt lat="45.15646" lon="5.9623">
        <ele>2724.1999511719</ele>
        <time>2012-03-31T10:15:50.000Z</time>
      </trkpt>
      <trkpt lat="45.15651" lon="5.96223">
        <ele>2725.1999511719</ele>
        <time>2012-03-31T10:15:57.000Z</time>
      </trkpt>
      <trkpt lat="45.15656" lon="5.96216">
        <ele>2726.1999511719</ele>
        <time>2012-03-31T10:16:06.000Z</time>
      </trkpt>
      <trkpt lat="45.1566" lon="5.9621">
        <ele>2725.8000488281</ele>
        <time>2012-03-31T10:16:14.000Z</time>
      </trkpt>
      <trkpt lat="45.15668" lon="5.96206">
        <ele>2726.6000976562</ele>
        <time>2012-03-31T10:16:24.000Z</time>
      </trkpt>
      <trkpt lat="45.15675" lon="5.96202">
        <ele>2727.8000488281</ele>
        <time>2012-03-31T10:16:37.000Z</time>
      </trkpt>
      <trkpt lat="45.1568" lon="5.962">
        <ele>2729.1999511719</ele>
        <time>2012-03-31T10:16:43.000Z</time>
      </trkpt>
      <trkpt lat="45.15683" lon="5.96198">
        <ele>2729.3999023438</ele>
        <time>2012-03-31T10:16:49.000Z</time>
      </trkpt>
      <trkpt lat="45.15684" lon="5.96192">
        <ele>2729</ele>
        <time>2012-03-31T10:17:22.000Z</time>
      </trkpt>
      <trkpt lat="45.1569" lon="5.96191">
        <ele>2728.6000976562</ele>
        <time>2012-03-31T10:17:32.000Z</time>
      </trkpt>
      <trkpt lat="45.15691" lon="5.96189">
        <ele>2729</ele>
        <time>2012-03-31T10:17:36.000Z</time>
      </trkpt>
      <trkpt lat="45.15693" lon="5.96187">
        <ele>2729</ele>
        <time>2012-03-31T10:18:06.000Z</time>
      </trkpt>
      <trkpt lat="45.15693" lon="5.96186">
        <ele>2728.8000488281</ele>
        <time>2012-03-31T10:18:08.000Z</time>
      </trkpt>
      <trkpt lat="45.15699" lon="5.96182">
        <ele>2727.8000488281</ele>
        <time>2012-03-31T10:18:19.000Z</time>
      </trkpt>
      <trkpt lat="45.15706" lon="5.96178">
        <ele>2724.8000488281</ele>
        <time>2012-03-31T10:18:26.000Z</time>
      </trkpt>
      <trkpt lat="45.15706" lon="5.96178">
        <ele>2724.8000488281</ele>
        <time>2012-03-31T10:18:29.000Z</time>
      </trkpt>
      <trkpt lat="45.15705" lon="5.96177">
        <ele>2727.3999023438</ele>
        <time>2012-03-31T10:18:33.000Z</time>
      </trkpt>
      <trkpt lat="45.15706" lon="5.96181">
        <ele>2724.6000976562</ele>
        <time>2012-03-31T10:19:43.000Z</time>
      </trkpt>
      <trkpt lat="45.15714" lon="5.96177">
        <ele>2722.1999511719</ele>
        <time>2012-03-31T10:19:49.000Z</time>
      </trkpt>
      <trkpt lat="45.15719" lon="5.96164">
        <ele>2720.6000976562</ele>
        <time>2012-03-31T10:19:53.000Z</time>
      </trkpt>
      <trkpt lat="45.15728" lon="5.96145">
        <ele>2715.8000488281</ele>
        <time>2012-03-31T10:19:58.000Z</time>
      </trkpt>
      <trkpt lat="45.15729" lon="5.96142">
        <ele>2715.6000976562</ele>
        <time>2012-03-31T10:19:59.000Z</time>
      </trkpt>
      <trkpt lat="45.15732" lon="5.96133">
        <ele>2713.6000976562</ele>
        <time>2012-03-31T10:20:04.000Z</time>
      </trkpt>
      <trkpt lat="45.15734" lon="5.96126">
        <ele>2712.1999511719</ele>
        <time>2012-03-31T10:20:07.000Z</time>
      </trkpt>
      <trkpt lat="45.15736" lon="5.96107">
        <ele>2710</ele>
        <time>2012-03-31T10:20:14.000Z</time>
      </trkpt>
      <trkpt lat="45.15736" lon="5.9609">
        <ele>2706.1999511719</ele>
        <time>2012-03-31T10:20:21.000Z</time>
      </trkpt>
      <trkpt lat="45.15737" lon="5.96073">
        <ele>2708.1999511719</ele>
        <time>2012-03-31T10:20:31.000Z</time>
      </trkpt>
      <trkpt lat="45.15737" lon="5.96072">
        <ele>2708</ele>
        <time>2012-03-31T10:20:32.000Z</time>
      </trkpt>
      <trkpt lat="45.15737" lon="5.96062">
        <ele>2709.8000488281</ele>
        <time>2012-03-31T10:20:40.000Z</time>
      </trkpt>
      <trkpt lat="45.15736" lon="5.96051">
        <ele>2711.3999023438</ele>
        <time>2012-03-31T10:20:47.000Z</time>
      </trkpt>
      <trkpt lat="45.15735" lon="5.96039">
        <ele>2712</ele>
        <time>2012-03-31T10:20:54.000Z</time>
      </trkpt>
      <trkpt lat="45.15736" lon="5.96034">
        <ele>2710.3999023438</ele>
        <time>2012-03-31T10:20:59.000Z</time>
      </trkpt>
      <trkpt lat="45.15737" lon="5.9603">
        <ele>2709</ele>
        <time>2012-03-31T10:21:05.000Z</time>
      </trkpt>
      <trkpt lat="45.15739" lon="5.96025">
        <ele>2709.8000488281</ele>
        <time>2012-03-31T10:21:09.000Z</time>
      </trkpt>
      <trkpt lat="45.15742" lon="5.96014">
        <ele>2710.3999023438</ele>
        <time>2012-03-31T10:21:18.000Z</time>
      </trkpt>
      <trkpt lat="45.15744" lon="5.96008">
        <ele>2713.1999511719</ele>
        <time>2012-03-31T10:21:25.000Z</time>
      </trkpt>
      <trkpt lat="45.15745" lon="5.96">
        <ele>2713.1999511719</ele>
        <time>2012-03-31T10:21:32.000Z</time>
      </trkpt>
      <trkpt lat="45.15745" lon="5.95996">
        <ele>2715.1999511719</ele>
        <time>2012-03-31T10:21:37.000Z</time>
      </trkpt>
      <trkpt lat="45.15745" lon="5.95995">
        <ele>2717.1999511719</ele>
        <time>2012-03-31T10:21:38.000Z</time>
      </trkpt>
      <trkpt lat="45.15745" lon="5.95992">
        <ele>2720.1999511719</ele>
        <time>2012-03-31T10:21:49.000Z</time>
      </trkpt>
      <trkpt lat="45.15744" lon="5.95988">
        <ele>2720</ele>
        <time>2012-03-31T10:21:55.000Z</time>
      </trkpt>
      <trkpt lat="45.15744" lon="5.95984">
        <ele>2722.6000976562</ele>
        <time>2012-03-31T10:22:00.000Z</time>
      </trkpt>
      <trkpt lat="45.15744" lon="5.95976">
        <ele>2721.6000976562</ele>
        <time>2012-03-31T10:22:08.000Z</time>
      </trkpt>
      <trkpt lat="45.15743" lon="5.95975">
        <ele>2722.6000976562</ele>
        <time>2012-03-31T10:22:09.000Z</time>
      </trkpt>
      <trkpt lat="45.15742" lon="5.95965">
        <ele>2719.8000488281</ele>
        <time>2012-03-31T10:22:24.000Z</time>
      </trkpt>
      <trkpt lat="45.15746" lon="5.95957">
        <ele>2720.1999511719</ele>
        <time>2012-03-31T10:22:32.000Z</time>
      </trkpt>
      <trkpt lat="45.1575" lon="5.95949">
        <ele>2722</ele>
        <time>2012-03-31T10:22:41.000Z</time>
      </trkpt>
      <trkpt lat="45.15751" lon="5.95946">
        <ele>2722.8000488281</ele>
        <time>2012-03-31T10:22:44.000Z</time>
      </trkpt>
      <trkpt lat="45.15751" lon="5.9594">
        <ele>2725</ele>
        <time>2012-03-31T10:22:51.000Z</time>
      </trkpt>
      <trkpt lat="45.15751" lon="5.95937">
        <ele>2726.1999511719</ele>
        <time>2012-03-31T10:22:56.000Z</time>
      </trkpt>
      <trkpt lat="45.15751" lon="5.9593">
        <ele>2727.6000976562</ele>
        <time>2012-03-31T10:23:03.000Z</time>
      </trkpt>
      <trkpt lat="45.15751" lon="5.95925">
        <ele>2729.1999511719</ele>
        <time>2012-03-31T10:23:09.000Z</time>
      </trkpt>
      <trkpt lat="45.15752" lon="5.95918">
        <ele>2730</ele>
        <time>2012-03-31T10:23:16.000Z</time>
      </trkpt>
      <trkpt lat="45.15752" lon="5.95913">
        <ele>2731</ele>
        <time>2012-03-31T10:23:23.000Z</time>
      </trkpt>
      <trkpt lat="45.15753" lon="5.95907">
        <ele>2732.6000976562</ele>
        <time>2012-03-31T10:23:31.000Z</time>
      </trkpt>
      <trkpt lat="45.15753" lon="5.95899">
        <ele>2734.3999023438</ele>
        <time>2012-03-31T10:23:38.000Z</time>
      </trkpt>
      <trkpt lat="45.15753" lon="5.95893">
        <ele>2736.3999023438</ele>
        <time>2012-03-31T10:23:46.000Z</time>
      </trkpt>
      <trkpt lat="45.1575" lon="5.9589">
        <ele>2737.1999511719</ele>
        <time>2012-03-31T10:23:52.000Z</time>
      </trkpt>
      <trkpt lat="45.15749" lon="5.95889">
        <ele>2737.3999023438</ele>
        <time>2012-03-31T10:23:53.000Z</time>
      </trkpt>
      <trkpt lat="45.15748" lon="5.95889">
        <ele>2738.1999511719</ele>
        <time>2012-03-31T10:23:56.000Z</time>
      </trkpt>
      <trkpt lat="45.15745" lon="5.9589">
        <ele>2738.6000976562</ele>
        <time>2012-03-31T10:24:09.000Z</time>
      </trkpt>
      <trkpt lat="45.1574" lon="5.95893">
        <ele>2741.1999511719</ele>
        <time>2012-03-31T10:24:19.000Z</time>
      </trkpt>
      <trkpt lat="45.15736" lon="5.95895">
        <ele>2743</ele>
        <time>2012-03-31T10:24:26.000Z</time>
      </trkpt>
      <trkpt lat="45.15737" lon="5.95893">
        <ele>2743.1999511719</ele>
        <time>2012-03-31T10:24:30.000Z</time>
      </trkpt>
      <trkpt lat="45.15737" lon="5.95892">
        <ele>2743.1999511719</ele>
        <time>2012-03-31T10:24:31.000Z</time>
      </trkpt>
      <trkpt lat="45.15735" lon="5.95885">
        <ele>2747</ele>
        <time>2012-03-31T10:24:37.000Z</time>
      </trkpt>
      <trkpt lat="45.15733" lon="5.95886">
        <ele>2747.8000488281</ele>
        <time>2012-03-31T10:24:39.000Z</time>
      </trkpt>
      <trkpt lat="45.15728" lon="5.95891">
        <ele>2749.1999511719</ele>
        <time>2012-03-31T10:24:47.000Z</time>
      </trkpt>
      <trkpt lat="45.15724" lon="5.95894">
        <ele>2750</ele>
        <time>2012-03-31T10:24:55.000Z</time>
      </trkpt>
      <trkpt lat="45.1572" lon="5.95896">
        <ele>2752.3999023438</ele>
        <time>2012-03-31T10:25:33.000Z</time>
      </trkpt>
      <trkpt lat="45.15717" lon="5.95896">
        <ele>2753.1999511719</ele>
        <time>2012-03-31T10:25:40.000Z</time>
      </trkpt>
      <trkpt lat="45.15715" lon="5.95898">
        <ele>2751.8000488281</ele>
        <time>2012-03-31T10:25:55.000Z</time>
      </trkpt>
      <trkpt lat="45.15717" lon="5.95895">
        <ele>2750.3999023438</ele>
        <time>2012-03-31T10:26:05.000Z</time>
      </trkpt>
      <trkpt lat="45.15718" lon="5.95894">
        <ele>2751</ele>
        <time>2012-03-31T10:26:07.000Z</time>
      </trkpt>
      <trkpt lat="45.15715" lon="5.95895">
        <ele>2749.8000488281</ele>
        <time>2012-03-31T10:26:49.000Z</time>
      </trkpt>
      <trkpt lat="45.15715" lon="5.95896">
        <ele>2749.3999023438</ele>
        <time>2012-03-31T10:30:45.000Z</time>
      </trkpt>
      <trkpt lat="45.15715" lon="5.95896">
        <ele>2749.8000488281</ele>
        <time>2012-03-31T10:30:46.000Z</time>
      </trkpt>
      <trkpt lat="45.15718" lon="5.95895">
        <ele>2749</ele>
        <time>2012-03-31T10:32:31.000Z</time>
      </trkpt>
      <trkpt lat="45.15721" lon="5.95897">
        <ele>2751.8000488281</ele>
        <time>2012-03-31T10:34:17.000Z</time>
      </trkpt>
      <trkpt lat="45.15725" lon="5.95895">
        <ele>2748.6000976562</ele>
        <time>2012-03-31T10:34:22.000Z</time>
      </trkpt>
      <trkpt lat="45.15725" lon="5.9589">
        <ele>2747.1999511719</ele>
        <time>2012-03-31T10:34:28.000Z</time>
      </trkpt>
      <trkpt lat="45.15724" lon="5.95895">
        <ele>2748.3999023438</ele>
        <time>2012-03-31T10:35:02.000Z</time>
      </trkpt>
      <trkpt lat="45.15725" lon="5.9589">
        <ele>2746.8000488281</ele>
        <time>2012-03-31T10:35:12.000Z</time>
      </trkpt>
      <trkpt lat="45.15725" lon="5.9589">
        <ele>2746.6000976562</ele>
        <time>2012-03-31T10:35:13.000Z</time>
      </trkpt>
      <trkpt lat="45.15729" lon="5.95887">
        <ele>2746.6000976562</ele>
        <time>2012-03-31T10:35:42.000Z</time>
      </trkpt>
      <trkpt lat="45.1573" lon="5.9589">
        <ele>2747.1999511719</ele>
        <time>2012-03-31T10:36:31.000Z</time>
      </trkpt>
      <trkpt lat="45.15727" lon="5.95892">
        <ele>2748.6000976562</ele>
        <time>2012-03-31T10:40:41.000Z</time>
      </trkpt>
      <trkpt lat="45.15727" lon="5.95892">
        <ele>2747.8000488281</ele>
        <time>2012-03-31T10:40:43.000Z</time>
      </trkpt>
      <trkpt lat="45.15729" lon="5.95893">
        <ele>2747.8000488281</ele>
        <time>2012-03-31T10:43:00.000Z</time>
      </trkpt>
      <trkpt lat="45.15728" lon="5.95892">
        <ele>2747.8000488281</ele>
        <time>2012-03-31T10:43:03.000Z</time>
      </trkpt>
      <trkpt lat="45.1573" lon="5.95886">
        <ele>2747.8000488281</ele>
        <time>2012-03-31T10:43:12.000Z</time>
      </trkpt>
      <trkpt lat="45.15745" lon="5.95893">
        <ele>2746</ele>
        <time>2012-03-31T10:44:36.000Z</time>
      </trkpt>
      <trkpt lat="45.15767" lon="5.95886">
        <ele>2740.3999023438</ele>
        <time>2012-03-31T10:44:39.000Z</time>
      </trkpt>
      <trkpt lat="45.15795" lon="5.95877">
        <ele>2735</ele>
        <time>2012-03-31T10:44:43.000Z</time>
      </trkpt>
      <trkpt lat="45.15807" lon="5.95866">
        <ele>2731.8000488281</ele>
        <time>2012-03-31T10:44:47.000Z</time>
      </trkpt>
      <trkpt lat="45.15809" lon="5.95862">
        <ele>2731</ele>
        <time>2012-03-31T10:44:49.000Z</time>
      </trkpt>
      <trkpt lat="45.15809" lon="5.95862">
        <ele>2731.1999511719</ele>
        <time>2012-03-31T10:44:50.000Z</time>
      </trkpt>
      <trkpt lat="45.15809" lon="5.95858">
        <ele>2731</ele>
        <time>2012-03-31T10:44:56.000Z</time>
      </trkpt>
      <trkpt lat="45.15809" lon="5.95857">
        <ele>2731.8000488281</ele>
        <time>2012-03-31T10:45:10.000Z</time>
      </trkpt>
      <trkpt lat="45.15809" lon="5.95857">
        <ele>2731.6000976562</ele>
        <time>2012-03-31T10:45:11.000Z</time>
      </trkpt>
      <trkpt lat="45.15803" lon="5.95854">
        <ele>2731.1999511719</ele>
        <time>2012-03-31T10:47:25.000Z</time>
      </trkpt>
      <trkpt lat="45.15804" lon="5.95852">
        <ele>2731.1999511719</ele>
        <time>2012-03-31T10:48:51.000Z</time>
      </trkpt>
      <trkpt lat="45.15804" lon="5.95851">
        <ele>2731.6000976562</ele>
        <time>2012-03-31T10:48:52.000Z</time>
      </trkpt>
      <trkpt lat="45.1581" lon="5.95858">
        <ele>2731.6000976562</ele>
        <time>2012-03-31T10:51:00.000Z</time>
      </trkpt>
      <trkpt lat="45.15811" lon="5.95859">
        <ele>2731.6000976562</ele>
        <time>2012-03-31T10:51:01.000Z</time>
      </trkpt>
      <trkpt lat="45.15812" lon="5.95861">
        <ele>2731.6000976562</ele>
        <time>2012-03-31T10:51:05.000Z</time>
      </trkpt>
      <trkpt lat="45.15804" lon="5.9585">
        <ele>2735.1999511719</ele>
        <time>2012-03-31T11:05:05.000Z</time>
      </trkpt>
      <trkpt lat="45.15802" lon="5.95845">
        <ele>2733.3999023438</ele>
        <time>2012-03-31T11:05:09.000Z</time>
      </trkpt>
      <trkpt lat="45.15802" lon="5.95844">
        <ele>2733.1999511719</ele>
        <time>2012-03-31T11:05:10.000Z</time>
      </trkpt>
      <trkpt lat="45.15807" lon="5.95834">
        <ele>2729.8000488281</ele>
        <time>2012-03-31T11:05:16.000Z</time>
      </trkpt>
      <trkpt lat="45.15808" lon="5.95831">
        <ele>2728.6000976562</ele>
        <time>2012-03-31T11:05:18.000Z</time>
      </trkpt>
      <trkpt lat="45.15804" lon="5.95829">
        <ele>2727.6000976562</ele>
        <time>2012-03-31T11:05:21.000Z</time>
      </trkpt>
      <trkpt lat="45.15808" lon="5.95817">
        <ele>2721.6000976562</ele>
        <time>2012-03-31T11:05:25.000Z</time>
      </trkpt>
      <trkpt lat="45.15815" lon="5.95808">
        <ele>2718.6000976562</ele>
        <time>2012-03-31T11:05:28.000Z</time>
      </trkpt>
      <trkpt lat="45.15813" lon="5.95802">
        <ele>2714.8000488281</ele>
        <time>2012-03-31T11:05:32.000Z</time>
      </trkpt>
      <trkpt lat="45.15816" lon="5.95788">
        <ele>2708.6000976562</ele>
        <time>2012-03-31T11:05:36.000Z</time>
      </trkpt>
      <trkpt lat="45.15813" lon="5.95775">
        <ele>2705.6000976562</ele>
        <time>2012-03-31T11:05:40.000Z</time>
      </trkpt>
      <trkpt lat="45.15808" lon="5.95766">
        <ele>2700.6000976562</ele>
        <time>2012-03-31T11:05:43.000Z</time>
      </trkpt>
      <trkpt lat="45.15804" lon="5.95761">
        <ele>2699.6000976562</ele>
        <time>2012-03-31T11:05:45.000Z</time>
      </trkpt>
      <trkpt lat="45.15796" lon="5.95752">
        <ele>2699.6000976562</ele>
        <time>2012-03-31T11:05:50.000Z</time>
      </trkpt>
      <trkpt lat="45.15795" lon="5.95747">
        <ele>2699.6000976562</ele>
        <time>2012-03-31T11:05:53.000Z</time>
      </trkpt>
      <trkpt lat="45.15793" lon="5.95746">
        <ele>2699.6000976562</ele>
        <time>2012-03-31T11:05:54.000Z</time>
      </trkpt>
      <trkpt lat="45.1579" lon="5.9573">
        <ele>2694.6000976562</ele>
        <time>2012-03-31T11:05:59.000Z</time>
      </trkpt>
      <trkpt lat="45.15786" lon="5.95728">
        <ele>2681.1999511719</ele>
        <time>2012-03-31T11:06:01.000Z</time>
      </trkpt>
      <trkpt lat="45.15783" lon="5.95726">
        <ele>2667.3999023438</ele>
        <time>2012-03-31T11:06:03.000Z</time>
      </trkpt>
      <trkpt lat="45.15779" lon="5.95726">
        <ele>2662.6000976562</ele>
        <time>2012-03-31T11:06:06.000Z</time>
      </trkpt>
      <trkpt lat="45.15778" lon="5.95727">
        <ele>2663.8000488281</ele>
        <time>2012-03-31T11:06:07.000Z</time>
      </trkpt>
      <trkpt lat="45.15767" lon="5.95724">
        <ele>2662.3999023438</ele>
        <time>2012-03-31T11:06:23.000Z</time>
      </trkpt>
      <trkpt lat="45.15759" lon="5.95717">
        <ele>2659</ele>
        <time>2012-03-31T11:06:27.000Z</time>
      </trkpt>
      <trkpt lat="45.15755" lon="5.95713">
        <ele>2651.1999511719</ele>
        <time>2012-03-31T11:06:30.000Z</time>
      </trkpt>
      <trkpt lat="45.15753" lon="5.95698">
        <ele>2648.1999511719</ele>
        <time>2012-03-31T11:06:33.000Z</time>
      </trkpt>
      <trkpt lat="45.15743" lon="5.957">
        <ele>2645</ele>
        <time>2012-03-31T11:06:36.000Z</time>
      </trkpt>
      <trkpt lat="45.15744" lon="5.95681">
        <ele>2636.3999023438</ele>
        <time>2012-03-31T11:06:39.000Z</time>
      </trkpt>
      <trkpt lat="45.15742" lon="5.95676">
        <ele>2635.8000488281</ele>
        <time>2012-03-31T11:06:40.000Z</time>
      </trkpt>
      <trkpt lat="45.15738" lon="5.9566">
        <ele>2623.8000488281</ele>
        <time>2012-03-31T11:06:46.000Z</time>
      </trkpt>
      <trkpt lat="45.15743" lon="5.95657">
        <ele>2621.8000488281</ele>
        <time>2012-03-31T11:06:49.000Z</time>
      </trkpt>
      <trkpt lat="45.15733" lon="5.95646">
        <ele>2616.3999023438</ele>
        <time>2012-03-31T11:07:06.000Z</time>
      </trkpt>
      <trkpt lat="45.15727" lon="5.95637">
        <ele>2615.8000488281</ele>
        <time>2012-03-31T11:07:08.000Z</time>
      </trkpt>
      <trkpt lat="45.15714" lon="5.95617">
        <ele>2606.6000976562</ele>
        <time>2012-03-31T11:07:12.000Z</time>
      </trkpt>
      <trkpt lat="45.15709" lon="5.95606">
        <ele>2598.1999511719</ele>
        <time>2012-03-31T11:07:15.000Z</time>
      </trkpt>
      <trkpt lat="45.15703" lon="5.95586">
        <ele>2589.6000976562</ele>
        <time>2012-03-31T11:07:19.000Z</time>
      </trkpt>
      <trkpt lat="45.15715" lon="5.95574">
        <ele>2583.8000488281</ele>
        <time>2012-03-31T11:07:22.000Z</time>
      </trkpt>
      <trkpt lat="45.15721" lon="5.9557">
        <ele>2582</ele>
        <time>2012-03-31T11:07:23.000Z</time>
      </trkpt>
      <trkpt lat="45.15725" lon="5.95566">
        <ele>2579.6000976562</ele>
        <time>2012-03-31T11:07:25.000Z</time>
      </trkpt>
      <trkpt lat="45.1573" lon="5.95539">
        <ele>2574.8000488281</ele>
        <time>2012-03-31T11:07:29.000Z</time>
      </trkpt>
      <trkpt lat="45.1573" lon="5.95524">
        <ele>2568.6000976562</ele>
        <time>2012-03-31T11:07:32.000Z</time>
      </trkpt>
      <trkpt lat="45.15738" lon="5.95504">
        <ele>2560</ele>
        <time>2012-03-31T11:07:35.000Z</time>
      </trkpt>
      <trkpt lat="45.15751" lon="5.95488">
        <ele>2553.6000976562</ele>
        <time>2012-03-31T11:07:38.000Z</time>
      </trkpt>
      <trkpt lat="45.1575" lon="5.95484">
        <ele>2552</ele>
        <time>2012-03-31T11:07:39.000Z</time>
      </trkpt>
      <trkpt lat="45.15757" lon="5.95456">
        <ele>2547</ele>
        <time>2012-03-31T11:07:44.000Z</time>
      </trkpt>
      <trkpt lat="45.15752" lon="5.95434">
        <ele>2538.8000488281</ele>
        <time>2012-03-31T11:07:47.000Z</time>
      </trkpt>
      <trkpt lat="45.15758" lon="5.95422">
        <ele>2523</ele>
        <time>2012-03-31T11:07:50.000Z</time>
      </trkpt>
      <trkpt lat="45.15763" lon="5.9542">
        <ele>2521.8000488281</ele>
        <time>2012-03-31T11:07:51.000Z</time>
      </trkpt>
      <trkpt lat="45.15782" lon="5.95406">
        <ele>2517.8000488281</ele>
        <time>2012-03-31T11:07:56.000Z</time>
      </trkpt>
      <trkpt lat="45.15782" lon="5.95399">
        <ele>2512</ele>
        <time>2012-03-31T11:07:59.000Z</time>
      </trkpt>
      <trkpt lat="45.15781" lon="5.95397">
        <ele>2510.3999023438</ele>
        <time>2012-03-31T11:08:02.000Z</time>
      </trkpt>
      <trkpt lat="45.1578" lon="5.95395">
        <ele>2510.8000488281</ele>
        <time>2012-03-31T11:08:03.000Z</time>
      </trkpt>
      <trkpt lat="45.15776" lon="5.95386">
        <ele>2510.3999023438</ele>
        <time>2012-03-31T11:08:41.000Z</time>
      </trkpt>
      <trkpt lat="45.1577" lon="5.95374">
        <ele>2510.8000488281</ele>
        <time>2012-03-31T11:09:30.000Z</time>
      </trkpt>
      <trkpt lat="45.15768" lon="5.95349">
        <ele>2511</ele>
        <time>2012-03-31T11:09:33.000Z</time>
      </trkpt>
      <trkpt lat="45.15765" lon="5.95332">
        <ele>2501</ele>
        <time>2012-03-31T11:09:36.000Z</time>
      </trkpt>
      <trkpt lat="45.15759" lon="5.95321">
        <ele>2493.8000488281</ele>
        <time>2012-03-31T11:09:39.000Z</time>
      </trkpt>
      <trkpt lat="45.15759" lon="5.95303">
        <ele>2479.1999511719</ele>
        <time>2012-03-31T11:09:43.000Z</time>
      </trkpt>
      <trkpt lat="45.15762" lon="5.95298">
        <ele>2478.3999023438</ele>
        <time>2012-03-31T11:09:44.000Z</time>
      </trkpt>
      <trkpt lat="45.15766" lon="5.95279">
        <ele>2477.6000976562</ele>
        <time>2012-03-31T11:09:46.000Z</time>
      </trkpt>
      <trkpt lat="45.15777" lon="5.95269">
        <ele>2474.3999023438</ele>
        <time>2012-03-31T11:09:50.000Z</time>
      </trkpt>
      <trkpt lat="45.15778" lon="5.95269">
        <ele>2470.8000488281</ele>
        <time>2012-03-31T11:09:51.000Z</time>
      </trkpt>
      <trkpt lat="45.15775" lon="5.95263">
        <ele>2461.6000976562</ele>
        <time>2012-03-31T11:09:55.000Z</time>
      </trkpt>
      <trkpt lat="45.15774" lon="5.95263">
        <ele>2460.6000976562</ele>
        <time>2012-03-31T11:09:59.000Z</time>
      </trkpt>
      <trkpt lat="45.15768" lon="5.95258">
        <ele>2460.3999023438</ele>
        <time>2012-03-31T11:10:06.000Z</time>
      </trkpt>
      <trkpt lat="45.15763" lon="5.95237">
        <ele>2456.3999023438</ele>
        <time>2012-03-31T11:10:10.000Z</time>
      </trkpt>
      <trkpt lat="45.15755" lon="5.9522">
        <ele>2450.6000976562</ele>
        <time>2012-03-31T11:10:13.000Z</time>
      </trkpt>
      <trkpt lat="45.15751" lon="5.95212">
        <ele>2447.8000488281</ele>
        <time>2012-03-31T11:10:16.000Z</time>
      </trkpt>
      <trkpt lat="45.15751" lon="5.95212">
        <ele>2447.6000976562</ele>
        <time>2012-03-31T11:10:17.000Z</time>
      </trkpt>
      <trkpt lat="45.1575" lon="5.95211">
        <ele>2447.3999023438</ele>
        <time>2012-03-31T11:10:18.000Z</time>
      </trkpt>
      <trkpt lat="45.15751" lon="5.95198">
        <ele>2447</ele>
        <time>2012-03-31T11:10:39.000Z</time>
      </trkpt>
      <trkpt lat="45.15748" lon="5.95187">
        <ele>2444.8000488281</ele>
        <time>2012-03-31T11:10:45.000Z</time>
      </trkpt>
      <trkpt lat="45.15744" lon="5.95178">
        <ele>2443.3999023438</ele>
        <time>2012-03-31T11:10:49.000Z</time>
      </trkpt>
      <trkpt lat="45.1574" lon="5.95167">
        <ele>2441.8000488281</ele>
        <time>2012-03-31T11:10:54.000Z</time>
      </trkpt>
      <trkpt lat="45.15739" lon="5.95164">
        <ele>2441.1999511719</ele>
        <time>2012-03-31T11:10:55.000Z</time>
      </trkpt>
      <trkpt lat="45.15745" lon="5.95162">
        <ele>2437.8000488281</ele>
        <time>2012-03-31T11:10:59.000Z</time>
      </trkpt>
      <trkpt lat="45.15751" lon="5.95159">
        <ele>2436.3999023438</ele>
        <time>2012-03-31T11:11:02.000Z</time>
      </trkpt>
      <trkpt lat="45.15755" lon="5.95162">
        <ele>2434.1999511719</ele>
        <time>2012-03-31T11:11:05.000Z</time>
      </trkpt>
      <trkpt lat="45.15754" lon="5.95163">
        <ele>2432.6000976562</ele>
        <time>2012-03-31T11:11:06.000Z</time>
      </trkpt>
      <trkpt lat="45.15759" lon="5.95167">
        <ele>2429</ele>
        <time>2012-03-31T11:11:41.000Z</time>
      </trkpt>
      <trkpt lat="45.1576" lon="5.95172">
        <ele>2428</ele>
        <time>2012-03-31T11:11:47.000Z</time>
      </trkpt>
      <trkpt lat="45.1576" lon="5.95172">
        <ele>2428</ele>
        <time>2012-03-31T11:11:48.000Z</time>
      </trkpt>
      <trkpt lat="45.15766" lon="5.95178">
        <ele>2425.8000488281</ele>
        <time>2012-03-31T11:11:54.000Z</time>
      </trkpt>
      <trkpt lat="45.15769" lon="5.95182">
        <ele>2425.3999023438</ele>
        <time>2012-03-31T11:11:58.000Z</time>
      </trkpt>
      <trkpt lat="45.15766" lon="5.95185">
        <ele>2422.3999023438</ele>
        <time>2012-03-31T11:12:03.000Z</time>
      </trkpt>
      <trkpt lat="45.15769" lon="5.95188">
        <ele>2420.3999023438</ele>
        <time>2012-03-31T11:12:07.000Z</time>
      </trkpt>
      <trkpt lat="45.15775" lon="5.95192">
        <ele>2417.6000976562</ele>
        <time>2012-03-31T11:12:10.000Z</time>
      </trkpt>
      <trkpt lat="45.15778" lon="5.95168">
        <ele>2409.8000488281</ele>
        <time>2012-03-31T11:12:14.000Z</time>
      </trkpt>
      <trkpt lat="45.15778" lon="5.95169">
        <ele>2408</ele>
        <time>2012-03-31T11:12:15.000Z</time>
      </trkpt>
      <trkpt lat="45.15797" lon="5.95171">
        <ele>2402.8000488281</ele>
        <time>2012-03-31T11:12:22.000Z</time>
      </trkpt>
      <trkpt lat="45.15803" lon="5.95149">
        <ele>2400.3999023438</ele>
        <time>2012-03-31T11:12:24.000Z</time>
      </trkpt>
      <trkpt lat="45.15807" lon="5.95114">
        <ele>2394.8000488281</ele>
        <time>2012-03-31T11:12:27.000Z</time>
      </trkpt>
      <trkpt lat="45.15817" lon="5.95088">
        <ele>2390.6000976562</ele>
        <time>2012-03-31T11:12:30.000Z</time>
      </trkpt>
      <trkpt lat="45.15828" lon="5.95065">
        <ele>2384.6000976562</ele>
        <time>2012-03-31T11:12:34.000Z</time>
      </trkpt>
      <trkpt lat="45.15822" lon="5.95055">
        <ele>2379.8000488281</ele>
        <time>2012-03-31T11:12:37.000Z</time>
      </trkpt>
      <trkpt lat="45.15823" lon="5.95057">
        <ele>2379</ele>
        <time>2012-03-31T11:12:39.000Z</time>
      </trkpt>
      <trkpt lat="45.15818" lon="5.95052">
        <ele>2379</ele>
        <time>2012-03-31T11:12:49.000Z</time>
      </trkpt>
      <trkpt lat="45.15807" lon="5.95042">
        <ele>2378</ele>
        <time>2012-03-31T11:12:56.000Z</time>
      </trkpt>
      <trkpt lat="45.15805" lon="5.95041">
        <ele>2377.3999023438</ele>
        <time>2012-03-31T11:12:57.000Z</time>
      </trkpt>
      <trkpt lat="45.15798" lon="5.95039">
        <ele>2376.3999023438</ele>
        <time>2012-03-31T11:12:59.000Z</time>
      </trkpt>
      <trkpt lat="45.15781" lon="5.95043">
        <ele>2373.1999511719</ele>
        <time>2012-03-31T11:13:04.000Z</time>
      </trkpt>
      <trkpt lat="45.15775" lon="5.95044">
        <ele>2371.1999511719</ele>
        <time>2012-03-31T11:13:07.000Z</time>
      </trkpt>
      <trkpt lat="45.15774" lon="5.9502">
        <ele>2366.8000488281</ele>
        <time>2012-03-31T11:13:11.000Z</time>
      </trkpt>
      <trkpt lat="45.15767" lon="5.94998">
        <ele>2362.6000976562</ele>
        <time>2012-03-31T11:13:15.000Z</time>
      </trkpt>
      <trkpt lat="45.15758" lon="5.94995">
        <ele>2358.3999023438</ele>
        <time>2012-03-31T11:13:18.000Z</time>
      </trkpt>
      <trkpt lat="45.15748" lon="5.94994">
        <ele>2357.1999511719</ele>
        <time>2012-03-31T11:13:21.000Z</time>
      </trkpt>
      <trkpt lat="45.15737" lon="5.94985">
        <ele>2346.6000976562</ele>
        <time>2012-03-31T11:13:25.000Z</time>
      </trkpt>
      <trkpt lat="45.15722" lon="5.94963">
        <ele>2334.6000976562</ele>
        <time>2012-03-31T11:13:29.000Z</time>
      </trkpt>
      <trkpt lat="45.15715" lon="5.94941">
        <ele>2328.6000976562</ele>
        <time>2012-03-31T11:13:32.000Z</time>
      </trkpt>
      <trkpt lat="45.15714" lon="5.94929">
        <ele>2326</ele>
        <time>2012-03-31T11:13:33.000Z</time>
      </trkpt>
      <trkpt lat="45.15701" lon="5.94887">
        <ele>2316.1999511719</ele>
        <time>2012-03-31T11:13:38.000Z</time>
      </trkpt>
      <trkpt lat="45.15699" lon="5.94885">
        <ele>2315.8000488281</ele>
        <time>2012-03-31T11:13:39.000Z</time>
      </trkpt>
      <trkpt lat="45.157" lon="5.94886">
        <ele>2316</ele>
        <time>2012-03-31T11:13:42.000Z</time>
      </trkpt>
      <trkpt lat="45.15696" lon="5.94899">
        <ele>2313</ele>
        <time>2012-03-31T11:13:57.000Z</time>
      </trkpt>
      <trkpt lat="45.15695" lon="5.94908">
        <ele>2312.1999511719</ele>
        <time>2012-03-31T11:13:59.000Z</time>
      </trkpt>
      <trkpt lat="45.15686" lon="5.94916">
        <ele>2309.3999023438</ele>
        <time>2012-03-31T11:14:02.000Z</time>
      </trkpt>
      <trkpt lat="45.1566" lon="5.94908">
        <ele>2301.3999023438</ele>
        <time>2012-03-31T11:14:07.000Z</time>
      </trkpt>
      <trkpt lat="45.15641" lon="5.94891">
        <ele>2295.3999023438</ele>
        <time>2012-03-31T11:14:11.000Z</time>
      </trkpt>
      <trkpt lat="45.15628" lon="5.9489">
        <ele>2291.8000488281</ele>
        <time>2012-03-31T11:14:14.000Z</time>
      </trkpt>
      <trkpt lat="45.15611" lon="5.94884">
        <ele>2280</ele>
        <time>2012-03-31T11:14:19.000Z</time>
      </trkpt>
      <trkpt lat="45.15606" lon="5.94881">
        <ele>2279.1999511719</ele>
        <time>2012-03-31T11:14:20.000Z</time>
      </trkpt>
      <trkpt lat="45.15586" lon="5.94873">
        <ele>2268.6000976562</ele>
        <time>2012-03-31T11:14:25.000Z</time>
      </trkpt>
      <trkpt lat="45.15588" lon="5.94855">
        <ele>2263</ele>
        <time>2012-03-31T11:14:29.000Z</time>
      </trkpt>
      <trkpt lat="45.15594" lon="5.94831">
        <ele>2256.1999511719</ele>
        <time>2012-03-31T11:14:33.000Z</time>
      </trkpt>
      <trkpt lat="45.15605" lon="5.94819">
        <ele>2254.1999511719</ele>
        <time>2012-03-31T11:14:36.000Z</time>
      </trkpt>
      <trkpt lat="45.15589" lon="5.94817">
        <ele>2251.3999023438</ele>
        <time>2012-03-31T11:14:39.000Z</time>
      </trkpt>
      <trkpt lat="45.15584" lon="5.9482">
        <ele>2250.1999511719</ele>
        <time>2012-03-31T11:14:40.000Z</time>
      </trkpt>
      <trkpt lat="45.15564" lon="5.94813">
        <ele>2241.8000488281</ele>
        <time>2012-03-31T11:14:46.000Z</time>
      </trkpt>
      <trkpt lat="45.15563" lon="5.948">
        <ele>2238</ele>
        <time>2012-03-31T11:14:49.000Z</time>
      </trkpt>
      <trkpt lat="45.15562" lon="5.94779">
        <ele>2231</ele>
        <time>2012-03-31T11:14:52.000Z</time>
      </trkpt>
      <trkpt lat="45.15567" lon="5.9477">
        <ele>2224.8000488281</ele>
        <time>2012-03-31T11:14:55.000Z</time>
      </trkpt>
      <trkpt lat="45.15566" lon="5.9477">
        <ele>2223.3999023438</ele>
        <time>2012-03-31T11:14:58.000Z</time>
      </trkpt>
      <trkpt lat="45.15569" lon="5.94755">
        <ele>2216.1999511719</ele>
        <time>2012-03-31T11:15:03.000Z</time>
      </trkpt>
      <trkpt lat="45.15577" lon="5.9475">
        <ele>2212.1999511719</ele>
        <time>2012-03-31T11:15:06.000Z</time>
      </trkpt>
      <trkpt lat="45.1558" lon="5.9475">
        <ele>2212.6000976562</ele>
        <time>2012-03-31T11:15:07.000Z</time>
      </trkpt>
      <trkpt lat="45.15582" lon="5.94749">
        <ele>2213.3999023438</ele>
        <time>2012-03-31T11:15:09.000Z</time>
      </trkpt>
      <trkpt lat="45.15581" lon="5.9475">
        <ele>2214</ele>
        <time>2012-03-31T11:15:10.000Z</time>
      </trkpt>
      <trkpt lat="45.1559" lon="5.94745">
        <ele>2213</ele>
        <time>2012-03-31T11:15:29.000Z</time>
      </trkpt>
      <trkpt lat="45.1559" lon="5.94732">
        <ele>2207.8000488281</ele>
        <time>2012-03-31T11:15:33.000Z</time>
      </trkpt>
      <trkpt lat="45.156" lon="5.94717">
        <ele>2201.1999511719</ele>
        <time>2012-03-31T11:15:37.000Z</time>
      </trkpt>
      <trkpt lat="45.15607" lon="5.94703">
        <ele>2196.1999511719</ele>
        <time>2012-03-31T11:15:40.000Z</time>
      </trkpt>
      <trkpt lat="45.15626" lon="5.94706">
        <ele>2190.1999511719</ele>
        <time>2012-03-31T11:15:43.000Z</time>
      </trkpt>
      <trkpt lat="45.15632" lon="5.94708">
        <ele>2188.6000976562</ele>
        <time>2012-03-31T11:15:44.000Z</time>
      </trkpt>
      <trkpt lat="45.15659" lon="5.9471">
        <ele>2186</ele>
        <time>2012-03-31T11:15:50.000Z</time>
      </trkpt>
      <trkpt lat="45.15682" lon="5.94713">
        <ele>2184.1999511719</ele>
        <time>2012-03-31T11:15:59.000Z</time>
      </trkpt>
      <trkpt lat="45.15695" lon="5.94715">
        <ele>2183.1999511719</ele>
        <time>2012-03-31T11:16:04.000Z</time>
      </trkpt>
      <trkpt lat="45.15711" lon="5.94714">
        <ele>2181.1999511719</ele>
        <time>2012-03-31T11:16:08.000Z</time>
      </trkpt>
      <trkpt lat="45.15742" lon="5.94705">
        <ele>2177.3999023438</ele>
        <time>2012-03-31T11:16:14.000Z</time>
      </trkpt>
      <trkpt lat="45.15772" lon="5.9469">
        <ele>2174</ele>
        <time>2012-03-31T11:16:20.000Z</time>
      </trkpt>
      <trkpt lat="45.15791" lon="5.9468">
        <ele>2172</ele>
        <time>2012-03-31T11:16:24.000Z</time>
      </trkpt>
      <trkpt lat="45.15817" lon="5.94666">
        <ele>2169.3999023438</ele>
        <time>2012-03-31T11:16:29.000Z</time>
      </trkpt>
      <trkpt lat="45.15848" lon="5.94653">
        <ele>2165.1999511719</ele>
        <time>2012-03-31T11:16:34.000Z</time>
      </trkpt>
      <trkpt lat="45.15874" lon="5.94647">
        <ele>2163.8000488281</ele>
        <time>2012-03-31T11:16:40.000Z</time>
      </trkpt>
      <trkpt lat="45.15893" lon="5.94646">
        <ele>2162.6000976562</ele>
        <time>2012-03-31T11:16:45.000Z</time>
      </trkpt>
      <trkpt lat="45.1592" lon="5.94649">
        <ele>2160</ele>
        <time>2012-03-31T11:16:52.000Z</time>
      </trkpt>
      <trkpt lat="45.15946" lon="5.94647">
        <ele>2157.6000976562</ele>
        <time>2012-03-31T11:16:57.000Z</time>
      </trkpt>
      <trkpt lat="45.15973" lon="5.94646">
        <ele>2154.8000488281</ele>
        <time>2012-03-31T11:17:01.000Z</time>
      </trkpt>
      <trkpt lat="45.15984" lon="5.94643">
        <ele>2153.8000488281</ele>
        <time>2012-03-31T11:17:03.000Z</time>
      </trkpt>
      <trkpt lat="45.15994" lon="5.94637">
        <ele>2152.8000488281</ele>
        <time>2012-03-31T11:17:05.000Z</time>
      </trkpt>
      <trkpt lat="45.16013" lon="5.94623">
        <ele>2151.6000976562</ele>
        <time>2012-03-31T11:17:11.000Z</time>
      </trkpt>
      <trkpt lat="45.16022" lon="5.94621">
        <ele>2151.6000976562</ele>
        <time>2012-03-31T11:17:16.000Z</time>
      </trkpt>
      <trkpt lat="45.1603" lon="5.94621">
        <ele>2151.1999511719</ele>
        <time>2012-03-31T11:17:22.000Z</time>
      </trkpt>
      <trkpt lat="45.16047" lon="5.94609">
        <ele>2149.1999511719</ele>
        <time>2012-03-31T11:17:27.000Z</time>
      </trkpt>
      <trkpt lat="45.1605" lon="5.94606">
        <ele>2149</ele>
        <time>2012-03-31T11:17:28.000Z</time>
      </trkpt>
      <trkpt lat="45.16073" lon="5.9459">
        <ele>2145.8000488281</ele>
        <time>2012-03-31T11:17:34.000Z</time>
      </trkpt>
      <trkpt lat="45.16095" lon="5.94577">
        <ele>2143</ele>
        <time>2012-03-31T11:17:38.000Z</time>
      </trkpt>
      <trkpt lat="45.16115" lon="5.94567">
        <ele>2139.6000976562</ele>
        <time>2012-03-31T11:17:41.000Z</time>
      </trkpt>
      <trkpt lat="45.16146" lon="5.94554">
        <ele>2136</ele>
        <time>2012-03-31T11:17:46.000Z</time>
      </trkpt>
      <trkpt lat="45.1615" lon="5.94551">
        <ele>2136.6000976562</ele>
        <time>2012-03-31T11:17:49.000Z</time>
      </trkpt>
      <trkpt lat="45.16153" lon="5.9455">
        <ele>2137.1999511719</ele>
        <time>2012-03-31T11:17:53.000Z</time>
      </trkpt>
      <trkpt lat="45.16155" lon="5.9455">
        <ele>2137</ele>
        <time>2012-03-31T11:18:21.000Z</time>
      </trkpt>
      <trkpt lat="45.1616" lon="5.94551">
        <ele>2134.1999511719</ele>
        <time>2012-03-31T11:20:18.000Z</time>
      </trkpt>
      <trkpt lat="45.16158" lon="5.94554">
        <ele>2134.3999023438</ele>
        <time>2012-03-31T11:20:24.000Z</time>
      </trkpt>
      <trkpt lat="45.16154" lon="5.94549">
        <ele>2134.8000488281</ele>
        <time>2012-03-31T11:20:50.000Z</time>
      </trkpt>
      <trkpt lat="45.16155" lon="5.94547">
        <ele>2134.8000488281</ele>
        <time>2012-03-31T11:20:55.000Z</time>
      </trkpt>
      <trkpt lat="45.16158" lon="5.94546">
        <ele>2134.3999023438</ele>
        <time>2012-03-31T11:22:14.000Z</time>
      </trkpt>
      <trkpt lat="45.16161" lon="5.94545">
        <ele>2134.8000488281</ele>
        <time>2012-03-31T11:22:20.000Z</time>
      </trkpt>
      <trkpt lat="45.16163" lon="5.94549">
        <ele>2135.3999023438</ele>
        <time>2012-03-31T11:22:29.000Z</time>
      </trkpt>
      <trkpt lat="45.16168" lon="5.9455">
        <ele>2136</ele>
        <time>2012-03-31T11:22:36.000Z</time>
      </trkpt>
      <trkpt lat="45.16175" lon="5.94551">
        <ele>2137.1999511719</ele>
        <time>2012-03-31T11:22:45.000Z</time>
      </trkpt>
      <trkpt lat="45.16183" lon="5.94553">
        <ele>2138.8000488281</ele>
        <time>2012-03-31T11:22:57.000Z</time>
      </trkpt>
      <trkpt lat="45.16182" lon="5.94555">
        <ele>2139</ele>
        <time>2012-03-31T11:23:00.000Z</time>
      </trkpt>
      <trkpt lat="45.16184" lon="5.94558">
        <ele>2139.6000976562</ele>
        <time>2012-03-31T11:23:07.000Z</time>
      </trkpt>
      <trkpt lat="45.16194" lon="5.94557">
        <ele>2140.3999023438</ele>
        <time>2012-03-31T11:23:16.000Z</time>
      </trkpt>
      <trkpt lat="45.16199" lon="5.94557">
        <ele>2141.3999023438</ele>
        <time>2012-03-31T11:23:24.000Z</time>
      </trkpt>
      <trkpt lat="45.16205" lon="5.94555">
        <ele>2142.6000976562</ele>
        <time>2012-03-31T11:23:33.000Z</time>
      </trkpt>
      <trkpt lat="45.16208" lon="5.94556">
        <ele>2143.1999511719</ele>
        <time>2012-03-31T11:23:40.000Z</time>
      </trkpt>
      <trkpt lat="45.16209" lon="5.94556">
        <ele>2143.6000976562</ele>
        <time>2012-03-31T11:23:45.000Z</time>
      </trkpt>
      <trkpt lat="45.16216" lon="5.94553">
        <ele>2144.8000488281</ele>
        <time>2012-03-31T11:23:57.000Z</time>
      </trkpt>
      <trkpt lat="45.16217" lon="5.94553">
        <ele>2145.1999511719</ele>
        <time>2012-03-31T11:24:02.000Z</time>
      </trkpt>
      <trkpt lat="45.1622" lon="5.94553">
        <ele>2145.6000976562</ele>
        <time>2012-03-31T11:24:07.000Z</time>
      </trkpt>
      <trkpt lat="45.16225" lon="5.94553">
        <ele>2146.6000976562</ele>
        <time>2012-03-31T11:24:13.000Z</time>
      </trkpt>
      <trkpt lat="45.16226" lon="5.94553">
        <ele>2147</ele>
        <time>2012-03-31T11:24:15.000Z</time>
      </trkpt>
      <trkpt lat="45.16232" lon="5.94553">
        <ele>2147.6000976562</ele>
        <time>2012-03-31T11:24:21.000Z</time>
      </trkpt>
      <trkpt lat="45.16233" lon="5.94552">
        <ele>2148</ele>
        <time>2012-03-31T11:24:24.000Z</time>
      </trkpt>
      <trkpt lat="45.16235" lon="5.94548">
        <ele>2148.6000976562</ele>
        <time>2012-03-31T11:24:29.000Z</time>
      </trkpt>
      <trkpt lat="45.16241" lon="5.94542">
        <ele>2150</ele>
        <time>2012-03-31T11:24:44.000Z</time>
      </trkpt>
      <trkpt lat="45.16243" lon="5.94541">
        <ele>2150.3999023438</ele>
        <time>2012-03-31T11:24:49.000Z</time>
      </trkpt>
      <trkpt lat="45.1625" lon="5.94541">
        <ele>2150.6000976562</ele>
        <time>2012-03-31T11:24:56.000Z</time>
      </trkpt>
      <trkpt lat="45.16256" lon="5.94543">
        <ele>2151.1999511719</ele>
        <time>2012-03-31T11:25:04.000Z</time>
      </trkpt>
      <trkpt lat="45.16258" lon="5.94543">
        <ele>2151.6000976562</ele>
        <time>2012-03-31T11:25:10.000Z</time>
      </trkpt>
      <trkpt lat="45.1626" lon="5.94542">
        <ele>2152.1999511719</ele>
        <time>2012-03-31T11:25:15.000Z</time>
      </trkpt>
      <trkpt lat="45.16261" lon="5.94543">
        <ele>2152.3999023438</ele>
        <time>2012-03-31T11:25:18.000Z</time>
      </trkpt>
      <trkpt lat="45.16266" lon="5.94546">
        <ele>2153.6000976562</ele>
        <time>2012-03-31T11:25:27.000Z</time>
      </trkpt>
      <trkpt lat="45.16272" lon="5.94546">
        <ele>2154.1999511719</ele>
        <time>2012-03-31T11:25:32.000Z</time>
      </trkpt>
      <trkpt lat="45.1628" lon="5.94546">
        <ele>2155.8000488281</ele>
        <time>2012-03-31T11:25:41.000Z</time>
      </trkpt>
      <trkpt lat="45.16282" lon="5.94549">
        <ele>2157.3999023438</ele>
        <time>2012-03-31T11:25:49.000Z</time>
      </trkpt>
      <trkpt lat="45.16287" lon="5.94549">
        <ele>2158</ele>
        <time>2012-03-31T11:25:54.000Z</time>
      </trkpt>
      <trkpt lat="45.16289" lon="5.9455">
        <ele>2158.8000488281</ele>
        <time>2012-03-31T11:26:00.000Z</time>
      </trkpt>
      <trkpt lat="45.16296" lon="5.94549">
        <ele>2161.8000488281</ele>
        <time>2012-03-31T11:26:16.000Z</time>
      </trkpt>
      <trkpt lat="45.163" lon="5.94549">
        <ele>2162.1999511719</ele>
        <time>2012-03-31T11:26:21.000Z</time>
      </trkpt>
      <trkpt lat="45.16301" lon="5.94549">
        <ele>2163</ele>
        <time>2012-03-31T11:26:27.000Z</time>
      </trkpt>
      <trkpt lat="45.16302" lon="5.94549">
        <ele>2164.6000976562</ele>
        <time>2012-03-31T11:26:34.000Z</time>
      </trkpt>
      <trkpt lat="45.16305" lon="5.94548">
        <ele>2165.6000976562</ele>
        <time>2012-03-31T11:26:39.000Z</time>
      </trkpt>
      <trkpt lat="45.16308" lon="5.94546">
        <ele>2166.6000976562</ele>
        <time>2012-03-31T11:26:45.000Z</time>
      </trkpt>
      <trkpt lat="45.16313" lon="5.94544">
        <ele>2167.6000976562</ele>
        <time>2012-03-31T11:26:50.000Z</time>
      </trkpt>
      <trkpt lat="45.16315" lon="5.94542">
        <ele>2168.3999023438</ele>
        <time>2012-03-31T11:26:55.000Z</time>
      </trkpt>
      <trkpt lat="45.16316" lon="5.9454">
        <ele>2169</ele>
        <time>2012-03-31T11:26:58.000Z</time>
      </trkpt>
      <trkpt lat="45.16316" lon="5.94539">
        <ele>2169.1999511719</ele>
        <time>2012-03-31T11:27:02.000Z</time>
      </trkpt>
      <trkpt lat="45.16328" lon="5.94541">
        <ele>2173.1999511719</ele>
        <time>2012-03-31T11:27:32.000Z</time>
      </trkpt>
      <trkpt lat="45.1633" lon="5.94542">
        <ele>2173.8000488281</ele>
        <time>2012-03-31T11:27:36.000Z</time>
      </trkpt>
      <trkpt lat="45.16329" lon="5.94543">
        <ele>2175</ele>
        <time>2012-03-31T11:27:42.000Z</time>
      </trkpt>
      <trkpt lat="45.1633" lon="5.94544">
        <ele>2176</ele>
        <time>2012-03-31T11:27:48.000Z</time>
      </trkpt>
      <trkpt lat="45.16331" lon="5.94543">
        <ele>2176.8000488281</ele>
        <time>2012-03-31T11:27:51.000Z</time>
      </trkpt>
      <trkpt lat="45.16344" lon="5.94535">
        <ele>2183</ele>
        <time>2012-03-31T11:28:30.000Z</time>
      </trkpt>
      <trkpt lat="45.16347" lon="5.94533">
        <ele>2183.8000488281</ele>
        <time>2012-03-31T11:28:36.000Z</time>
      </trkpt>
      <trkpt lat="45.16348" lon="5.94533">
        <ele>2184.1999511719</ele>
        <time>2012-03-31T11:28:38.000Z</time>
      </trkpt>
      <trkpt lat="45.16351" lon="5.94535">
        <ele>2184.1999511719</ele>
        <time>2012-03-31T11:28:51.000Z</time>
      </trkpt>
      <trkpt lat="45.16357" lon="5.94525">
        <ele>2186.1999511719</ele>
        <time>2012-03-31T11:33:37.000Z</time>
      </trkpt>
      <trkpt lat="45.1636" lon="5.94525">
        <ele>2186</ele>
        <time>2012-03-31T11:33:38.000Z</time>
      </trkpt>
      <trkpt lat="45.16365" lon="5.94507">
        <ele>2181.6000976562</ele>
        <time>2012-03-31T11:33:42.000Z</time>
      </trkpt>
      <trkpt lat="45.16369" lon="5.94498">
        <ele>2179.3999023438</ele>
        <time>2012-03-31T11:33:44.000Z</time>
      </trkpt>
      <trkpt lat="45.16386" lon="5.94468">
        <ele>2170.1999511719</ele>
        <time>2012-03-31T11:33:49.000Z</time>
      </trkpt>
      <trkpt lat="45.16392" lon="5.94454">
        <ele>2164.6000976562</ele>
        <time>2012-03-31T11:33:51.000Z</time>
      </trkpt>
      <trkpt lat="45.16392" lon="5.94428">
        <ele>2159</ele>
        <time>2012-03-31T11:33:54.000Z</time>
      </trkpt>
      <trkpt lat="45.16399" lon="5.94402">
        <ele>2153.6000976562</ele>
        <time>2012-03-31T11:33:57.000Z</time>
      </trkpt>
      <trkpt lat="45.16406" lon="5.94372">
        <ele>2145</ele>
        <time>2012-03-31T11:34:01.000Z</time>
      </trkpt>
      <trkpt lat="45.16407" lon="5.94356">
        <ele>2141.3999023438</ele>
        <time>2012-03-31T11:34:03.000Z</time>
      </trkpt>
      <trkpt lat="45.16407" lon="5.94306">
        <ele>2132.1999511719</ele>
        <time>2012-03-31T11:34:09.000Z</time>
      </trkpt>
      <trkpt lat="45.16409" lon="5.94272">
        <ele>2129</ele>
        <time>2012-03-31T11:34:13.000Z</time>
      </trkpt>
      <trkpt lat="45.16418" lon="5.94288">
        <ele>2126.6000976562</ele>
        <time>2012-03-31T11:34:16.000Z</time>
      </trkpt>
      <trkpt lat="45.16423" lon="5.943">
        <ele>2123.3999023438</ele>
        <time>2012-03-31T11:34:18.000Z</time>
      </trkpt>
      <trkpt lat="45.16443" lon="5.94305">
        <ele>2115.6000976562</ele>
        <time>2012-03-31T11:34:22.000Z</time>
      </trkpt>
      <trkpt lat="45.16467" lon="5.94281">
        <ele>2106.3999023438</ele>
        <time>2012-03-31T11:34:26.000Z</time>
      </trkpt>
      <trkpt lat="45.16474" lon="5.94259">
        <ele>2101.6000976562</ele>
        <time>2012-03-31T11:34:28.000Z</time>
      </trkpt>
      <trkpt lat="45.1648" lon="5.94222">
        <ele>2096.6000976562</ele>
        <time>2012-03-31T11:34:31.000Z</time>
      </trkpt>
      <trkpt lat="45.16481" lon="5.94183">
        <ele>2091</ele>
        <time>2012-03-31T11:34:34.000Z</time>
      </trkpt>
      <trkpt lat="45.1648" lon="5.94147">
        <ele>2089.6000976562</ele>
        <time>2012-03-31T11:34:38.000Z</time>
      </trkpt>
      <trkpt lat="45.16479" lon="5.94131">
        <ele>2091</ele>
        <time>2012-03-31T11:34:41.000Z</time>
      </trkpt>
      <trkpt lat="45.16479" lon="5.94128">
        <ele>2091.6000976562</ele>
        <time>2012-03-31T11:34:44.000Z</time>
      </trkpt>
      <trkpt lat="45.16474" lon="5.94141">
        <ele>2090.3999023438</ele>
        <time>2012-03-31T11:35:21.000Z</time>
      </trkpt>
      <trkpt lat="45.1647" lon="5.94144">
        <ele>2088.6000976562</ele>
        <time>2012-03-31T11:39:31.000Z</time>
      </trkpt>
      <trkpt lat="45.16469" lon="5.94139">
        <ele>2089.6000976562</ele>
        <time>2012-03-31T11:39:37.000Z</time>
      </trkpt>
      <trkpt lat="45.16467" lon="5.94128">
        <ele>2091</ele>
        <time>2012-03-31T11:39:46.000Z</time>
      </trkpt>
      <trkpt lat="45.16465" lon="5.94118">
        <ele>2092.6000976562</ele>
        <time>2012-03-31T11:39:55.000Z</time>
      </trkpt>
      <trkpt lat="45.16463" lon="5.94105">
        <ele>2093.8000488281</ele>
        <time>2012-03-31T11:40:05.000Z</time>
      </trkpt>
      <trkpt lat="45.16463" lon="5.94103">
        <ele>2093.8000488281</ele>
        <time>2012-03-31T11:40:06.000Z</time>
      </trkpt>
      <trkpt lat="45.16462" lon="5.94092">
        <ele>2094.8000488281</ele>
        <time>2012-03-31T11:40:16.000Z</time>
      </trkpt>
      <trkpt lat="45.16461" lon="5.94083">
        <ele>2095</ele>
        <time>2012-03-31T11:40:23.000Z</time>
      </trkpt>
      <trkpt lat="45.1646" lon="5.94072">
        <ele>2096</ele>
        <time>2012-03-31T11:40:31.000Z</time>
      </trkpt>
      <trkpt lat="45.16458" lon="5.94064">
        <ele>2097.3999023438</ele>
        <time>2012-03-31T11:40:39.000Z</time>
      </trkpt>
      <trkpt lat="45.16458" lon="5.94054">
        <ele>2098.1999511719</ele>
        <time>2012-03-31T11:40:47.000Z</time>
      </trkpt>
      <trkpt lat="45.16456" lon="5.94046">
        <ele>2098.8000488281</ele>
        <time>2012-03-31T11:40:54.000Z</time>
      </trkpt>
      <trkpt lat="45.16454" lon="5.94036">
        <ele>2099.1999511719</ele>
        <time>2012-03-31T11:41:02.000Z</time>
      </trkpt>
      <trkpt lat="45.16452" lon="5.94028">
        <ele>2100.1999511719</ele>
        <time>2012-03-31T11:41:08.000Z</time>
      </trkpt>
      <trkpt lat="45.16452" lon="5.94017">
        <ele>2102</ele>
        <time>2012-03-31T11:41:17.000Z</time>
      </trkpt>
      <trkpt lat="45.16453" lon="5.94008">
        <ele>2103.8000488281</ele>
        <time>2012-03-31T11:41:25.000Z</time>
      </trkpt>
      <trkpt lat="45.16451" lon="5.94">
        <ele>2105.1999511719</ele>
        <time>2012-03-31T11:41:33.000Z</time>
      </trkpt>
      <trkpt lat="45.16452" lon="5.93996">
        <ele>2106.1999511719</ele>
        <time>2012-03-31T11:41:38.000Z</time>
      </trkpt>
      <trkpt lat="45.1645" lon="5.93994">
        <ele>2106.8000488281</ele>
        <time>2012-03-31T11:41:41.000Z</time>
      </trkpt>
      <trkpt lat="45.16447" lon="5.93992">
        <ele>2107.8000488281</ele>
        <time>2012-03-31T11:41:46.000Z</time>
      </trkpt>
      <trkpt lat="45.16447" lon="5.93991">
        <ele>2108.1999511719</ele>
        <time>2012-03-31T11:41:47.000Z</time>
      </trkpt>
      <trkpt lat="45.16446" lon="5.93987">
        <ele>2108.3999023438</ele>
        <time>2012-03-31T11:41:52.000Z</time>
      </trkpt>
      <trkpt lat="45.16444" lon="5.93981">
        <ele>2109.3999023438</ele>
        <time>2012-03-31T11:41:59.000Z</time>
      </trkpt>
      <trkpt lat="45.16438" lon="5.93976">
        <ele>2110.8000488281</ele>
        <time>2012-03-31T11:42:05.000Z</time>
      </trkpt>
      <trkpt lat="45.16438" lon="5.93969">
        <ele>2112.8000488281</ele>
        <time>2012-03-31T11:42:14.000Z</time>
      </trkpt>
      <trkpt lat="45.16442" lon="5.93962">
        <ele>2114.1999511719</ele>
        <time>2012-03-31T11:42:22.000Z</time>
      </trkpt>
      <trkpt lat="45.16446" lon="5.93953">
        <ele>2115.8000488281</ele>
        <time>2012-03-31T11:42:30.000Z</time>
      </trkpt>
      <trkpt lat="45.16447" lon="5.93947">
        <ele>2117</ele>
        <time>2012-03-31T11:42:36.000Z</time>
      </trkpt>
      <trkpt lat="45.16447" lon="5.93941">
        <ele>2117.8000488281</ele>
        <time>2012-03-31T11:42:42.000Z</time>
      </trkpt>
      <trkpt lat="45.16447" lon="5.9394">
        <ele>2118.6000976562</ele>
        <time>2012-03-31T11:42:44.000Z</time>
      </trkpt>
      <trkpt lat="45.16447" lon="5.93935">
        <ele>2119.8000488281</ele>
        <time>2012-03-31T11:42:50.000Z</time>
      </trkpt>
      <trkpt lat="45.16448" lon="5.93931">
        <ele>2121.1999511719</ele>
        <time>2012-03-31T11:42:57.000Z</time>
      </trkpt>
      <trkpt lat="45.16446" lon="5.93928">
        <ele>2122.3999023438</ele>
        <time>2012-03-31T11:43:03.000Z</time>
      </trkpt>
      <trkpt lat="45.16442" lon="5.93925">
        <ele>2123.3999023438</ele>
        <time>2012-03-31T11:43:09.000Z</time>
      </trkpt>
      <trkpt lat="45.16439" lon="5.93922">
        <ele>2124.3999023438</ele>
        <time>2012-03-31T11:43:14.000Z</time>
      </trkpt>
      <trkpt lat="45.16438" lon="5.93922">
        <ele>2124.6000976562</ele>
        <time>2012-03-31T11:43:15.000Z</time>
      </trkpt>
      <trkpt lat="45.16435" lon="5.93914">
        <ele>2125.8000488281</ele>
        <time>2012-03-31T11:43:23.000Z</time>
      </trkpt>
      <trkpt lat="45.16434" lon="5.93909">
        <ele>2126.8000488281</ele>
        <time>2012-03-31T11:43:30.000Z</time>
      </trkpt>
      <trkpt lat="45.16435" lon="5.93904">
        <ele>2127.1999511719</ele>
        <time>2012-03-31T11:43:35.000Z</time>
      </trkpt>
      <trkpt lat="45.16439" lon="5.93899">
        <ele>2127.3999023438</ele>
        <time>2012-03-31T11:43:40.000Z</time>
      </trkpt>
      <trkpt lat="45.16439" lon="5.93892">
        <ele>2128</ele>
        <time>2012-03-31T11:43:47.000Z</time>
      </trkpt>
      <trkpt lat="45.16443" lon="5.9387">
        <ele>2130.1999511719</ele>
        <time>2012-03-31T11:44:07.000Z</time>
      </trkpt>
      <trkpt lat="45.16447" lon="5.9386">
        <ele>2131.6000976562</ele>
        <time>2012-03-31T11:44:16.000Z</time>
      </trkpt>
      <trkpt lat="45.16447" lon="5.93855">
        <ele>2132.1999511719</ele>
        <time>2012-03-31T11:44:21.000Z</time>
      </trkpt>
      <trkpt lat="45.16447" lon="5.93848">
        <ele>2133</ele>
        <time>2012-03-31T11:44:27.000Z</time>
      </trkpt>
      <trkpt lat="45.16448" lon="5.93838">
        <ele>2134</ele>
        <time>2012-03-31T11:44:36.000Z</time>
      </trkpt>
      <trkpt lat="45.16447" lon="5.93824">
        <ele>2136</ele>
        <time>2012-03-31T11:44:49.000Z</time>
      </trkpt>
      <trkpt lat="45.16449" lon="5.93816">
        <ele>2136.8000488281</ele>
        <time>2012-03-31T11:44:56.000Z</time>
      </trkpt>
      <trkpt lat="45.16449" lon="5.93805">
        <ele>2138.6000976562</ele>
        <time>2012-03-31T11:45:06.000Z</time>
      </trkpt>
      <trkpt lat="45.16452" lon="5.93802">
        <ele>2139.3999023438</ele>
        <time>2012-03-31T11:45:11.000Z</time>
      </trkpt>
      <trkpt lat="45.16453" lon="5.93797">
        <ele>2140.3999023438</ele>
        <time>2012-03-31T11:45:16.000Z</time>
      </trkpt>
      <trkpt lat="45.16453" lon="5.9379">
        <ele>2141.3999023438</ele>
        <time>2012-03-31T11:45:24.000Z</time>
      </trkpt>
      <trkpt lat="45.16453" lon="5.93789">
        <ele>2141.3999023438</ele>
        <time>2012-03-31T11:45:25.000Z</time>
      </trkpt>
      <trkpt lat="45.16456" lon="5.9378">
        <ele>2143</ele>
        <time>2012-03-31T11:45:35.000Z</time>
      </trkpt>
      <trkpt lat="45.16456" lon="5.93774">
        <ele>2143.8000488281</ele>
        <time>2012-03-31T11:45:41.000Z</time>
      </trkpt>
      <trkpt lat="45.16458" lon="5.93764">
        <ele>2145.1999511719</ele>
        <time>2012-03-31T11:45:50.000Z</time>
      </trkpt>
      <trkpt lat="45.16464" lon="5.93747">
        <ele>2147.6000976562</ele>
        <time>2012-03-31T11:46:06.000Z</time>
      </trkpt>
      <trkpt lat="45.16465" lon="5.93737">
        <ele>2149.1999511719</ele>
        <time>2012-03-31T11:46:16.000Z</time>
      </trkpt>
      <trkpt lat="45.16463" lon="5.93728">
        <ele>2150.1999511719</ele>
        <time>2012-03-31T11:46:24.000Z</time>
      </trkpt>
      <trkpt lat="45.16463" lon="5.93722">
        <ele>2150.8000488281</ele>
        <time>2012-03-31T11:46:29.000Z</time>
      </trkpt>
      <trkpt lat="45.16465" lon="5.93713">
        <ele>2151.8000488281</ele>
        <time>2012-03-31T11:46:37.000Z</time>
      </trkpt>
      <trkpt lat="45.16467" lon="5.93706">
        <ele>2152.8000488281</ele>
        <time>2012-03-31T11:46:44.000Z</time>
      </trkpt>
      <trkpt lat="45.16466" lon="5.93699">
        <ele>2153.6000976562</ele>
        <time>2012-03-31T11:46:51.000Z</time>
      </trkpt>
      <trkpt lat="45.1647" lon="5.93686">
        <ele>2156</ele>
        <time>2012-03-31T11:47:04.000Z</time>
      </trkpt>
      <trkpt lat="45.16471" lon="5.93681">
        <ele>2156.8000488281</ele>
        <time>2012-03-31T11:47:08.000Z</time>
      </trkpt>
      <trkpt lat="45.1647" lon="5.9368">
        <ele>2157</ele>
        <time>2012-03-31T11:47:10.000Z</time>
      </trkpt>
      <trkpt lat="45.16478" lon="5.93671">
        <ele>2158.8000488281</ele>
        <time>2012-03-31T11:47:20.000Z</time>
      </trkpt>
      <trkpt lat="45.16485" lon="5.93664">
        <ele>2159.8000488281</ele>
        <time>2012-03-31T11:47:26.000Z</time>
      </trkpt>
      <trkpt lat="45.16486" lon="5.93661">
        <ele>2160.1999511719</ele>
        <time>2012-03-31T11:47:31.000Z</time>
      </trkpt>
      <trkpt lat="45.16488" lon="5.93656">
        <ele>2161.1999511719</ele>
        <time>2012-03-31T11:47:36.000Z</time>
      </trkpt>
      <trkpt lat="45.1649" lon="5.9365">
        <ele>2161.8000488281</ele>
        <time>2012-03-31T11:47:42.000Z</time>
      </trkpt>
      <trkpt lat="45.1649" lon="5.93648">
        <ele>2162</ele>
        <time>2012-03-31T11:47:44.000Z</time>
      </trkpt>
      <trkpt lat="45.16497" lon="5.93636">
        <ele>2163.1999511719</ele>
        <time>2012-03-31T11:48:14.000Z</time>
      </trkpt>
      <trkpt lat="45.16504" lon="5.93624">
        <ele>2164.8000488281</ele>
        <time>2012-03-31T11:48:23.000Z</time>
      </trkpt>
      <trkpt lat="45.16506" lon="5.93616">
        <ele>2166.1999511719</ele>
        <time>2012-03-31T11:48:31.000Z</time>
      </trkpt>
      <trkpt lat="45.16504" lon="5.9361">
        <ele>2167.1999511719</ele>
        <time>2012-03-31T11:48:37.000Z</time>
      </trkpt>
      <trkpt lat="45.16505" lon="5.93605">
        <ele>2168.3999023438</ele>
        <time>2012-03-31T11:48:44.000Z</time>
      </trkpt>
      <trkpt lat="45.16506" lon="5.93597">
        <ele>2169.8000488281</ele>
        <time>2012-03-31T11:48:52.000Z</time>
      </trkpt>
      <trkpt lat="45.16507" lon="5.93595">
        <ele>2170</ele>
        <time>2012-03-31T11:48:54.000Z</time>
      </trkpt>
      <trkpt lat="45.16508" lon="5.93589">
        <ele>2171.3999023438</ele>
        <time>2012-03-31T11:49:01.000Z</time>
      </trkpt>
      <trkpt lat="45.16511" lon="5.93584">
        <ele>2172.1999511719</ele>
        <time>2012-03-31T11:49:07.000Z</time>
      </trkpt>
      <trkpt lat="45.16513" lon="5.93581">
        <ele>2173</ele>
        <time>2012-03-31T11:49:11.000Z</time>
      </trkpt>
      <trkpt lat="45.16515" lon="5.9358">
        <ele>2173.8000488281</ele>
        <time>2012-03-31T11:49:14.000Z</time>
      </trkpt>
      <trkpt lat="45.16523" lon="5.93577">
        <ele>2174.8000488281</ele>
        <time>2012-03-31T11:49:22.000Z</time>
      </trkpt>
      <trkpt lat="45.16525" lon="5.93577">
        <ele>2175.3999023438</ele>
        <time>2012-03-31T11:49:26.000Z</time>
      </trkpt>
      <trkpt lat="45.16532" lon="5.93575">
        <ele>2176.6000976562</ele>
        <time>2012-03-31T11:49:37.000Z</time>
      </trkpt>
      <trkpt lat="45.16533" lon="5.93575">
        <ele>2177</ele>
        <time>2012-03-31T11:49:38.000Z</time>
      </trkpt>
      <trkpt lat="45.16535" lon="5.93564">
        <ele>2179.1999511719</ele>
        <time>2012-03-31T11:49:56.000Z</time>
      </trkpt>
      <trkpt lat="45.16531" lon="5.9356">
        <ele>2180.3999023438</ele>
        <time>2012-03-31T11:50:01.000Z</time>
      </trkpt>
      <trkpt lat="45.16529" lon="5.93556">
        <ele>2181.3999023438</ele>
        <time>2012-03-31T11:50:07.000Z</time>
      </trkpt>
      <trkpt lat="45.16525" lon="5.93551">
        <ele>2182.3999023438</ele>
        <time>2012-03-31T11:50:12.000Z</time>
      </trkpt>
      <trkpt lat="45.16524" lon="5.93547">
        <ele>2183.1999511719</ele>
        <time>2012-03-31T11:50:16.000Z</time>
      </trkpt>
      <trkpt lat="45.16519" lon="5.93543">
        <ele>2184.3999023438</ele>
        <time>2012-03-31T11:50:27.000Z</time>
      </trkpt>
      <trkpt lat="45.16516" lon="5.9354">
        <ele>2185.8000488281</ele>
        <time>2012-03-31T11:50:35.000Z</time>
      </trkpt>
      <trkpt lat="45.16513" lon="5.93536">
        <ele>2187.1999511719</ele>
        <time>2012-03-31T11:50:41.000Z</time>
      </trkpt>
      <trkpt lat="45.1651" lon="5.93532">
        <ele>2188.3999023438</ele>
        <time>2012-03-31T11:50:47.000Z</time>
      </trkpt>
      <trkpt lat="45.16511" lon="5.93528">
        <ele>2189.6000976562</ele>
        <time>2012-03-31T11:50:52.000Z</time>
      </trkpt>
      <trkpt lat="45.1651" lon="5.93525">
        <ele>2190.6000976562</ele>
        <time>2012-03-31T11:50:57.000Z</time>
      </trkpt>
      <trkpt lat="45.1651" lon="5.93525">
        <ele>2190.8000488281</ele>
        <time>2012-03-31T11:50:58.000Z</time>
      </trkpt>
      <trkpt lat="45.16509" lon="5.9352">
        <ele>2192.3999023438</ele>
        <time>2012-03-31T11:51:06.000Z</time>
      </trkpt>
      <trkpt lat="45.16507" lon="5.93516">
        <ele>2193.8000488281</ele>
        <time>2012-03-31T11:51:13.000Z</time>
      </trkpt>
      <trkpt lat="45.16502" lon="5.93509">
        <ele>2195.6000976562</ele>
        <time>2012-03-31T11:51:23.000Z</time>
      </trkpt>
      <trkpt lat="45.16502" lon="5.93509">
        <ele>2195.6000976562</ele>
        <time>2012-03-31T11:51:24.000Z</time>
      </trkpt>
      <trkpt lat="45.16501" lon="5.93509">
        <ele>2196.1999511719</ele>
        <time>2012-03-31T11:51:28.000Z</time>
      </trkpt>
      <trkpt lat="45.16498" lon="5.93504">
        <ele>2197.1999511719</ele>
        <time>2012-03-31T11:51:37.000Z</time>
      </trkpt>
      <trkpt lat="45.16497" lon="5.935">
        <ele>2198.3999023438</ele>
        <time>2012-03-31T11:51:47.000Z</time>
      </trkpt>
      <trkpt lat="45.16496" lon="5.93501">
        <ele>2198.3999023438</ele>
        <time>2012-03-31T11:51:48.000Z</time>
      </trkpt>
      <trkpt lat="45.16496" lon="5.935">
        <ele>2198.6000976562</ele>
        <time>2012-03-31T11:51:49.000Z</time>
      </trkpt>
      <trkpt lat="45.16494" lon="5.93494">
        <ele>2199.6000976562</ele>
        <time>2012-03-31T11:51:57.000Z</time>
      </trkpt>
      <trkpt lat="45.16493" lon="5.93495">
        <ele>2200.8000488281</ele>
        <time>2012-03-31T11:52:02.000Z</time>
      </trkpt>
      <trkpt lat="45.1649" lon="5.935">
        <ele>2202.1999511719</ele>
        <time>2012-03-31T11:52:10.000Z</time>
      </trkpt>
      <trkpt lat="45.16488" lon="5.93503">
        <ele>2203.1999511719</ele>
        <time>2012-03-31T11:52:16.000Z</time>
      </trkpt>
      <trkpt lat="45.16487" lon="5.93506">
        <ele>2204.1999511719</ele>
        <time>2012-03-31T11:52:20.000Z</time>
      </trkpt>
      <trkpt lat="45.16485" lon="5.9351">
        <ele>2205</ele>
        <time>2012-03-31T11:52:25.000Z</time>
      </trkpt>
      <trkpt lat="45.16481" lon="5.93515">
        <ele>2206.6000976562</ele>
        <time>2012-03-31T11:52:33.000Z</time>
      </trkpt>
      <trkpt lat="45.16481" lon="5.93515">
        <ele>2207</ele>
        <time>2012-03-31T11:52:34.000Z</time>
      </trkpt>
      <trkpt lat="45.16477" lon="5.93518">
        <ele>2208.3999023438</ele>
        <time>2012-03-31T11:52:41.000Z</time>
      </trkpt>
      <trkpt lat="45.16475" lon="5.93521">
        <ele>2209.1999511719</ele>
        <time>2012-03-31T11:52:46.000Z</time>
      </trkpt>
      <trkpt lat="45.16474" lon="5.93522">
        <ele>2209.6000976562</ele>
        <time>2012-03-31T11:52:48.000Z</time>
      </trkpt>
      <trkpt lat="45.16469" lon="5.93517">
        <ele>2210.8000488281</ele>
        <time>2012-03-31T11:53:00.000Z</time>
      </trkpt>
      <trkpt lat="45.16469" lon="5.93507">
        <ele>2212.1999511719</ele>
        <time>2012-03-31T11:53:09.000Z</time>
      </trkpt>
      <trkpt lat="45.16468" lon="5.93495">
        <ele>2213.8000488281</ele>
        <time>2012-03-31T11:53:19.000Z</time>
      </trkpt>
      <trkpt lat="45.16468" lon="5.93485">
        <ele>2215</ele>
        <time>2012-03-31T11:53:29.000Z</time>
      </trkpt>
      <trkpt lat="45.16469" lon="5.93477">
        <ele>2216.8000488281</ele>
        <time>2012-03-31T11:53:36.000Z</time>
      </trkpt>
      <trkpt lat="45.16471" lon="5.93467">
        <ele>2218.6000976562</ele>
        <time>2012-03-31T11:53:46.000Z</time>
      </trkpt>
      <trkpt lat="45.16472" lon="5.93455">
        <ele>2220.1999511719</ele>
        <time>2012-03-31T11:53:56.000Z</time>
      </trkpt>
      <trkpt lat="45.16471" lon="5.93442">
        <ele>2222.1999511719</ele>
        <time>2012-03-31T11:54:06.000Z</time>
      </trkpt>
      <trkpt lat="45.1647" lon="5.93433">
        <ele>2224</ele>
        <time>2012-03-31T11:54:15.000Z</time>
      </trkpt>
      <trkpt lat="45.16468" lon="5.93422">
        <ele>2225.8000488281</ele>
        <time>2012-03-31T11:54:24.000Z</time>
      </trkpt>
      <trkpt lat="45.16469" lon="5.93412">
        <ele>2228.1999511719</ele>
        <time>2012-03-31T11:54:34.000Z</time>
      </trkpt>
      <trkpt lat="45.16469" lon="5.93405">
        <ele>2229.6000976562</ele>
        <time>2012-03-31T11:54:41.000Z</time>
      </trkpt>
      <trkpt lat="45.16466" lon="5.93396">
        <ele>2230</ele>
        <time>2012-03-31T11:54:51.000Z</time>
      </trkpt>
      <trkpt lat="45.16461" lon="5.93388">
        <ele>2231.3999023438</ele>
        <time>2012-03-31T11:55:00.000Z</time>
      </trkpt>
      <trkpt lat="45.16457" lon="5.9338">
        <ele>2231.8000488281</ele>
        <time>2012-03-31T11:55:09.000Z</time>
      </trkpt>
      <trkpt lat="45.16451" lon="5.93371">
        <ele>2232.8000488281</ele>
        <time>2012-03-31T11:55:19.000Z</time>
      </trkpt>
      <trkpt lat="45.16447" lon="5.93366">
        <ele>2234.1999511719</ele>
        <time>2012-03-31T11:55:26.000Z</time>
      </trkpt>
      <trkpt lat="45.16443" lon="5.9336">
        <ele>2236</ele>
        <time>2012-03-31T11:55:34.000Z</time>
      </trkpt>
      <trkpt lat="45.16438" lon="5.93354">
        <ele>2237.3999023438</ele>
        <time>2012-03-31T11:55:43.000Z</time>
      </trkpt>
      <trkpt lat="45.16433" lon="5.9335">
        <ele>2238.6000976562</ele>
        <time>2012-03-31T11:55:51.000Z</time>
      </trkpt>
      <trkpt lat="45.16429" lon="5.93345">
        <ele>2240.1999511719</ele>
        <time>2012-03-31T11:55:59.000Z</time>
      </trkpt>
      <trkpt lat="45.16426" lon="5.93341">
        <ele>2241.6000976562</ele>
        <time>2012-03-31T11:56:06.000Z</time>
      </trkpt>
      <trkpt lat="45.16421" lon="5.93334">
        <ele>2242.3999023438</ele>
        <time>2012-03-31T11:56:15.000Z</time>
      </trkpt>
      <trkpt lat="45.16416" lon="5.93326">
        <ele>2244.1999511719</ele>
        <time>2012-03-31T11:56:25.000Z</time>
      </trkpt>
      <trkpt lat="45.16412" lon="5.93319">
        <ele>2245.1999511719</ele>
        <time>2012-03-31T11:56:34.000Z</time>
      </trkpt>
      <trkpt lat="45.16407" lon="5.93311">
        <ele>2246.1999511719</ele>
        <time>2012-03-31T11:56:42.000Z</time>
      </trkpt>
      <trkpt lat="45.16402" lon="5.93305">
        <ele>2247.6000976562</ele>
        <time>2012-03-31T11:56:51.000Z</time>
      </trkpt>
      <trkpt lat="45.16397" lon="5.93296">
        <ele>2249</ele>
        <time>2012-03-31T11:57:00.000Z</time>
      </trkpt>
      <trkpt lat="45.16395" lon="5.93293">
        <ele>2249.8000488281</ele>
        <time>2012-03-31T11:57:05.000Z</time>
      </trkpt>
      <trkpt lat="45.16392" lon="5.93289">
        <ele>2251.6000976562</ele>
        <time>2012-03-31T11:57:12.000Z</time>
      </trkpt>
      <trkpt lat="45.16391" lon="5.93278">
        <ele>2253.3999023438</ele>
        <time>2012-03-31T11:57:26.000Z</time>
      </trkpt>
      <trkpt lat="45.16394" lon="5.93272">
        <ele>2254.6000976562</ele>
        <time>2012-03-31T11:57:35.000Z</time>
      </trkpt>
      <trkpt lat="45.16399" lon="5.93265">
        <ele>2256.1999511719</ele>
        <time>2012-03-31T11:57:45.000Z</time>
      </trkpt>
      <trkpt lat="45.164" lon="5.93262">
        <ele>2257</ele>
        <time>2012-03-31T11:57:49.000Z</time>
      </trkpt>
      <trkpt lat="45.16397" lon="5.93258">
        <ele>2258.6000976562</ele>
        <time>2012-03-31T11:58:05.000Z</time>
      </trkpt>
      <trkpt lat="45.16392" lon="5.93259">
        <ele>2260.3999023438</ele>
        <time>2012-03-31T11:58:14.000Z</time>
      </trkpt>
      <trkpt lat="45.16388" lon="5.93261">
        <ele>2262</ele>
        <time>2012-03-31T11:58:21.000Z</time>
      </trkpt>
      <trkpt lat="45.16388" lon="5.93261">
        <ele>2262.3999023438</ele>
        <time>2012-03-31T11:58:22.000Z</time>
      </trkpt>
      <trkpt lat="45.16391" lon="5.93252">
        <ele>2262.8000488281</ele>
        <time>2012-03-31T11:58:34.000Z</time>
      </trkpt>
      <trkpt lat="45.16392" lon="5.93248">
        <ele>2263.8000488281</ele>
        <time>2012-03-31T11:58:39.000Z</time>
      </trkpt>
      <trkpt lat="45.16396" lon="5.93244">
        <ele>2265.1999511719</ele>
        <time>2012-03-31T11:58:46.000Z</time>
      </trkpt>
      <trkpt lat="45.16399" lon="5.93243">
        <ele>2266</ele>
        <time>2012-03-31T11:58:50.000Z</time>
      </trkpt>
      <trkpt lat="45.16403" lon="5.93238">
        <ele>2267.3999023438</ele>
        <time>2012-03-31T11:58:57.000Z</time>
      </trkpt>
      <trkpt lat="45.16404" lon="5.93234">
        <ele>2268.6000976562</ele>
        <time>2012-03-31T11:59:04.000Z</time>
      </trkpt>
      <trkpt lat="45.16406" lon="5.93231">
        <ele>2269.8000488281</ele>
        <time>2012-03-31T11:59:10.000Z</time>
      </trkpt>
      <trkpt lat="45.16408" lon="5.93229">
        <ele>2270.6000976562</ele>
        <time>2012-03-31T11:59:15.000Z</time>
      </trkpt>
      <trkpt lat="45.16411" lon="5.93226">
        <ele>2272</ele>
        <time>2012-03-31T11:59:21.000Z</time>
      </trkpt>
      <trkpt lat="45.16414" lon="5.93223">
        <ele>2272.8000488281</ele>
        <time>2012-03-31T11:59:26.000Z</time>
      </trkpt>
      <trkpt lat="45.16415" lon="5.93221">
        <ele>2273.6000976562</ele>
        <time>2012-03-31T11:59:31.000Z</time>
      </trkpt>
      <trkpt lat="45.16418" lon="5.93219">
        <ele>2274.6000976562</ele>
        <time>2012-03-31T11:59:37.000Z</time>
      </trkpt>
      <trkpt lat="45.16421" lon="5.93216">
        <ele>2275.8000488281</ele>
        <time>2012-03-31T11:59:45.000Z</time>
      </trkpt>
      <trkpt lat="45.16426" lon="5.9321">
        <ele>2277.3999023438</ele>
        <time>2012-03-31T11:59:54.000Z</time>
      </trkpt>
      <trkpt lat="45.16426" lon="5.93209">
        <ele>2277.8000488281</ele>
        <time>2012-03-31T11:59:56.000Z</time>
      </trkpt>
      <trkpt lat="45.16424" lon="5.93208">
        <ele>2279</ele>
        <time>2012-03-31T12:00:04.000Z</time>
      </trkpt>
      <trkpt lat="45.1642" lon="5.93207">
        <ele>2280.6000976562</ele>
        <time>2012-03-31T12:00:12.000Z</time>
      </trkpt>
      <trkpt lat="45.16416" lon="5.93207">
        <ele>2282</ele>
        <time>2012-03-31T12:00:21.000Z</time>
      </trkpt>
      <trkpt lat="45.16412" lon="5.93206">
        <ele>2283</ele>
        <time>2012-03-31T12:00:28.000Z</time>
      </trkpt>
      <trkpt lat="45.1641" lon="5.93205">
        <ele>2283.8000488281</ele>
        <time>2012-03-31T12:00:31.000Z</time>
      </trkpt>
      <trkpt lat="45.16408" lon="5.93204">
        <ele>2284.1999511719</ele>
        <time>2012-03-31T12:00:36.000Z</time>
      </trkpt>
      <trkpt lat="45.16407" lon="5.93201">
        <ele>2285</ele>
        <time>2012-03-31T12:00:47.000Z</time>
      </trkpt>
      <trkpt lat="45.16411" lon="5.93197">
        <ele>2286.3999023438</ele>
        <time>2012-03-31T12:00:55.000Z</time>
      </trkpt>
      <trkpt lat="45.16413" lon="5.93195">
        <ele>2287.8000488281</ele>
        <time>2012-03-31T12:01:01.000Z</time>
      </trkpt>
      <trkpt lat="45.16417" lon="5.93191">
        <ele>2289</ele>
        <time>2012-03-31T12:01:07.000Z</time>
      </trkpt>
      <trkpt lat="45.16419" lon="5.93188">
        <ele>2289.8000488281</ele>
        <time>2012-03-31T12:01:12.000Z</time>
      </trkpt>
      <trkpt lat="45.16424" lon="5.93186">
        <ele>2290.8000488281</ele>
        <time>2012-03-31T12:01:18.000Z</time>
      </trkpt>
      <trkpt lat="45.16424" lon="5.93185">
        <ele>2291.1999511719</ele>
        <time>2012-03-31T12:01:20.000Z</time>
      </trkpt>
      <trkpt lat="45.16422" lon="5.93185">
        <ele>2292</ele>
        <time>2012-03-31T12:01:25.000Z</time>
      </trkpt>
      <trkpt lat="45.16419" lon="5.93186">
        <ele>2292.8000488281</ele>
        <time>2012-03-31T12:01:30.000Z</time>
      </trkpt>
      <trkpt lat="45.16413" lon="5.93184">
        <ele>2294.8000488281</ele>
        <time>2012-03-31T12:01:41.000Z</time>
      </trkpt>
      <trkpt lat="45.1641" lon="5.93184">
        <ele>2295.8000488281</ele>
        <time>2012-03-31T12:01:47.000Z</time>
      </trkpt>
      <trkpt lat="45.16409" lon="5.93184">
        <ele>2296</ele>
        <time>2012-03-31T12:01:48.000Z</time>
      </trkpt>
      <trkpt lat="45.16408" lon="5.93183">
        <ele>2298</ele>
        <time>2012-03-31T12:02:04.000Z</time>
      </trkpt>
      <trkpt lat="45.16411" lon="5.93177">
        <ele>2299.6000976562</ele>
        <time>2012-03-31T12:02:13.000Z</time>
      </trkpt>
      <trkpt lat="45.16413" lon="5.93174">
        <ele>2300.8000488281</ele>
        <time>2012-03-31T12:02:19.000Z</time>
      </trkpt>
      <trkpt lat="45.16415" lon="5.93172">
        <ele>2302</ele>
        <time>2012-03-31T12:02:25.000Z</time>
      </trkpt>
      <trkpt lat="45.1641" lon="5.93171">
        <ele>2303.1999511719</ele>
        <time>2012-03-31T12:02:36.000Z</time>
      </trkpt>
      <trkpt lat="45.16407" lon="5.93172">
        <ele>2303.8000488281</ele>
        <time>2012-03-31T12:02:40.000Z</time>
      </trkpt>
      <trkpt lat="45.16407" lon="5.93173">
        <ele>2304.1999511719</ele>
        <time>2012-03-31T12:02:41.000Z</time>
      </trkpt>
      <trkpt lat="45.16402" lon="5.93176">
        <ele>2305.1999511719</ele>
        <time>2012-03-31T12:02:49.000Z</time>
      </trkpt>
      <trkpt lat="45.16399" lon="5.93177">
        <ele>2306.3999023438</ele>
        <time>2012-03-31T12:02:54.000Z</time>
      </trkpt>
      <trkpt lat="45.16401" lon="5.93173">
        <ele>2307.3999023438</ele>
        <time>2012-03-31T12:03:05.000Z</time>
      </trkpt>
      <trkpt lat="45.16402" lon="5.93169">
        <ele>2308.1999511719</ele>
        <time>2012-03-31T12:03:10.000Z</time>
      </trkpt>
      <trkpt lat="45.16405" lon="5.93164">
        <ele>2310.1999511719</ele>
        <time>2012-03-31T12:03:17.000Z</time>
      </trkpt>
      <trkpt lat="45.16409" lon="5.9316">
        <ele>2311.3999023438</ele>
        <time>2012-03-31T12:03:24.000Z</time>
      </trkpt>
      <trkpt lat="45.1641" lon="5.9316">
        <ele>2311.6000976562</ele>
        <time>2012-03-31T12:03:25.000Z</time>
      </trkpt>
      <trkpt lat="45.16407" lon="5.93158">
        <ele>2312.8000488281</ele>
        <time>2012-03-31T12:03:36.000Z</time>
      </trkpt>
      <trkpt lat="45.16405" lon="5.93158">
        <ele>2313.3999023438</ele>
        <time>2012-03-31T12:03:38.000Z</time>
      </trkpt>
      <trkpt lat="45.16403" lon="5.9315">
        <ele>2318.8000488281</ele>
        <time>2012-03-31T12:04:22.000Z</time>
      </trkpt>
      <trkpt lat="45.16401" lon="5.93146">
        <ele>2322.1999511719</ele>
        <time>2012-03-31T12:04:44.000Z</time>
      </trkpt>
      <trkpt lat="45.16399" lon="5.93147">
        <ele>2322.8000488281</ele>
        <time>2012-03-31T12:04:47.000Z</time>
      </trkpt>
      <trkpt lat="45.16397" lon="5.93147">
        <ele>2323.6000976562</ele>
        <time>2012-03-31T12:04:51.000Z</time>
      </trkpt>
      <trkpt lat="45.16399" lon="5.93145">
        <ele>2323.8000488281</ele>
        <time>2012-03-31T12:05:02.000Z</time>
      </trkpt>
      <trkpt lat="45.16404" lon="5.9314">
        <ele>2325.8000488281</ele>
        <time>2012-03-31T12:05:12.000Z</time>
      </trkpt>
      <trkpt lat="45.16407" lon="5.93138">
        <ele>2326.8000488281</ele>
        <time>2012-03-31T12:05:19.000Z</time>
      </trkpt>
      <trkpt lat="45.1641" lon="5.93134">
        <ele>2327.6000976562</ele>
        <time>2012-03-31T12:05:26.000Z</time>
      </trkpt>
      <trkpt lat="45.1641" lon="5.93129">
        <ele>2329.1999511719</ele>
        <time>2012-03-31T12:05:32.000Z</time>
      </trkpt>
      <trkpt lat="45.16411" lon="5.9312">
        <ele>2330.8000488281</ele>
        <time>2012-03-31T12:05:41.000Z</time>
      </trkpt>
      <trkpt lat="45.16413" lon="5.93114">
        <ele>2331.8000488281</ele>
        <time>2012-03-31T12:05:49.000Z</time>
      </trkpt>
      <trkpt lat="45.16414" lon="5.9311">
        <ele>2332.6000976562</ele>
        <time>2012-03-31T12:05:53.000Z</time>
      </trkpt>
      <trkpt lat="45.16417" lon="5.93104">
        <ele>2334.1999511719</ele>
        <time>2012-03-31T12:06:01.000Z</time>
      </trkpt>
      <trkpt lat="45.16419" lon="5.93097">
        <ele>2336</ele>
        <time>2012-03-31T12:06:10.000Z</time>
      </trkpt>
      <trkpt lat="45.16421" lon="5.93093">
        <ele>2337.6000976562</ele>
        <time>2012-03-31T12:06:15.000Z</time>
      </trkpt>
      <trkpt lat="45.16421" lon="5.93092">
        <ele>2337.8000488281</ele>
        <time>2012-03-31T12:06:16.000Z</time>
      </trkpt>
      <trkpt lat="45.16423" lon="5.93087">
        <ele>2338.6000976562</ele>
        <time>2012-03-31T12:06:23.000Z</time>
      </trkpt>
      <trkpt lat="45.16423" lon="5.93079">
        <ele>2339.6000976562</ele>
        <time>2012-03-31T12:06:33.000Z</time>
      </trkpt>
      <trkpt lat="45.16424" lon="5.9307">
        <ele>2341.1999511719</ele>
        <time>2012-03-31T12:06:43.000Z</time>
      </trkpt>
      <trkpt lat="45.16426" lon="5.93062">
        <ele>2341.8000488281</ele>
        <time>2012-03-31T12:06:52.000Z</time>
      </trkpt>
      <trkpt lat="45.16428" lon="5.93055">
        <ele>2343</ele>
        <time>2012-03-31T12:06:59.000Z</time>
      </trkpt>
      <trkpt lat="45.16431" lon="5.93048">
        <ele>2343.1999511719</ele>
        <time>2012-03-31T12:07:07.000Z</time>
      </trkpt>
      <trkpt lat="45.16435" lon="5.93042">
        <ele>2345.6000976562</ele>
        <time>2012-03-31T12:07:16.000Z</time>
      </trkpt>
      <trkpt lat="45.16436" lon="5.9304">
        <ele>2347</ele>
        <time>2012-03-31T12:07:21.000Z</time>
      </trkpt>
      <trkpt lat="45.16438" lon="5.93038">
        <ele>2347.8000488281</ele>
        <time>2012-03-31T12:07:25.000Z</time>
      </trkpt>
      <trkpt lat="45.16444" lon="5.93036">
        <ele>2349.3999023438</ele>
        <time>2012-03-31T12:07:34.000Z</time>
      </trkpt>
      <trkpt lat="45.16446" lon="5.93033">
        <ele>2350.6000976562</ele>
        <time>2012-03-31T12:07:39.000Z</time>
      </trkpt>
      <trkpt lat="45.16446" lon="5.93032">
        <ele>2350.8000488281</ele>
        <time>2012-03-31T12:07:40.000Z</time>
      </trkpt>
      <trkpt lat="45.16448" lon="5.93025">
        <ele>2353.3999023438</ele>
        <time>2012-03-31T12:07:52.000Z</time>
      </trkpt>
      <trkpt lat="45.16444" lon="5.93023">
        <ele>2355.1999511719</ele>
        <time>2012-03-31T12:08:00.000Z</time>
      </trkpt>
      <trkpt lat="45.16436" lon="5.9302">
        <ele>2357</ele>
        <time>2012-03-31T12:08:12.000Z</time>
      </trkpt>
      <trkpt lat="45.16433" lon="5.93018">
        <ele>2359.1999511719</ele>
        <time>2012-03-31T12:08:19.000Z</time>
      </trkpt>
      <trkpt lat="45.1643" lon="5.93017">
        <ele>2360.1999511719</ele>
        <time>2012-03-31T12:08:24.000Z</time>
      </trkpt>
      <trkpt lat="45.16426" lon="5.93014">
        <ele>2362.1999511719</ele>
        <time>2012-03-31T12:08:34.000Z</time>
      </trkpt>
      <trkpt lat="45.16427" lon="5.9301">
        <ele>2362</ele>
        <time>2012-03-31T12:08:40.000Z</time>
      </trkpt>
      <trkpt lat="45.1643" lon="5.93004">
        <ele>2363.8000488281</ele>
        <time>2012-03-31T12:08:48.000Z</time>
      </trkpt>
      <trkpt lat="45.1643" lon="5.93003">
        <ele>2364.1999511719</ele>
        <time>2012-03-31T12:08:49.000Z</time>
      </trkpt>
      <trkpt lat="45.16432" lon="5.92998">
        <ele>2365.6000976562</ele>
        <time>2012-03-31T12:08:56.000Z</time>
      </trkpt>
      <trkpt lat="45.16436" lon="5.92991">
        <ele>2367.3999023438</ele>
        <time>2012-03-31T12:09:08.000Z</time>
      </trkpt>
      <trkpt lat="45.16438" lon="5.92991">
        <ele>2367.8000488281</ele>
        <time>2012-03-31T12:09:11.000Z</time>
      </trkpt>
      <trkpt lat="45.16442" lon="5.92988">
        <ele>2370.1999511719</ele>
        <time>2012-03-31T12:09:20.000Z</time>
      </trkpt>
      <trkpt lat="45.16441" lon="5.92986">
        <ele>2371.3999023438</ele>
        <time>2012-03-31T12:09:23.000Z</time>
      </trkpt>
      <trkpt lat="45.16438" lon="5.92982">
        <ele>2372.6000976562</ele>
        <time>2012-03-31T12:09:32.000Z</time>
      </trkpt>
      <trkpt lat="45.16436" lon="5.92974">
        <ele>2374.1999511719</ele>
        <time>2012-03-31T12:09:42.000Z</time>
      </trkpt>
      <trkpt lat="45.16442" lon="5.92967">
        <ele>2376.1999511719</ele>
        <time>2012-03-31T12:09:55.000Z</time>
      </trkpt>
      <trkpt lat="45.16446" lon="5.9296">
        <ele>2378.3999023438</ele>
        <time>2012-03-31T12:10:04.000Z</time>
      </trkpt>
      <trkpt lat="45.16448" lon="5.92951">
        <ele>2380.3999023438</ele>
        <time>2012-03-31T12:10:14.000Z</time>
      </trkpt>
      <trkpt lat="45.16449" lon="5.92943">
        <ele>2382.1999511719</ele>
        <time>2012-03-31T12:10:24.000Z</time>
      </trkpt>
      <trkpt lat="45.16449" lon="5.92939">
        <ele>2383.3999023438</ele>
        <time>2012-03-31T12:10:30.000Z</time>
      </trkpt>
      <trkpt lat="45.16449" lon="5.92934">
        <ele>2385</ele>
        <time>2012-03-31T12:10:37.000Z</time>
      </trkpt>
      <trkpt lat="45.1645" lon="5.92927">
        <ele>2386.6000976562</ele>
        <time>2012-03-31T12:10:46.000Z</time>
      </trkpt>
      <trkpt lat="45.16454" lon="5.92933">
        <ele>2387.8000488281</ele>
        <time>2012-03-31T12:10:57.000Z</time>
      </trkpt>
      <trkpt lat="45.16456" lon="5.92935">
        <ele>2388.3999023438</ele>
        <time>2012-03-31T12:10:59.000Z</time>
      </trkpt>
      <trkpt lat="45.16462" lon="5.9294">
        <ele>2389.6000976562</ele>
        <time>2012-03-31T12:11:08.000Z</time>
      </trkpt>
      <trkpt lat="45.16463" lon="5.9294">
        <ele>2390.6000976562</ele>
        <time>2012-03-31T12:11:10.000Z</time>
      </trkpt>
      <trkpt lat="45.16463" lon="5.92938">
        <ele>2391.3999023438</ele>
        <time>2012-03-31T12:11:13.000Z</time>
      </trkpt>
      <trkpt lat="45.16463" lon="5.92929">
        <ele>2393.1999511719</ele>
        <time>2012-03-31T12:11:21.000Z</time>
      </trkpt>
      <trkpt lat="45.16463" lon="5.92919">
        <ele>2395.3999023438</ele>
        <time>2012-03-31T12:11:30.000Z</time>
      </trkpt>
      <trkpt lat="45.16461" lon="5.92909">
        <ele>2395.3999023438</ele>
        <time>2012-03-31T12:11:40.000Z</time>
      </trkpt>
      <trkpt lat="45.16461" lon="5.92901">
        <ele>2397</ele>
        <time>2012-03-31T12:11:49.000Z</time>
      </trkpt>
      <trkpt lat="45.16459" lon="5.92896">
        <ele>2397</ele>
        <time>2012-03-31T12:11:56.000Z</time>
      </trkpt>
      <trkpt lat="45.16458" lon="5.92893">
        <ele>2396</ele>
        <time>2012-03-31T12:12:00.000Z</time>
      </trkpt>
      <trkpt lat="45.16458" lon="5.92893">
        <ele>2395.8000488281</ele>
        <time>2012-03-31T12:12:01.000Z</time>
      </trkpt>
      <trkpt lat="45.16458" lon="5.92892">
        <ele>2396.1999511719</ele>
        <time>2012-03-31T12:12:21.000Z</time>
      </trkpt>
      <trkpt lat="45.16454" lon="5.92889">
        <ele>2395.8000488281</ele>
        <time>2012-03-31T12:12:30.000Z</time>
      </trkpt>
      <trkpt lat="45.16451" lon="5.9288">
        <ele>2395.6000976562</ele>
        <time>2012-03-31T12:12:36.000Z</time>
      </trkpt>
      <trkpt lat="45.16449" lon="5.92869">
        <ele>2397.6000976562</ele>
        <time>2012-03-31T12:12:44.000Z</time>
      </trkpt>
      <trkpt lat="45.16448" lon="5.92866">
        <ele>2398.3999023438</ele>
        <time>2012-03-31T12:12:48.000Z</time>
      </trkpt>
      <trkpt lat="45.1645" lon="5.92863">
        <ele>2399.8000488281</ele>
        <time>2012-03-31T12:12:55.000Z</time>
      </trkpt>
      <trkpt lat="45.16448" lon="5.92858">
        <ele>2400</ele>
        <time>2012-03-31T12:13:01.000Z</time>
      </trkpt>
      <trkpt lat="45.16448" lon="5.92858">
        <ele>2400</ele>
        <time>2012-03-31T12:13:02.000Z</time>
      </trkpt>
      <trkpt lat="45.16454" lon="5.92867">
        <ele>2400.6000976562</ele>
        <time>2012-03-31T12:13:58.000Z</time>
      </trkpt>
      <trkpt lat="45.16455" lon="5.92875">
        <ele>2398.8000488281</ele>
        <time>2012-03-31T12:14:05.000Z</time>
      </trkpt>
      <trkpt lat="45.16457" lon="5.92886">
        <ele>2397.6000976562</ele>
        <time>2012-03-31T12:14:11.000Z</time>
      </trkpt>
      <trkpt lat="45.16459" lon="5.92895">
        <ele>2397</ele>
        <time>2012-03-31T12:14:17.000Z</time>
      </trkpt>
      <trkpt lat="45.16458" lon="5.92897">
        <ele>2397.3999023438</ele>
        <time>2012-03-31T12:14:20.000Z</time>
      </trkpt>
      <trkpt lat="45.16459" lon="5.92898">
        <ele>2398.3999023438</ele>
        <time>2012-03-31T12:14:46.000Z</time>
      </trkpt>
      <trkpt lat="45.16461" lon="5.92894">
        <ele>2397.1999511719</ele>
        <time>2012-03-31T12:17:08.000Z</time>
      </trkpt>
      <trkpt lat="45.16462" lon="5.92893">
        <ele>2397.3999023438</ele>
        <time>2012-03-31T12:17:09.000Z</time>
      </trkpt>
      <trkpt lat="45.16461" lon="5.92894">
        <ele>2397.3999023438</ele>
        <time>2012-03-31T12:19:57.000Z</time>
      </trkpt>
      <trkpt lat="45.16463" lon="5.92894">
        <ele>2398.6000976562</ele>
        <time>2012-03-31T12:21:31.000Z</time>
      </trkpt>
      <trkpt lat="45.16463" lon="5.92895">
        <ele>2398.8000488281</ele>
        <time>2012-03-31T12:21:32.000Z</time>
      </trkpt>
      <trkpt lat="45.16463" lon="5.92901">
        <ele>2398.6000976562</ele>
        <time>2012-03-31T12:22:35.000Z</time>
      </trkpt>
      <trkpt lat="45.16466" lon="5.92915">
        <ele>2397.3999023438</ele>
        <time>2012-03-31T12:22:41.000Z</time>
      </trkpt>
      <trkpt lat="45.16466" lon="5.92916">
        <ele>2397</ele>
        <time>2012-03-31T12:22:43.000Z</time>
      </trkpt>
      <trkpt lat="45.16466" lon="5.92924">
        <ele>2395.8000488281</ele>
        <time>2012-03-31T12:23:03.000Z</time>
      </trkpt>
      <trkpt lat="45.16466" lon="5.92925">
        <ele>2395.6000976562</ele>
        <time>2012-03-31T12:23:04.000Z</time>
      </trkpt>
      <trkpt lat="45.16463" lon="5.92944">
        <ele>2393.3999023438</ele>
        <time>2012-03-31T12:23:08.000Z</time>
      </trkpt>
      <trkpt lat="45.16463" lon="5.92966">
        <ele>2388.1999511719</ele>
        <time>2012-03-31T12:23:12.000Z</time>
      </trkpt>
      <trkpt lat="45.16457" lon="5.92965">
        <ele>2385.6000976562</ele>
        <time>2012-03-31T12:23:14.000Z</time>
      </trkpt>
      <trkpt lat="45.16452" lon="5.92971">
        <ele>2382.6000976562</ele>
        <time>2012-03-31T12:23:16.000Z</time>
      </trkpt>
      <trkpt lat="45.16448" lon="5.92989">
        <ele>2375.8000488281</ele>
        <time>2012-03-31T12:23:19.000Z</time>
      </trkpt>
      <trkpt lat="45.16447" lon="5.93002">
        <ele>2370.1999511719</ele>
        <time>2012-03-31T12:23:22.000Z</time>
      </trkpt>
      <trkpt lat="45.1645" lon="5.93021">
        <ele>2364</ele>
        <time>2012-03-31T12:23:25.000Z</time>
      </trkpt>
      <trkpt lat="45.1646" lon="5.93028">
        <ele>2357.3999023438</ele>
        <time>2012-03-31T12:23:29.000Z</time>
      </trkpt>
      <trkpt lat="45.16461" lon="5.93047">
        <ele>2352.1999511719</ele>
        <time>2012-03-31T12:23:32.000Z</time>
      </trkpt>
      <trkpt lat="45.16451" lon="5.93059">
        <ele>2344.8000488281</ele>
        <time>2012-03-31T12:23:35.000Z</time>
      </trkpt>
      <trkpt lat="45.16446" lon="5.93076">
        <ele>2338.8000488281</ele>
        <time>2012-03-31T12:23:37.000Z</time>
      </trkpt>
      <trkpt lat="45.16447" lon="5.93084">
        <ele>2336.3999023438</ele>
        <time>2012-03-31T12:23:38.000Z</time>
      </trkpt>
      <trkpt lat="45.16454" lon="5.93105">
        <ele>2327.6000976562</ele>
        <time>2012-03-31T12:23:43.000Z</time>
      </trkpt>
      <trkpt lat="45.16455" lon="5.93106">
        <ele>2326.1999511719</ele>
        <time>2012-03-31T12:23:44.000Z</time>
      </trkpt>
      <trkpt lat="45.16448" lon="5.93112">
        <ele>2325</ele>
        <time>2012-03-31T12:23:47.000Z</time>
      </trkpt>
      <trkpt lat="45.16448" lon="5.93112">
        <ele>2325</ele>
        <time>2012-03-31T12:23:49.000Z</time>
      </trkpt>
      <trkpt lat="45.16449" lon="5.93123">
        <ele>2322.1999511719</ele>
        <time>2012-03-31T12:24:04.000Z</time>
      </trkpt>
      <trkpt lat="45.16448" lon="5.93123">
        <ele>2321.8000488281</ele>
        <time>2012-03-31T12:24:05.000Z</time>
      </trkpt>
      <trkpt lat="45.16446" lon="5.93137">
        <ele>2318</ele>
        <time>2012-03-31T12:24:10.000Z</time>
      </trkpt>
      <trkpt lat="45.16451" lon="5.93142">
        <ele>2314.6000976562</ele>
        <time>2012-03-31T12:24:13.000Z</time>
      </trkpt>
      <trkpt lat="45.16447" lon="5.93148">
        <ele>2311.8000488281</ele>
        <time>2012-03-31T12:24:16.000Z</time>
      </trkpt>
      <trkpt lat="45.16438" lon="5.93163">
        <ele>2307.6000976562</ele>
        <time>2012-03-31T12:24:20.000Z</time>
      </trkpt>
      <trkpt lat="45.1643" lon="5.93187">
        <ele>2298.3999023438</ele>
        <time>2012-03-31T12:24:24.000Z</time>
      </trkpt>
      <trkpt lat="45.16421" lon="5.93196">
        <ele>2296.1999511719</ele>
        <time>2012-03-31T12:24:26.000Z</time>
      </trkpt>
      <trkpt lat="45.16411" lon="5.93209">
        <ele>2289.8000488281</ele>
        <time>2012-03-31T12:24:32.000Z</time>
      </trkpt>
      <trkpt lat="45.16403" lon="5.93212">
        <ele>2284.3999023438</ele>
        <time>2012-03-31T12:24:35.000Z</time>
      </trkpt>
      <trkpt lat="45.16401" lon="5.93214">
        <ele>2282.8000488281</ele>
        <time>2012-03-31T12:24:38.000Z</time>
      </trkpt>
      <trkpt lat="45.16402" lon="5.93214">
        <ele>2282.8000488281</ele>
        <time>2012-03-31T12:24:39.000Z</time>
      </trkpt>
      <trkpt lat="45.16391" lon="5.93222">
        <ele>2277.8000488281</ele>
        <time>2012-03-31T12:24:50.000Z</time>
      </trkpt>
      <trkpt lat="45.16397" lon="5.93251">
        <ele>2272.3999023438</ele>
        <time>2012-03-31T12:24:53.000Z</time>
      </trkpt>
      <trkpt lat="45.16406" lon="5.93249">
        <ele>2270.1999511719</ele>
        <time>2012-03-31T12:24:54.000Z</time>
      </trkpt>
      <trkpt lat="45.16404" lon="5.933">
        <ele>2257.6000976562</ele>
        <time>2012-03-31T12:25:00.000Z</time>
      </trkpt>
      <trkpt lat="45.16428" lon="5.93339">
        <ele>2249.6000976562</ele>
        <time>2012-03-31T12:25:04.000Z</time>
      </trkpt>
      <trkpt lat="45.16461" lon="5.93397">
        <ele>2242.3999023438</ele>
        <time>2012-03-31T12:25:10.000Z</time>
      </trkpt>
      <trkpt lat="45.16464" lon="5.93411">
        <ele>2239.8000488281</ele>
        <time>2012-03-31T12:25:12.000Z</time>
      </trkpt>
      <trkpt lat="45.1647" lon="5.93423">
        <ele>2237.8000488281</ele>
        <time>2012-03-31T12:25:14.000Z</time>
      </trkpt>
      <trkpt lat="45.16468" lon="5.93458">
        <ele>2232.1999511719</ele>
        <time>2012-03-31T12:25:18.000Z</time>
      </trkpt>
      <trkpt lat="45.16465" lon="5.93464">
        <ele>2230.8000488281</ele>
        <time>2012-03-31T12:25:19.000Z</time>
      </trkpt>
      <trkpt lat="45.16457" lon="5.9348">
        <ele>2229</ele>
        <time>2012-03-31T12:25:22.000Z</time>
      </trkpt>
      <trkpt lat="45.16455" lon="5.9348">
        <ele>2228.3999023438</ele>
        <time>2012-03-31T12:25:28.000Z</time>
      </trkpt>
      <trkpt lat="45.16456" lon="5.93488">
        <ele>2226.8000488281</ele>
        <time>2012-03-31T12:25:31.000Z</time>
      </trkpt>
      <trkpt lat="45.16461" lon="5.93514">
        <ele>2221.1999511719</ele>
        <time>2012-03-31T12:25:37.000Z</time>
      </trkpt>
      <trkpt lat="45.16475" lon="5.93534">
        <ele>2214.8000488281</ele>
        <time>2012-03-31T12:25:41.000Z</time>
      </trkpt>
      <trkpt lat="45.16478" lon="5.93544">
        <ele>2209</ele>
        <time>2012-03-31T12:25:44.000Z</time>
      </trkpt>
      <trkpt lat="45.16488" lon="5.93568">
        <ele>2198.6000976562</ele>
        <time>2012-03-31T12:25:49.000Z</time>
      </trkpt>
      <trkpt lat="45.1649" lon="5.93573">
        <ele>2197.1999511719</ele>
        <time>2012-03-31T12:25:50.000Z</time>
      </trkpt>
      <trkpt lat="45.16493" lon="5.93591">
        <ele>2186.6000976562</ele>
        <time>2012-03-31T12:25:54.000Z</time>
      </trkpt>
      <trkpt lat="45.16497" lon="5.93625">
        <ele>2176.1999511719</ele>
        <time>2012-03-31T12:25:59.000Z</time>
      </trkpt>
      <trkpt lat="45.165" lon="5.93632">
        <ele>2175</ele>
        <time>2012-03-31T12:26:00.000Z</time>
      </trkpt>
      <trkpt lat="45.16504" lon="5.93656">
        <ele>2167</ele>
        <time>2012-03-31T12:26:03.000Z</time>
      </trkpt>
      <trkpt lat="45.16514" lon="5.93676">
        <ele>2155.8000488281</ele>
        <time>2012-03-31T12:26:07.000Z</time>
      </trkpt>
      <trkpt lat="45.16534" lon="5.93682">
        <ele>2147.1999511719</ele>
        <time>2012-03-31T12:26:10.000Z</time>
      </trkpt>
      <trkpt lat="45.16555" lon="5.93703">
        <ele>2138.6000976562</ele>
        <time>2012-03-31T12:26:13.000Z</time>
      </trkpt>
      <trkpt lat="45.16562" lon="5.93723">
        <ele>2132.6000976562</ele>
        <time>2012-03-31T12:26:16.000Z</time>
      </trkpt>
      <trkpt lat="45.16563" lon="5.93738">
        <ele>2126.1999511719</ele>
        <time>2012-03-31T12:26:20.000Z</time>
      </trkpt>
      <trkpt lat="45.16564" lon="5.93733">
        <ele>2124.6000976562</ele>
        <time>2012-03-31T12:26:23.000Z</time>
      </trkpt>
      <trkpt lat="45.16561" lon="5.93735">
        <ele>2124.3999023438</ele>
        <time>2012-03-31T12:26:25.000Z</time>
      </trkpt>
      <trkpt lat="45.16564" lon="5.93747">
        <ele>2123</ele>
        <time>2012-03-31T12:26:35.000Z</time>
      </trkpt>
      <trkpt lat="45.16566" lon="5.93754">
        <ele>2121.6000976562</ele>
        <time>2012-03-31T12:26:36.000Z</time>
      </trkpt>
      <trkpt lat="45.16572" lon="5.93777">
        <ele>2112.6000976562</ele>
        <time>2012-03-31T12:26:41.000Z</time>
      </trkpt>
      <trkpt lat="45.16572" lon="5.93776">
        <ele>2110</ele>
        <time>2012-03-31T12:26:43.000Z</time>
      </trkpt>
      <trkpt lat="45.16584" lon="5.93765">
        <ele>2106.3999023438</ele>
        <time>2012-03-31T12:26:54.000Z</time>
      </trkpt>
      <trkpt lat="45.16585" lon="5.93777">
        <ele>2102.8000488281</ele>
        <time>2012-03-31T12:26:59.000Z</time>
      </trkpt>
      <trkpt lat="45.16587" lon="5.93779">
        <ele>2102</ele>
        <time>2012-03-31T12:27:00.000Z</time>
      </trkpt>
      <trkpt lat="45.16592" lon="5.93802">
        <ele>2095.6000976562</ele>
        <time>2012-03-31T12:27:04.000Z</time>
      </trkpt>
      <trkpt lat="45.16587" lon="5.93821">
        <ele>2091.3999023438</ele>
        <time>2012-03-31T12:27:07.000Z</time>
      </trkpt>
      <trkpt lat="45.16585" lon="5.93833">
        <ele>2090</ele>
        <time>2012-03-31T12:27:11.000Z</time>
      </trkpt>
      <trkpt lat="45.16592" lon="5.93838">
        <ele>2085.6000976562</ele>
        <time>2012-03-31T12:27:14.000Z</time>
      </trkpt>
      <trkpt lat="45.16605" lon="5.93874">
        <ele>2073.8000488281</ele>
        <time>2012-03-31T12:27:20.000Z</time>
      </trkpt>
      <trkpt lat="45.16621" lon="5.93857">
        <ele>2064.6000976562</ele>
        <time>2012-03-31T12:27:24.000Z</time>
      </trkpt>
      <trkpt lat="45.16627" lon="5.93851">
        <ele>2063.3999023438</ele>
        <time>2012-03-31T12:27:25.000Z</time>
      </trkpt>
      <trkpt lat="45.16635" lon="5.9384">
        <ele>2059.1999511719</ele>
        <time>2012-03-31T12:27:28.000Z</time>
      </trkpt>
      <trkpt lat="45.16635" lon="5.9384">
        <ele>2059</ele>
        <time>2012-03-31T12:27:29.000Z</time>
      </trkpt>
      <trkpt lat="45.16628" lon="5.93839">
        <ele>2059</ele>
        <time>2012-03-31T12:27:37.000Z</time>
      </trkpt>
      <trkpt lat="45.1666" lon="5.93839">
        <ele>2052</ele>
        <time>2012-03-31T12:27:50.000Z</time>
      </trkpt>
      <trkpt lat="45.16683" lon="5.93863">
        <ele>2042.5999755859</ele>
        <time>2012-03-31T12:27:54.000Z</time>
      </trkpt>
      <trkpt lat="45.16711" lon="5.93876">
        <ele>2031.4000244141</ele>
        <time>2012-03-31T12:27:58.000Z</time>
      </trkpt>
      <trkpt lat="45.1673" lon="5.93862">
        <ele>2026.8000488281</ele>
        <time>2012-03-31T12:28:01.000Z</time>
      </trkpt>
      <trkpt lat="45.1674" lon="5.93854">
        <ele>2023.8000488281</ele>
        <time>2012-03-31T12:28:03.000Z</time>
      </trkpt>
      <trkpt lat="45.16776" lon="5.93839">
        <ele>2012.8000488281</ele>
        <time>2012-03-31T12:28:08.000Z</time>
      </trkpt>
      <trkpt lat="45.16818" lon="5.93808">
        <ele>2001.8000488281</ele>
        <time>2012-03-31T12:28:12.000Z</time>
      </trkpt>
      <trkpt lat="45.16871" lon="5.93807">
        <ele>1996</ele>
        <time>2012-03-31T12:28:17.000Z</time>
      </trkpt>
      <trkpt lat="45.16872" lon="5.93802">
        <ele>1995</ele>
        <time>2012-03-31T12:28:19.000Z</time>
      </trkpt>
      <trkpt lat="45.16872" lon="5.93803">
        <ele>1995</ele>
        <time>2012-03-31T12:28:20.000Z</time>
      </trkpt>
      <trkpt lat="45.16874" lon="5.93806">
        <ele>1995</ele>
        <time>2012-03-31T12:28:25.000Z</time>
      </trkpt>
      <trkpt lat="45.16876" lon="5.9381">
        <ele>1995.4000244141</ele>
        <time>2012-03-31T12:28:32.000Z</time>
      </trkpt>
      <trkpt lat="45.16874" lon="5.93809">
        <ele>1995.1999511719</ele>
        <time>2012-03-31T12:28:37.000Z</time>
      </trkpt>
      <trkpt lat="45.16873" lon="5.93795">
        <ele>1995</ele>
        <time>2012-03-31T12:29:09.000Z</time>
      </trkpt>
      <trkpt lat="45.1688" lon="5.93795">
        <ele>1995.5999755859</ele>
        <time>2012-03-31T12:29:17.000Z</time>
      </trkpt>
      <trkpt lat="45.16884" lon="5.93795">
        <ele>1995.5999755859</ele>
        <time>2012-03-31T12:29:20.000Z</time>
      </trkpt>
      <trkpt lat="45.16892" lon="5.93794">
        <ele>1996</ele>
        <time>2012-03-31T12:29:27.000Z</time>
      </trkpt>
      <trkpt lat="45.16899" lon="5.9379">
        <ele>1995.8000488281</ele>
        <time>2012-03-31T12:29:35.000Z</time>
      </trkpt>
      <trkpt lat="45.16902" lon="5.93791">
        <ele>1996</ele>
        <time>2012-03-31T12:29:39.000Z</time>
      </trkpt>
      <trkpt lat="45.16921" lon="5.93779">
        <ele>1998</ele>
        <time>2012-03-31T12:30:09.000Z</time>
      </trkpt>
      <trkpt lat="45.16929" lon="5.93779">
        <ele>1997.8000488281</ele>
        <time>2012-03-31T12:30:16.000Z</time>
      </trkpt>
      <trkpt lat="45.16931" lon="5.93776">
        <ele>1998</ele>
        <time>2012-03-31T12:30:20.000Z</time>
      </trkpt>
      <trkpt lat="45.16936" lon="5.93773">
        <ele>1998.1999511719</ele>
        <time>2012-03-31T12:30:26.000Z</time>
      </trkpt>
      <trkpt lat="45.16942" lon="5.93772">
        <ele>1998.1999511719</ele>
        <time>2012-03-31T12:30:32.000Z</time>
      </trkpt>
      <trkpt lat="45.16946" lon="5.93767">
        <ele>1998.5999755859</ele>
        <time>2012-03-31T12:30:38.000Z</time>
      </trkpt>
      <trkpt lat="45.1695" lon="5.93766">
        <ele>1999</ele>
        <time>2012-03-31T12:30:44.000Z</time>
      </trkpt>
      <trkpt lat="45.16956" lon="5.93763">
        <ele>1998.8000488281</ele>
        <time>2012-03-31T12:30:50.000Z</time>
      </trkpt>
      <trkpt lat="45.16964" lon="5.93758">
        <ele>1998.8000488281</ele>
        <time>2012-03-31T12:30:55.000Z</time>
      </trkpt>
      <trkpt lat="45.16969" lon="5.93756">
        <ele>1998.5999755859</ele>
        <time>2012-03-31T12:30:59.000Z</time>
      </trkpt>
      <trkpt lat="45.16975" lon="5.93757">
        <ele>1998.4000244141</ele>
        <time>2012-03-31T12:31:03.000Z</time>
      </trkpt>
      <trkpt lat="45.1699" lon="5.93752">
        <ele>1998.1999511719</ele>
        <time>2012-03-31T12:31:10.000Z</time>
      </trkpt>
      <trkpt lat="45.16997" lon="5.93748">
        <ele>1997.5999755859</ele>
        <time>2012-03-31T12:31:14.000Z</time>
      </trkpt>
      <trkpt lat="45.17008" lon="5.93741">
        <ele>1996.1999511719</ele>
        <time>2012-03-31T12:31:20.000Z</time>
      </trkpt>
      <trkpt lat="45.17017" lon="5.93738">
        <ele>1994.8000488281</ele>
        <time>2012-03-31T12:31:23.000Z</time>
      </trkpt>
      <trkpt lat="45.17031" lon="5.93741">
        <ele>1994.1999511719</ele>
        <time>2012-03-31T12:31:28.000Z</time>
      </trkpt>
      <trkpt lat="45.17043" lon="5.93744">
        <ele>1993.8000488281</ele>
        <time>2012-03-31T12:31:32.000Z</time>
      </trkpt>
      <trkpt lat="45.17057" lon="5.93744">
        <ele>1991.5999755859</ele>
        <time>2012-03-31T12:31:37.000Z</time>
      </trkpt>
      <trkpt lat="45.1706" lon="5.93744">
        <ele>1990.8000488281</ele>
        <time>2012-03-31T12:31:38.000Z</time>
      </trkpt>
      <trkpt lat="45.17072" lon="5.93743">
        <ele>1990.1999511719</ele>
        <time>2012-03-31T12:31:42.000Z</time>
      </trkpt>
      <trkpt lat="45.17075" lon="5.93742">
        <ele>1990.8000488281</ele>
        <time>2012-03-31T12:31:46.000Z</time>
      </trkpt>
      <trkpt lat="45.17079" lon="5.93737">
        <ele>1991.1999511719</ele>
        <time>2012-03-31T12:31:52.000Z</time>
      </trkpt>
      <trkpt lat="45.17084" lon="5.93735">
        <ele>1991.4000244141</ele>
        <time>2012-03-31T12:31:56.000Z</time>
      </trkpt>
      <trkpt lat="45.1709" lon="5.93728">
        <ele>1991.5999755859</ele>
        <time>2012-03-31T12:32:02.000Z</time>
      </trkpt>
      <trkpt lat="45.17091" lon="5.93724">
        <ele>1991.8000488281</ele>
        <time>2012-03-31T12:32:06.000Z</time>
      </trkpt>
      <trkpt lat="45.17093" lon="5.9372">
        <ele>1992.1999511719</ele>
        <time>2012-03-31T12:32:10.000Z</time>
      </trkpt>
      <trkpt lat="45.17099" lon="5.93708">
        <ele>1993.1999511719</ele>
        <time>2012-03-31T12:32:22.000Z</time>
      </trkpt>
      <trkpt lat="45.17109" lon="5.93695">
        <ele>1991.5999755859</ele>
        <time>2012-03-31T12:32:27.000Z</time>
      </trkpt>
      <trkpt lat="45.17116" lon="5.9368">
        <ele>1990.8000488281</ele>
        <time>2012-03-31T12:32:31.000Z</time>
      </trkpt>
      <trkpt lat="45.1712" lon="5.9367">
        <ele>1990.8000488281</ele>
        <time>2012-03-31T12:32:36.000Z</time>
      </trkpt>
      <trkpt lat="45.17124" lon="5.93654">
        <ele>1989.8000488281</ele>
        <time>2012-03-31T12:32:41.000Z</time>
      </trkpt>
      <trkpt lat="45.17127" lon="5.9365">
        <ele>1989.5999755859</ele>
        <time>2012-03-31T12:32:44.000Z</time>
      </trkpt>
      <trkpt lat="45.17128" lon="5.93649">
        <ele>1989.5999755859</ele>
        <time>2012-03-31T12:32:45.000Z</time>
      </trkpt>
      <trkpt lat="45.1714" lon="5.93636">
        <ele>1989.1999511719</ele>
        <time>2012-03-31T12:32:53.000Z</time>
      </trkpt>
      <trkpt lat="45.17148" lon="5.93627">
        <ele>1988.8000488281</ele>
        <time>2012-03-31T12:32:58.000Z</time>
      </trkpt>
      <trkpt lat="45.17155" lon="5.93624">
        <ele>1989.4000244141</ele>
        <time>2012-03-31T12:33:04.000Z</time>
      </trkpt>
      <trkpt lat="45.17156" lon="5.93624">
        <ele>1989.1999511719</ele>
        <time>2012-03-31T12:33:05.000Z</time>
      </trkpt>
      <trkpt lat="45.17163" lon="5.93632">
        <ele>1989.1999511719</ele>
        <time>2012-03-31T12:33:11.000Z</time>
      </trkpt>
      <trkpt lat="45.17173" lon="5.93643">
        <ele>1987.4000244141</ele>
        <time>2012-03-31T12:33:15.000Z</time>
      </trkpt>
      <trkpt lat="45.17176" lon="5.93647">
        <ele>1986.8000488281</ele>
        <time>2012-03-31T12:33:16.000Z</time>
      </trkpt>
      <trkpt lat="45.17189" lon="5.93647">
        <ele>1986.4000244141</ele>
        <time>2012-03-31T12:33:22.000Z</time>
      </trkpt>
      <trkpt lat="45.17211" lon="5.93651">
        <ele>1984.5999755859</ele>
        <time>2012-03-31T12:33:27.000Z</time>
      </trkpt>
      <trkpt lat="45.17228" lon="5.93649">
        <ele>1984</ele>
        <time>2012-03-31T12:33:32.000Z</time>
      </trkpt>
      <trkpt lat="45.17247" lon="5.93647">
        <ele>1983.1999511719</ele>
        <time>2012-03-31T12:33:38.000Z</time>
      </trkpt>
      <trkpt lat="45.17268" lon="5.9364">
        <ele>1982</ele>
        <time>2012-03-31T12:33:45.000Z</time>
      </trkpt>
      <trkpt lat="45.17286" lon="5.93634">
        <ele>1981</ele>
        <time>2012-03-31T12:33:52.000Z</time>
      </trkpt>
      <trkpt lat="45.17296" lon="5.9363">
        <ele>1980.4000244141</ele>
        <time>2012-03-31T12:33:57.000Z</time>
      </trkpt>
      <trkpt lat="45.1731" lon="5.93624">
        <ele>1978.8000488281</ele>
        <time>2012-03-31T12:34:01.000Z</time>
      </trkpt>
      <trkpt lat="45.17324" lon="5.93623">
        <ele>1976.1999511719</ele>
        <time>2012-03-31T12:34:04.000Z</time>
      </trkpt>
      <trkpt lat="45.17343" lon="5.93631">
        <ele>1973.8000488281</ele>
        <time>2012-03-31T12:34:08.000Z</time>
      </trkpt>
      <trkpt lat="45.17346" lon="5.93633">
        <ele>1973.1999511719</ele>
        <time>2012-03-31T12:34:09.000Z</time>
      </trkpt>
      <trkpt lat="45.17355" lon="5.93613">
        <ele>1968</ele>
        <time>2012-03-31T12:34:13.000Z</time>
      </trkpt>
      <trkpt lat="45.17384" lon="5.93602">
        <ele>1955.8000488281</ele>
        <time>2012-03-31T12:34:18.000Z</time>
      </trkpt>
      <trkpt lat="45.17402" lon="5.93593">
        <ele>1950.8000488281</ele>
        <time>2012-03-31T12:34:21.000Z</time>
      </trkpt>
      <trkpt lat="45.17409" lon="5.93572">
        <ele>1947.1999511719</ele>
        <time>2012-03-31T12:34:24.000Z</time>
      </trkpt>
      <trkpt lat="45.17404" lon="5.93553">
        <ele>1942.8000488281</ele>
        <time>2012-03-31T12:34:26.000Z</time>
      </trkpt>
      <trkpt lat="45.17409" lon="5.93514">
        <ele>1935</ele>
        <time>2012-03-31T12:34:30.000Z</time>
      </trkpt>
      <trkpt lat="45.17408" lon="5.93496">
        <ele>1933</ele>
        <time>2012-03-31T12:34:33.000Z</time>
      </trkpt>
      <trkpt lat="45.174" lon="5.93482">
        <ele>1932.4000244141</ele>
        <time>2012-03-31T12:34:37.000Z</time>
      </trkpt>
      <trkpt lat="45.17403" lon="5.93467">
        <ele>1930.4000244141</ele>
        <time>2012-03-31T12:34:39.000Z</time>
      </trkpt>
      <trkpt lat="45.17404" lon="5.9346">
        <ele>1929</ele>
        <time>2012-03-31T12:34:40.000Z</time>
      </trkpt>
      <trkpt lat="45.17403" lon="5.93434">
        <ele>1925.8000488281</ele>
        <time>2012-03-31T12:34:43.000Z</time>
      </trkpt>
      <trkpt lat="45.17408" lon="5.93402">
        <ele>1921.5999755859</ele>
        <time>2012-03-31T12:34:46.000Z</time>
      </trkpt>
      <trkpt lat="45.17415" lon="5.93382">
        <ele>1918.4000244141</ele>
        <time>2012-03-31T12:34:49.000Z</time>
      </trkpt>
      <trkpt lat="45.1742" lon="5.93341">
        <ele>1913.5999755859</ele>
        <time>2012-03-31T12:34:55.000Z</time>
      </trkpt>
      <trkpt lat="45.17424" lon="5.93317">
        <ele>1911.8000488281</ele>
        <time>2012-03-31T12:34:59.000Z</time>
      </trkpt>
      <trkpt lat="45.17422" lon="5.93312">
        <ele>1910.8000488281</ele>
        <time>2012-03-31T12:35:00.000Z</time>
      </trkpt>
      <trkpt lat="45.17411" lon="5.93293">
        <ele>1907.5999755859</ele>
        <time>2012-03-31T12:35:04.000Z</time>
      </trkpt>
      <trkpt lat="45.17406" lon="5.93275">
        <ele>1904.4000244141</ele>
        <time>2012-03-31T12:35:07.000Z</time>
      </trkpt>
      <trkpt lat="45.17402" lon="5.9324">
        <ele>1898</ele>
        <time>2012-03-31T12:35:11.000Z</time>
      </trkpt>
      <trkpt lat="45.17407" lon="5.93211">
        <ele>1894.8000488281</ele>
        <time>2012-03-31T12:35:14.000Z</time>
      </trkpt>
      <trkpt lat="45.17407" lon="5.93174">
        <ele>1891.1999511719</ele>
        <time>2012-03-31T12:35:19.000Z</time>
      </trkpt>
      <trkpt lat="45.1741" lon="5.9316">
        <ele>1888.4000244141</ele>
        <time>2012-03-31T12:35:23.000Z</time>
      </trkpt>
      <trkpt lat="45.17423" lon="5.93132">
        <ele>1881.5999755859</ele>
        <time>2012-03-31T12:35:28.000Z</time>
      </trkpt>
      <trkpt lat="45.17425" lon="5.93111">
        <ele>1878.4000244141</ele>
        <time>2012-03-31T12:35:30.000Z</time>
      </trkpt>
      <trkpt lat="45.17431" lon="5.93109">
        <ele>1872.5999755859</ele>
        <time>2012-03-31T12:35:35.000Z</time>
      </trkpt>
      <trkpt lat="45.1743" lon="5.93103">
        <ele>1871</ele>
        <time>2012-03-31T12:35:39.000Z</time>
      </trkpt>
      <trkpt lat="45.17431" lon="5.93097">
        <ele>1869.5999755859</ele>
        <time>2012-03-31T12:35:42.000Z</time>
      </trkpt>
      <trkpt lat="45.17431" lon="5.93091">
        <ele>1868.5999755859</ele>
        <time>2012-03-31T12:35:44.000Z</time>
      </trkpt>
      <trkpt lat="45.17432" lon="5.93047">
        <ele>1859.8000488281</ele>
        <time>2012-03-31T12:35:48.000Z</time>
      </trkpt>
      <trkpt lat="45.17426" lon="5.9301">
        <ele>1855.5999755859</ele>
        <time>2012-03-31T12:35:51.000Z</time>
      </trkpt>
      <trkpt lat="45.17418" lon="5.92988">
        <ele>1852.4000244141</ele>
        <time>2012-03-31T12:35:55.000Z</time>
      </trkpt>
      <trkpt lat="45.17407" lon="5.92976">
        <ele>1847.4000244141</ele>
        <time>2012-03-31T12:35:59.000Z</time>
      </trkpt>
      <trkpt lat="45.17398" lon="5.92972">
        <ele>1844.4000244141</ele>
        <time>2012-03-31T12:36:01.000Z</time>
      </trkpt>
      <trkpt lat="45.17383" lon="5.92948">
        <ele>1840</ele>
        <time>2012-03-31T12:36:05.000Z</time>
      </trkpt>
      <trkpt lat="45.17374" lon="5.92935">
        <ele>1836.8000488281</ele>
        <time>2012-03-31T12:36:07.000Z</time>
      </trkpt>
      <trkpt lat="45.17357" lon="5.92909">
        <ele>1830.5999755859</ele>
        <time>2012-03-31T12:36:11.000Z</time>
      </trkpt>
      <trkpt lat="45.17349" lon="5.92899">
        <ele>1828</ele>
        <time>2012-03-31T12:36:14.000Z</time>
      </trkpt>
      <trkpt lat="45.17348" lon="5.9289">
        <ele>1825.5999755859</ele>
        <time>2012-03-31T12:36:18.000Z</time>
      </trkpt>
      <trkpt lat="45.17356" lon="5.92879">
        <ele>1821.4000244141</ele>
        <time>2012-03-31T12:36:22.000Z</time>
      </trkpt>
      <trkpt lat="45.17356" lon="5.92872">
        <ele>1817.5999755859</ele>
        <time>2012-03-31T12:36:25.000Z</time>
      </trkpt>
      <trkpt lat="45.1736" lon="5.92858">
        <ele>1814.8000488281</ele>
        <time>2012-03-31T12:36:29.000Z</time>
      </trkpt>
      <trkpt lat="45.17351" lon="5.92845">
        <ele>1810.8000488281</ele>
        <time>2012-03-31T12:36:33.000Z</time>
      </trkpt>
      <trkpt lat="45.17348" lon="5.92841">
        <ele>1810.5999755859</ele>
        <time>2012-03-31T12:36:34.000Z</time>
      </trkpt>
      <trkpt lat="45.17341" lon="5.92833">
        <ele>1809</ele>
        <time>2012-03-31T12:36:36.000Z</time>
      </trkpt>
      <trkpt lat="45.17319" lon="5.92792">
        <ele>1802</ele>
        <time>2012-03-31T12:36:41.000Z</time>
      </trkpt>
      <trkpt lat="45.17316" lon="5.92764">
        <ele>1799.1999511719</ele>
        <time>2012-03-31T12:36:44.000Z</time>
      </trkpt>
      <trkpt lat="45.1731" lon="5.92737">
        <ele>1796.8000488281</ele>
        <time>2012-03-31T12:36:48.000Z</time>
      </trkpt>
      <trkpt lat="45.17306" lon="5.92724">
        <ele>1796.4000244141</ele>
        <time>2012-03-31T12:36:52.000Z</time>
      </trkpt>
      <trkpt lat="45.17289" lon="5.92704">
        <ele>1792.1999511719</ele>
        <time>2012-03-31T12:36:56.000Z</time>
      </trkpt>
      <trkpt lat="45.17279" lon="5.92697">
        <ele>1790</ele>
        <time>2012-03-31T12:36:57.000Z</time>
      </trkpt>
      <trkpt lat="45.17244" lon="5.92658">
        <ele>1782.4000244141</ele>
        <time>2012-03-31T12:37:01.000Z</time>
      </trkpt>
      <trkpt lat="45.17261" lon="5.92635">
        <ele>1779.5999755859</ele>
        <time>2012-03-31T12:37:04.000Z</time>
      </trkpt>
      <trkpt lat="45.17272" lon="5.92643">
        <ele>1778.1999511719</ele>
        <time>2012-03-31T12:37:05.000Z</time>
      </trkpt>
      <trkpt lat="45.17312" lon="5.92619">
        <ele>1765.5999755859</ele>
        <time>2012-03-31T12:37:11.000Z</time>
      </trkpt>
      <trkpt lat="45.1732" lon="5.92592">
        <ele>1760.4000244141</ele>
        <time>2012-03-31T12:37:14.000Z</time>
      </trkpt>
      <trkpt lat="45.17344" lon="5.92536">
        <ele>1752.1999511719</ele>
        <time>2012-03-31T12:37:19.000Z</time>
      </trkpt>
      <trkpt lat="45.17365" lon="5.92491">
        <ele>1747</ele>
        <time>2012-03-31T12:37:24.000Z</time>
      </trkpt>
      <trkpt lat="45.17369" lon="5.92482">
        <ele>1745.8000488281</ele>
        <time>2012-03-31T12:37:25.000Z</time>
      </trkpt>
      <trkpt lat="45.17393" lon="5.92437">
        <ele>1740.5999755859</ele>
        <time>2012-03-31T12:37:29.000Z</time>
      </trkpt>
      <trkpt lat="45.17404" lon="5.92429">
        <ele>1732.8000488281</ele>
        <time>2012-03-31T12:37:34.000Z</time>
      </trkpt>
      <trkpt lat="45.1741" lon="5.92424">
        <ele>1729.5999755859</ele>
        <time>2012-03-31T12:37:35.000Z</time>
      </trkpt>
      <trkpt lat="45.1743" lon="5.92423">
        <ele>1721.8000488281</ele>
        <time>2012-03-31T12:37:39.000Z</time>
      </trkpt>
      <trkpt lat="45.17443" lon="5.92433">
        <ele>1718.5999755859</ele>
        <time>2012-03-31T12:37:41.000Z</time>
      </trkpt>
      <trkpt lat="45.17482" lon="5.92425">
        <ele>1714.8000488281</ele>
        <time>2012-03-31T12:37:46.000Z</time>
      </trkpt>
      <trkpt lat="45.17479" lon="5.92426">
        <ele>1714.8000488281</ele>
        <time>2012-03-31T12:37:49.000Z</time>
      </trkpt>
      <trkpt lat="45.17478" lon="5.92427">
        <ele>1715</ele>
        <time>2012-03-31T12:37:50.000Z</time>
      </trkpt>
      <trkpt lat="45.17485" lon="5.92422">
        <ele>1714.1999511719</ele>
        <time>2012-03-31T12:39:07.000Z</time>
      </trkpt>
      <trkpt lat="45.17496" lon="5.92412">
        <ele>1709.5999755859</ele>
        <time>2012-03-31T12:39:12.000Z</time>
      </trkpt>
      <trkpt lat="45.17514" lon="5.92393">
        <ele>1707.1999511719</ele>
        <time>2012-03-31T12:39:17.000Z</time>
      </trkpt>
      <trkpt lat="45.17515" lon="5.92393">
        <ele>1707</ele>
        <time>2012-03-31T12:39:18.000Z</time>
      </trkpt>
      <trkpt lat="45.17523" lon="5.92389">
        <ele>1705.1999511719</ele>
        <time>2012-03-31T12:39:22.000Z</time>
      </trkpt>
      <trkpt lat="45.17524" lon="5.92388">
        <ele>1704.8000488281</ele>
        <time>2012-03-31T12:39:23.000Z</time>
      </trkpt>
      <trkpt lat="45.17541" lon="5.92375">
        <ele>1704.8000488281</ele>
        <time>2012-03-31T12:39:51.000Z</time>
      </trkpt>
      <trkpt lat="45.17548" lon="5.92358">
        <ele>1704.8000488281</ele>
        <time>2012-03-31T12:40:22.000Z</time>
      </trkpt>
      <trkpt lat="45.17545" lon="5.92351">
        <ele>1705</ele>
        <time>2012-03-31T12:40:28.000Z</time>
      </trkpt>
      <trkpt lat="45.17544" lon="5.9235">
        <ele>1705</ele>
        <time>2012-03-31T12:40:29.000Z</time>
      </trkpt>
      <trkpt lat="45.17541" lon="5.92344">
        <ele>1705</ele>
        <time>2012-03-31T12:40:34.000Z</time>
      </trkpt>
      <trkpt lat="45.17539" lon="5.92339">
        <ele>1704.8000488281</ele>
        <time>2012-03-31T12:40:39.000Z</time>
      </trkpt>
      <trkpt lat="45.17539" lon="5.92336">
        <ele>1704.4000244141</ele>
        <time>2012-03-31T12:40:42.000Z</time>
      </trkpt>
      <trkpt lat="45.17538" lon="5.92328">
        <ele>1704.1999511719</ele>
        <time>2012-03-31T12:40:46.000Z</time>
      </trkpt>
      <trkpt lat="45.17537" lon="5.9232">
        <ele>1704.4000244141</ele>
        <time>2012-03-31T12:40:51.000Z</time>
      </trkpt>
      <trkpt lat="45.1754" lon="5.92303">
        <ele>1704.4000244141</ele>
        <time>2012-03-31T12:40:57.000Z</time>
      </trkpt>
      <trkpt lat="45.17544" lon="5.92293">
        <ele>1704.1999511719</ele>
        <time>2012-03-31T12:41:02.000Z</time>
      </trkpt>
      <trkpt lat="45.17546" lon="5.92279">
        <ele>1704</ele>
        <time>2012-03-31T12:41:07.000Z</time>
      </trkpt>
      <trkpt lat="45.17546" lon="5.92274">
        <ele>1704</ele>
        <time>2012-03-31T12:41:09.000Z</time>
      </trkpt>
      <trkpt lat="45.17549" lon="5.92269">
        <ele>1703.4000244141</ele>
        <time>2012-03-31T12:41:13.000Z</time>
      </trkpt>
      <trkpt lat="45.17552" lon="5.92266">
        <ele>1702.5999755859</ele>
        <time>2012-03-31T12:41:15.000Z</time>
      </trkpt>
      <trkpt lat="45.17557" lon="5.92252">
        <ele>1701.8000488281</ele>
        <time>2012-03-31T12:41:20.000Z</time>
      </trkpt>
      <trkpt lat="45.17563" lon="5.9224">
        <ele>1701</ele>
        <time>2012-03-31T12:41:25.000Z</time>
      </trkpt>
      <trkpt lat="45.17564" lon="5.9223">
        <ele>1700.1999511719</ele>
        <time>2012-03-31T12:41:29.000Z</time>
      </trkpt>
      <trkpt lat="45.17563" lon="5.92221">
        <ele>1699.1999511719</ele>
        <time>2012-03-31T12:41:33.000Z</time>
      </trkpt>
      <trkpt lat="45.17565" lon="5.92216">
        <ele>1698.1999511719</ele>
        <time>2012-03-31T12:41:35.000Z</time>
      </trkpt>
      <trkpt lat="45.17566" lon="5.92201">
        <ele>1697.4000244141</ele>
        <time>2012-03-31T12:41:40.000Z</time>
      </trkpt>
      <trkpt lat="45.17568" lon="5.92196">
        <ele>1696.8000488281</ele>
        <time>2012-03-31T12:41:42.000Z</time>
      </trkpt>
      <trkpt lat="45.176" lon="5.92157">
        <ele>1697.4000244141</ele>
        <time>2012-03-31T12:42:02.000Z</time>
      </trkpt>
      <trkpt lat="45.17611" lon="5.92138">
        <ele>1696.5999755859</ele>
        <time>2012-03-31T12:42:10.000Z</time>
      </trkpt>
      <trkpt lat="45.17622" lon="5.92131">
        <ele>1696.4000244141</ele>
        <time>2012-03-31T12:42:15.000Z</time>
      </trkpt>
      <trkpt lat="45.17627" lon="5.92122">
        <ele>1696.1999511719</ele>
        <time>2012-03-31T12:42:19.000Z</time>
      </trkpt>
      <trkpt lat="45.17639" lon="5.92093">
        <ele>1695</ele>
        <time>2012-03-31T12:42:35.000Z</time>
      </trkpt>
      <trkpt lat="45.17646" lon="5.92081">
        <ele>1694.5999755859</ele>
        <time>2012-03-31T12:42:42.000Z</time>
      </trkpt>
      <trkpt lat="45.17653" lon="5.92077">
        <ele>1694</ele>
        <time>2012-03-31T12:42:47.000Z</time>
      </trkpt>
      <trkpt lat="45.17661" lon="5.92072">
        <ele>1693.4000244141</ele>
        <time>2012-03-31T12:42:52.000Z</time>
      </trkpt>
      <trkpt lat="45.17669" lon="5.92066">
        <ele>1693.1999511719</ele>
        <time>2012-03-31T12:42:57.000Z</time>
      </trkpt>
      <trkpt lat="45.17666" lon="5.9206">
        <ele>1693</ele>
        <time>2012-03-31T12:45:11.000Z</time>
      </trkpt>
      <trkpt lat="45.17672" lon="5.92069">
        <ele>1691.5999755859</ele>
        <time>2012-03-31T12:46:11.000Z</time>
      </trkpt>
      <trkpt lat="45.17674" lon="5.92066">
        <ele>1692.4000244141</ele>
        <time>2012-03-31T12:46:13.000Z</time>
      </trkpt>
      <trkpt lat="45.17673" lon="5.92066">
        <ele>1693</ele>
        <time>2012-03-31T12:46:14.000Z</time>
      </trkpt>
      <trkpt lat="45.17668" lon="5.92067">
        <ele>1693.4000244141</ele>
        <time>2012-03-31T12:46:19.000Z</time>
      </trkpt>
      <trkpt lat="45.17675" lon="5.92068">
        <ele>1693.5999755859</ele>
        <time>2012-03-31T12:46:40.000Z</time>
      </trkpt>
      <trkpt lat="45.17677" lon="5.92064">
        <ele>1693.4000244141</ele>
        <time>2012-03-31T12:47:20.000Z</time>
      </trkpt>
      <trkpt lat="45.17676" lon="5.92048">
        <ele>1693.5999755859</ele>
        <time>2012-03-31T12:47:29.000Z</time>
      </trkpt>
      <trkpt lat="45.17677" lon="5.92045">
        <ele>1692.5999755859</ele>
        <time>2012-03-31T12:47:36.000Z</time>
      </trkpt>
      <trkpt lat="45.17678" lon="5.92031">
        <ele>1692.4000244141</ele>
        <time>2012-03-31T12:47:44.000Z</time>
      </trkpt>
      <trkpt lat="45.17679" lon="5.92026">
        <ele>1692</ele>
        <time>2012-03-31T12:47:49.000Z</time>
      </trkpt>
      <trkpt lat="45.17682" lon="5.92018">
        <ele>1692</ele>
        <time>2012-03-31T12:47:55.000Z</time>
      </trkpt>
      <trkpt lat="45.17684" lon="5.92015">
        <ele>1691.8000488281</ele>
        <time>2012-03-31T12:47:57.000Z</time>
      </trkpt>
      <trkpt lat="45.17687" lon="5.92003">
        <ele>1691</ele>
        <time>2012-03-31T12:48:05.000Z</time>
      </trkpt>
      <trkpt lat="45.1769" lon="5.91996">
        <ele>1690.1999511719</ele>
        <time>2012-03-31T12:48:11.000Z</time>
      </trkpt>
      <trkpt lat="45.17693" lon="5.91992">
        <ele>1690</ele>
        <time>2012-03-31T12:48:16.000Z</time>
      </trkpt>
      <trkpt lat="45.17696" lon="5.91991">
        <ele>1689.5999755859</ele>
        <time>2012-03-31T12:48:19.000Z</time>
      </trkpt>
      <trkpt lat="45.17696" lon="5.91991">
        <ele>1689.8000488281</ele>
        <time>2012-03-31T12:48:20.000Z</time>
      </trkpt>
      <trkpt lat="45.177" lon="5.91988">
        <ele>1689.1999511719</ele>
        <time>2012-03-31T12:48:25.000Z</time>
      </trkpt>
      <trkpt lat="45.17706" lon="5.91984">
        <ele>1688.5999755859</ele>
        <time>2012-03-31T12:48:30.000Z</time>
      </trkpt>
      <trkpt lat="45.17715" lon="5.91973">
        <ele>1687.5999755859</ele>
        <time>2012-03-31T12:48:41.000Z</time>
      </trkpt>
      <trkpt lat="45.17716" lon="5.9197">
        <ele>1687.1999511719</ele>
        <time>2012-03-31T12:48:43.000Z</time>
      </trkpt>
      <trkpt lat="45.17719" lon="5.91963">
        <ele>1687</ele>
        <time>2012-03-31T12:48:49.000Z</time>
      </trkpt>
      <trkpt lat="45.17712" lon="5.91956">
        <ele>1685.5999755859</ele>
        <time>2012-03-31T12:48:56.000Z</time>
      </trkpt>
      <trkpt lat="45.17712" lon="5.91945">
        <ele>1684.8000488281</ele>
        <time>2012-03-31T12:49:03.000Z</time>
      </trkpt>
      <trkpt lat="45.17715" lon="5.9194">
        <ele>1684</ele>
        <time>2012-03-31T12:49:07.000Z</time>
      </trkpt>
      <trkpt lat="45.17717" lon="5.91921">
        <ele>1682.4000244141</ele>
        <time>2012-03-31T12:49:18.000Z</time>
      </trkpt>
      <trkpt lat="45.17714" lon="5.91913">
        <ele>1681.8000488281</ele>
        <time>2012-03-31T12:49:24.000Z</time>
      </trkpt>
      <trkpt lat="45.1772" lon="5.91906">
        <ele>1678.8000488281</ele>
        <time>2012-03-31T12:49:37.000Z</time>
      </trkpt>
      <trkpt lat="45.17725" lon="5.91903">
        <ele>1676.5999755859</ele>
        <time>2012-03-31T12:49:43.000Z</time>
      </trkpt>
      <trkpt lat="45.1773" lon="5.91894">
        <ele>1674.5999755859</ele>
        <time>2012-03-31T12:49:50.000Z</time>
      </trkpt>
      <trkpt lat="45.1773" lon="5.91892">
        <ele>1674.1999511719</ele>
        <time>2012-03-31T12:49:52.000Z</time>
      </trkpt>
      <trkpt lat="45.1773" lon="5.91889">
        <ele>1673</ele>
        <time>2012-03-31T12:49:57.000Z</time>
      </trkpt>
      <trkpt lat="45.17736" lon="5.91885">
        <ele>1671.4000244141</ele>
        <time>2012-03-31T12:50:01.000Z</time>
      </trkpt>
      <trkpt lat="45.17739" lon="5.9188">
        <ele>1670</ele>
        <time>2012-03-31T12:50:06.000Z</time>
      </trkpt>
      <trkpt lat="45.17739" lon="5.91879">
        <ele>1670</ele>
        <time>2012-03-31T12:50:07.000Z</time>
      </trkpt>
      <trkpt lat="45.17752" lon="5.91861">
        <ele>1661.4000244141</ele>
        <time>2012-03-31T12:50:35.000Z</time>
      </trkpt>
      <trkpt lat="45.17762" lon="5.91859">
        <ele>1659</ele>
        <time>2012-03-31T12:50:42.000Z</time>
      </trkpt>
      <trkpt lat="45.17763" lon="5.91859">
        <ele>1658.8000488281</ele>
        <time>2012-03-31T12:50:43.000Z</time>
      </trkpt>
      <trkpt lat="45.17768" lon="5.91847">
        <ele>1655.4000244141</ele>
        <time>2012-03-31T12:50:55.000Z</time>
      </trkpt>
      <trkpt lat="45.17764" lon="5.91847">
        <ele>1654</ele>
        <time>2012-03-31T12:51:01.000Z</time>
      </trkpt>
      <trkpt lat="45.17762" lon="5.91844">
        <ele>1653.1999511719</ele>
        <time>2012-03-31T12:51:06.000Z</time>
      </trkpt>
      <trkpt lat="45.17758" lon="5.91837">
        <ele>1651.4000244141</ele>
        <time>2012-03-31T12:51:15.000Z</time>
      </trkpt>
      <trkpt lat="45.17779" lon="5.91832">
        <ele>1646</ele>
        <time>2012-03-31T12:51:40.000Z</time>
      </trkpt>
      <trkpt lat="45.17784" lon="5.91832">
        <ele>1645.4000244141</ele>
        <time>2012-03-31T12:51:44.000Z</time>
      </trkpt>
      <trkpt lat="45.17792" lon="5.91828">
        <ele>1643.1999511719</ele>
        <time>2012-03-31T12:51:52.000Z</time>
      </trkpt>
      <trkpt lat="45.17789" lon="5.91822">
        <ele>1641.8000488281</ele>
        <time>2012-03-31T12:51:58.000Z</time>
      </trkpt>
      <trkpt lat="45.17784" lon="5.91817">
        <ele>1640.4000244141</ele>
        <time>2012-03-31T12:52:04.000Z</time>
      </trkpt>
      <trkpt lat="45.17783" lon="5.91816">
        <ele>1639.5999755859</ele>
        <time>2012-03-31T12:52:06.000Z</time>
      </trkpt>
      <trkpt lat="45.1778" lon="5.91812">
        <ele>1638.4000244141</ele>
        <time>2012-03-31T12:52:13.000Z</time>
      </trkpt>
      <trkpt lat="45.17779" lon="5.91811">
        <ele>1637.5999755859</ele>
        <time>2012-03-31T12:52:14.000Z</time>
      </trkpt>
      <trkpt lat="45.17774" lon="5.9181">
        <ele>1636.8000488281</ele>
        <time>2012-03-31T12:52:19.000Z</time>
      </trkpt>
      <trkpt lat="45.17774" lon="5.91808">
        <ele>1636.5999755859</ele>
        <time>2012-03-31T12:52:21.000Z</time>
      </trkpt>
      <trkpt lat="45.17786" lon="5.91798">
        <ele>1632.5999755859</ele>
        <time>2012-03-31T12:52:38.000Z</time>
      </trkpt>
      <trkpt lat="45.17793" lon="5.91797">
        <ele>1631.1999511719</ele>
        <time>2012-03-31T12:52:43.000Z</time>
      </trkpt>
      <trkpt lat="45.17807" lon="5.91794">
        <ele>1628.5999755859</ele>
        <time>2012-03-31T12:52:57.000Z</time>
      </trkpt>
      <trkpt lat="45.17809" lon="5.91785">
        <ele>1624.1999511719</ele>
        <time>2012-03-31T12:53:12.000Z</time>
      </trkpt>
      <trkpt lat="45.17803" lon="5.9178">
        <ele>1622.5999755859</ele>
        <time>2012-03-31T12:53:17.000Z</time>
      </trkpt>
      <trkpt lat="45.178" lon="5.91779">
        <ele>1622</ele>
        <time>2012-03-31T12:53:22.000Z</time>
      </trkpt>
      <trkpt lat="45.17796" lon="5.91777">
        <ele>1620.4000244141</ele>
        <time>2012-03-31T12:53:28.000Z</time>
      </trkpt>
      <trkpt lat="45.17787" lon="5.91771">
        <ele>1618.5999755859</ele>
        <time>2012-03-31T12:53:35.000Z</time>
      </trkpt>
      <trkpt lat="45.17781" lon="5.91769">
        <ele>1617.1999511719</ele>
        <time>2012-03-31T12:53:42.000Z</time>
      </trkpt>
      <trkpt lat="45.17779" lon="5.91767">
        <ele>1616.5999755859</ele>
        <time>2012-03-31T12:53:47.000Z</time>
      </trkpt>
      <trkpt lat="45.17778" lon="5.91767">
        <ele>1615</ele>
        <time>2012-03-31T12:53:52.000Z</time>
      </trkpt>
      <trkpt lat="45.17767" lon="5.91762">
        <ele>1612.4000244141</ele>
        <time>2012-03-31T12:54:04.000Z</time>
      </trkpt>
      <trkpt lat="45.17756" lon="5.91755">
        <ele>1609.5999755859</ele>
        <time>2012-03-31T12:54:14.000Z</time>
      </trkpt>
      <trkpt lat="45.17759" lon="5.91748">
        <ele>1608.1999511719</ele>
        <time>2012-03-31T12:54:21.000Z</time>
      </trkpt>
      <trkpt lat="45.17811" lon="5.91721">
        <ele>1594.1999511719</ele>
        <time>2012-03-31T12:55:17.000Z</time>
      </trkpt>
      <trkpt lat="45.17812" lon="5.9172">
        <ele>1594</ele>
        <time>2012-03-31T12:55:18.000Z</time>
      </trkpt>
      <trkpt lat="45.17834" lon="5.91709">
        <ele>1588</ele>
        <time>2012-03-31T12:55:46.000Z</time>
      </trkpt>
      <trkpt lat="45.17834" lon="5.9171">
        <ele>1587.8000488281</ele>
        <time>2012-03-31T12:55:47.000Z</time>
      </trkpt>
      <trkpt lat="45.1784" lon="5.91703">
        <ele>1582.8000488281</ele>
        <time>2012-03-31T12:56:09.000Z</time>
      </trkpt>
      <trkpt lat="45.17838" lon="5.91703">
        <ele>1582.8000488281</ele>
        <time>2012-03-31T12:56:12.000Z</time>
      </trkpt>
      <trkpt lat="45.17831" lon="5.91696">
        <ele>1580.8000488281</ele>
        <time>2012-03-31T12:56:21.000Z</time>
      </trkpt>
      <trkpt lat="45.1783" lon="5.91694">
        <ele>1580.4000244141</ele>
        <time>2012-03-31T12:56:22.000Z</time>
      </trkpt>
      <trkpt lat="45.17821" lon="5.91687">
        <ele>1578.4000244141</ele>
        <time>2012-03-31T12:56:30.000Z</time>
      </trkpt>
      <trkpt lat="45.17812" lon="5.91679">
        <ele>1576.4000244141</ele>
        <time>2012-03-31T12:56:38.000Z</time>
      </trkpt>
      <trkpt lat="45.17803" lon="5.9167">
        <ele>1574.5999755859</ele>
        <time>2012-03-31T12:56:44.000Z</time>
      </trkpt>
      <trkpt lat="45.178" lon="5.91669">
        <ele>1573.5999755859</ele>
        <time>2012-03-31T12:56:49.000Z</time>
      </trkpt>
      <trkpt lat="45.17811" lon="5.91669">
        <ele>1571.1999511719</ele>
        <time>2012-03-31T12:57:00.000Z</time>
      </trkpt>
      <trkpt lat="45.17816" lon="5.91669">
        <ele>1569</ele>
        <time>2012-03-31T12:57:06.000Z</time>
      </trkpt>
      <trkpt lat="45.17832" lon="5.9166">
        <ele>1564.5999755859</ele>
        <time>2012-03-31T12:57:22.000Z</time>
      </trkpt>
      <trkpt lat="45.17838" lon="5.91656">
        <ele>1563.4000244141</ele>
        <time>2012-03-31T12:57:27.000Z</time>
      </trkpt>
      <trkpt lat="45.17857" lon="5.91642">
        <ele>1557.5999755859</ele>
        <time>2012-03-31T12:57:49.000Z</time>
      </trkpt>
      <trkpt lat="45.17862" lon="5.91634">
        <ele>1555.1999511719</ele>
        <time>2012-03-31T12:57:55.000Z</time>
      </trkpt>
      <trkpt lat="45.17868" lon="5.91625">
        <ele>1554.1999511719</ele>
        <time>2012-03-31T12:58:02.000Z</time>
      </trkpt>
      <trkpt lat="45.1787" lon="5.91625">
        <ele>1553.5999755859</ele>
        <time>2012-03-31T12:58:04.000Z</time>
      </trkpt>
      <trkpt lat="45.17877" lon="5.91624">
        <ele>1551.5999755859</ele>
        <time>2012-03-31T12:58:11.000Z</time>
      </trkpt>
      <trkpt lat="45.17882" lon="5.91621">
        <ele>1550.8000488281</ele>
        <time>2012-03-31T12:58:15.000Z</time>
      </trkpt>
      <trkpt lat="45.17894" lon="5.91615">
        <ele>1548</ele>
        <time>2012-03-31T12:58:24.000Z</time>
      </trkpt>
      <trkpt lat="45.17905" lon="5.91611">
        <ele>1545.4000244141</ele>
        <time>2012-03-31T12:58:33.000Z</time>
      </trkpt>
      <trkpt lat="45.17905" lon="5.91611">
        <ele>1544.8000488281</ele>
        <time>2012-03-31T12:58:34.000Z</time>
      </trkpt>
      <trkpt lat="45.17912" lon="5.91608">
        <ele>1543.1999511719</ele>
        <time>2012-03-31T12:58:40.000Z</time>
      </trkpt>
      <trkpt lat="45.17919" lon="5.91608">
        <ele>1542</ele>
        <time>2012-03-31T12:58:45.000Z</time>
      </trkpt>
      <trkpt lat="45.17925" lon="5.91606">
        <ele>1540.5999755859</ele>
        <time>2012-03-31T12:58:50.000Z</time>
      </trkpt>
      <trkpt lat="45.1793" lon="5.91606">
        <ele>1539</ele>
        <time>2012-03-31T12:58:54.000Z</time>
      </trkpt>
      <trkpt lat="45.17933" lon="5.91604">
        <ele>1538.1999511719</ele>
        <time>2012-03-31T12:58:58.000Z</time>
      </trkpt>
      <trkpt lat="45.17941" lon="5.91602">
        <ele>1537</ele>
        <time>2012-03-31T12:59:04.000Z</time>
      </trkpt>
      <trkpt lat="45.17979" lon="5.91594">
        <ele>1528</ele>
        <time>2012-03-31T12:59:45.000Z</time>
      </trkpt>
      <trkpt lat="45.17979" lon="5.91594">
        <ele>1527.4000244141</ele>
        <time>2012-03-31T12:59:46.000Z</time>
      </trkpt>
      <trkpt lat="45.17982" lon="5.9159">
        <ele>1526</ele>
        <time>2012-03-31T12:59:58.000Z</time>
      </trkpt>
      <trkpt lat="45.18002" lon="5.91588">
        <ele>1523</ele>
        <time>2012-03-31T13:00:27.000Z</time>
      </trkpt>
      <trkpt lat="45.18006" lon="5.91585">
        <ele>1521.8000488281</ele>
        <time>2012-03-31T13:00:31.000Z</time>
      </trkpt>
      <trkpt lat="45.18017" lon="5.91585">
        <ele>1520.1999511719</ele>
        <time>2012-03-31T13:00:41.000Z</time>
      </trkpt>
      <trkpt lat="45.18025" lon="5.91586">
        <ele>1519.1999511719</ele>
        <time>2012-03-31T13:00:46.000Z</time>
      </trkpt>
      <trkpt lat="45.18034" lon="5.9159">
        <ele>1518.4000244141</ele>
        <time>2012-03-31T13:00:55.000Z</time>
      </trkpt>
      <trkpt lat="45.18047" lon="5.91591">
        <ele>1518</ele>
        <time>2012-03-31T13:01:04.000Z</time>
      </trkpt>
      <trkpt lat="45.18054" lon="5.91589">
        <ele>1517.8000488281</ele>
        <time>2012-03-31T13:01:10.000Z</time>
      </trkpt>
      <trkpt lat="45.18056" lon="5.91588">
        <ele>1517.5999755859</ele>
        <time>2012-03-31T13:01:12.000Z</time>
      </trkpt>
      <trkpt lat="45.18088" lon="5.91579">
        <ele>1515.1999511719</ele>
        <time>2012-03-31T13:01:39.000Z</time>
      </trkpt>
      <trkpt lat="45.18091" lon="5.91578">
        <ele>1514.8000488281</ele>
        <time>2012-03-31T13:01:41.000Z</time>
      </trkpt>
      <trkpt lat="45.18103" lon="5.91573">
        <ele>1513.8000488281</ele>
        <time>2012-03-31T13:01:53.000Z</time>
      </trkpt>
      <trkpt lat="45.18104" lon="5.91573">
        <ele>1513.1999511719</ele>
        <time>2012-03-31T13:01:54.000Z</time>
      </trkpt>
      <trkpt lat="45.18109" lon="5.9157">
        <ele>1512.8000488281</ele>
        <time>2012-03-31T13:01:59.000Z</time>
      </trkpt>
      <trkpt lat="45.18123" lon="5.91561">
        <ele>1511.5999755859</ele>
        <time>2012-03-31T13:02:11.000Z</time>
      </trkpt>
      <trkpt lat="45.18129" lon="5.91555">
        <ele>1510.8000488281</ele>
        <time>2012-03-31T13:02:16.000Z</time>
      </trkpt>
      <trkpt lat="45.1813" lon="5.91551">
        <ele>1510.1999511719</ele>
        <time>2012-03-31T13:02:19.000Z</time>
      </trkpt>
      <trkpt lat="45.18133" lon="5.91543">
        <ele>1509.4000244141</ele>
        <time>2012-03-31T13:02:25.000Z</time>
      </trkpt>
      <trkpt lat="45.18133" lon="5.91534">
        <ele>1508.1999511719</ele>
        <time>2012-03-31T13:02:33.000Z</time>
      </trkpt>
      <trkpt lat="45.1813" lon="5.91527">
        <ele>1507.1999511719</ele>
        <time>2012-03-31T13:02:39.000Z</time>
      </trkpt>
      <trkpt lat="45.18124" lon="5.91527">
        <ele>1507.4000244141</ele>
        <time>2012-03-31T13:03:20.000Z</time>
      </trkpt>
      <trkpt lat="45.18129" lon="5.91519">
        <ele>1506.5999755859</ele>
        <time>2012-03-31T13:03:51.000Z</time>
      </trkpt>
      <trkpt lat="45.18128" lon="5.91509">
        <ele>1506</ele>
        <time>2012-03-31T13:06:10.000Z</time>
      </trkpt>
      <trkpt lat="45.18127" lon="5.91506">
        <ele>1505.8000488281</ele>
        <time>2012-03-31T13:06:12.000Z</time>
      </trkpt>
      <trkpt lat="45.18125" lon="5.91493">
        <ele>1505.5999755859</ele>
        <time>2012-03-31T13:06:19.000Z</time>
      </trkpt>
      <trkpt lat="45.18125" lon="5.91477">
        <ele>1503.8000488281</ele>
        <time>2012-03-31T13:06:28.000Z</time>
      </trkpt>
      <trkpt lat="45.18126" lon="5.91476">
        <ele>1503.5999755859</ele>
        <time>2012-03-31T13:06:29.000Z</time>
      </trkpt>
      <trkpt lat="45.18132" lon="5.91471">
        <ele>1502.5999755859</ele>
        <time>2012-03-31T13:06:35.000Z</time>
      </trkpt>
      <trkpt lat="45.18139" lon="5.91468">
        <ele>1501.1999511719</ele>
        <time>2012-03-31T13:06:42.000Z</time>
      </trkpt>
      <trkpt lat="45.18144" lon="5.91467">
        <ele>1499.5999755859</ele>
        <time>2012-03-31T13:06:47.000Z</time>
      </trkpt>
      <trkpt lat="45.18153" lon="5.91463">
        <ele>1497.1999511719</ele>
        <time>2012-03-31T13:06:54.000Z</time>
      </trkpt>
      <trkpt lat="45.18154" lon="5.91462">
        <ele>1496.5999755859</ele>
        <time>2012-03-31T13:06:55.000Z</time>
      </trkpt>
      <trkpt lat="45.1816" lon="5.91463">
        <ele>1495.5999755859</ele>
        <time>2012-03-31T13:07:00.000Z</time>
      </trkpt>
      <trkpt lat="45.18167" lon="5.91463">
        <ele>1494.1999511719</ele>
        <time>2012-03-31T13:07:05.000Z</time>
      </trkpt>
      <trkpt lat="45.18174" lon="5.91461">
        <ele>1493</ele>
        <time>2012-03-31T13:07:09.000Z</time>
      </trkpt>
      <trkpt lat="45.18183" lon="5.91462">
        <ele>1491.8000488281</ele>
        <time>2012-03-31T13:07:16.000Z</time>
      </trkpt>
      <trkpt lat="45.18186" lon="5.91461">
        <ele>1491.4000244141</ele>
        <time>2012-03-31T13:07:19.000Z</time>
      </trkpt>
      <trkpt lat="45.18193" lon="5.91452">
        <ele>1489.1999511719</ele>
        <time>2012-03-31T13:07:28.000Z</time>
      </trkpt>
      <trkpt lat="45.18201" lon="5.91447">
        <ele>1487.4000244141</ele>
        <time>2012-03-31T13:07:35.000Z</time>
      </trkpt>
      <trkpt lat="45.18208" lon="5.91444">
        <ele>1485.8000488281</ele>
        <time>2012-03-31T13:07:40.000Z</time>
      </trkpt>
      <trkpt lat="45.18216" lon="5.91442">
        <ele>1484.1999511719</ele>
        <time>2012-03-31T13:07:46.000Z</time>
      </trkpt>
      <trkpt lat="45.18217" lon="5.91441">
        <ele>1483.8000488281</ele>
        <time>2012-03-31T13:07:47.000Z</time>
      </trkpt>
      <trkpt lat="45.18226" lon="5.91439">
        <ele>1482</ele>
        <time>2012-03-31T13:07:52.000Z</time>
      </trkpt>
      <trkpt lat="45.18231" lon="5.91433">
        <ele>1481.1999511719</ele>
        <time>2012-03-31T13:07:57.000Z</time>
      </trkpt>
      <trkpt lat="45.18233" lon="5.91432">
        <ele>1480.4000244141</ele>
        <time>2012-03-31T13:07:59.000Z</time>
      </trkpt>
      <trkpt lat="45.18241" lon="5.9143">
        <ele>1479</ele>
        <time>2012-03-31T13:08:04.000Z</time>
      </trkpt>
      <trkpt lat="45.18253" lon="5.91432">
        <ele>1477</ele>
        <time>2012-03-31T13:08:11.000Z</time>
      </trkpt>
      <trkpt lat="45.18253" lon="5.91431">
        <ele>1476.4000244141</ele>
        <time>2012-03-31T13:08:12.000Z</time>
      </trkpt>
      <trkpt lat="45.18258" lon="5.91429">
        <ele>1474.5999755859</ele>
        <time>2012-03-31T13:08:19.000Z</time>
      </trkpt>
      <trkpt lat="45.1827" lon="5.91427">
        <ele>1472</ele>
        <time>2012-03-31T13:08:28.000Z</time>
      </trkpt>
      <trkpt lat="45.18271" lon="5.91427">
        <ele>1471.8000488281</ele>
        <time>2012-03-31T13:08:29.000Z</time>
      </trkpt>
      <trkpt lat="45.18277" lon="5.91423">
        <ele>1470.5999755859</ele>
        <time>2012-03-31T13:08:35.000Z</time>
      </trkpt>
      <trkpt lat="45.18284" lon="5.91422">
        <ele>1469.1999511719</ele>
        <time>2012-03-31T13:08:40.000Z</time>
      </trkpt>
      <trkpt lat="45.1829" lon="5.91419">
        <ele>1468.1999511719</ele>
        <time>2012-03-31T13:08:44.000Z</time>
      </trkpt>
      <trkpt lat="45.18295" lon="5.91418">
        <ele>1467.4000244141</ele>
        <time>2012-03-31T13:08:47.000Z</time>
      </trkpt>
      <trkpt lat="45.18307" lon="5.91418">
        <ele>1465.4000244141</ele>
        <time>2012-03-31T13:08:54.000Z</time>
      </trkpt>
      <trkpt lat="45.18313" lon="5.91417">
        <ele>1464.1999511719</ele>
        <time>2012-03-31T13:08:59.000Z</time>
      </trkpt>
      <trkpt lat="45.18319" lon="5.91416">
        <ele>1463.4000244141</ele>
        <time>2012-03-31T13:09:02.000Z</time>
      </trkpt>
      <trkpt lat="45.18324" lon="5.91415">
        <ele>1461.5999755859</ele>
        <time>2012-03-31T13:09:07.000Z</time>
      </trkpt>
      <trkpt lat="45.1833" lon="5.91414">
        <ele>1460</ele>
        <time>2012-03-31T13:09:13.000Z</time>
      </trkpt>
      <trkpt lat="45.18339" lon="5.91407">
        <ele>1457.5999755859</ele>
        <time>2012-03-31T13:09:21.000Z</time>
      </trkpt>
      <trkpt lat="45.18343" lon="5.91405">
        <ele>1456.5999755859</ele>
        <time>2012-03-31T13:09:24.000Z</time>
      </trkpt>
      <trkpt lat="45.18347" lon="5.91403">
        <ele>1455.5999755859</ele>
        <time>2012-03-31T13:09:28.000Z</time>
      </trkpt>
      <trkpt lat="45.18352" lon="5.91401">
        <ele>1455</ele>
        <time>2012-03-31T13:09:31.000Z</time>
      </trkpt>
      <trkpt lat="45.18359" lon="5.91395">
        <ele>1453</ele>
        <time>2012-03-31T13:09:37.000Z</time>
      </trkpt>
      <trkpt lat="45.18363" lon="5.91395">
        <ele>1452.1999511719</ele>
        <time>2012-03-31T13:09:40.000Z</time>
      </trkpt>
      <trkpt lat="45.1837" lon="5.91391">
        <ele>1450.5999755859</ele>
        <time>2012-03-31T13:09:46.000Z</time>
      </trkpt>
      <trkpt lat="45.18374" lon="5.91388">
        <ele>1449</ele>
        <time>2012-03-31T13:09:50.000Z</time>
      </trkpt>
      <trkpt lat="45.18378" lon="5.91385">
        <ele>1447.4000244141</ele>
        <time>2012-03-31T13:09:56.000Z</time>
      </trkpt>
      <trkpt lat="45.1839" lon="5.91385">
        <ele>1445.4000244141</ele>
        <time>2012-03-31T13:10:03.000Z</time>
      </trkpt>
      <trkpt lat="45.18398" lon="5.91385">
        <ele>1443.5999755859</ele>
        <time>2012-03-31T13:10:10.000Z</time>
      </trkpt>
      <trkpt lat="45.18419" lon="5.9138">
        <ele>1439</ele>
        <time>2012-03-31T13:10:26.000Z</time>
      </trkpt>
      <trkpt lat="45.18424" lon="5.9138">
        <ele>1437.4000244141</ele>
        <time>2012-03-31T13:10:32.000Z</time>
      </trkpt>
      <trkpt lat="45.18428" lon="5.91376">
        <ele>1436</ele>
        <time>2012-03-31T13:10:37.000Z</time>
      </trkpt>
      <trkpt lat="45.18442" lon="5.91372">
        <ele>1431.5999755859</ele>
        <time>2012-03-31T13:10:51.000Z</time>
      </trkpt>
      <trkpt lat="45.18454" lon="5.91374">
        <ele>1429.4000244141</ele>
        <time>2012-03-31T13:11:00.000Z</time>
      </trkpt>
      <trkpt lat="45.18456" lon="5.91374">
        <ele>1428.8000488281</ele>
        <time>2012-03-31T13:11:01.000Z</time>
      </trkpt>
      <trkpt lat="45.18464" lon="5.91376">
        <ele>1427.8000488281</ele>
        <time>2012-03-31T13:11:06.000Z</time>
      </trkpt>
      <trkpt lat="45.18472" lon="5.91376">
        <ele>1427</ele>
        <time>2012-03-31T13:11:11.000Z</time>
      </trkpt>
      <trkpt lat="45.18482" lon="5.9138">
        <ele>1425.4000244141</ele>
        <time>2012-03-31T13:11:18.000Z</time>
      </trkpt>
      <trkpt lat="45.18491" lon="5.91381">
        <ele>1424.4000244141</ele>
        <time>2012-03-31T13:11:22.000Z</time>
      </trkpt>
      <trkpt lat="45.18499" lon="5.91386">
        <ele>1422.8000488281</ele>
        <time>2012-03-31T13:11:27.000Z</time>
      </trkpt>
      <trkpt lat="45.18503" lon="5.91388">
        <ele>1421.5999755859</ele>
        <time>2012-03-31T13:11:35.000Z</time>
      </trkpt>
      <trkpt lat="45.18506" lon="5.91388">
        <ele>1420.4000244141</ele>
        <time>2012-03-31T13:11:39.000Z</time>
      </trkpt>
      <trkpt lat="45.18508" lon="5.91388">
        <ele>1419.5999755859</ele>
        <time>2012-03-31T13:11:41.000Z</time>
      </trkpt>
      <trkpt lat="45.18514" lon="5.91386">
        <ele>1418</ele>
        <time>2012-03-31T13:11:46.000Z</time>
      </trkpt>
      <trkpt lat="45.18516" lon="5.91383">
        <ele>1416.5999755859</ele>
        <time>2012-03-31T13:11:49.000Z</time>
      </trkpt>
      <trkpt lat="45.1852" lon="5.91381">
        <ele>1415.4000244141</ele>
        <time>2012-03-31T13:11:54.000Z</time>
      </trkpt>
      <trkpt lat="45.1852" lon="5.91376">
        <ele>1414.1999511719</ele>
        <time>2012-03-31T13:11:58.000Z</time>
      </trkpt>
      <trkpt lat="45.18523" lon="5.9137">
        <ele>1413.5999755859</ele>
        <time>2012-03-31T13:12:08.000Z</time>
      </trkpt>
      <trkpt lat="45.1853" lon="5.91366">
        <ele>1412</ele>
        <time>2012-03-31T13:12:14.000Z</time>
      </trkpt>
      <trkpt lat="45.18534" lon="5.9136">
        <ele>1411.1999511719</ele>
        <time>2012-03-31T13:12:20.000Z</time>
      </trkpt>
      <trkpt lat="45.1854" lon="5.91358">
        <ele>1410</ele>
        <time>2012-03-31T13:12:26.000Z</time>
      </trkpt>
      <trkpt lat="45.18544" lon="5.91356">
        <ele>1408.5999755859</ele>
        <time>2012-03-31T13:12:31.000Z</time>
      </trkpt>
      <trkpt lat="45.18547" lon="5.91353">
        <ele>1407.4000244141</ele>
        <time>2012-03-31T13:12:35.000Z</time>
      </trkpt>
      <trkpt lat="45.18551" lon="5.91348">
        <ele>1406.1999511719</ele>
        <time>2012-03-31T13:12:39.000Z</time>
      </trkpt>
      <trkpt lat="45.18558" lon="5.91343">
        <ele>1403.5999755859</ele>
        <time>2012-03-31T13:12:46.000Z</time>
      </trkpt>
      <trkpt lat="45.18564" lon="5.91335">
        <ele>1401.8000488281</ele>
        <time>2012-03-31T13:12:53.000Z</time>
      </trkpt>
      <trkpt lat="45.18567" lon="5.91331">
        <ele>1401.4000244141</ele>
        <time>2012-03-31T13:12:55.000Z</time>
      </trkpt>
      <trkpt lat="45.18577" lon="5.91325">
        <ele>1399.4000244141</ele>
        <time>2012-03-31T13:13:02.000Z</time>
      </trkpt>
      <trkpt lat="45.18583" lon="5.91321">
        <ele>1398</ele>
        <time>2012-03-31T13:13:08.000Z</time>
      </trkpt>
      <trkpt lat="45.18588" lon="5.91314">
        <ele>1396.8000488281</ele>
        <time>2012-03-31T13:13:14.000Z</time>
      </trkpt>
      <trkpt lat="45.18596" lon="5.91309">
        <ele>1395.1999511719</ele>
        <time>2012-03-31T13:13:22.000Z</time>
      </trkpt>
      <trkpt lat="45.18602" lon="5.91305">
        <ele>1394.8000488281</ele>
        <time>2012-03-31T13:13:27.000Z</time>
      </trkpt>
      <trkpt lat="45.18604" lon="5.91304">
        <ele>1394.5999755859</ele>
        <time>2012-03-31T13:13:29.000Z</time>
      </trkpt>
      <trkpt lat="45.18615" lon="5.91305">
        <ele>1393.5999755859</ele>
        <time>2012-03-31T13:13:36.000Z</time>
      </trkpt>
      <trkpt lat="45.18624" lon="5.91307">
        <ele>1392.5999755859</ele>
        <time>2012-03-31T13:13:42.000Z</time>
      </trkpt>
      <trkpt lat="45.18628" lon="5.91308">
        <ele>1392.1999511719</ele>
        <time>2012-03-31T13:13:45.000Z</time>
      </trkpt>
      <trkpt lat="45.18635" lon="5.91306">
        <ele>1391.1999511719</ele>
        <time>2012-03-31T13:13:49.000Z</time>
      </trkpt>
      <trkpt lat="45.18641" lon="5.91305">
        <ele>1390.4000244141</ele>
        <time>2012-03-31T13:13:53.000Z</time>
      </trkpt>
      <trkpt lat="45.18651" lon="5.91305">
        <ele>1388.8000488281</ele>
        <time>2012-03-31T13:14:00.000Z</time>
      </trkpt>
      <trkpt lat="45.18658" lon="5.91304">
        <ele>1386</ele>
        <time>2012-03-31T13:14:09.000Z</time>
      </trkpt>
      <trkpt lat="45.18664" lon="5.91306">
        <ele>1385.1999511719</ele>
        <time>2012-03-31T13:14:13.000Z</time>
      </trkpt>
      <trkpt lat="45.18667" lon="5.91307">
        <ele>1384.5999755859</ele>
        <time>2012-03-31T13:14:16.000Z</time>
      </trkpt>
      <trkpt lat="45.18671" lon="5.91303">
        <ele>1383</ele>
        <time>2012-03-31T13:14:23.000Z</time>
      </trkpt>
      <trkpt lat="45.18671" lon="5.91299">
        <ele>1382.5999755859</ele>
        <time>2012-03-31T13:14:26.000Z</time>
      </trkpt>
      <trkpt lat="45.18669" lon="5.91284">
        <ele>1381.5999755859</ele>
        <time>2012-03-31T13:14:33.000Z</time>
      </trkpt>
      <trkpt lat="45.18666" lon="5.91272">
        <ele>1381.4000244141</ele>
        <time>2012-03-31T13:14:40.000Z</time>
      </trkpt>
      <trkpt lat="45.18659" lon="5.91259">
        <ele>1381.1999511719</ele>
        <time>2012-03-31T13:14:48.000Z</time>
      </trkpt>
      <trkpt lat="45.18651" lon="5.91247">
        <ele>1380.8000488281</ele>
        <time>2012-03-31T13:14:58.000Z</time>
      </trkpt>
      <trkpt lat="45.18649" lon="5.91244">
        <ele>1380.4000244141</ele>
        <time>2012-03-31T13:15:01.000Z</time>
      </trkpt>
      <trkpt lat="45.18638" lon="5.91236">
        <ele>1379.4000244141</ele>
        <time>2012-03-31T13:15:09.000Z</time>
      </trkpt>
      <trkpt lat="45.18633" lon="5.91229">
        <ele>1378.5999755859</ele>
        <time>2012-03-31T13:15:16.000Z</time>
      </trkpt>
      <trkpt lat="45.18625" lon="5.91218">
        <ele>1377.8000488281</ele>
        <time>2012-03-31T13:15:24.000Z</time>
      </trkpt>
      <trkpt lat="45.18621" lon="5.91212">
        <ele>1377</ele>
        <time>2012-03-31T13:15:29.000Z</time>
      </trkpt>
      <trkpt lat="45.1862" lon="5.91211">
        <ele>1376.8000488281</ele>
        <time>2012-03-31T13:15:32.000Z</time>
      </trkpt>
      <trkpt lat="45.18615" lon="5.91211">
        <ele>1376.4000244141</ele>
        <time>2012-03-31T13:15:54.000Z</time>
      </trkpt>
      <trkpt lat="45.18608" lon="5.91201">
        <ele>1375.4000244141</ele>
        <time>2012-03-31T13:16:00.000Z</time>
      </trkpt>
      <trkpt lat="45.18601" lon="5.912">
        <ele>1375.1999511719</ele>
        <time>2012-03-31T13:16:04.000Z</time>
      </trkpt>
      <trkpt lat="45.18595" lon="5.91194">
        <ele>1374.5999755859</ele>
        <time>2012-03-31T13:16:08.000Z</time>
      </trkpt>
      <trkpt lat="45.18583" lon="5.91187">
        <ele>1373.4000244141</ele>
        <time>2012-03-31T13:16:16.000Z</time>
      </trkpt>
      <trkpt lat="45.18578" lon="5.91186">
        <ele>1372.8000488281</ele>
        <time>2012-03-31T13:16:20.000Z</time>
      </trkpt>
      <trkpt lat="45.18574" lon="5.91185">
        <ele>1372.5999755859</ele>
        <time>2012-03-31T13:16:22.000Z</time>
      </trkpt>
      <trkpt lat="45.18569" lon="5.91185">
        <ele>1371.8000488281</ele>
        <time>2012-03-31T13:16:27.000Z</time>
      </trkpt>
      <trkpt lat="45.18561" lon="5.91177">
        <ele>1371.1999511719</ele>
        <time>2012-03-31T13:16:32.000Z</time>
      </trkpt>
      <trkpt lat="45.1855" lon="5.91162">
        <ele>1370.8000488281</ele>
        <time>2012-03-31T13:16:37.000Z</time>
      </trkpt>
      <trkpt lat="45.18537" lon="5.91159">
        <ele>1369.5999755859</ele>
        <time>2012-03-31T13:16:44.000Z</time>
      </trkpt>
      <trkpt lat="45.18529" lon="5.91157">
        <ele>1369.1999511719</ele>
        <time>2012-03-31T13:16:49.000Z</time>
      </trkpt>
      <trkpt lat="45.18519" lon="5.91156">
        <ele>1368</ele>
        <time>2012-03-31T13:16:57.000Z</time>
      </trkpt>
      <trkpt lat="45.18517" lon="5.91156">
        <ele>1367.8000488281</ele>
        <time>2012-03-31T13:16:58.000Z</time>
      </trkpt>
      <trkpt lat="45.18506" lon="5.91156">
        <ele>1367.1999511719</ele>
        <time>2012-03-31T13:17:05.000Z</time>
      </trkpt>
      <trkpt lat="45.18494" lon="5.91158">
        <ele>1366.1999511719</ele>
        <time>2012-03-31T13:17:13.000Z</time>
      </trkpt>
      <trkpt lat="45.1848" lon="5.91155">
        <ele>1365.4000244141</ele>
        <time>2012-03-31T13:17:20.000Z</time>
      </trkpt>
      <trkpt lat="45.18468" lon="5.91154">
        <ele>1364.5999755859</ele>
        <time>2012-03-31T13:17:27.000Z</time>
      </trkpt>
      <trkpt lat="45.18463" lon="5.91159">
        <ele>1363.8000488281</ele>
        <time>2012-03-31T13:17:34.000Z</time>
      </trkpt>
      <trkpt lat="45.18456" lon="5.91158">
        <ele>1362.8000488281</ele>
        <time>2012-03-31T13:17:41.000Z</time>
      </trkpt>
      <trkpt lat="45.1845" lon="5.91159">
        <ele>1361.5999755859</ele>
        <time>2012-03-31T13:17:47.000Z</time>
      </trkpt>
      <trkpt lat="45.18449" lon="5.91162">
        <ele>1361.4000244141</ele>
        <time>2012-03-31T13:17:49.000Z</time>
      </trkpt>
      <trkpt lat="45.1845" lon="5.91162">
        <ele>1360.8000488281</ele>
        <time>2012-03-31T13:17:54.000Z</time>
      </trkpt>
      <trkpt lat="45.18448" lon="5.91159">
        <ele>1360.8000488281</ele>
        <time>2012-03-31T13:17:56.000Z</time>
      </trkpt>
      <trkpt lat="45.18437" lon="5.91152">
        <ele>1360.4000244141</ele>
        <time>2012-03-31T13:18:03.000Z</time>
      </trkpt>
      <trkpt lat="45.1842" lon="5.91142">
        <ele>1359.5999755859</ele>
        <time>2012-03-31T13:18:10.000Z</time>
      </trkpt>
      <trkpt lat="45.18411" lon="5.91139">
        <ele>1358.8000488281</ele>
        <time>2012-03-31T13:18:16.000Z</time>
      </trkpt>
      <trkpt lat="45.18405" lon="5.91136">
        <ele>1358.1999511719</ele>
        <time>2012-03-31T13:18:23.000Z</time>
      </trkpt>
      <trkpt lat="45.18391" lon="5.91128">
        <ele>1357.4000244141</ele>
        <time>2012-03-31T13:18:29.000Z</time>
      </trkpt>
      <trkpt lat="45.18381" lon="5.91119">
        <ele>1357</ele>
        <time>2012-03-31T13:18:34.000Z</time>
      </trkpt>
      <trkpt lat="45.18371" lon="5.91115">
        <ele>1356.4000244141</ele>
        <time>2012-03-31T13:18:40.000Z</time>
      </trkpt>
      <trkpt lat="45.18368" lon="5.91116">
        <ele>1355.5999755859</ele>
        <time>2012-03-31T13:18:46.000Z</time>
      </trkpt>
      <trkpt lat="45.1836" lon="5.91114">
        <ele>1355</ele>
        <time>2012-03-31T13:18:53.000Z</time>
      </trkpt>
      <trkpt lat="45.18356" lon="5.91113">
        <ele>1354.8000488281</ele>
        <time>2012-03-31T13:18:56.000Z</time>
      </trkpt>
      <trkpt lat="45.18349" lon="5.9111">
        <ele>1354.1999511719</ele>
        <time>2012-03-31T13:19:03.000Z</time>
      </trkpt>
      <trkpt lat="45.18343" lon="5.91109">
        <ele>1353.1999511719</ele>
        <time>2012-03-31T13:19:09.000Z</time>
      </trkpt>
      <trkpt lat="45.18343" lon="5.9111">
        <ele>1353</ele>
        <time>2012-03-31T13:19:10.000Z</time>
      </trkpt>
      <trkpt lat="45.18333" lon="5.91105">
        <ele>1352</ele>
        <time>2012-03-31T13:19:18.000Z</time>
      </trkpt>
      <trkpt lat="45.18331" lon="5.91105">
        <ele>1351.8000488281</ele>
        <time>2012-03-31T13:19:20.000Z</time>
      </trkpt>
      <trkpt lat="45.18326" lon="5.91105">
        <ele>1351</ele>
        <time>2012-03-31T13:19:25.000Z</time>
      </trkpt>
      <trkpt lat="45.18317" lon="5.91095">
        <ele>1350.4000244141</ele>
        <time>2012-03-31T13:19:31.000Z</time>
      </trkpt>
      <trkpt lat="45.18309" lon="5.91092">
        <ele>1349.5999755859</ele>
        <time>2012-03-31T13:19:37.000Z</time>
      </trkpt>
      <trkpt lat="45.18298" lon="5.91085">
        <ele>1348.8000488281</ele>
        <time>2012-03-31T13:19:43.000Z</time>
      </trkpt>
      <trkpt lat="45.18293" lon="5.91078">
        <ele>1348.4000244141</ele>
        <time>2012-03-31T13:19:47.000Z</time>
      </trkpt>
      <trkpt lat="45.18282" lon="5.9106">
        <ele>1348</ele>
        <time>2012-03-31T13:19:53.000Z</time>
      </trkpt>
      <trkpt lat="45.18277" lon="5.9106">
        <ele>1347.5999755859</ele>
        <time>2012-03-31T13:19:58.000Z</time>
      </trkpt>
      <trkpt lat="45.18273" lon="5.91059">
        <ele>1347.1999511719</ele>
        <time>2012-03-31T13:20:01.000Z</time>
      </trkpt>
      <trkpt lat="45.1826" lon="5.91049">
        <ele>1346</ele>
        <time>2012-03-31T13:20:09.000Z</time>
      </trkpt>
      <trkpt lat="45.1826" lon="5.91044">
        <ele>1345.4000244141</ele>
        <time>2012-03-31T13:20:15.000Z</time>
      </trkpt>
      <trkpt lat="45.18257" lon="5.91039">
        <ele>1344.5999755859</ele>
        <time>2012-03-31T13:20:19.000Z</time>
      </trkpt>
      <trkpt lat="45.1825" lon="5.9103">
        <ele>1343.8000488281</ele>
        <time>2012-03-31T13:20:26.000Z</time>
      </trkpt>
      <trkpt lat="45.18249" lon="5.91029">
        <ele>1343.5999755859</ele>
        <time>2012-03-31T13:20:28.000Z</time>
      </trkpt>
      <trkpt lat="45.18244" lon="5.91023">
        <ele>1342.5999755859</ele>
        <time>2012-03-31T13:20:35.000Z</time>
      </trkpt>
      <trkpt lat="45.18233" lon="5.91018">
        <ele>1341.8000488281</ele>
        <time>2012-03-31T13:20:41.000Z</time>
      </trkpt>
      <trkpt lat="45.18223" lon="5.91009">
        <ele>1341.1999511719</ele>
        <time>2012-03-31T13:20:46.000Z</time>
      </trkpt>
      <trkpt lat="45.1821" lon="5.90994">
        <ele>1340.5999755859</ele>
        <time>2012-03-31T13:20:53.000Z</time>
      </trkpt>
      <trkpt lat="45.18201" lon="5.90986">
        <ele>1339.5999755859</ele>
        <time>2012-03-31T13:21:00.000Z</time>
      </trkpt>
      <trkpt lat="45.18195" lon="5.90981">
        <ele>1339.1999511719</ele>
        <time>2012-03-31T13:21:04.000Z</time>
      </trkpt>
      <trkpt lat="45.18192" lon="5.90982">
        <ele>1338.8000488281</ele>
        <time>2012-03-31T13:21:07.000Z</time>
      </trkpt>
      <trkpt lat="45.18189" lon="5.90979">
        <ele>1338.5999755859</ele>
        <time>2012-03-31T13:21:11.000Z</time>
      </trkpt>
      <trkpt lat="45.18181" lon="5.90977">
        <ele>1338.1999511719</ele>
        <time>2012-03-31T13:21:16.000Z</time>
      </trkpt>
      <trkpt lat="45.18175" lon="5.90975">
        <ele>1337.8000488281</ele>
        <time>2012-03-31T13:21:20.000Z</time>
      </trkpt>
      <trkpt lat="45.18164" lon="5.9097">
        <ele>1336.8000488281</ele>
        <time>2012-03-31T13:21:27.000Z</time>
      </trkpt>
      <trkpt lat="45.1815" lon="5.90957">
        <ele>1336.1999511719</ele>
        <time>2012-03-31T13:21:33.000Z</time>
      </trkpt>
      <trkpt lat="45.18139" lon="5.90951">
        <ele>1336</ele>
        <time>2012-03-31T13:21:37.000Z</time>
      </trkpt>
      <trkpt lat="45.18137" lon="5.90953">
        <ele>1335.4000244141</ele>
        <time>2012-03-31T13:21:42.000Z</time>
      </trkpt>
      <trkpt lat="45.18133" lon="5.90956">
        <ele>1335.1999511719</ele>
        <time>2012-03-31T13:21:47.000Z</time>
      </trkpt>
      <trkpt lat="45.18132" lon="5.90957">
        <ele>1335.1999511719</ele>
        <time>2012-03-31T13:21:48.000Z</time>
      </trkpt>
      <trkpt lat="45.18129" lon="5.90956">
        <ele>1334.8000488281</ele>
        <time>2012-03-31T13:21:51.000Z</time>
      </trkpt>
      <trkpt lat="45.1812" lon="5.90955">
        <ele>1334.1999511719</ele>
        <time>2012-03-31T13:21:57.000Z</time>
      </trkpt>
      <trkpt lat="45.18117" lon="5.90953">
        <ele>1334</ele>
        <time>2012-03-31T13:22:04.000Z</time>
      </trkpt>
      <trkpt lat="45.18113" lon="5.90951">
        <ele>1333.1999511719</ele>
        <time>2012-03-31T13:22:10.000Z</time>
      </trkpt>
      <trkpt lat="45.18109" lon="5.90956">
        <ele>1333</ele>
        <time>2012-03-31T13:22:14.000Z</time>
      </trkpt>
      <trkpt lat="45.1811" lon="5.90958">
        <ele>1332.8000488281</ele>
        <time>2012-03-31T13:22:17.000Z</time>
      </trkpt>
      <trkpt lat="45.18116" lon="5.90961">
        <ele>1332.4000244141</ele>
        <time>2012-03-31T13:22:45.000Z</time>
      </trkpt>
      <trkpt lat="45.18114" lon="5.90956">
        <ele>1333</ele>
        <time>2012-03-31T13:22:48.000Z</time>
      </trkpt>
    </trkseg>
  </trk>
</gpx>